<?xml version="1.0" encoding="UTF-8" standalone="no" ?>
<gpx xmlns="http://www.topografix.com/GPX/1/1" xmlns:xsi="http://www.w3.org/2001/XMLSchema-instance" xsi:schemaLocation="http://www.topografix.com/GPX/1/1 http://www.topografix.com/GPX/1/1/gpx.xsd" version="1.1" creator="VisuGPX - https://www.visugpx.com">
  <metadata>
    <name>Vers les monts du Lyonnais</name>
  </metadata>
  <trk>
    <name><![CDATA[15446223-Vers les monts du Lyonnais]]></name>
    <extensions>
      <line xmlns="http://www.topografix.com/GPX/gpx_style/0/2">
        <color>0000FF</color>
        <width>4</width>
      </line>
    </extensions>
    <trkseg>
      <trkpt lat="45.98204" lon="4.50871">
        <ele>311</ele>
        <time>2022-08-27T21:38:33Z</time>
      </trkpt>
      <trkpt lat="45.98185" lon="4.5087">
        <ele>311</ele>
        <time>2022-08-27T21:38:36Z</time>
      </trkpt>
      <trkpt lat="45.98158" lon="4.50865">
        <ele>310</ele>
        <time>2022-08-27T21:38:41Z</time>
      </trkpt>
      <trkpt lat="45.98097" lon="4.50813">
        <ele>309</ele>
        <time>2022-08-27T21:38:54Z</time>
      </trkpt>
      <trkpt lat="45.98074" lon="4.50798">
        <ele>310</ele>
        <time>2022-08-27T21:38:58Z</time>
      </trkpt>
      <trkpt lat="45.98055" lon="4.50778">
        <ele>312</ele>
        <time>2022-08-27T21:39:03Z</time>
      </trkpt>
      <trkpt lat="45.98034" lon="4.50744">
        <ele>313</ele>
        <time>2022-08-27T21:39:08Z</time>
      </trkpt>
      <trkpt lat="45.98007" lon="4.50696">
        <ele>312</ele>
        <time>2022-08-27T21:39:16Z</time>
      </trkpt>
      <trkpt lat="45.97989" lon="4.50675">
        <ele>309</ele>
        <time>2022-08-27T21:39:20Z</time>
      </trkpt>
      <trkpt lat="45.97973" lon="4.50666">
        <ele>308</ele>
        <time>2022-08-27T21:39:23Z</time>
      </trkpt>
      <trkpt lat="45.97958" lon="4.5066">
        <ele>308</ele>
        <time>2022-08-27T21:39:26Z</time>
      </trkpt>
      <trkpt lat="45.97938" lon="4.50658">
        <ele>308</ele>
        <time>2022-08-27T21:39:29Z</time>
      </trkpt>
      <trkpt lat="45.97918" lon="4.50661">
        <ele>308</ele>
        <time>2022-08-27T21:39:33Z</time>
      </trkpt>
      <trkpt lat="45.97901" lon="4.50672">
        <ele>308</ele>
        <time>2022-08-27T21:39:36Z</time>
      </trkpt>
      <trkpt lat="45.97883" lon="4.50688">
        <ele>309</ele>
        <time>2022-08-27T21:39:40Z</time>
      </trkpt>
      <trkpt lat="45.97868" lon="4.50709">
        <ele>310</ele>
        <time>2022-08-27T21:39:44Z</time>
      </trkpt>
      <trkpt lat="45.97848" lon="4.50747">
        <ele>311</ele>
        <time>2022-08-27T21:39:50Z</time>
      </trkpt>
      <trkpt lat="45.97831" lon="4.50764">
        <ele>312</ele>
        <time>2022-08-27T21:39:53Z</time>
      </trkpt>
      <trkpt lat="45.9778" lon="4.50798">
        <ele>312</ele>
        <time>2022-08-27T21:40:03Z</time>
      </trkpt>
      <trkpt lat="45.97762" lon="4.50806">
        <ele>312</ele>
        <time>2022-08-27T21:40:07Z</time>
      </trkpt>
      <trkpt lat="45.97746" lon="4.50809">
        <ele>311</ele>
        <time>2022-08-27T21:40:09Z</time>
      </trkpt>
      <trkpt lat="45.97716" lon="4.50806">
        <ele>311</ele>
        <time>2022-08-27T21:40:15Z</time>
      </trkpt>
      <trkpt lat="45.97686" lon="4.50797">
        <ele>309</ele>
        <time>2022-08-27T21:40:20Z</time>
      </trkpt>
      <trkpt lat="45.9765" lon="4.50792">
        <ele>308</ele>
        <time>2022-08-27T21:40:27Z</time>
      </trkpt>
      <trkpt lat="45.97629" lon="4.50795">
        <ele>307</ele>
        <time>2022-08-27T21:40:30Z</time>
      </trkpt>
      <trkpt lat="45.97605" lon="4.50802">
        <ele>308</ele>
        <time>2022-08-27T21:40:35Z</time>
      </trkpt>
      <trkpt lat="45.97522" lon="4.50851">
        <ele>310</ele>
        <time>2022-08-27T21:40:51Z</time>
      </trkpt>
      <trkpt lat="45.97466" lon="4.50872">
        <ele>309</ele>
        <time>2022-08-27T21:41:01Z</time>
      </trkpt>
      <trkpt lat="45.97363" lon="4.50922">
        <ele>309</ele>
        <time>2022-08-27T21:41:20Z</time>
      </trkpt>
      <trkpt lat="45.97344" lon="4.5093">
        <ele>308</ele>
        <time>2022-08-27T21:41:24Z</time>
      </trkpt>
      <trkpt lat="45.97326" lon="4.50936">
        <ele>308</ele>
        <time>2022-08-27T21:41:27Z</time>
      </trkpt>
      <trkpt lat="45.97294" lon="4.50939">
        <ele>309</ele>
        <time>2022-08-27T21:41:33Z</time>
      </trkpt>
      <trkpt lat="45.97277" lon="4.50935">
        <ele>309</ele>
        <time>2022-08-27T21:41:36Z</time>
      </trkpt>
      <trkpt lat="45.97246" lon="4.5092">
        <ele>309</ele>
        <time>2022-08-27T21:41:42Z</time>
      </trkpt>
      <trkpt lat="45.97214" lon="4.50895">
        <ele>308</ele>
        <time>2022-08-27T21:41:48Z</time>
      </trkpt>
      <trkpt lat="45.97192" lon="4.50882">
        <ele>308</ele>
        <time>2022-08-27T21:41:53Z</time>
      </trkpt>
      <trkpt lat="45.9717" lon="4.50875">
        <ele>307</ele>
        <time>2022-08-27T21:41:57Z</time>
      </trkpt>
      <trkpt lat="45.97148" lon="4.50875">
        <ele>307</ele>
        <time>2022-08-27T21:42:00Z</time>
      </trkpt>
      <trkpt lat="45.97127" lon="4.50878">
        <ele>307</ele>
        <time>2022-08-27T21:42:04Z</time>
      </trkpt>
      <trkpt lat="45.97085" lon="4.50893">
        <ele>308</ele>
        <time>2022-08-27T21:42:12Z</time>
      </trkpt>
      <trkpt lat="45.96995" lon="4.50931">
        <ele>306</ele>
        <time>2022-08-27T21:42:29Z</time>
      </trkpt>
      <trkpt lat="45.96961" lon="4.50943">
        <ele>307</ele>
        <time>2022-08-27T21:42:35Z</time>
      </trkpt>
      <trkpt lat="45.96941" lon="4.50946">
        <ele>307</ele>
        <time>2022-08-27T21:42:38Z</time>
      </trkpt>
      <trkpt lat="45.96914" lon="4.50945">
        <ele>305</ele>
        <time>2022-08-27T21:42:43Z</time>
      </trkpt>
      <trkpt lat="45.96863" lon="4.50937">
        <ele>304</ele>
        <time>2022-08-27T21:42:52Z</time>
      </trkpt>
      <trkpt lat="45.96839" lon="4.50939">
        <ele>304</ele>
        <time>2022-08-27T21:42:57Z</time>
      </trkpt>
      <trkpt lat="45.96766" lon="4.50963">
        <ele>304</ele>
        <time>2022-08-27T21:43:10Z</time>
      </trkpt>
      <trkpt lat="45.96745" lon="4.50967">
        <ele>303</ele>
        <time>2022-08-27T21:43:14Z</time>
      </trkpt>
      <trkpt lat="45.96672" lon="4.50973">
        <ele>300</ele>
        <time>2022-08-27T21:43:27Z</time>
      </trkpt>
      <trkpt lat="45.96647" lon="4.5098">
        <ele>299</ele>
        <time>2022-08-27T21:43:31Z</time>
      </trkpt>
      <trkpt lat="45.96625" lon="4.50994">
        <ele>299</ele>
        <time>2022-08-27T21:43:36Z</time>
      </trkpt>
      <trkpt lat="45.96565" lon="4.51057">
        <ele>301</ele>
        <time>2022-08-27T21:43:49Z</time>
      </trkpt>
      <trkpt lat="45.96518" lon="4.51112">
        <ele>299</ele>
        <time>2022-08-27T21:44:00Z</time>
      </trkpt>
      <trkpt lat="45.9644" lon="4.51189">
        <ele>296</ele>
        <time>2022-08-27T21:44:16Z</time>
      </trkpt>
      <trkpt lat="45.96328" lon="4.51287">
        <ele>298</ele>
        <time>2022-08-27T21:44:40Z</time>
      </trkpt>
      <trkpt lat="45.96298" lon="4.51318">
        <ele>297</ele>
        <time>2022-08-27T21:44:46Z</time>
      </trkpt>
      <trkpt lat="45.96272" lon="4.51349">
        <ele>296</ele>
        <time>2022-08-27T21:44:52Z</time>
      </trkpt>
      <trkpt lat="45.9625" lon="4.51393">
        <ele>295</ele>
        <time>2022-08-27T21:44:59Z</time>
      </trkpt>
      <trkpt lat="45.96171" lon="4.51573">
        <ele>293</ele>
        <time>2022-08-27T21:45:25Z</time>
      </trkpt>
      <trkpt lat="45.96138" lon="4.5164">
        <ele>292</ele>
        <time>2022-08-27T21:45:35Z</time>
      </trkpt>
      <trkpt lat="45.96112" lon="4.51679">
        <ele>292</ele>
        <time>2022-08-27T21:45:42Z</time>
      </trkpt>
      <trkpt lat="45.96036" lon="4.5174">
        <ele>291</ele>
        <time>2022-08-27T21:45:58Z</time>
      </trkpt>
      <trkpt lat="45.95972" lon="4.51802">
        <ele>291</ele>
        <time>2022-08-27T21:46:11Z</time>
      </trkpt>
      <trkpt lat="45.95915" lon="4.51872">
        <ele>288</ele>
        <time>2022-08-27T21:46:25Z</time>
      </trkpt>
      <trkpt lat="45.95878" lon="4.51925">
        <ele>287</ele>
        <time>2022-08-27T21:46:34Z</time>
      </trkpt>
      <trkpt lat="45.95767" lon="4.52138">
        <ele>286</ele>
        <time>2022-08-27T21:47:07Z</time>
      </trkpt>
      <trkpt lat="45.95722" lon="4.5222">
        <ele>287</ele>
        <time>2022-08-27T21:47:20Z</time>
      </trkpt>
      <trkpt lat="45.95653" lon="4.52323">
        <ele>286</ele>
        <time>2022-08-27T21:47:38Z</time>
      </trkpt>
      <trkpt lat="45.95611" lon="4.52364">
        <ele>287</ele>
        <time>2022-08-27T21:47:47Z</time>
      </trkpt>
      <trkpt lat="45.95505" lon="4.52457">
        <ele>290</ele>
        <time>2022-08-27T21:48:09Z</time>
      </trkpt>
      <trkpt lat="45.95303" lon="4.52667">
        <ele>288</ele>
        <time>2022-08-27T21:48:53Z</time>
      </trkpt>
      <trkpt lat="45.95245" lon="4.52719">
        <ele>286</ele>
        <time>2022-08-27T21:49:05Z</time>
      </trkpt>
      <trkpt lat="45.95181" lon="4.52772">
        <ele>287</ele>
        <time>2022-08-27T21:49:18Z</time>
      </trkpt>
      <trkpt lat="45.95049" lon="4.529">
        <ele>286</ele>
        <time>2022-08-27T21:49:47Z</time>
      </trkpt>
      <trkpt lat="45.94976" lon="4.53031">
        <ele>281</ele>
        <time>2022-08-27T21:50:07Z</time>
      </trkpt>
      <trkpt lat="45.94895" lon="4.53116">
        <ele>286</ele>
        <time>2022-08-27T21:50:25Z</time>
      </trkpt>
      <trkpt lat="45.9481" lon="4.53197">
        <ele>280</ele>
        <time>2022-08-27T21:50:43Z</time>
      </trkpt>
      <trkpt lat="45.94765" lon="4.53247">
        <ele>278</ele>
        <time>2022-08-27T21:50:54Z</time>
      </trkpt>
      <trkpt lat="45.94744" lon="4.53276">
        <ele>279</ele>
        <time>2022-08-27T21:50:59Z</time>
      </trkpt>
      <trkpt lat="45.94706" lon="4.53347">
        <ele>282</ele>
        <time>2022-08-27T21:51:10Z</time>
      </trkpt>
      <trkpt lat="45.94688" lon="4.53398">
        <ele>282</ele>
        <time>2022-08-27T21:51:17Z</time>
      </trkpt>
      <trkpt lat="45.94653" lon="4.53546">
        <ele>282</ele>
        <time>2022-08-27T21:51:36Z</time>
      </trkpt>
      <trkpt lat="45.94639" lon="4.53589">
        <ele>282</ele>
        <time>2022-08-27T21:51:42Z</time>
      </trkpt>
      <trkpt lat="45.94615" lon="4.53646">
        <ele>281</ele>
        <time>2022-08-27T21:51:50Z</time>
      </trkpt>
      <trkpt lat="45.94563" lon="4.53732">
        <ele>282</ele>
        <time>2022-08-27T21:52:04Z</time>
      </trkpt>
      <trkpt lat="45.94544" lon="4.53745">
        <ele>282</ele>
        <time>2022-08-27T21:52:08Z</time>
      </trkpt>
      <trkpt lat="45.94521" lon="4.53753">
        <ele>281</ele>
        <time>2022-08-27T21:52:12Z</time>
      </trkpt>
      <trkpt lat="45.94497" lon="4.53769">
        <ele>281</ele>
        <time>2022-08-27T21:52:17Z</time>
      </trkpt>
      <trkpt lat="45.94472" lon="4.53795">
        <ele>281</ele>
        <time>2022-08-27T21:52:23Z</time>
      </trkpt>
      <trkpt lat="45.94408" lon="4.53885">
        <ele>285</ele>
        <time>2022-08-27T21:52:38Z</time>
      </trkpt>
      <trkpt lat="45.9439" lon="4.53907">
        <ele>285</ele>
        <time>2022-08-27T21:52:43Z</time>
      </trkpt>
      <trkpt lat="45.94369" lon="4.53927">
        <ele>285</ele>
        <time>2022-08-27T21:52:47Z</time>
      </trkpt>
      <trkpt lat="45.94328" lon="4.5395">
        <ele>283</ele>
        <time>2022-08-27T21:52:55Z</time>
      </trkpt>
      <trkpt lat="45.94299" lon="4.53964">
        <ele>285</ele>
        <time>2022-08-27T21:53:00Z</time>
      </trkpt>
      <trkpt lat="45.94267" lon="4.53967">
        <ele>286</ele>
        <time>2022-08-27T21:53:06Z</time>
      </trkpt>
      <trkpt lat="45.94232" lon="4.53961">
        <ele>283</ele>
        <time>2022-08-27T21:53:12Z</time>
      </trkpt>
      <trkpt lat="45.94221" lon="4.53961">
        <ele>282</ele>
        <time>2022-08-27T21:53:14Z</time>
      </trkpt>
      <trkpt lat="45.94202" lon="4.53966">
        <ele>281</ele>
        <time>2022-08-27T21:53:18Z</time>
      </trkpt>
      <trkpt lat="45.94187" lon="4.53976">
        <ele>281</ele>
        <time>2022-08-27T21:53:21Z</time>
      </trkpt>
      <trkpt lat="45.94167" lon="4.5401">
        <ele>282</ele>
        <time>2022-08-27T21:53:26Z</time>
      </trkpt>
      <trkpt lat="45.94105" lon="4.54159">
        <ele>277</ele>
        <time>2022-08-27T21:53:48Z</time>
      </trkpt>
      <trkpt lat="45.94093" lon="4.54194">
        <ele>275</ele>
        <time>2022-08-27T21:53:53Z</time>
      </trkpt>
      <trkpt lat="45.94071" lon="4.54287">
        <ele>275</ele>
        <time>2022-08-27T21:54:05Z</time>
      </trkpt>
      <trkpt lat="45.94058" lon="4.54333">
        <ele>275</ele>
        <time>2022-08-27T21:54:11Z</time>
      </trkpt>
      <trkpt lat="45.94053" lon="4.54347">
        <ele>274</ele>
        <time>2022-08-27T21:54:13Z</time>
      </trkpt>
      <trkpt lat="45.94047" lon="4.54357">
        <ele>273</ele>
        <time>2022-08-27T21:54:14Z</time>
      </trkpt>
      <trkpt lat="45.94033" lon="4.54374">
        <ele>272</ele>
        <time>2022-08-27T21:54:18Z</time>
      </trkpt>
      <trkpt lat="45.94016" lon="4.54386">
        <ele>271</ele>
        <time>2022-08-27T21:54:21Z</time>
      </trkpt>
      <trkpt lat="45.94007" lon="4.54389">
        <ele>270</ele>
        <time>2022-08-27T21:54:23Z</time>
      </trkpt>
      <trkpt lat="45.93997" lon="4.54391">
        <ele>270</ele>
        <time>2022-08-27T21:54:25Z</time>
      </trkpt>
      <trkpt lat="45.93944" lon="4.54389">
        <ele>269</ele>
        <time>2022-08-27T21:54:34Z</time>
      </trkpt>
      <trkpt lat="45.93934" lon="4.54392">
        <ele>268</ele>
        <time>2022-08-27T21:54:36Z</time>
      </trkpt>
      <trkpt lat="45.93917" lon="4.544">
        <ele>268</ele>
        <time>2022-08-27T21:54:39Z</time>
      </trkpt>
      <trkpt lat="45.93902" lon="4.54414">
        <ele>267</ele>
        <time>2022-08-27T21:54:42Z</time>
      </trkpt>
      <trkpt lat="45.93822" lon="4.54497">
        <ele>269</ele>
        <time>2022-08-27T21:55:00Z</time>
      </trkpt>
      <trkpt lat="45.93785" lon="4.54529">
        <ele>271</ele>
        <time>2022-08-27T21:55:07Z</time>
      </trkpt>
      <trkpt lat="45.93755" lon="4.54552">
        <ele>271</ele>
        <time>2022-08-27T21:55:13Z</time>
      </trkpt>
      <trkpt lat="45.93551" lon="4.54741">
        <ele>272</ele>
        <time>2022-08-27T21:55:57Z</time>
      </trkpt>
      <trkpt lat="45.93523" lon="4.54777">
        <ele>272</ele>
        <time>2022-08-27T21:56:03Z</time>
      </trkpt>
      <trkpt lat="45.93413" lon="4.54947">
        <ele>272</ele>
        <time>2022-08-27T21:56:32Z</time>
      </trkpt>
      <trkpt lat="45.93403" lon="4.5496">
        <ele>273</ele>
        <time>2022-08-27T21:56:34Z</time>
      </trkpt>
      <trkpt lat="45.93304" lon="4.55064">
        <ele>271</ele>
        <time>2022-08-27T21:56:56Z</time>
      </trkpt>
      <trkpt lat="45.9326" lon="4.55101">
        <ele>269</ele>
        <time>2022-08-27T21:57:05Z</time>
      </trkpt>
      <trkpt lat="45.93253" lon="4.5511">
        <ele>269</ele>
        <time>2022-08-27T21:57:07Z</time>
      </trkpt>
      <trkpt lat="45.93243" lon="4.5513">
        <ele>269</ele>
        <time>2022-08-27T21:57:10Z</time>
      </trkpt>
      <trkpt lat="45.93194" lon="4.55184">
        <ele>267</ele>
        <time>2022-08-27T21:57:21Z</time>
      </trkpt>
      <trkpt lat="45.93178" lon="4.55195">
        <ele>266</ele>
        <time>2022-08-27T21:57:24Z</time>
      </trkpt>
      <trkpt lat="45.93143" lon="4.55241">
        <ele>266</ele>
        <time>2022-08-27T21:57:33Z</time>
      </trkpt>
      <trkpt lat="45.93124" lon="4.5527">
        <ele>266</ele>
        <time>2022-08-27T21:57:38Z</time>
      </trkpt>
      <trkpt lat="45.93065" lon="4.55342">
        <ele>267</ele>
        <time>2022-08-27T21:57:51Z</time>
      </trkpt>
      <trkpt lat="45.92902" lon="4.55571">
        <ele>264</ele>
        <time>2022-08-27T21:58:32Z</time>
      </trkpt>
      <trkpt lat="45.92819" lon="4.55695">
        <ele>267</ele>
        <time>2022-08-27T21:58:53Z</time>
      </trkpt>
      <trkpt lat="45.92801" lon="4.5572">
        <ele>268</ele>
        <time>2022-08-27T21:58:58Z</time>
      </trkpt>
      <trkpt lat="45.92773" lon="4.55752">
        <ele>265</ele>
        <time>2022-08-27T21:59:04Z</time>
      </trkpt>
      <trkpt lat="45.92584" lon="4.55941">
        <ele>260</ele>
        <time>2022-08-27T21:59:45Z</time>
      </trkpt>
      <trkpt lat="45.92565" lon="4.55958">
        <ele>260</ele>
        <time>2022-08-27T21:59:49Z</time>
      </trkpt>
      <trkpt lat="45.9254" lon="4.55974">
        <ele>260</ele>
        <time>2022-08-27T21:59:54Z</time>
      </trkpt>
      <trkpt lat="45.92494" lon="4.56008">
        <ele>258</ele>
        <time>2022-08-27T22:00:03Z</time>
      </trkpt>
      <trkpt lat="45.92463" lon="4.56038">
        <ele>259</ele>
        <time>2022-08-27T22:00:10Z</time>
      </trkpt>
      <trkpt lat="45.9244" lon="4.56072">
        <ele>259</ele>
        <time>2022-08-27T22:00:16Z</time>
      </trkpt>
      <trkpt lat="45.9234" lon="4.56207">
        <ele>258</ele>
        <time>2022-08-27T22:00:40Z</time>
      </trkpt>
      <trkpt lat="45.92305" lon="4.56258">
        <ele>257</ele>
        <time>2022-08-27T22:00:49Z</time>
      </trkpt>
      <trkpt lat="45.92288" lon="4.56286">
        <ele>256</ele>
        <time>2022-08-27T22:00:53Z</time>
      </trkpt>
      <trkpt lat="45.92281" lon="4.56302">
        <ele>256</ele>
        <time>2022-08-27T22:00:56Z</time>
      </trkpt>
      <trkpt lat="45.92275" lon="4.56327">
        <ele>255</ele>
        <time>2022-08-27T22:00:59Z</time>
      </trkpt>
      <trkpt lat="45.92272" lon="4.56365">
        <ele>256</ele>
        <time>2022-08-27T22:01:04Z</time>
      </trkpt>
      <trkpt lat="45.92268" lon="4.56391">
        <ele>256</ele>
        <time>2022-08-27T22:01:07Z</time>
      </trkpt>
      <trkpt lat="45.92244" lon="4.56479">
        <ele>257</ele>
        <time>2022-08-27T22:01:19Z</time>
      </trkpt>
      <trkpt lat="45.92228" lon="4.56522">
        <ele>258</ele>
        <time>2022-08-27T22:01:25Z</time>
      </trkpt>
      <trkpt lat="45.92212" lon="4.56552">
        <ele>259</ele>
        <time>2022-08-27T22:01:29Z</time>
      </trkpt>
      <trkpt lat="45.92202" lon="4.56567">
        <ele>258</ele>
        <time>2022-08-27T22:01:32Z</time>
      </trkpt>
      <trkpt lat="45.9218" lon="4.56592">
        <ele>257</ele>
        <time>2022-08-27T22:01:37Z</time>
      </trkpt>
      <trkpt lat="45.92167" lon="4.56604">
        <ele>257</ele>
        <time>2022-08-27T22:01:40Z</time>
      </trkpt>
      <trkpt lat="45.92106" lon="4.56649">
        <ele>257</ele>
        <time>2022-08-27T22:01:52Z</time>
      </trkpt>
      <trkpt lat="45.92081" lon="4.56676">
        <ele>256</ele>
        <time>2022-08-27T22:01:58Z</time>
      </trkpt>
      <trkpt lat="45.9206" lon="4.567">
        <ele>256</ele>
        <time>2022-08-27T22:02:02Z</time>
      </trkpt>
      <trkpt lat="45.92007" lon="4.56771">
        <ele>257</ele>
        <time>2022-08-27T22:02:15Z</time>
      </trkpt>
      <trkpt lat="45.9196" lon="4.56829">
        <ele>258</ele>
        <time>2022-08-27T22:02:26Z</time>
      </trkpt>
      <trkpt lat="45.91927" lon="4.56863">
        <ele>258</ele>
        <time>2022-08-27T22:02:33Z</time>
      </trkpt>
      <trkpt lat="45.9186" lon="4.56935">
        <ele>258</ele>
        <time>2022-08-27T22:02:48Z</time>
      </trkpt>
      <trkpt lat="45.9181" lon="4.56977">
        <ele>257</ele>
        <time>2022-08-27T22:02:59Z</time>
      </trkpt>
      <trkpt lat="45.91784" lon="4.56995">
        <ele>256</ele>
        <time>2022-08-27T22:03:04Z</time>
      </trkpt>
      <trkpt lat="45.91605" lon="4.57083">
        <ele>256</ele>
        <time>2022-08-27T22:03:37Z</time>
      </trkpt>
      <trkpt lat="45.91551" lon="4.57101">
        <ele>256</ele>
        <time>2022-08-27T22:03:47Z</time>
      </trkpt>
      <trkpt lat="45.91413" lon="4.57132">
        <ele>253</ele>
        <time>2022-08-27T22:04:12Z</time>
      </trkpt>
      <trkpt lat="45.91364" lon="4.57148">
        <ele>253</ele>
        <time>2022-08-27T22:04:21Z</time>
      </trkpt>
      <trkpt lat="45.9133" lon="4.57162">
        <ele>253</ele>
        <time>2022-08-27T22:04:27Z</time>
      </trkpt>
      <trkpt lat="45.91205" lon="4.57222">
        <ele>253</ele>
        <time>2022-08-27T22:04:51Z</time>
      </trkpt>
      <trkpt lat="45.91167" lon="4.57247">
        <ele>252</ele>
        <time>2022-08-27T22:04:58Z</time>
      </trkpt>
      <trkpt lat="45.91121" lon="4.5729">
        <ele>255</ele>
        <time>2022-08-27T22:05:08Z</time>
      </trkpt>
      <trkpt lat="45.91084" lon="4.5732">
        <ele>256</ele>
        <time>2022-08-27T22:05:16Z</time>
      </trkpt>
      <trkpt lat="45.91055" lon="4.57336">
        <ele>257</ele>
        <time>2022-08-27T22:05:21Z</time>
      </trkpt>
      <trkpt lat="45.91009" lon="4.57349">
        <ele>256</ele>
        <time>2022-08-27T22:05:29Z</time>
      </trkpt>
      <trkpt lat="45.90969" lon="4.57348">
        <ele>254</ele>
        <time>2022-08-27T22:05:37Z</time>
      </trkpt>
      <trkpt lat="45.9093" lon="4.57338">
        <ele>252</ele>
        <time>2022-08-27T22:05:44Z</time>
      </trkpt>
      <trkpt lat="45.90868" lon="4.57314">
        <ele>249</ele>
        <time>2022-08-27T22:05:55Z</time>
      </trkpt>
      <trkpt lat="45.90829" lon="4.57303">
        <ele>247</ele>
        <time>2022-08-27T22:06:02Z</time>
      </trkpt>
      <trkpt lat="45.90807" lon="4.57304">
        <ele>247</ele>
        <time>2022-08-27T22:06:06Z</time>
      </trkpt>
      <trkpt lat="45.90798" lon="4.57306">
        <ele>246</ele>
        <time>2022-08-27T22:06:08Z</time>
      </trkpt>
      <trkpt lat="45.90778" lon="4.57317">
        <ele>246</ele>
        <time>2022-08-27T22:06:11Z</time>
      </trkpt>
      <trkpt lat="45.90759" lon="4.57336">
        <ele>246</ele>
        <time>2022-08-27T22:06:16Z</time>
      </trkpt>
      <trkpt lat="45.90748" lon="4.57348">
        <ele>246</ele>
        <time>2022-08-27T22:06:18Z</time>
      </trkpt>
      <trkpt lat="45.90717" lon="4.57397">
        <ele>248</ele>
        <time>2022-08-27T22:06:26Z</time>
      </trkpt>
      <trkpt lat="45.90712" lon="4.57398">
        <ele>248</ele>
        <time>2022-08-27T22:06:27Z</time>
      </trkpt>
      <trkpt lat="45.90708" lon="4.57407">
        <ele>248</ele>
        <time>2022-08-27T22:06:28Z</time>
      </trkpt>
      <trkpt lat="45.9071" lon="4.57417">
        <ele>249</ele>
        <time>2022-08-27T22:06:30Z</time>
      </trkpt>
      <trkpt lat="45.90698" lon="4.57452">
        <ele>248</ele>
        <time>2022-08-27T22:06:35Z</time>
      </trkpt>
      <trkpt lat="45.90684" lon="4.57509">
        <ele>248</ele>
        <time>2022-08-27T22:06:42Z</time>
      </trkpt>
      <trkpt lat="45.90674" lon="4.57571">
        <ele>246</ele>
        <time>2022-08-27T22:06:50Z</time>
      </trkpt>
      <trkpt lat="45.90665" lon="4.57657">
        <ele>243</ele>
        <time>2022-08-27T22:07:01Z</time>
      </trkpt>
      <trkpt lat="45.9066" lon="4.57691">
        <ele>243</ele>
        <time>2022-08-27T22:07:05Z</time>
      </trkpt>
      <trkpt lat="45.90652" lon="4.57719">
        <ele>243</ele>
        <time>2022-08-27T22:07:09Z</time>
      </trkpt>
      <trkpt lat="45.90641" lon="4.57746">
        <ele>243</ele>
        <time>2022-08-27T22:07:13Z</time>
      </trkpt>
      <trkpt lat="45.90637" lon="4.57749">
        <ele>243</ele>
        <time>2022-08-27T22:07:13Z</time>
      </trkpt>
      <trkpt lat="45.90632" lon="4.57758">
        <ele>244</ele>
        <time>2022-08-27T22:07:15Z</time>
      </trkpt>
      <trkpt lat="45.90632" lon="4.5777">
        <ele>245</ele>
        <time>2022-08-27T22:07:16Z</time>
      </trkpt>
      <trkpt lat="45.90634" lon="4.57776">
        <ele>245</ele>
        <time>2022-08-27T22:07:17Z</time>
      </trkpt>
      <trkpt lat="45.9063" lon="4.57795">
        <ele>247</ele>
        <time>2022-08-27T22:07:20Z</time>
      </trkpt>
      <trkpt lat="45.90625" lon="4.57808">
        <ele>247</ele>
        <time>2022-08-27T22:07:21Z</time>
      </trkpt>
      <trkpt lat="45.90602" lon="4.57851">
        <ele>249</ele>
        <time>2022-08-27T22:07:28Z</time>
      </trkpt>
      <trkpt lat="45.90577" lon="4.57887">
        <ele>250</ele>
        <time>2022-08-27T22:07:34Z</time>
      </trkpt>
      <trkpt lat="45.90417" lon="4.58061">
        <ele>248</ele>
        <time>2022-08-27T22:08:10Z</time>
      </trkpt>
      <trkpt lat="45.90355" lon="4.58132">
        <ele>250</ele>
        <time>2022-08-27T22:08:24Z</time>
      </trkpt>
      <trkpt lat="45.90324" lon="4.5818">
        <ele>249</ele>
        <time>2022-08-27T22:08:32Z</time>
      </trkpt>
      <trkpt lat="45.9024" lon="4.58326">
        <ele>243</ele>
        <time>2022-08-27T22:08:56Z</time>
      </trkpt>
      <trkpt lat="45.90171" lon="4.58439">
        <ele>241</ele>
        <time>2022-08-27T22:09:14Z</time>
      </trkpt>
      <trkpt lat="45.90166" lon="4.58447">
        <ele>241</ele>
        <time>2022-08-27T22:09:16Z</time>
      </trkpt>
      <trkpt lat="45.90044" lon="4.58648">
        <ele>245</ele>
        <time>2022-08-27T22:09:49Z</time>
      </trkpt>
      <trkpt lat="45.89998" lon="4.58717">
        <ele>245</ele>
        <time>2022-08-27T22:10:01Z</time>
      </trkpt>
      <trkpt lat="45.89972" lon="4.58751">
        <ele>245</ele>
        <time>2022-08-27T22:10:07Z</time>
      </trkpt>
      <trkpt lat="45.89948" lon="4.58779">
        <ele>245</ele>
        <time>2022-08-27T22:10:12Z</time>
      </trkpt>
      <trkpt lat="45.89912" lon="4.58813">
        <ele>245</ele>
        <time>2022-08-27T22:10:20Z</time>
      </trkpt>
      <trkpt lat="45.89852" lon="4.5886">
        <ele>240</ele>
        <time>2022-08-27T22:10:32Z</time>
      </trkpt>
      <trkpt lat="45.89815" lon="4.58892">
        <ele>239</ele>
        <time>2022-08-27T22:10:40Z</time>
      </trkpt>
      <trkpt lat="45.89794" lon="4.58913">
        <ele>239</ele>
        <time>2022-08-27T22:10:44Z</time>
      </trkpt>
      <trkpt lat="45.89778" lon="4.58934">
        <ele>238</ele>
        <time>2022-08-27T22:10:48Z</time>
      </trkpt>
      <trkpt lat="45.89744" lon="4.58987">
        <ele>234</ele>
        <time>2022-08-27T22:10:57Z</time>
      </trkpt>
      <trkpt lat="45.89658" lon="4.59136">
        <ele>233</ele>
        <time>2022-08-27T22:11:21Z</time>
      </trkpt>
      <trkpt lat="45.89648" lon="4.5916">
        <ele>233</ele>
        <time>2022-08-27T22:11:25Z</time>
      </trkpt>
      <trkpt lat="45.89613" lon="4.59292">
        <ele>237</ele>
        <time>2022-08-27T22:11:42Z</time>
      </trkpt>
      <trkpt lat="45.89584" lon="4.59385">
        <ele>237</ele>
        <time>2022-08-27T22:11:55Z</time>
      </trkpt>
      <trkpt lat="45.89572" lon="4.59413">
        <ele>238</ele>
        <time>2022-08-27T22:11:59Z</time>
      </trkpt>
      <trkpt lat="45.89538" lon="4.5948">
        <ele>240</ele>
        <time>2022-08-27T22:12:09Z</time>
      </trkpt>
      <trkpt lat="45.89527" lon="4.59498">
        <ele>239</ele>
        <time>2022-08-27T22:12:12Z</time>
      </trkpt>
      <trkpt lat="45.89471" lon="4.59558">
        <ele>235</ele>
        <time>2022-08-27T22:12:24Z</time>
      </trkpt>
      <trkpt lat="45.89439" lon="4.596">
        <ele>235</ele>
        <time>2022-08-27T22:12:32Z</time>
      </trkpt>
      <trkpt lat="45.89398" lon="4.59658">
        <ele>232</ele>
        <time>2022-08-27T22:12:42Z</time>
      </trkpt>
      <trkpt lat="45.89291" lon="4.5982">
        <ele>238</ele>
        <time>2022-08-27T22:13:10Z</time>
      </trkpt>
      <trkpt lat="45.89241" lon="4.59888">
        <ele>238</ele>
        <time>2022-08-27T22:13:22Z</time>
      </trkpt>
      <trkpt lat="45.89168" lon="4.59982">
        <ele>237</ele>
        <time>2022-08-27T22:13:40Z</time>
      </trkpt>
      <trkpt lat="45.89139" lon="4.60028">
        <ele>239</ele>
        <time>2022-08-27T22:13:47Z</time>
      </trkpt>
      <trkpt lat="45.89118" lon="4.60078">
        <ele>240</ele>
        <time>2022-08-27T22:13:55Z</time>
      </trkpt>
      <trkpt lat="45.89107" lon="4.60112">
        <ele>240</ele>
        <time>2022-08-27T22:13:59Z</time>
      </trkpt>
      <trkpt lat="45.89096" lon="4.60169">
        <ele>241</ele>
        <time>2022-08-27T22:14:07Z</time>
      </trkpt>
      <trkpt lat="45.89072" lon="4.60348">
        <ele>243</ele>
        <time>2022-08-27T22:14:29Z</time>
      </trkpt>
      <trkpt lat="45.8906" lon="4.60424">
        <ele>245</ele>
        <time>2022-08-27T22:14:39Z</time>
      </trkpt>
      <trkpt lat="45.89045" lon="4.60495">
        <ele>242</ele>
        <time>2022-08-27T22:14:48Z</time>
      </trkpt>
      <trkpt lat="45.89026" lon="4.60569">
        <ele>240</ele>
        <time>2022-08-27T22:14:58Z</time>
      </trkpt>
      <trkpt lat="45.89001" lon="4.60651">
        <ele>239</ele>
        <time>2022-08-27T22:15:09Z</time>
      </trkpt>
      <trkpt lat="45.88906" lon="4.60903">
        <ele>229</ele>
        <time>2022-08-27T22:15:44Z</time>
      </trkpt>
      <trkpt lat="45.88891" lon="4.60961">
        <ele>229</ele>
        <time>2022-08-27T22:15:52Z</time>
      </trkpt>
      <trkpt lat="45.88883" lon="4.61021">
        <ele>229</ele>
        <time>2022-08-27T22:16:00Z</time>
      </trkpt>
      <trkpt lat="45.8888" lon="4.61087">
        <ele>229</ele>
        <time>2022-08-27T22:16:08Z</time>
      </trkpt>
      <trkpt lat="45.88878" lon="4.61234">
        <ele>226</ele>
        <time>2022-08-27T22:16:26Z</time>
      </trkpt>
      <trkpt lat="45.88874" lon="4.61303">
        <ele>226</ele>
        <time>2022-08-27T22:16:35Z</time>
      </trkpt>
      <trkpt lat="45.88868" lon="4.61338">
        <ele>227</ele>
        <time>2022-08-27T22:16:39Z</time>
      </trkpt>
      <trkpt lat="45.88858" lon="4.61387">
        <ele>226</ele>
        <time>2022-08-27T22:16:45Z</time>
      </trkpt>
      <trkpt lat="45.88842" lon="4.61445">
        <ele>224</ele>
        <time>2022-08-27T22:16:53Z</time>
      </trkpt>
      <trkpt lat="45.88815" lon="4.61528">
        <ele>223</ele>
        <time>2022-08-27T22:17:05Z</time>
      </trkpt>
      <trkpt lat="45.8877" lon="4.61651">
        <ele>223</ele>
        <time>2022-08-27T22:17:22Z</time>
      </trkpt>
      <trkpt lat="45.88713" lon="4.6182">
        <ele>222</ele>
        <time>2022-08-27T22:17:45Z</time>
      </trkpt>
      <trkpt lat="45.88666" lon="4.61977">
        <ele>222</ele>
        <time>2022-08-27T22:18:06Z</time>
      </trkpt>
      <trkpt lat="45.88615" lon="4.62131">
        <ele>223</ele>
        <time>2022-08-27T22:18:27Z</time>
      </trkpt>
      <trkpt lat="45.88587" lon="4.62204">
        <ele>222</ele>
        <time>2022-08-27T22:18:38Z</time>
      </trkpt>
      <trkpt lat="45.88557" lon="4.62275">
        <ele>221</ele>
        <time>2022-08-27T22:18:48Z</time>
      </trkpt>
      <trkpt lat="45.88506" lon="4.62412">
        <ele>220</ele>
        <time>2022-08-27T22:19:07Z</time>
      </trkpt>
      <trkpt lat="45.88425" lon="4.6265">
        <ele>219</ele>
        <time>2022-08-27T22:19:40Z</time>
      </trkpt>
      <trkpt lat="45.88401" lon="4.62709">
        <ele>218</ele>
        <time>2022-08-27T22:19:48Z</time>
      </trkpt>
      <trkpt lat="45.88388" lon="4.62739">
        <ele>218</ele>
        <time>2022-08-27T22:19:53Z</time>
      </trkpt>
      <trkpt lat="45.88357" lon="4.62795">
        <ele>218</ele>
        <time>2022-08-27T22:20:02Z</time>
      </trkpt>
      <trkpt lat="45.88298" lon="4.6289">
        <ele>218</ele>
        <time>2022-08-27T22:20:17Z</time>
      </trkpt>
      <trkpt lat="45.88266" lon="4.62935">
        <ele>217</ele>
        <time>2022-08-27T22:20:25Z</time>
      </trkpt>
      <trkpt lat="45.88254" lon="4.62957">
        <ele>217</ele>
        <time>2022-08-27T22:20:29Z</time>
      </trkpt>
      <trkpt lat="45.88221" lon="4.63029">
        <ele>217</ele>
        <time>2022-08-27T22:20:40Z</time>
      </trkpt>
      <trkpt lat="45.88204" lon="4.63077">
        <ele>216</ele>
        <time>2022-08-27T22:20:46Z</time>
      </trkpt>
      <trkpt lat="45.88189" lon="4.63135">
        <ele>217</ele>
        <time>2022-08-27T22:20:54Z</time>
      </trkpt>
      <trkpt lat="45.88163" lon="4.63264">
        <ele>216</ele>
        <time>2022-08-27T22:21:10Z</time>
      </trkpt>
      <trkpt lat="45.88153" lon="4.63328">
        <ele>216</ele>
        <time>2022-08-27T22:21:19Z</time>
      </trkpt>
      <trkpt lat="45.88128" lon="4.63453">
        <ele>216</ele>
        <time>2022-08-27T22:21:35Z</time>
      </trkpt>
      <trkpt lat="45.88109" lon="4.63527">
        <ele>217</ele>
        <time>2022-08-27T22:21:44Z</time>
      </trkpt>
      <trkpt lat="45.88088" lon="4.63589">
        <ele>216</ele>
        <time>2022-08-27T22:21:53Z</time>
      </trkpt>
      <trkpt lat="45.88055" lon="4.63663">
        <ele>215</ele>
        <time>2022-08-27T22:22:04Z</time>
      </trkpt>
      <trkpt lat="45.88015" lon="4.63735">
        <ele>213</ele>
        <time>2022-08-27T22:22:15Z</time>
      </trkpt>
      <trkpt lat="45.87719" lon="4.64219">
        <ele>212</ele>
        <time>2022-08-27T22:23:35Z</time>
      </trkpt>
      <trkpt lat="45.87657" lon="4.64324">
        <ele>209</ele>
        <time>2022-08-27T22:23:52Z</time>
      </trkpt>
      <trkpt lat="45.87627" lon="4.64367">
        <ele>211</ele>
        <time>2022-08-27T22:24:00Z</time>
      </trkpt>
      <trkpt lat="45.87602" lon="4.6441">
        <ele>213</ele>
        <time>2022-08-27T22:24:07Z</time>
      </trkpt>
      <trkpt lat="45.8758" lon="4.64393">
        <ele>212</ele>
        <time>2022-08-27T22:24:11Z</time>
      </trkpt>
      <trkpt lat="45.87574" lon="4.64387">
        <ele>212</ele>
        <time>2022-08-27T22:24:12Z</time>
      </trkpt>
      <trkpt lat="45.87532" lon="4.64367">
        <ele>212</ele>
        <time>2022-08-27T22:24:20Z</time>
      </trkpt>
      <trkpt lat="45.8749" lon="4.64352">
        <ele>212</ele>
        <time>2022-08-27T22:24:28Z</time>
      </trkpt>
      <trkpt lat="45.87445" lon="4.6434">
        <ele>212</ele>
        <time>2022-08-27T22:24:36Z</time>
      </trkpt>
      <trkpt lat="45.87421" lon="4.64339">
        <ele>212</ele>
        <time>2022-08-27T22:24:40Z</time>
      </trkpt>
      <trkpt lat="45.87372" lon="4.64342">
        <ele>211</ele>
        <time>2022-08-27T22:24:49Z</time>
      </trkpt>
      <trkpt lat="45.8735" lon="4.6434">
        <ele>211</ele>
        <time>2022-08-27T22:24:53Z</time>
      </trkpt>
      <trkpt lat="45.87214" lon="4.64307">
        <ele>212</ele>
        <time>2022-08-27T22:25:18Z</time>
      </trkpt>
      <trkpt lat="45.87176" lon="4.64309">
        <ele>215</ele>
        <time>2022-08-27T22:25:24Z</time>
      </trkpt>
      <trkpt lat="45.87148" lon="4.64295">
        <ele>218</ele>
        <time>2022-08-27T22:25:30Z</time>
      </trkpt>
      <trkpt lat="45.87072" lon="4.6425">
        <ele>226</ele>
        <time>2022-08-27T22:25:44Z</time>
      </trkpt>
      <trkpt lat="45.87058" lon="4.64243">
        <ele>228</ele>
        <time>2022-08-27T22:25:47Z</time>
      </trkpt>
      <trkpt lat="45.87036" lon="4.6424">
        <ele>231</ele>
        <time>2022-08-27T22:25:51Z</time>
      </trkpt>
      <trkpt lat="45.8699" lon="4.64244">
        <ele>236</ele>
        <time>2022-08-27T22:25:59Z</time>
      </trkpt>
      <trkpt lat="45.86959" lon="4.64253">
        <ele>239</ele>
        <time>2022-08-27T22:26:05Z</time>
      </trkpt>
      <trkpt lat="45.86928" lon="4.64255">
        <ele>242</ele>
        <time>2022-08-27T22:26:10Z</time>
      </trkpt>
      <trkpt lat="45.86876" lon="4.64235">
        <ele>247</ele>
        <time>2022-08-27T22:26:20Z</time>
      </trkpt>
      <trkpt lat="45.86765" lon="4.6417">
        <ele>256</ele>
        <time>2022-08-27T22:26:41Z</time>
      </trkpt>
      <trkpt lat="45.86745" lon="4.64172">
        <ele>256</ele>
        <time>2022-08-27T22:26:45Z</time>
      </trkpt>
      <trkpt lat="45.86742" lon="4.64163">
        <ele>257</ele>
        <time>2022-08-27T22:26:46Z</time>
      </trkpt>
      <trkpt lat="45.86736" lon="4.6416">
        <ele>257</ele>
        <time>2022-08-27T22:26:47Z</time>
      </trkpt>
      <trkpt lat="45.86733" lon="4.6416">
        <ele>257</ele>
        <time>2022-08-27T22:26:48Z</time>
      </trkpt>
      <trkpt lat="45.86727" lon="4.64165">
        <ele>257</ele>
        <time>2022-08-27T22:26:49Z</time>
      </trkpt>
      <trkpt lat="45.86638" lon="4.64099">
        <ele>261</ele>
        <time>2022-08-27T22:27:07Z</time>
      </trkpt>
      <trkpt lat="45.86619" lon="4.64083">
        <ele>263</ele>
        <time>2022-08-27T22:27:11Z</time>
      </trkpt>
      <trkpt lat="45.86609" lon="4.64077">
        <ele>263</ele>
        <time>2022-08-27T22:27:12Z</time>
      </trkpt>
      <trkpt lat="45.86599" lon="4.64074">
        <ele>263</ele>
        <time>2022-08-27T22:27:14Z</time>
      </trkpt>
      <trkpt lat="45.86598" lon="4.64068">
        <ele>263</ele>
        <time>2022-08-27T22:27:15Z</time>
      </trkpt>
      <trkpt lat="45.86594" lon="4.64063">
        <ele>263</ele>
        <time>2022-08-27T22:27:16Z</time>
      </trkpt>
      <trkpt lat="45.86589" lon="4.64062">
        <ele>263</ele>
        <time>2022-08-27T22:27:17Z</time>
      </trkpt>
      <trkpt lat="45.86585" lon="4.64065">
        <ele>263</ele>
        <time>2022-08-27T22:27:18Z</time>
      </trkpt>
      <trkpt lat="45.86574" lon="4.64051">
        <ele>264</ele>
        <time>2022-08-27T22:27:20Z</time>
      </trkpt>
      <trkpt lat="45.86565" lon="4.64043">
        <ele>264</ele>
        <time>2022-08-27T22:27:22Z</time>
      </trkpt>
      <trkpt lat="45.86495" lon="4.6399">
        <ele>270</ele>
        <time>2022-08-27T22:27:36Z</time>
      </trkpt>
      <trkpt lat="45.86424" lon="4.63929">
        <ele>276</ele>
        <time>2022-08-27T22:27:51Z</time>
      </trkpt>
      <trkpt lat="45.86268" lon="4.63762">
        <ele>285</ele>
        <time>2022-08-27T22:28:26Z</time>
      </trkpt>
      <trkpt lat="45.86228" lon="4.63721">
        <ele>283</ele>
        <time>2022-08-27T22:28:34Z</time>
      </trkpt>
      <trkpt lat="45.86056" lon="4.63529">
        <ele>277</ele>
        <time>2022-08-27T22:29:13Z</time>
      </trkpt>
      <trkpt lat="45.86041" lon="4.63519">
        <ele>277</ele>
        <time>2022-08-27T22:29:16Z</time>
      </trkpt>
      <trkpt lat="45.86021" lon="4.63508">
        <ele>277</ele>
        <time>2022-08-27T22:29:20Z</time>
      </trkpt>
      <trkpt lat="45.85957" lon="4.63488">
        <ele>278</ele>
        <time>2022-08-27T22:29:32Z</time>
      </trkpt>
      <trkpt lat="45.85942" lon="4.6348">
        <ele>278</ele>
        <time>2022-08-27T22:29:34Z</time>
      </trkpt>
      <trkpt lat="45.85929" lon="4.6347">
        <ele>279</ele>
        <time>2022-08-27T22:29:37Z</time>
      </trkpt>
      <trkpt lat="45.85916" lon="4.63448">
        <ele>279</ele>
        <time>2022-08-27T22:29:41Z</time>
      </trkpt>
      <trkpt lat="45.85907" lon="4.63419">
        <ele>280</ele>
        <time>2022-08-27T22:29:44Z</time>
      </trkpt>
      <trkpt lat="45.85904" lon="4.63394">
        <ele>280</ele>
        <time>2022-08-27T22:29:48Z</time>
      </trkpt>
      <trkpt lat="45.85902" lon="4.63359">
        <ele>279</ele>
        <time>2022-08-27T22:29:52Z</time>
      </trkpt>
      <trkpt lat="45.85947" lon="4.62941">
        <ele>279</ele>
        <time>2022-08-27T22:30:44Z</time>
      </trkpt>
      <trkpt lat="45.85945" lon="4.62915">
        <ele>279</ele>
        <time>2022-08-27T22:30:48Z</time>
      </trkpt>
      <trkpt lat="45.85937" lon="4.62892">
        <ele>279</ele>
        <time>2022-08-27T22:30:51Z</time>
      </trkpt>
      <trkpt lat="45.85926" lon="4.62874">
        <ele>278</ele>
        <time>2022-08-27T22:30:54Z</time>
      </trkpt>
      <trkpt lat="45.85918" lon="4.62866">
        <ele>278</ele>
        <time>2022-08-27T22:30:56Z</time>
      </trkpt>
      <trkpt lat="45.85902" lon="4.62856">
        <ele>278</ele>
        <time>2022-08-27T22:30:59Z</time>
      </trkpt>
      <trkpt lat="45.85883" lon="4.62849">
        <ele>279</ele>
        <time>2022-08-27T22:31:02Z</time>
      </trkpt>
      <trkpt lat="45.85758" lon="4.6284">
        <ele>285</ele>
        <time>2022-08-27T22:31:24Z</time>
      </trkpt>
      <trkpt lat="45.85708" lon="4.62842">
        <ele>287</ele>
        <time>2022-08-27T22:31:33Z</time>
      </trkpt>
      <trkpt lat="45.85685" lon="4.62841">
        <ele>287</ele>
        <time>2022-08-27T22:31:37Z</time>
      </trkpt>
      <trkpt lat="45.85615" lon="4.62826">
        <ele>289</ele>
        <time>2022-08-27T22:31:50Z</time>
      </trkpt>
      <trkpt lat="45.85549" lon="4.62808">
        <ele>288</ele>
        <time>2022-08-27T22:32:02Z</time>
      </trkpt>
      <trkpt lat="45.85483" lon="4.62771">
        <ele>284</ele>
        <time>2022-08-27T22:32:15Z</time>
      </trkpt>
      <trkpt lat="45.85464" lon="4.62758">
        <ele>283</ele>
        <time>2022-08-27T22:32:18Z</time>
      </trkpt>
      <trkpt lat="45.85434" lon="4.62732">
        <ele>281</ele>
        <time>2022-08-27T22:32:25Z</time>
      </trkpt>
      <trkpt lat="45.85383" lon="4.62676">
        <ele>280</ele>
        <time>2022-08-27T22:32:36Z</time>
      </trkpt>
      <trkpt lat="45.85374" lon="4.62663">
        <ele>281</ele>
        <time>2022-08-27T22:32:38Z</time>
      </trkpt>
      <trkpt lat="45.85365" lon="4.62641">
        <ele>281</ele>
        <time>2022-08-27T22:32:41Z</time>
      </trkpt>
      <trkpt lat="45.85338" lon="4.62558">
        <ele>282</ele>
        <time>2022-08-27T22:32:53Z</time>
      </trkpt>
      <trkpt lat="45.85324" lon="4.62522">
        <ele>282</ele>
        <time>2022-08-27T22:32:58Z</time>
      </trkpt>
      <trkpt lat="45.853" lon="4.62476">
        <ele>281</ele>
        <time>2022-08-27T22:33:05Z</time>
      </trkpt>
      <trkpt lat="45.8528" lon="4.62447">
        <ele>279</ele>
        <time>2022-08-27T22:33:10Z</time>
      </trkpt>
      <trkpt lat="45.85262" lon="4.62416">
        <ele>277</ele>
        <time>2022-08-27T22:33:15Z</time>
      </trkpt>
      <trkpt lat="45.85247" lon="4.62341">
        <ele>273</ele>
        <time>2022-08-27T22:33:25Z</time>
      </trkpt>
      <trkpt lat="45.85233" lon="4.62306">
        <ele>271</ele>
        <time>2022-08-27T22:33:30Z</time>
      </trkpt>
      <trkpt lat="45.85211" lon="4.62262">
        <ele>269</ele>
        <time>2022-08-27T22:33:36Z</time>
      </trkpt>
      <trkpt lat="45.85155" lon="4.62169">
        <ele>265</ele>
        <time>2022-08-27T22:33:52Z</time>
      </trkpt>
      <trkpt lat="45.85135" lon="4.62123">
        <ele>265</ele>
        <time>2022-08-27T22:33:58Z</time>
      </trkpt>
      <trkpt lat="45.85127" lon="4.621">
        <ele>265</ele>
        <time>2022-08-27T22:34:02Z</time>
      </trkpt>
      <trkpt lat="45.85117" lon="4.62087">
        <ele>265</ele>
        <time>2022-08-27T22:34:04Z</time>
      </trkpt>
      <trkpt lat="45.85105" lon="4.62082">
        <ele>264</ele>
        <time>2022-08-27T22:34:06Z</time>
      </trkpt>
      <trkpt lat="45.85093" lon="4.62085">
        <ele>263</ele>
        <time>2022-08-27T22:34:08Z</time>
      </trkpt>
      <trkpt lat="45.85086" lon="4.62092">
        <ele>263</ele>
        <time>2022-08-27T22:34:10Z</time>
      </trkpt>
      <trkpt lat="45.85079" lon="4.62105">
        <ele>263</ele>
        <time>2022-08-27T22:34:12Z</time>
      </trkpt>
      <trkpt lat="45.85073" lon="4.6212">
        <ele>263</ele>
        <time>2022-08-27T22:34:14Z</time>
      </trkpt>
      <trkpt lat="45.85061" lon="4.62181">
        <ele>263</ele>
        <time>2022-08-27T22:34:22Z</time>
      </trkpt>
      <trkpt lat="45.85053" lon="4.622">
        <ele>264</ele>
        <time>2022-08-27T22:34:25Z</time>
      </trkpt>
      <trkpt lat="45.85043" lon="4.62215">
        <ele>264</ele>
        <time>2022-08-27T22:34:27Z</time>
      </trkpt>
      <trkpt lat="45.85029" lon="4.62226">
        <ele>265</ele>
        <time>2022-08-27T22:34:30Z</time>
      </trkpt>
      <trkpt lat="45.84978" lon="4.62254">
        <ele>269</ele>
        <time>2022-08-27T22:34:40Z</time>
      </trkpt>
      <trkpt lat="45.84966" lon="4.62255">
        <ele>270</ele>
        <time>2022-08-27T22:34:42Z</time>
      </trkpt>
      <trkpt lat="45.84956" lon="4.62252">
        <ele>271</ele>
        <time>2022-08-27T22:34:44Z</time>
      </trkpt>
      <trkpt lat="45.84942" lon="4.62244">
        <ele>272</ele>
        <time>2022-08-27T22:34:46Z</time>
      </trkpt>
      <trkpt lat="45.84928" lon="4.62231">
        <ele>273</ele>
        <time>2022-08-27T22:34:49Z</time>
      </trkpt>
      <trkpt lat="45.84906" lon="4.62206">
        <ele>274</ele>
        <time>2022-08-27T22:34:54Z</time>
      </trkpt>
      <trkpt lat="45.84888" lon="4.62192">
        <ele>275</ele>
        <time>2022-08-27T22:34:58Z</time>
      </trkpt>
      <trkpt lat="45.84873" lon="4.62187">
        <ele>275</ele>
        <time>2022-08-27T22:35:01Z</time>
      </trkpt>
      <trkpt lat="45.84823" lon="4.62184">
        <ele>276</ele>
        <time>2022-08-27T22:35:10Z</time>
      </trkpt>
      <trkpt lat="45.84756" lon="4.62164">
        <ele>276</ele>
        <time>2022-08-27T22:35:22Z</time>
      </trkpt>
      <trkpt lat="45.84677" lon="4.62166">
        <ele>278</ele>
        <time>2022-08-27T22:35:36Z</time>
      </trkpt>
      <trkpt lat="45.84568" lon="4.62142">
        <ele>280</ele>
        <time>2022-08-27T22:35:56Z</time>
      </trkpt>
      <trkpt lat="45.84544" lon="4.62137">
        <ele>279</ele>
        <time>2022-08-27T22:36:00Z</time>
      </trkpt>
      <trkpt lat="45.84479" lon="4.62116">
        <ele>277</ele>
        <time>2022-08-27T22:36:12Z</time>
      </trkpt>
      <trkpt lat="45.84424" lon="4.62088">
        <ele>273</ele>
        <time>2022-08-27T22:36:22Z</time>
      </trkpt>
      <trkpt lat="45.84407" lon="4.62083">
        <ele>273</ele>
        <time>2022-08-27T22:36:25Z</time>
      </trkpt>
      <trkpt lat="45.84388" lon="4.62084">
        <ele>272</ele>
        <time>2022-08-27T22:36:29Z</time>
      </trkpt>
      <trkpt lat="45.84356" lon="4.62091">
        <ele>270</ele>
        <time>2022-08-27T22:36:34Z</time>
      </trkpt>
      <trkpt lat="45.84311" lon="4.62106">
        <ele>267</ele>
        <time>2022-08-27T22:36:43Z</time>
      </trkpt>
      <trkpt lat="45.84234" lon="4.62145">
        <ele>263</ele>
        <time>2022-08-27T22:36:57Z</time>
      </trkpt>
      <trkpt lat="45.84218" lon="4.62148">
        <ele>261</ele>
        <time>2022-08-27T22:37:00Z</time>
      </trkpt>
      <trkpt lat="45.84205" lon="4.62145">
        <ele>260</ele>
        <time>2022-08-27T22:37:02Z</time>
      </trkpt>
      <trkpt lat="45.84178" lon="4.62133">
        <ele>258</ele>
        <time>2022-08-27T22:37:07Z</time>
      </trkpt>
      <trkpt lat="45.84165" lon="4.62122">
        <ele>258</ele>
        <time>2022-08-27T22:37:10Z</time>
      </trkpt>
      <trkpt lat="45.84154" lon="4.62108">
        <ele>258</ele>
        <time>2022-08-27T22:37:13Z</time>
      </trkpt>
      <trkpt lat="45.84114" lon="4.62043">
        <ele>259</ele>
        <time>2022-08-27T22:37:23Z</time>
      </trkpt>
      <trkpt lat="45.84103" lon="4.6203">
        <ele>259</ele>
        <time>2022-08-27T22:37:26Z</time>
      </trkpt>
      <trkpt lat="45.84091" lon="4.62027">
        <ele>258</ele>
        <time>2022-08-27T22:37:28Z</time>
      </trkpt>
      <trkpt lat="45.84078" lon="4.62028">
        <ele>257</ele>
        <time>2022-08-27T22:37:30Z</time>
      </trkpt>
      <trkpt lat="45.84055" lon="4.62059">
        <ele>255.7</ele>
      </trkpt>
      <trkpt lat="45.84035" lon="4.62086">
        <ele>254.1</ele>
        <time>2022-08-27T22:37:33Z</time>
      </trkpt>
      <trkpt lat="45.84017" lon="4.62094">
        <ele>252.9</ele>
        <time>2022-08-27T22:37:38Z</time>
      </trkpt>
      <trkpt lat="45.83984" lon="4.62092">
        <ele>252</ele>
        <time>2022-08-27T22:37:41Z</time>
      </trkpt>
      <trkpt lat="45.83941" lon="4.62084">
        <ele>250.7</ele>
        <time>2022-08-27T22:37:52Z</time>
      </trkpt>
      <trkpt lat="45.83884" lon="4.62074">
        <ele>247.9</ele>
        <time>2022-08-27T22:38:04Z</time>
      </trkpt>
      <trkpt lat="45.83855" lon="4.62066">
        <ele>246.5</ele>
        <time>2022-08-27T22:38:11Z</time>
      </trkpt>
      <trkpt lat="45.8383" lon="4.62062">
        <ele>244.1</ele>
      </trkpt>
      <trkpt lat="45.83805" lon="4.62059">
        <ele>243.1</ele>
        <time>2022-08-27T22:38:15Z</time>
      </trkpt>
      <trkpt lat="45.83789" lon="4.62047">
        <ele>242.6</ele>
        <time>2022-08-27T22:38:18Z</time>
      </trkpt>
      <trkpt lat="45.83779" lon="4.62026">
        <ele>242.1</ele>
        <time>2022-08-27T22:38:21Z</time>
      </trkpt>
      <trkpt lat="45.83777" lon="4.6199">
        <ele>240.3</ele>
        <time>2022-08-27T22:38:25Z</time>
      </trkpt>
      <trkpt lat="45.83781" lon="4.6194">
        <ele>239.9</ele>
        <time>2022-08-27T22:38:28Z</time>
      </trkpt>
      <trkpt lat="45.8378" lon="4.61873">
        <ele>237.8</ele>
        <time>2022-08-27T22:38:33Z</time>
      </trkpt>
      <trkpt lat="45.83779" lon="4.61816">
        <ele>239</ele>
        <time>2022-08-27T22:38:40Z</time>
      </trkpt>
      <trkpt lat="45.83782" lon="4.61799">
        <ele>240</ele>
        <time>2022-08-27T22:38:42Z</time>
      </trkpt>
      <trkpt lat="45.83787" lon="4.61786">
        <ele>240</ele>
        <time>2022-08-27T22:38:44Z</time>
      </trkpt>
      <trkpt lat="45.83795" lon="4.61775">
        <ele>241</ele>
        <time>2022-08-27T22:38:46Z</time>
      </trkpt>
      <trkpt lat="45.838" lon="4.61765">
        <ele>242</ele>
        <time>2022-08-27T22:38:47Z</time>
      </trkpt>
      <trkpt lat="45.83802" lon="4.61756">
        <ele>241</ele>
        <time>2022-08-27T22:38:49Z</time>
      </trkpt>
      <trkpt lat="45.838" lon="4.61743">
        <ele>241</ele>
        <time>2022-08-27T22:38:50Z</time>
      </trkpt>
      <trkpt lat="45.83779" lon="4.61737">
        <ele>238</ele>
        <time>2022-08-27T22:38:54Z</time>
      </trkpt>
      <trkpt lat="45.83717" lon="4.61698">
        <ele>232</ele>
        <time>2022-08-27T22:39:06Z</time>
      </trkpt>
      <trkpt lat="45.83607" lon="4.61619">
        <ele>235</ele>
        <time>2022-08-27T22:39:28Z</time>
      </trkpt>
      <trkpt lat="45.83582" lon="4.61613">
        <ele>236</ele>
        <time>2022-08-27T22:39:32Z</time>
      </trkpt>
      <trkpt lat="45.83559" lon="4.61619">
        <ele>235</ele>
        <time>2022-08-27T22:39:37Z</time>
      </trkpt>
      <trkpt lat="45.83523" lon="4.61643">
        <ele>232</ele>
        <time>2022-08-27T22:39:44Z</time>
      </trkpt>
      <trkpt lat="45.83533" lon="4.61579">
        <ele>234</ele>
        <time>2022-08-27T22:39:52Z</time>
      </trkpt>
      <trkpt lat="45.8354" lon="4.61548">
        <ele>237</ele>
        <time>2022-08-27T22:39:56Z</time>
      </trkpt>
      <trkpt lat="45.83548" lon="4.61531">
        <ele>239</ele>
        <time>2022-08-27T22:39:58Z</time>
      </trkpt>
      <trkpt lat="45.83549" lon="4.61514">
        <ele>240</ele>
        <time>2022-08-27T22:40:01Z</time>
      </trkpt>
      <trkpt lat="45.83543" lon="4.61494">
        <ele>241</ele>
        <time>2022-08-27T22:40:03Z</time>
      </trkpt>
      <trkpt lat="45.83536" lon="4.61486">
        <ele>242</ele>
        <time>2022-08-27T22:40:05Z</time>
      </trkpt>
      <trkpt lat="45.8349" lon="4.61476">
        <ele>241</ele>
        <time>2022-08-27T22:40:13Z</time>
      </trkpt>
      <trkpt lat="45.83455" lon="4.61428">
        <ele>243</ele>
        <time>2022-08-27T22:40:22Z</time>
      </trkpt>
      <trkpt lat="45.83442" lon="4.61397">
        <ele>246</ele>
        <time>2022-08-27T22:40:26Z</time>
      </trkpt>
      <trkpt lat="45.83429" lon="4.61354">
        <ele>250</ele>
        <time>2022-08-27T22:40:32Z</time>
      </trkpt>
      <trkpt lat="45.83424" lon="4.6131">
        <ele>255</ele>
        <time>2022-08-27T22:40:38Z</time>
      </trkpt>
      <trkpt lat="45.83428" lon="4.61209">
        <ele>264</ele>
        <time>2022-08-27T22:40:50Z</time>
      </trkpt>
      <trkpt lat="45.83427" lon="4.61189">
        <ele>265</ele>
        <time>2022-08-27T22:40:53Z</time>
      </trkpt>
      <trkpt lat="45.83424" lon="4.61175">
        <ele>267</ele>
        <time>2022-08-27T22:40:54Z</time>
      </trkpt>
      <trkpt lat="45.83419" lon="4.61159">
        <ele>268</ele>
        <time>2022-08-27T22:40:57Z</time>
      </trkpt>
      <trkpt lat="45.8341" lon="4.61144">
        <ele>268</ele>
        <time>2022-08-27T22:40:59Z</time>
      </trkpt>
      <trkpt lat="45.8338" lon="4.61102">
        <ele>268</ele>
        <time>2022-08-27T22:41:06Z</time>
      </trkpt>
      <trkpt lat="45.83369" lon="4.6108">
        <ele>269</ele>
        <time>2022-08-27T22:41:10Z</time>
      </trkpt>
      <trkpt lat="45.83365" lon="4.61052">
        <ele>270</ele>
        <time>2022-08-27T22:41:13Z</time>
      </trkpt>
      <trkpt lat="45.83349" lon="4.61055">
        <ele>270</ele>
        <time>2022-08-27T22:41:16Z</time>
      </trkpt>
      <trkpt lat="45.83313" lon="4.6104">
        <ele>268</ele>
        <time>2022-08-27T22:41:23Z</time>
      </trkpt>
      <trkpt lat="45.83306" lon="4.61033">
        <ele>268</ele>
        <time>2022-08-27T22:41:24Z</time>
      </trkpt>
      <trkpt lat="45.83275" lon="4.60964">
        <ele>270</ele>
        <time>2022-08-27T22:41:35Z</time>
      </trkpt>
      <trkpt lat="45.83271" lon="4.60943">
        <ele>272</ele>
        <time>2022-08-27T22:41:37Z</time>
      </trkpt>
      <trkpt lat="45.83268" lon="4.60902">
        <ele>274</ele>
        <time>2022-08-27T22:41:42Z</time>
      </trkpt>
      <trkpt lat="45.83263" lon="4.60891">
        <ele>275</ele>
        <time>2022-08-27T22:41:44Z</time>
      </trkpt>
      <trkpt lat="45.83256" lon="4.60882">
        <ele>275</ele>
        <time>2022-08-27T22:41:46Z</time>
      </trkpt>
      <trkpt lat="45.83247" lon="4.60873">
        <ele>276</ele>
        <time>2022-08-27T22:41:48Z</time>
      </trkpt>
      <trkpt lat="45.83237" lon="4.60868">
        <ele>276</ele>
        <time>2022-08-27T22:41:50Z</time>
      </trkpt>
      <trkpt lat="45.83213" lon="4.60867">
        <ele>275</ele>
        <time>2022-08-27T22:41:54Z</time>
      </trkpt>
      <trkpt lat="45.83119" lon="4.60753">
        <ele>277</ele>
        <time>2022-08-27T22:42:16Z</time>
      </trkpt>
      <trkpt lat="45.8305" lon="4.60666">
        <ele>279</ele>
        <time>2022-08-27T22:42:32Z</time>
      </trkpt>
      <trkpt lat="45.83011" lon="4.60597">
        <ele>280</ele>
        <time>2022-08-27T22:42:43Z</time>
      </trkpt>
      <trkpt lat="45.82951" lon="4.60481">
        <ele>279</ele>
        <time>2022-08-27T22:43:01Z</time>
      </trkpt>
      <trkpt lat="45.82933" lon="4.60443">
        <ele>280</ele>
        <time>2022-08-27T22:43:07Z</time>
      </trkpt>
      <trkpt lat="45.8292" lon="4.6042">
        <ele>280</ele>
        <time>2022-08-27T22:43:10Z</time>
      </trkpt>
      <trkpt lat="45.82909" lon="4.60409">
        <ele>279</ele>
        <time>2022-08-27T22:43:13Z</time>
      </trkpt>
      <trkpt lat="45.82902" lon="4.60405">
        <ele>279</ele>
        <time>2022-08-27T22:43:14Z</time>
      </trkpt>
      <trkpt lat="45.8289" lon="4.60403">
        <ele>278</ele>
        <time>2022-08-27T22:43:16Z</time>
      </trkpt>
      <trkpt lat="45.82861" lon="4.60411">
        <ele>275</ele>
        <time>2022-08-27T22:43:21Z</time>
      </trkpt>
      <trkpt lat="45.82854" lon="4.60409">
        <ele>274</ele>
        <time>2022-08-27T22:43:23Z</time>
      </trkpt>
      <trkpt lat="45.82851" lon="4.60411">
        <ele>274</ele>
        <time>2022-08-27T22:43:23Z</time>
      </trkpt>
      <trkpt lat="45.82847" lon="4.60418">
        <ele>273</ele>
        <time>2022-08-27T22:43:24Z</time>
      </trkpt>
      <trkpt lat="45.82834" lon="4.60396">
        <ele>273</ele>
        <time>2022-08-27T22:43:28Z</time>
      </trkpt>
      <trkpt lat="45.82814" lon="4.60355">
        <ele>272</ele>
        <time>2022-08-27T22:43:34Z</time>
      </trkpt>
      <trkpt lat="45.82804" lon="4.60322">
        <ele>272</ele>
        <time>2022-08-27T22:43:39Z</time>
      </trkpt>
      <trkpt lat="45.82782" lon="4.6019">
        <ele>276</ele>
        <time>2022-08-27T22:43:56Z</time>
      </trkpt>
      <trkpt lat="45.82773" lon="4.6016">
        <ele>278</ele>
        <time>2022-08-27T22:44:00Z</time>
      </trkpt>
      <trkpt lat="45.8276" lon="4.6013">
        <ele>280</ele>
        <time>2022-08-27T22:44:04Z</time>
      </trkpt>
      <trkpt lat="45.82659" lon="4.59984">
        <ele>290</ele>
        <time>2022-08-27T22:44:29Z</time>
      </trkpt>
      <trkpt lat="45.82642" lon="4.59949">
        <ele>291</ele>
        <time>2022-08-27T22:44:35Z</time>
      </trkpt>
      <trkpt lat="45.82639" lon="4.59928">
        <ele>292</ele>
        <time>2022-08-27T22:45:44Z</time>
      </trkpt>
      <trkpt lat="45.8264" lon="4.59915">
        <ele>292.1</ele>
        <time>2022-08-27T22:45:46Z</time>
      </trkpt>
      <trkpt lat="45.82626" lon="4.59889">
        <ele>292</ele>
        <time>2022-08-27T22:45:50Z</time>
      </trkpt>
      <trkpt lat="45.82608" lon="4.59851">
        <ele>293</ele>
        <time>2022-08-27T22:45:56Z</time>
      </trkpt>
      <trkpt lat="45.82604" lon="4.59838">
        <ele>293</ele>
        <time>2022-08-27T22:45:57Z</time>
      </trkpt>
      <trkpt lat="45.82484" lon="4.59573">
        <ele>295</ele>
        <time>2022-08-27T22:46:37Z</time>
      </trkpt>
      <trkpt lat="45.82441" lon="4.59506">
        <ele>295</ele>
        <time>2022-08-27T22:46:48Z</time>
      </trkpt>
      <trkpt lat="45.82445" lon="4.59498">
        <ele>295</ele>
        <time>2022-08-27T22:46:49Z</time>
      </trkpt>
      <trkpt lat="45.82446" lon="4.59493">
        <ele>295</ele>
        <time>2022-08-27T22:46:50Z</time>
      </trkpt>
      <trkpt lat="45.82444" lon="4.59484">
        <ele>295</ele>
        <time>2022-08-27T22:46:51Z</time>
      </trkpt>
      <trkpt lat="45.82438" lon="4.59478">
        <ele>295</ele>
        <time>2022-08-27T22:46:53Z</time>
      </trkpt>
      <trkpt lat="45.82431" lon="4.59478">
        <ele>295</ele>
        <time>2022-08-27T22:46:54Z</time>
      </trkpt>
      <trkpt lat="45.82428" lon="4.59481">
        <ele>295</ele>
        <time>2022-08-27T22:46:54Z</time>
      </trkpt>
      <trkpt lat="45.82401" lon="4.594">
        <ele>296</ele>
        <time>2022-08-27T22:47:06Z</time>
      </trkpt>
      <trkpt lat="45.82384" lon="4.59358">
        <ele>296</ele>
        <time>2022-08-27T22:47:12Z</time>
      </trkpt>
      <trkpt lat="45.82349" lon="4.5929">
        <ele>297</ele>
        <time>2022-08-27T22:47:22Z</time>
      </trkpt>
      <trkpt lat="45.8233" lon="4.59231">
        <ele>296</ele>
        <time>2022-08-27T22:47:30Z</time>
      </trkpt>
      <trkpt lat="45.82261" lon="4.58964">
        <ele>302</ele>
        <time>2022-08-27T22:48:05Z</time>
      </trkpt>
      <trkpt lat="45.82233" lon="4.58837">
        <ele>304</ele>
        <time>2022-08-27T22:48:22Z</time>
      </trkpt>
      <trkpt lat="45.8222" lon="4.58793">
        <ele>306</ele>
        <time>2022-08-27T22:48:28Z</time>
      </trkpt>
      <trkpt lat="45.82209" lon="4.5876">
        <ele>308</ele>
        <time>2022-08-27T22:48:32Z</time>
      </trkpt>
      <trkpt lat="45.82166" lon="4.58654">
        <ele>311</ele>
        <time>2022-08-27T22:48:48Z</time>
      </trkpt>
      <trkpt lat="45.82144" lon="4.58605">
        <ele>311</ele>
        <time>2022-08-27T22:48:55Z</time>
      </trkpt>
      <trkpt lat="45.82126" lon="4.58569">
        <ele>312</ele>
        <time>2022-08-27T22:49:00Z</time>
      </trkpt>
      <trkpt lat="45.82057" lon="4.58459">
        <ele>317</ele>
        <time>2022-08-27T22:49:19Z</time>
      </trkpt>
      <trkpt lat="45.82011" lon="4.58378">
        <ele>321</ele>
        <time>2022-08-27T22:49:32Z</time>
      </trkpt>
      <trkpt lat="45.81997" lon="4.58345">
        <ele>323</ele>
        <time>2022-08-27T22:49:36Z</time>
      </trkpt>
      <trkpt lat="45.81986" lon="4.58304">
        <ele>323</ele>
        <time>2022-08-27T22:49:42Z</time>
      </trkpt>
      <trkpt lat="45.81982" lon="4.58276">
        <ele>322</ele>
        <time>2022-08-27T22:49:45Z</time>
      </trkpt>
      <trkpt lat="45.81981" lon="4.58248">
        <ele>322</ele>
        <time>2022-08-27T22:49:49Z</time>
      </trkpt>
      <trkpt lat="45.81986" lon="4.58195">
        <ele>322</ele>
        <time>2022-08-27T22:49:56Z</time>
      </trkpt>
      <trkpt lat="45.81999" lon="4.58159">
        <ele>323</ele>
        <time>2022-08-27T22:50:01Z</time>
      </trkpt>
      <trkpt lat="45.82019" lon="4.58128">
        <ele>321</ele>
        <time>2022-08-27T22:50:06Z</time>
      </trkpt>
      <trkpt lat="45.82038" lon="4.58105">
        <ele>320</ele>
        <time>2022-08-27T22:50:10Z</time>
      </trkpt>
      <trkpt lat="45.82114" lon="4.58027">
        <ele>315</ele>
        <time>2022-08-27T22:50:27Z</time>
      </trkpt>
      <trkpt lat="45.82139" lon="4.57974">
        <ele>313</ele>
        <time>2022-08-27T22:50:35Z</time>
      </trkpt>
      <trkpt lat="45.82215" lon="4.57839">
        <ele>311</ele>
        <time>2022-08-27T22:50:56Z</time>
      </trkpt>
      <trkpt lat="45.82253" lon="4.57765">
        <ele>313</ele>
        <time>2022-08-27T22:51:08Z</time>
      </trkpt>
      <trkpt lat="45.82288" lon="4.57684">
        <ele>313</ele>
        <time>2022-08-27T22:51:19Z</time>
      </trkpt>
      <trkpt lat="45.82311" lon="4.57597">
        <ele>316</ele>
        <time>2022-08-27T22:51:31Z</time>
      </trkpt>
      <trkpt lat="45.82315" lon="4.5757">
        <ele>317</ele>
        <time>2022-08-27T22:51:34Z</time>
      </trkpt>
      <trkpt lat="45.82313" lon="4.57539">
        <ele>318</ele>
        <time>2022-08-27T22:51:38Z</time>
      </trkpt>
      <trkpt lat="45.82307" lon="4.57519">
        <ele>319</ele>
        <time>2022-08-27T22:51:41Z</time>
      </trkpt>
      <trkpt lat="45.82296" lon="4.57499">
        <ele>320</ele>
        <time>2022-08-27T22:51:44Z</time>
      </trkpt>
      <trkpt lat="45.82254" lon="4.57448">
        <ele>324</ele>
        <time>2022-08-27T22:51:54Z</time>
      </trkpt>
      <trkpt lat="45.82408" lon="4.57171">
        <ele>337</ele>
        <time>2022-08-27T22:52:38Z</time>
      </trkpt>
      <trkpt lat="45.82443" lon="4.57076">
        <ele>342</ele>
        <time>2022-08-27T22:52:51Z</time>
      </trkpt>
      <trkpt lat="45.82457" lon="4.57049">
        <ele>343</ele>
        <time>2022-08-27T22:52:55Z</time>
      </trkpt>
      <trkpt lat="45.8248" lon="4.57034">
        <ele>343</ele>
        <time>2022-08-27T22:53:00Z</time>
      </trkpt>
      <trkpt lat="45.82572" lon="4.57056">
        <ele>346</ele>
        <time>2022-08-27T22:53:16Z</time>
      </trkpt>
      <trkpt lat="45.8265" lon="4.57045">
        <ele>350</ele>
        <time>2022-08-27T22:53:30Z</time>
      </trkpt>
      <trkpt lat="45.8273" lon="4.57041">
        <ele>349</ele>
        <time>2022-08-27T22:53:45Z</time>
      </trkpt>
      <trkpt lat="45.82784" lon="4.57007">
        <ele>350</ele>
        <time>2022-08-27T22:53:55Z</time>
      </trkpt>
      <trkpt lat="45.82803" lon="4.56999">
        <ele>350</ele>
        <time>2022-08-27T22:53:59Z</time>
      </trkpt>
      <trkpt lat="45.82819" lon="4.56995">
        <ele>350</ele>
        <time>2022-08-27T22:54:02Z</time>
      </trkpt>
      <trkpt lat="45.82843" lon="4.56996">
        <ele>350</ele>
        <time>2022-08-27T22:54:06Z</time>
      </trkpt>
      <trkpt lat="45.82895" lon="4.57005">
        <ele>351</ele>
        <time>2022-08-27T22:54:15Z</time>
      </trkpt>
      <trkpt lat="45.8292" lon="4.57011">
        <ele>350</ele>
        <time>2022-08-27T22:54:20Z</time>
      </trkpt>
      <trkpt lat="45.83055" lon="4.57065">
        <ele>350</ele>
        <time>2022-08-27T22:54:45Z</time>
      </trkpt>
      <trkpt lat="45.83093" lon="4.57076">
        <ele>351</ele>
        <time>2022-08-27T22:54:52Z</time>
      </trkpt>
      <trkpt lat="45.83109" lon="4.57077">
        <ele>351</ele>
        <time>2022-08-27T22:54:54Z</time>
      </trkpt>
      <trkpt lat="45.8332" lon="4.57041">
        <ele>353</ele>
        <time>2022-08-27T22:55:32Z</time>
      </trkpt>
      <trkpt lat="45.83342" lon="4.57031">
        <ele>353</ele>
        <time>2022-08-27T22:55:36Z</time>
      </trkpt>
      <trkpt lat="45.83364" lon="4.57015">
        <ele>353</ele>
        <time>2022-08-27T22:55:41Z</time>
      </trkpt>
      <trkpt lat="45.83379" lon="4.56999">
        <ele>354</ele>
        <time>2022-08-27T22:55:44Z</time>
      </trkpt>
      <trkpt lat="45.83396" lon="4.56974">
        <ele>354</ele>
        <time>2022-08-27T22:55:48Z</time>
      </trkpt>
      <trkpt lat="45.83406" lon="4.56952">
        <ele>355</ele>
        <time>2022-08-27T22:55:52Z</time>
      </trkpt>
      <trkpt lat="45.83416" lon="4.56925">
        <ele>356</ele>
        <time>2022-08-27T22:55:55Z</time>
      </trkpt>
      <trkpt lat="45.83422" lon="4.56898">
        <ele>357</ele>
        <time>2022-08-27T22:55:59Z</time>
      </trkpt>
      <trkpt lat="45.83431" lon="4.56827">
        <ele>358</ele>
        <time>2022-08-27T22:56:08Z</time>
      </trkpt>
      <trkpt lat="45.83434" lon="4.56785">
        <ele>359</ele>
        <time>2022-08-27T22:56:13Z</time>
      </trkpt>
      <trkpt lat="45.83434" lon="4.56696">
        <ele>364</ele>
        <time>2022-08-27T22:56:24Z</time>
      </trkpt>
      <trkpt lat="45.83436" lon="4.5666">
        <ele>367</ele>
        <time>2022-08-27T22:56:29Z</time>
      </trkpt>
      <trkpt lat="45.8344" lon="4.5664">
        <ele>369</ele>
        <time>2022-08-27T22:56:31Z</time>
      </trkpt>
      <trkpt lat="45.83447" lon="4.56623">
        <ele>371</ele>
        <time>2022-08-27T22:56:34Z</time>
      </trkpt>
      <trkpt lat="45.83456" lon="4.56607">
        <ele>372</ele>
        <time>2022-08-27T22:56:36Z</time>
      </trkpt>
      <trkpt lat="45.83472" lon="4.56593">
        <ele>373</ele>
        <time>2022-08-27T22:56:39Z</time>
      </trkpt>
      <trkpt lat="45.83485" lon="4.56585">
        <ele>373</ele>
        <time>2022-08-27T22:56:42Z</time>
      </trkpt>
      <trkpt lat="45.83501" lon="4.56581">
        <ele>373</ele>
        <time>2022-08-27T22:56:45Z</time>
      </trkpt>
      <trkpt lat="45.83551" lon="4.56576">
        <ele>369</ele>
        <time>2022-08-27T22:56:54Z</time>
      </trkpt>
      <trkpt lat="45.83577" lon="4.56572">
        <ele>367</ele>
        <time>2022-08-27T22:56:58Z</time>
      </trkpt>
      <trkpt lat="45.83601" lon="4.56564">
        <ele>365</ele>
        <time>2022-08-27T22:57:03Z</time>
      </trkpt>
      <trkpt lat="45.83622" lon="4.56553">
        <ele>364</ele>
        <time>2022-08-27T22:57:07Z</time>
      </trkpt>
      <trkpt lat="45.83661" lon="4.56524">
        <ele>365</ele>
        <time>2022-08-27T22:57:15Z</time>
      </trkpt>
      <trkpt lat="45.83718" lon="4.56475">
        <ele>366</ele>
        <time>2022-08-27T22:57:26Z</time>
      </trkpt>
      <trkpt lat="45.83743" lon="4.56441">
        <ele>368</ele>
        <time>2022-08-27T22:57:33Z</time>
      </trkpt>
      <trkpt lat="45.83753" lon="4.56423">
        <ele>369</ele>
        <time>2022-08-27T22:57:35Z</time>
      </trkpt>
      <trkpt lat="45.83768" lon="4.56378">
        <ele>367</ele>
        <time>2022-08-27T22:57:42Z</time>
      </trkpt>
      <trkpt lat="45.83773" lon="4.56347">
        <ele>367</ele>
        <time>2022-08-27T22:57:46Z</time>
      </trkpt>
      <trkpt lat="45.83774" lon="4.56314">
        <ele>366</ele>
        <time>2022-08-27T22:57:50Z</time>
      </trkpt>
      <trkpt lat="45.83726" lon="4.56167">
        <ele>369</ele>
        <time>2022-08-27T22:58:10Z</time>
      </trkpt>
      <trkpt lat="45.83662" lon="4.56074">
        <ele>375</ele>
        <time>2022-08-27T22:58:26Z</time>
      </trkpt>
      <trkpt lat="45.83637" lon="4.56024">
        <ele>374</ele>
        <time>2022-08-27T22:58:34Z</time>
      </trkpt>
      <trkpt lat="45.8364" lon="4.55983">
        <ele>373</ele>
        <time>2022-08-27T22:58:39Z</time>
      </trkpt>
      <trkpt lat="45.8366" lon="4.55952">
        <ele>371</ele>
        <time>2022-08-27T22:58:44Z</time>
      </trkpt>
      <trkpt lat="45.83688" lon="4.55912">
        <ele>366</ele>
        <time>2022-08-27T22:58:51Z</time>
      </trkpt>
      <trkpt lat="45.83701" lon="4.55857">
        <ele>364</ele>
        <time>2022-08-27T22:58:58Z</time>
      </trkpt>
      <trkpt lat="45.83696" lon="4.55814">
        <ele>364</ele>
        <time>2022-08-27T22:59:04Z</time>
      </trkpt>
      <trkpt lat="45.8368" lon="4.55767">
        <ele>364</ele>
        <time>2022-08-27T22:59:10Z</time>
      </trkpt>
      <trkpt lat="45.83646" lon="4.55721">
        <ele>365</ele>
        <time>2022-08-27T22:59:18Z</time>
      </trkpt>
      <trkpt lat="45.83451" lon="4.55515">
        <ele>375</ele>
        <time>2022-08-27T23:00:01Z</time>
      </trkpt>
      <trkpt lat="45.83439" lon="4.55489">
        <ele>377</ele>
        <time>2022-08-27T23:00:05Z</time>
      </trkpt>
      <trkpt lat="45.8344" lon="4.55477">
        <ele>378</ele>
        <time>2022-08-27T23:00:07Z</time>
      </trkpt>
      <trkpt lat="45.83442" lon="4.55468">
        <ele>379</ele>
        <time>2022-08-27T23:00:08Z</time>
      </trkpt>
      <trkpt lat="45.83452" lon="4.55456">
        <ele>380</ele>
        <time>2022-08-27T23:00:10Z</time>
      </trkpt>
      <trkpt lat="45.83465" lon="4.55448">
        <ele>380</ele>
        <time>2022-08-27T23:00:13Z</time>
      </trkpt>
      <trkpt lat="45.83511" lon="4.55439">
        <ele>378</ele>
        <time>2022-08-27T23:00:21Z</time>
      </trkpt>
      <trkpt lat="45.83557" lon="4.55451">
        <ele>373</ele>
        <time>2022-08-27T23:00:29Z</time>
      </trkpt>
      <trkpt lat="45.83584" lon="4.55454">
        <ele>370</ele>
        <time>2022-08-27T23:00:34Z</time>
      </trkpt>
      <trkpt lat="45.83605" lon="4.55443">
        <ele>370</ele>
        <time>2022-08-27T23:00:38Z</time>
      </trkpt>
      <trkpt lat="45.83621" lon="4.5542">
        <ele>371</ele>
        <time>2022-08-27T23:00:42Z</time>
      </trkpt>
      <trkpt lat="45.83628" lon="4.55394">
        <ele>370</ele>
        <time>2022-08-27T23:00:46Z</time>
      </trkpt>
      <trkpt lat="45.8363" lon="4.55362">
        <ele>370</ele>
        <time>2022-08-27T23:00:50Z</time>
      </trkpt>
      <trkpt lat="45.83566" lon="4.5518">
        <ele>379</ele>
        <time>2022-08-27T23:01:15Z</time>
      </trkpt>
      <trkpt lat="45.83551" lon="4.5511">
        <ele>380</ele>
        <time>2022-08-27T23:01:24Z</time>
      </trkpt>
      <trkpt lat="45.83539" lon="4.55065">
        <ele>380</ele>
        <time>2022-08-27T23:01:30Z</time>
      </trkpt>
      <trkpt lat="45.8349" lon="4.54995">
        <ele>383</ele>
        <time>2022-08-27T23:01:42Z</time>
      </trkpt>
      <trkpt lat="45.83485" lon="4.54965">
        <ele>386</ele>
        <time>2022-08-27T23:01:46Z</time>
      </trkpt>
      <trkpt lat="45.83486" lon="4.54937">
        <ele>387</ele>
        <time>2022-08-27T23:01:50Z</time>
      </trkpt>
      <trkpt lat="45.83493" lon="4.54909">
        <ele>387</ele>
        <time>2022-08-27T23:01:53Z</time>
      </trkpt>
      <trkpt lat="45.83505" lon="4.54871">
        <ele>387</ele>
        <time>2022-08-27T23:01:58Z</time>
      </trkpt>
      <trkpt lat="45.83519" lon="4.54778">
        <ele>392</ele>
        <time>2022-08-27T23:02:10Z</time>
      </trkpt>
      <trkpt lat="45.83554" lon="4.54674">
        <ele>392</ele>
        <time>2022-08-27T23:02:25Z</time>
      </trkpt>
      <trkpt lat="45.83566" lon="4.54601">
        <ele>392</ele>
        <time>2022-08-27T23:02:34Z</time>
      </trkpt>
      <trkpt lat="45.8358" lon="4.54528">
        <ele>390</ele>
        <time>2022-08-27T23:02:43Z</time>
      </trkpt>
      <trkpt lat="45.83583" lon="4.54456">
        <ele>391</ele>
        <time>2022-08-27T23:02:52Z</time>
      </trkpt>
      <trkpt lat="45.83594" lon="4.54417">
        <ele>391</ele>
        <time>2022-08-27T23:02:57Z</time>
      </trkpt>
      <trkpt lat="45.83607" lon="4.54402">
        <ele>392</ele>
        <time>2022-08-27T23:03:00Z</time>
      </trkpt>
      <trkpt lat="45.83627" lon="4.54401">
        <ele>392</ele>
        <time>2022-08-27T23:03:04Z</time>
      </trkpt>
      <trkpt lat="45.8379" lon="4.54369">
        <ele>395</ele>
        <time>2022-08-27T23:03:33Z</time>
      </trkpt>
      <trkpt lat="45.83846" lon="4.54343">
        <ele>396</ele>
        <time>2022-08-27T23:03:44Z</time>
      </trkpt>
      <trkpt lat="45.83916" lon="4.54293">
        <ele>401</ele>
        <time>2022-08-27T23:03:58Z</time>
      </trkpt>
      <trkpt lat="45.84039" lon="4.54212">
        <ele>403</ele>
        <time>2022-08-27T23:04:22Z</time>
      </trkpt>
      <trkpt lat="45.84116" lon="4.54166">
        <ele>401</ele>
        <time>2022-08-27T23:04:37Z</time>
      </trkpt>
      <trkpt lat="45.8413" lon="4.5415">
        <ele>401</ele>
        <time>2022-08-27T23:04:40Z</time>
      </trkpt>
      <trkpt lat="45.8416" lon="4.54122">
        <ele>401</ele>
        <time>2022-08-27T23:04:46Z</time>
      </trkpt>
      <trkpt lat="45.84195" lon="4.54085">
        <ele>401</ele>
        <time>2022-08-27T23:04:54Z</time>
      </trkpt>
      <trkpt lat="45.84214" lon="4.54058">
        <ele>402</ele>
        <time>2022-08-27T23:04:59Z</time>
      </trkpt>
      <trkpt lat="45.84245" lon="4.54011">
        <ele>405</ele>
        <time>2022-08-27T23:05:07Z</time>
      </trkpt>
      <trkpt lat="45.84268" lon="4.53985">
        <ele>407</ele>
        <time>2022-08-27T23:05:12Z</time>
      </trkpt>
      <trkpt lat="45.84328" lon="4.53931">
        <ele>407</ele>
        <time>2022-08-27T23:05:24Z</time>
      </trkpt>
      <trkpt lat="45.8436" lon="4.53906">
        <ele>407</ele>
        <time>2022-08-27T23:05:31Z</time>
      </trkpt>
      <trkpt lat="45.84388" lon="4.53888">
        <ele>407</ele>
        <time>2022-08-27T23:05:36Z</time>
      </trkpt>
      <trkpt lat="45.8442" lon="4.53882">
        <ele>404</ele>
        <time>2022-08-27T23:05:42Z</time>
      </trkpt>
      <trkpt lat="45.84438" lon="4.53873">
        <ele>404</ele>
        <time>2022-08-27T23:05:45Z</time>
      </trkpt>
      <trkpt lat="45.84463" lon="4.53855">
        <ele>403</ele>
        <time>2022-08-27T23:05:50Z</time>
      </trkpt>
      <trkpt lat="45.84482" lon="4.53825">
        <ele>404</ele>
        <time>2022-08-27T23:05:55Z</time>
      </trkpt>
      <trkpt lat="45.84493" lon="4.53802">
        <ele>404</ele>
        <time>2022-08-27T23:05:59Z</time>
      </trkpt>
      <trkpt lat="45.84518" lon="4.53698">
        <ele>408.6</ele>
        <time>2022-08-27T23:06:04Z</time>
      </trkpt>
      <trkpt lat="45.84524" lon="4.53652">
        <ele>408.7</ele>
      </trkpt>
      <trkpt lat="45.84524" lon="4.53616">
        <ele>409.7</ele>
      </trkpt>
      <trkpt lat="45.84512" lon="4.53613">
        <ele>412.3</ele>
      </trkpt>
      <trkpt lat="45.84507" lon="4.53645">
        <ele>412.8</ele>
      </trkpt>
      <trkpt lat="45.84489" lon="4.53681">
        <ele>414</ele>
      </trkpt>
      <trkpt lat="45.84459" lon="4.53708">
        <ele>416.2</ele>
        <time>2022-08-27T23:06:11Z</time>
      </trkpt>
      <trkpt lat="45.84443" lon="4.53704">
        <ele>414</ele>
        <time>2022-08-27T23:06:14Z</time>
      </trkpt>
      <trkpt lat="45.84397" lon="4.53701">
        <ele>420</ele>
        <time>2022-08-27T23:06:23Z</time>
      </trkpt>
      <trkpt lat="45.84364" lon="4.53722">
        <ele>425</ele>
        <time>2022-08-27T23:06:29Z</time>
      </trkpt>
      <trkpt lat="45.84306" lon="4.53787">
        <ele>432</ele>
        <time>2022-08-27T23:06:42Z</time>
      </trkpt>
      <trkpt lat="45.84269" lon="4.53838">
        <ele>431</ele>
        <time>2022-08-27T23:06:51Z</time>
      </trkpt>
      <trkpt lat="45.8423" lon="4.53878">
        <ele>431</ele>
        <time>2022-08-27T23:07:00Z</time>
      </trkpt>
      <trkpt lat="45.84179" lon="4.53917">
        <ele>433</ele>
        <time>2022-08-27T23:07:10Z</time>
      </trkpt>
      <trkpt lat="45.8416" lon="4.53925">
        <ele>434</ele>
        <time>2022-08-27T23:07:13Z</time>
      </trkpt>
      <trkpt lat="45.84129" lon="4.53939">
        <ele>436</ele>
        <time>2022-08-27T23:07:19Z</time>
      </trkpt>
      <trkpt lat="45.84083" lon="4.53929">
        <ele>447</ele>
        <time>2022-08-27T23:07:28Z</time>
      </trkpt>
      <trkpt lat="45.84047" lon="4.53957">
        <ele>444</ele>
        <time>2022-08-27T23:07:35Z</time>
      </trkpt>
      <trkpt lat="45.8402" lon="4.53967">
        <ele>444</ele>
        <time>2022-08-27T23:07:40Z</time>
      </trkpt>
      <trkpt lat="45.83948" lon="4.53978">
        <ele>447</ele>
        <time>2022-08-27T23:07:53Z</time>
      </trkpt>
      <trkpt lat="45.83879" lon="4.53966">
        <ele>452</ele>
        <time>2022-08-27T23:08:05Z</time>
      </trkpt>
      <trkpt lat="45.83826" lon="4.53946">
        <ele>456</ele>
        <time>2022-08-27T23:08:15Z</time>
      </trkpt>
      <trkpt lat="45.83782" lon="4.53917">
        <ele>461</ele>
        <time>2022-08-27T23:08:23Z</time>
      </trkpt>
      <trkpt lat="45.83722" lon="4.5387">
        <ele>464</ele>
        <time>2022-08-27T23:08:36Z</time>
      </trkpt>
      <trkpt lat="45.83671" lon="4.53815">
        <ele>466</ele>
        <time>2022-08-27T23:08:47Z</time>
      </trkpt>
      <trkpt lat="45.83636" lon="4.53767">
        <ele>471</ele>
        <time>2022-08-27T23:08:56Z</time>
      </trkpt>
      <trkpt lat="45.83604" lon="4.53735">
        <ele>471</ele>
        <time>2022-08-27T23:09:02Z</time>
      </trkpt>
      <trkpt lat="45.83516" lon="4.53663">
        <ele>469</ele>
        <time>2022-08-27T23:09:20Z</time>
      </trkpt>
      <trkpt lat="45.83504" lon="4.53648">
        <ele>468</ele>
        <time>2022-08-27T23:09:23Z</time>
      </trkpt>
      <trkpt lat="45.83468" lon="4.53586">
        <ele>466</ele>
        <time>2022-08-27T23:09:33Z</time>
      </trkpt>
      <trkpt lat="45.83451" lon="4.53568">
        <ele>466</ele>
        <time>2022-08-27T23:09:37Z</time>
      </trkpt>
      <trkpt lat="45.83434" lon="4.53558">
        <ele>464</ele>
        <time>2022-08-27T23:09:40Z</time>
      </trkpt>
      <trkpt lat="45.83337" lon="4.53526">
        <ele>450</ele>
        <time>2022-08-27T23:09:58Z</time>
      </trkpt>
      <trkpt lat="45.83323" lon="4.53518">
        <ele>448</ele>
        <time>2022-08-27T23:10:01Z</time>
      </trkpt>
      <trkpt lat="45.83312" lon="4.53509">
        <ele>446</ele>
        <time>2022-08-27T23:10:03Z</time>
      </trkpt>
      <trkpt lat="45.83304" lon="4.53495">
        <ele>445</ele>
        <time>2022-08-27T23:10:05Z</time>
      </trkpt>
      <trkpt lat="45.83298" lon="4.53474">
        <ele>444</ele>
        <time>2022-08-27T23:10:08Z</time>
      </trkpt>
      <trkpt lat="45.83294" lon="4.53452">
        <ele>444</ele>
        <time>2022-08-27T23:10:11Z</time>
      </trkpt>
      <trkpt lat="45.83293" lon="4.53395">
        <ele>443</ele>
        <time>2022-08-27T23:10:18Z</time>
      </trkpt>
      <trkpt lat="45.83294" lon="4.53381">
        <ele>443</ele>
        <time>2022-08-27T23:10:20Z</time>
      </trkpt>
      <trkpt lat="45.83298" lon="4.53362">
        <ele>443</ele>
        <time>2022-08-27T23:10:22Z</time>
      </trkpt>
      <trkpt lat="45.83316" lon="4.53309">
        <ele>444</ele>
        <time>2022-08-27T23:10:29Z</time>
      </trkpt>
      <trkpt lat="45.83321" lon="4.53274">
        <ele>444</ele>
        <time>2022-08-27T23:10:34Z</time>
      </trkpt>
      <trkpt lat="45.83315" lon="4.53243">
        <ele>441</ele>
        <time>2022-08-27T23:10:38Z</time>
      </trkpt>
      <trkpt lat="45.83308" lon="4.53237">
        <ele>439</ele>
        <time>2022-08-27T23:10:39Z</time>
      </trkpt>
      <trkpt lat="45.83322" lon="4.532">
        <ele>438</ele>
        <time>2022-08-27T23:10:45Z</time>
      </trkpt>
      <trkpt lat="45.83339" lon="4.53163">
        <ele>438</ele>
        <time>2022-08-27T23:10:50Z</time>
      </trkpt>
      <trkpt lat="45.83361" lon="4.53144">
        <ele>439</ele>
        <time>2022-08-27T23:10:55Z</time>
      </trkpt>
      <trkpt lat="45.8341" lon="4.5312">
        <ele>445</ele>
        <time>2022-08-27T23:11:04Z</time>
      </trkpt>
      <trkpt lat="45.83425" lon="4.53107">
        <ele>447</ele>
        <time>2022-08-27T23:11:07Z</time>
      </trkpt>
      <trkpt lat="45.83467" lon="4.53039">
        <ele>446</ele>
        <time>2022-08-27T23:11:18Z</time>
      </trkpt>
      <trkpt lat="45.83481" lon="4.53026">
        <ele>446</ele>
        <time>2022-08-27T23:11:21Z</time>
      </trkpt>
      <trkpt lat="45.83533" lon="4.53001">
        <ele>449</ele>
        <time>2022-08-27T23:11:31Z</time>
      </trkpt>
      <trkpt lat="45.83549" lon="4.52987">
        <ele>451</ele>
        <time>2022-08-27T23:11:34Z</time>
      </trkpt>
      <trkpt lat="45.8356" lon="4.52972">
        <ele>452</ele>
        <time>2022-08-27T23:11:37Z</time>
      </trkpt>
      <trkpt lat="45.83569" lon="4.52954">
        <ele>453</ele>
        <time>2022-08-27T23:11:40Z</time>
      </trkpt>
      <trkpt lat="45.83601" lon="4.52833">
        <ele>459</ele>
        <time>2022-08-27T23:11:56Z</time>
      </trkpt>
      <trkpt lat="45.83605" lon="4.52802">
        <ele>461</ele>
        <time>2022-08-27T23:12:00Z</time>
      </trkpt>
      <trkpt lat="45.83604" lon="4.52746">
        <ele>463</ele>
        <time>2022-08-27T23:12:07Z</time>
      </trkpt>
      <trkpt lat="45.83587" lon="4.52644">
        <ele>463</ele>
        <time>2022-08-27T23:12:20Z</time>
      </trkpt>
      <trkpt lat="45.83585" lon="4.52608">
        <ele>462</ele>
        <time>2022-08-27T23:12:24Z</time>
      </trkpt>
      <trkpt lat="45.83585" lon="4.52593">
        <ele>463</ele>
        <time>2022-08-27T23:12:26Z</time>
      </trkpt>
      <trkpt lat="45.83588" lon="4.52576">
        <ele>464</ele>
        <time>2022-08-27T23:12:28Z</time>
      </trkpt>
      <trkpt lat="45.83595" lon="4.52549">
        <ele>464</ele>
        <time>2022-08-27T23:12:32Z</time>
      </trkpt>
      <trkpt lat="45.83614" lon="4.52496">
        <ele>466</ele>
        <time>2022-08-27T23:12:39Z</time>
      </trkpt>
      <trkpt lat="45.83624" lon="4.52478">
        <ele>467</ele>
        <time>2022-08-27T23:12:42Z</time>
      </trkpt>
      <trkpt lat="45.83661" lon="4.5243">
        <ele>469</ele>
        <time>2022-08-27T23:12:51Z</time>
      </trkpt>
      <trkpt lat="45.83685" lon="4.52394">
        <ele>472</ele>
        <time>2022-08-27T23:12:57Z</time>
      </trkpt>
      <trkpt lat="45.8372" lon="4.52328">
        <ele>473</ele>
        <time>2022-08-27T23:13:07Z</time>
      </trkpt>
      <trkpt lat="45.83739" lon="4.52297">
        <ele>475</ele>
        <time>2022-08-27T23:13:12Z</time>
      </trkpt>
      <trkpt lat="45.83775" lon="4.52252">
        <ele>478</ele>
        <time>2022-08-27T23:13:21Z</time>
      </trkpt>
      <trkpt lat="45.83785" lon="4.5223">
        <ele>480</ele>
        <time>2022-08-27T23:13:24Z</time>
      </trkpt>
      <trkpt lat="45.83788" lon="4.52218">
        <ele>481</ele>
        <time>2022-08-27T23:13:26Z</time>
      </trkpt>
      <trkpt lat="45.8379" lon="4.522">
        <ele>481</ele>
        <time>2022-08-27T23:13:28Z</time>
      </trkpt>
      <trkpt lat="45.83788" lon="4.5217">
        <ele>480</ele>
        <time>2022-08-27T23:13:32Z</time>
      </trkpt>
      <trkpt lat="45.83779" lon="4.52107">
        <ele>479</ele>
        <time>2022-08-27T23:13:40Z</time>
      </trkpt>
      <trkpt lat="45.83778" lon="4.52085">
        <ele>479</ele>
        <time>2022-08-27T23:13:42Z</time>
      </trkpt>
      <trkpt lat="45.83779" lon="4.52065">
        <ele>480</ele>
        <time>2022-08-27T23:13:45Z</time>
      </trkpt>
      <trkpt lat="45.83788" lon="4.52001">
        <ele>482</ele>
        <time>2022-08-27T23:13:53Z</time>
      </trkpt>
      <trkpt lat="45.83811" lon="4.51871">
        <ele>484</ele>
        <time>2022-08-27T23:14:10Z</time>
      </trkpt>
      <trkpt lat="45.83836" lon="4.51815">
        <ele>486</ele>
        <time>2022-08-27T23:14:18Z</time>
      </trkpt>
      <trkpt lat="45.83876" lon="4.51745">
        <ele>490</ele>
        <time>2022-08-27T23:14:29Z</time>
      </trkpt>
      <trkpt lat="45.8388" lon="4.51734">
        <ele>491</ele>
        <time>2022-08-27T23:14:31Z</time>
      </trkpt>
      <trkpt lat="45.83882" lon="4.51722">
        <ele>493</ele>
        <time>2022-08-27T23:14:32Z</time>
      </trkpt>
      <trkpt lat="45.83881" lon="4.51707">
        <ele>493</ele>
        <time>2022-08-27T23:14:34Z</time>
      </trkpt>
      <trkpt lat="45.83879" lon="4.51699">
        <ele>493</ele>
        <time>2022-08-27T23:14:35Z</time>
      </trkpt>
      <trkpt lat="45.83827" lon="4.5153">
        <ele>498</ele>
        <time>2022-08-27T23:14:58Z</time>
      </trkpt>
      <trkpt lat="45.83824" lon="4.51506">
        <ele>500</ele>
        <time>2022-08-27T23:15:01Z</time>
      </trkpt>
      <trkpt lat="45.8382" lon="4.51359">
        <ele>500</ele>
        <time>2022-08-27T23:15:19Z</time>
      </trkpt>
      <trkpt lat="45.83823" lon="4.5133">
        <ele>500</ele>
        <time>2022-08-27T23:15:23Z</time>
      </trkpt>
      <trkpt lat="45.83848" lon="4.51256">
        <ele>500</ele>
        <time>2022-08-27T23:15:33Z</time>
      </trkpt>
      <trkpt lat="45.8388" lon="4.51189">
        <ele>502</ele>
        <time>2022-08-27T23:15:43Z</time>
      </trkpt>
      <trkpt lat="45.83884" lon="4.51163">
        <ele>502</ele>
        <time>2022-08-27T23:15:46Z</time>
      </trkpt>
      <trkpt lat="45.83881" lon="4.51139">
        <ele>503</ele>
        <time>2022-08-27T23:15:49Z</time>
      </trkpt>
      <trkpt lat="45.83839" lon="4.50971">
        <ele>508</ele>
        <time>2022-08-27T23:16:12Z</time>
      </trkpt>
      <trkpt lat="45.83772" lon="4.50769">
        <ele>515</ele>
        <time>2022-08-27T23:16:39Z</time>
      </trkpt>
      <trkpt lat="45.83767" lon="4.5076">
        <ele>516</ele>
        <time>2022-08-27T23:16:41Z</time>
      </trkpt>
      <trkpt lat="45.83754" lon="4.50748">
        <ele>516</ele>
        <time>2022-08-27T23:16:43Z</time>
      </trkpt>
      <trkpt lat="45.8372" lon="4.50726">
        <ele>517</ele>
        <time>2022-08-27T23:16:50Z</time>
      </trkpt>
      <trkpt lat="45.83704" lon="4.50709">
        <ele>518</ele>
        <time>2022-08-27T23:16:54Z</time>
      </trkpt>
      <trkpt lat="45.83665" lon="4.50651">
        <ele>522</ele>
        <time>2022-08-27T23:17:04Z</time>
      </trkpt>
      <trkpt lat="45.8364" lon="4.50607">
        <ele>525</ele>
        <time>2022-08-27T23:17:11Z</time>
      </trkpt>
      <trkpt lat="45.83621" lon="4.5058">
        <ele>529</ele>
        <time>2022-08-27T23:17:15Z</time>
      </trkpt>
      <trkpt lat="45.83611" lon="4.5057">
        <ele>530</ele>
        <time>2022-08-27T23:17:18Z</time>
      </trkpt>
      <trkpt lat="45.83597" lon="4.50564">
        <ele>531</ele>
        <time>2022-08-27T23:17:20Z</time>
      </trkpt>
      <trkpt lat="45.83587" lon="4.50563">
        <ele>531</ele>
        <time>2022-08-27T23:17:22Z</time>
      </trkpt>
      <trkpt lat="45.83568" lon="4.50564">
        <ele>532</ele>
        <time>2022-08-27T23:17:25Z</time>
      </trkpt>
      <trkpt lat="45.83559" lon="4.50568">
        <ele>531</ele>
        <time>2022-08-27T23:17:27Z</time>
      </trkpt>
      <trkpt lat="45.83549" lon="4.50577">
        <ele>530</ele>
        <time>2022-08-27T23:17:29Z</time>
      </trkpt>
      <trkpt lat="45.83526" lon="4.50618">
        <ele>523</ele>
        <time>2022-08-27T23:17:36Z</time>
      </trkpt>
      <trkpt lat="45.8352" lon="4.50623">
        <ele>523</ele>
        <time>2022-08-27T23:17:37Z</time>
      </trkpt>
      <trkpt lat="45.83513" lon="4.50623">
        <ele>523</ele>
        <time>2022-08-27T23:17:38Z</time>
      </trkpt>
      <trkpt lat="45.83501" lon="4.50612">
        <ele>526</ele>
        <time>2022-08-27T23:17:41Z</time>
      </trkpt>
      <trkpt lat="45.83477" lon="4.50571">
        <ele>530</ele>
        <time>2022-08-27T23:17:47Z</time>
      </trkpt>
      <trkpt lat="45.83448" lon="4.50506">
        <ele>540</ele>
        <time>2022-08-27T23:17:57Z</time>
      </trkpt>
      <trkpt lat="45.83433" lon="4.50483">
        <ele>544</ele>
        <time>2022-08-27T23:18:01Z</time>
      </trkpt>
      <trkpt lat="45.83414" lon="4.50462">
        <ele>546</ele>
        <time>2022-08-27T23:18:05Z</time>
      </trkpt>
      <trkpt lat="45.83393" lon="4.50443">
        <ele>549</ele>
        <time>2022-08-27T23:18:10Z</time>
      </trkpt>
      <trkpt lat="45.83346" lon="4.50422">
        <ele>548</ele>
        <time>2022-08-27T23:18:18Z</time>
      </trkpt>
      <trkpt lat="45.83321" lon="4.50409">
        <ele>549</ele>
        <time>2022-08-27T23:18:23Z</time>
      </trkpt>
      <trkpt lat="45.8325" lon="4.50343">
        <ele>559</ele>
        <time>2022-08-27T23:18:38Z</time>
      </trkpt>
      <trkpt lat="45.83223" lon="4.50307">
        <ele>563</ele>
        <time>2022-08-27T23:18:45Z</time>
      </trkpt>
      <trkpt lat="45.83205" lon="4.50264">
        <ele>571</ele>
        <time>2022-08-27T23:18:51Z</time>
      </trkpt>
      <trkpt lat="45.83186" lon="4.50237">
        <ele>574</ele>
        <time>2022-08-27T23:18:56Z</time>
      </trkpt>
      <trkpt lat="45.83179" lon="4.5023">
        <ele>574</ele>
        <time>2022-08-27T23:18:57Z</time>
      </trkpt>
      <trkpt lat="45.83167" lon="4.50226">
        <ele>573</ele>
        <time>2022-08-27T23:18:59Z</time>
      </trkpt>
      <trkpt lat="45.8312" lon="4.5022">
        <ele>562</ele>
        <time>2022-08-27T23:19:08Z</time>
      </trkpt>
      <trkpt lat="45.83112" lon="4.50212">
        <ele>562</ele>
        <time>2022-08-27T23:19:09Z</time>
      </trkpt>
      <trkpt lat="45.83105" lon="4.50195">
        <ele>563</ele>
        <time>2022-08-27T23:19:12Z</time>
      </trkpt>
      <trkpt lat="45.83095" lon="4.50163">
        <ele>567</ele>
        <time>2022-08-27T23:19:16Z</time>
      </trkpt>
      <trkpt lat="45.8309" lon="4.50138">
        <ele>568</ele>
        <time>2022-08-27T23:19:19Z</time>
      </trkpt>
      <trkpt lat="45.83086" lon="4.50094">
        <ele>572</ele>
        <time>2022-08-27T23:19:25Z</time>
      </trkpt>
      <trkpt lat="45.8308" lon="4.5002">
        <ele>576</ele>
        <time>2022-08-27T23:19:34Z</time>
      </trkpt>
      <trkpt lat="45.8307" lon="4.4994">
        <ele>575</ele>
        <time>2022-08-27T23:19:44Z</time>
      </trkpt>
      <trkpt lat="45.83069" lon="4.49915">
        <ele>575</ele>
        <time>2022-08-27T23:19:47Z</time>
      </trkpt>
      <trkpt lat="45.8307" lon="4.49876">
        <ele>574</ele>
        <time>2022-08-27T23:19:52Z</time>
      </trkpt>
      <trkpt lat="45.83078" lon="4.49835">
        <ele>575</ele>
        <time>2022-08-27T23:19:57Z</time>
      </trkpt>
      <trkpt lat="45.83089" lon="4.49796">
        <ele>576</ele>
        <time>2022-08-27T23:20:03Z</time>
      </trkpt>
      <trkpt lat="45.83134" lon="4.49674">
        <ele>578</ele>
        <time>2022-08-27T23:20:20Z</time>
      </trkpt>
      <trkpt lat="45.83145" lon="4.49651">
        <ele>579</ele>
        <time>2022-08-27T23:20:23Z</time>
      </trkpt>
      <trkpt lat="45.83157" lon="4.49636">
        <ele>581</ele>
        <time>2022-08-27T23:20:26Z</time>
      </trkpt>
      <trkpt lat="45.83214" lon="4.49585">
        <ele>589</ele>
        <time>2022-08-27T23:20:38Z</time>
      </trkpt>
      <trkpt lat="45.83233" lon="4.49561">
        <ele>591</ele>
        <time>2022-08-27T23:20:43Z</time>
      </trkpt>
      <trkpt lat="45.83258" lon="4.49519">
        <ele>591</ele>
        <time>2022-08-27T23:20:49Z</time>
      </trkpt>
      <trkpt lat="45.83294" lon="4.49475">
        <ele>597</ele>
        <time>2022-08-27T23:20:58Z</time>
      </trkpt>
      <trkpt lat="45.83319" lon="4.49435">
        <ele>600</ele>
        <time>2022-08-27T23:21:04Z</time>
      </trkpt>
      <trkpt lat="45.83356" lon="4.49368">
        <ele>602</ele>
        <time>2022-08-27T23:21:15Z</time>
      </trkpt>
      <trkpt lat="45.83375" lon="4.4934">
        <ele>602</ele>
        <time>2022-08-27T23:21:20Z</time>
      </trkpt>
      <trkpt lat="45.83426" lon="4.49292">
        <ele>606</ele>
        <time>2022-08-27T23:21:31Z</time>
      </trkpt>
      <trkpt lat="45.83449" lon="4.49275">
        <ele>606</ele>
        <time>2022-08-27T23:21:35Z</time>
      </trkpt>
      <trkpt lat="45.8347" lon="4.49266">
        <ele>608</ele>
        <time>2022-08-27T23:21:39Z</time>
      </trkpt>
      <trkpt lat="45.83547" lon="4.49241">
        <ele>616</ele>
        <time>2022-08-27T23:21:53Z</time>
      </trkpt>
      <trkpt lat="45.83579" lon="4.49228">
        <ele>620</ele>
        <time>2022-08-27T23:21:59Z</time>
      </trkpt>
      <trkpt lat="45.83622" lon="4.49194">
        <ele>625</ele>
        <time>2022-08-27T23:22:08Z</time>
      </trkpt>
      <trkpt lat="45.83632" lon="4.49171">
        <ele>625</ele>
        <time>2022-08-27T23:22:11Z</time>
      </trkpt>
      <trkpt lat="45.83632" lon="4.49144">
        <ele>627</ele>
        <time>2022-08-27T23:22:15Z</time>
      </trkpt>
      <trkpt lat="45.83622" lon="4.49118">
        <ele>627</ele>
        <time>2022-08-27T23:22:18Z</time>
      </trkpt>
      <trkpt lat="45.83596" lon="4.49074">
        <ele>625</ele>
        <time>2022-08-27T23:22:26Z</time>
      </trkpt>
      <trkpt lat="45.83586" lon="4.4905">
        <ele>625</ele>
        <time>2022-08-27T23:22:29Z</time>
      </trkpt>
      <trkpt lat="45.83586" lon="4.49021">
        <ele>627</ele>
        <time>2022-08-27T23:22:33Z</time>
      </trkpt>
      <trkpt lat="45.83597" lon="4.48984">
        <ele>631</ele>
        <time>2022-08-27T23:22:38Z</time>
      </trkpt>
      <trkpt lat="45.83631" lon="4.48918">
        <ele>636</ele>
        <time>2022-08-27T23:22:48Z</time>
      </trkpt>
      <trkpt lat="45.8364" lon="4.48888">
        <ele>640</ele>
        <time>2022-08-27T23:22:52Z</time>
      </trkpt>
      <trkpt lat="45.83642" lon="4.48864">
        <ele>641</ele>
        <time>2022-08-27T23:22:55Z</time>
      </trkpt>
      <trkpt lat="45.83637" lon="4.48853">
        <ele>641</ele>
        <time>2022-08-27T23:22:56Z</time>
      </trkpt>
      <trkpt lat="45.83609" lon="4.4883">
        <ele>636</ele>
        <time>2022-08-27T23:23:02Z</time>
      </trkpt>
      <trkpt lat="45.83592" lon="4.48807">
        <ele>636</ele>
        <time>2022-08-27T23:23:06Z</time>
      </trkpt>
      <trkpt lat="45.83584" lon="4.48779">
        <ele>638</ele>
        <time>2022-08-27T23:23:10Z</time>
      </trkpt>
      <trkpt lat="45.83583" lon="4.48733">
        <ele>642</ele>
        <time>2022-08-27T23:23:16Z</time>
      </trkpt>
      <trkpt lat="45.83598" lon="4.48621">
        <ele>647</ele>
        <time>2022-08-27T23:23:30Z</time>
      </trkpt>
      <trkpt lat="45.83613" lon="4.48544">
        <ele>652</ele>
        <time>2022-08-27T23:23:40Z</time>
      </trkpt>
      <trkpt lat="45.83625" lon="4.48402">
        <ele>658</ele>
        <time>2022-08-27T23:23:58Z</time>
      </trkpt>
      <trkpt lat="45.83622" lon="4.48379">
        <ele>659</ele>
        <time>2022-08-27T23:24:00Z</time>
      </trkpt>
      <trkpt lat="45.83597" lon="4.48298">
        <ele>660</ele>
        <time>2022-08-27T23:24:11Z</time>
      </trkpt>
      <trkpt lat="45.83579" lon="4.48185">
        <ele>665</ele>
        <time>2022-08-27T23:24:26Z</time>
      </trkpt>
      <trkpt lat="45.83568" lon="4.48155">
        <ele>667</ele>
        <time>2022-08-27T23:24:30Z</time>
      </trkpt>
      <trkpt lat="45.83554" lon="4.48134">
        <ele>668</ele>
        <time>2022-08-27T23:24:34Z</time>
      </trkpt>
      <trkpt lat="45.83528" lon="4.48107">
        <ele>669</ele>
        <time>2022-08-27T23:24:39Z</time>
      </trkpt>
      <trkpt lat="45.83486" lon="4.48073">
        <ele>673</ele>
        <time>2022-08-27T23:24:48Z</time>
      </trkpt>
      <trkpt lat="45.83368" lon="4.48006">
        <ele>684</ele>
        <time>2022-08-27T23:25:10Z</time>
      </trkpt>
      <trkpt lat="45.83345" lon="4.47996">
        <ele>684</ele>
        <time>2022-08-27T23:25:15Z</time>
      </trkpt>
      <trkpt lat="45.83291" lon="4.47986">
        <ele>682</ele>
        <time>2022-08-27T23:25:24Z</time>
      </trkpt>
      <trkpt lat="45.83279" lon="4.47978">
        <ele>683</ele>
        <time>2022-08-27T23:25:27Z</time>
      </trkpt>
      <trkpt lat="45.83256" lon="4.47953">
        <ele>685</ele>
        <time>2022-08-27T23:25:32Z</time>
      </trkpt>
      <trkpt lat="45.83246" lon="4.47931">
        <ele>688</ele>
        <time>2022-08-27T23:25:35Z</time>
      </trkpt>
      <trkpt lat="45.83245" lon="4.47897">
        <ele>690</ele>
        <time>2022-08-27T23:25:39Z</time>
      </trkpt>
      <trkpt lat="45.83256" lon="4.47809">
        <ele>692</ele>
        <time>2022-08-27T23:25:50Z</time>
      </trkpt>
      <trkpt lat="45.83246" lon="4.4777">
        <ele>690</ele>
        <time>2022-08-27T23:25:56Z</time>
      </trkpt>
      <trkpt lat="45.83208" lon="4.47659">
        <ele>690</ele>
        <time>2022-08-27T23:26:11Z</time>
      </trkpt>
      <trkpt lat="45.83202" lon="4.47618">
        <ele>691</ele>
        <time>2022-08-27T23:26:16Z</time>
      </trkpt>
      <trkpt lat="45.83202" lon="4.47547">
        <ele>688</ele>
        <time>2022-08-27T23:26:25Z</time>
      </trkpt>
      <trkpt lat="45.83187" lon="4.47501">
        <ele>689</ele>
        <time>2022-08-27T23:26:31Z</time>
      </trkpt>
      <trkpt lat="45.83159" lon="4.47458">
        <ele>688</ele>
        <time>2022-08-27T23:26:39Z</time>
      </trkpt>
      <trkpt lat="45.83106" lon="4.47405">
        <ele>687</ele>
        <time>2022-08-27T23:26:50Z</time>
      </trkpt>
      <trkpt lat="45.83073" lon="4.47347">
        <ele>688</ele>
        <time>2022-08-27T23:26:59Z</time>
      </trkpt>
      <trkpt lat="45.83047" lon="4.47278">
        <ele>689</ele>
        <time>2022-08-27T23:27:09Z</time>
      </trkpt>
      <trkpt lat="45.83024" lon="4.47183">
        <ele>683</ele>
        <time>2022-08-27T23:27:22Z</time>
      </trkpt>
      <trkpt lat="45.83001" lon="4.47105">
        <ele>678</ele>
        <time>2022-08-27T23:27:32Z</time>
      </trkpt>
      <trkpt lat="45.82976" lon="4.47066">
        <ele>675</ele>
        <time>2022-08-27T23:27:39Z</time>
      </trkpt>
      <trkpt lat="45.82936" lon="4.4704">
        <ele>674</ele>
        <time>2022-08-27T23:27:46Z</time>
      </trkpt>
      <trkpt lat="45.82886" lon="4.47022">
        <ele>674</ele>
        <time>2022-08-27T23:27:56Z</time>
      </trkpt>
      <trkpt lat="45.82829" lon="4.47009">
        <ele>673</ele>
        <time>2022-08-27T23:28:06Z</time>
      </trkpt>
      <trkpt lat="45.82785" lon="4.47011">
        <ele>671</ele>
        <time>2022-08-27T23:28:14Z</time>
      </trkpt>
      <trkpt lat="45.82753" lon="4.47026">
        <ele>672</ele>
        <time>2022-08-27T23:28:20Z</time>
      </trkpt>
      <trkpt lat="45.82695" lon="4.47067">
        <ele>670</ele>
        <time>2022-08-27T23:28:31Z</time>
      </trkpt>
      <trkpt lat="45.82621" lon="4.47113">
        <ele>672</ele>
        <time>2022-08-27T23:28:46Z</time>
      </trkpt>
      <trkpt lat="45.8261" lon="4.47116">
        <ele>671</ele>
        <time>2022-08-27T23:28:48Z</time>
      </trkpt>
      <trkpt lat="45.82477" lon="4.47127">
        <ele>670</ele>
        <time>2022-08-27T23:29:11Z</time>
      </trkpt>
      <trkpt lat="45.82405" lon="4.47119">
        <ele>671</ele>
        <time>2022-08-27T23:29:24Z</time>
      </trkpt>
      <trkpt lat="45.82362" lon="4.4711">
        <ele>673</ele>
        <time>2022-08-27T23:29:32Z</time>
      </trkpt>
      <trkpt lat="45.82355" lon="4.47107">
        <ele>673</ele>
        <time>2022-08-27T23:29:33Z</time>
      </trkpt>
      <trkpt lat="45.82315" lon="4.47089">
        <ele>673</ele>
        <time>2022-08-27T23:29:41Z</time>
      </trkpt>
      <trkpt lat="45.82281" lon="4.47061">
        <ele>674</ele>
        <time>2022-08-27T23:29:48Z</time>
      </trkpt>
      <trkpt lat="45.82267" lon="4.47041">
        <ele>673</ele>
        <time>2022-08-27T23:29:51Z</time>
      </trkpt>
      <trkpt lat="45.82255" lon="4.47013">
        <ele>672</ele>
        <time>2022-08-27T23:29:55Z</time>
      </trkpt>
      <trkpt lat="45.82243" lon="4.46997">
        <ele>671</ele>
        <time>2022-08-27T23:29:58Z</time>
      </trkpt>
      <trkpt lat="45.82209" lon="4.46972">
        <ele>667</ele>
        <time>2022-08-27T23:30:05Z</time>
      </trkpt>
      <trkpt lat="45.82194" lon="4.46966">
        <ele>667</ele>
        <time>2022-08-27T23:30:08Z</time>
      </trkpt>
      <trkpt lat="45.82182" lon="4.4697">
        <ele>667</ele>
        <time>2022-08-27T23:30:10Z</time>
      </trkpt>
      <trkpt lat="45.82126" lon="4.47013">
        <ele>670</ele>
        <time>2022-08-27T23:30:21Z</time>
      </trkpt>
      <trkpt lat="45.821" lon="4.47027">
        <ele>672</ele>
        <time>2022-08-27T23:30:26Z</time>
      </trkpt>
      <trkpt lat="45.81987" lon="4.47069">
        <ele>676</ele>
        <time>2022-08-27T23:30:47Z</time>
      </trkpt>
      <trkpt lat="45.81964" lon="4.47068">
        <ele>677</ele>
        <time>2022-08-27T23:30:51Z</time>
      </trkpt>
      <trkpt lat="45.81946" lon="4.4706">
        <ele>677</ele>
        <time>2022-08-27T23:30:54Z</time>
      </trkpt>
      <trkpt lat="45.81929" lon="4.47041">
        <ele>676</ele>
        <time>2022-08-27T23:30:58Z</time>
      </trkpt>
      <trkpt lat="45.81912" lon="4.47003">
        <ele>672</ele>
        <time>2022-08-27T23:31:04Z</time>
      </trkpt>
      <trkpt lat="45.81906" lon="4.46991">
        <ele>672</ele>
        <time>2022-08-27T23:31:06Z</time>
      </trkpt>
      <trkpt lat="45.81829" lon="4.46922">
        <ele>674</ele>
        <time>2022-08-27T23:31:22Z</time>
      </trkpt>
      <trkpt lat="45.81797" lon="4.46886">
        <ele>671</ele>
        <time>2022-08-27T23:31:29Z</time>
      </trkpt>
      <trkpt lat="45.81784" lon="4.46876">
        <ele>670</ele>
        <time>2022-08-27T23:31:32Z</time>
      </trkpt>
      <trkpt lat="45.81765" lon="4.46869">
        <ele>670</ele>
        <time>2022-08-27T23:31:35Z</time>
      </trkpt>
      <trkpt lat="45.81738" lon="4.4687">
        <ele>670</ele>
        <time>2022-08-27T23:31:40Z</time>
      </trkpt>
      <trkpt lat="45.81602" lon="4.46924">
        <ele>671</ele>
        <time>2022-08-27T23:32:05Z</time>
      </trkpt>
      <trkpt lat="45.81583" lon="4.46939">
        <ele>671</ele>
        <time>2022-08-27T23:32:09Z</time>
      </trkpt>
      <trkpt lat="45.81568" lon="4.46959">
        <ele>673</ele>
        <time>2022-08-27T23:32:12Z</time>
      </trkpt>
      <trkpt lat="45.81543" lon="4.46998">
        <ele>676</ele>
        <time>2022-08-27T23:32:19Z</time>
      </trkpt>
      <trkpt lat="45.81523" lon="4.4702">
        <ele>679</ele>
        <time>2022-08-27T23:32:24Z</time>
      </trkpt>
      <trkpt lat="45.81483" lon="4.47045">
        <ele>681</ele>
        <time>2022-08-27T23:32:31Z</time>
      </trkpt>
      <trkpt lat="45.81455" lon="4.47056">
        <ele>681</ele>
        <time>2022-08-27T23:32:36Z</time>
      </trkpt>
      <trkpt lat="45.81392" lon="4.47073">
        <ele>680</ele>
        <time>2022-08-27T23:32:48Z</time>
      </trkpt>
      <trkpt lat="45.81337" lon="4.47072">
        <ele>677</ele>
        <time>2022-08-27T23:32:58Z</time>
      </trkpt>
      <trkpt lat="45.81271" lon="4.47077">
        <ele>677</ele>
        <time>2022-08-27T23:33:09Z</time>
      </trkpt>
      <trkpt lat="45.81241" lon="4.47083">
        <ele>677</ele>
        <time>2022-08-27T23:33:15Z</time>
      </trkpt>
      <trkpt lat="45.81218" lon="4.47095">
        <ele>678</ele>
        <time>2022-08-27T23:33:19Z</time>
      </trkpt>
      <trkpt lat="45.81202" lon="4.47113">
        <ele>679</ele>
        <time>2022-08-27T23:33:23Z</time>
      </trkpt>
      <trkpt lat="45.81187" lon="4.47136">
        <ele>681</ele>
        <time>2022-08-27T23:33:27Z</time>
      </trkpt>
      <trkpt lat="45.81169" lon="4.47188">
        <ele>685</ele>
        <time>2022-08-27T23:33:34Z</time>
      </trkpt>
      <trkpt lat="45.81151" lon="4.47222">
        <ele>687</ele>
        <time>2022-08-27T23:33:39Z</time>
      </trkpt>
      <trkpt lat="45.81123" lon="4.47256">
        <ele>687</ele>
        <time>2022-08-27T23:33:46Z</time>
      </trkpt>
      <trkpt lat="45.81106" lon="4.47263">
        <ele>686</ele>
        <time>2022-08-27T23:33:49Z</time>
      </trkpt>
      <trkpt lat="45.81076" lon="4.47263">
        <ele>684</ele>
        <time>2022-08-27T23:33:54Z</time>
      </trkpt>
      <trkpt lat="45.81057" lon="4.47257">
        <ele>684</ele>
        <time>2022-08-27T23:33:58Z</time>
      </trkpt>
      <trkpt lat="45.81014" lon="4.47232">
        <ele>684</ele>
        <time>2022-08-27T23:34:06Z</time>
      </trkpt>
      <trkpt lat="45.8099" lon="4.47226">
        <ele>684</ele>
        <time>2022-08-27T23:34:10Z</time>
      </trkpt>
      <trkpt lat="45.80927" lon="4.4724">
        <ele>685</ele>
        <time>2022-08-27T23:34:22Z</time>
      </trkpt>
      <trkpt lat="45.80917" lon="4.47241">
        <ele>684</ele>
        <time>2022-08-27T23:34:23Z</time>
      </trkpt>
      <trkpt lat="45.80911" lon="4.47238">
        <ele>684</ele>
        <time>2022-08-27T23:34:24Z</time>
      </trkpt>
      <trkpt lat="45.80874" lon="4.47212">
        <ele>684</ele>
        <time>2022-08-27T23:34:32Z</time>
      </trkpt>
      <trkpt lat="45.80853" lon="4.47209">
        <ele>685</ele>
        <time>2022-08-27T23:34:36Z</time>
      </trkpt>
      <trkpt lat="45.80828" lon="4.47214">
        <ele>686</ele>
        <time>2022-08-27T23:34:40Z</time>
      </trkpt>
      <trkpt lat="45.80746" lon="4.47264">
        <ele>690</ele>
        <time>2022-08-27T23:34:56Z</time>
      </trkpt>
      <trkpt lat="45.80727" lon="4.4727">
        <ele>691</ele>
        <time>2022-08-27T23:34:59Z</time>
      </trkpt>
      <trkpt lat="45.80701" lon="4.47261">
        <ele>696</ele>
        <time>2022-08-27T23:35:04Z</time>
      </trkpt>
      <trkpt lat="45.80665" lon="4.47257">
        <ele>701</ele>
        <time>2022-08-27T23:35:11Z</time>
      </trkpt>
      <trkpt lat="45.80554" lon="4.4732">
        <ele>686</ele>
        <time>2022-08-27T23:35:32Z</time>
      </trkpt>
      <trkpt lat="45.80526" lon="4.4733">
        <ele>683</ele>
        <time>2022-08-27T23:35:37Z</time>
      </trkpt>
      <trkpt lat="45.80511" lon="4.47327">
        <ele>684</ele>
        <time>2022-08-27T23:35:40Z</time>
      </trkpt>
      <trkpt lat="45.80499" lon="4.47316">
        <ele>685</ele>
        <time>2022-08-27T23:35:42Z</time>
      </trkpt>
      <trkpt lat="45.8049" lon="4.47288">
        <ele>687</ele>
        <time>2022-08-27T23:35:46Z</time>
      </trkpt>
      <trkpt lat="45.80478" lon="4.47223">
        <ele>694</ele>
        <time>2022-08-27T23:35:54Z</time>
      </trkpt>
      <trkpt lat="45.80468" lon="4.47177">
        <ele>699</ele>
        <time>2022-08-27T23:36:00Z</time>
      </trkpt>
      <trkpt lat="45.80456" lon="4.47159">
        <ele>698</ele>
        <time>2022-08-27T23:36:03Z</time>
      </trkpt>
      <trkpt lat="45.80426" lon="4.47128">
        <ele>695</ele>
        <time>2022-08-27T23:36:10Z</time>
      </trkpt>
      <trkpt lat="45.80411" lon="4.47105">
        <ele>696</ele>
        <time>2022-08-27T23:36:14Z</time>
      </trkpt>
      <trkpt lat="45.80392" lon="4.47034">
        <ele>696</ele>
        <time>2022-08-27T23:36:23Z</time>
      </trkpt>
      <trkpt lat="45.8039" lon="4.47005">
        <ele>695</ele>
        <time>2022-08-27T23:36:27Z</time>
      </trkpt>
      <trkpt lat="45.80395" lon="4.46981">
        <ele>694</ele>
        <time>2022-08-27T23:36:30Z</time>
      </trkpt>
      <trkpt lat="45.8044" lon="4.46913">
        <ele>699</ele>
        <time>2022-08-27T23:36:42Z</time>
      </trkpt>
      <trkpt lat="45.80447" lon="4.46888">
        <ele>702</ele>
        <time>2022-08-27T23:36:45Z</time>
      </trkpt>
      <trkpt lat="45.80449" lon="4.46862">
        <ele>704</ele>
        <time>2022-08-27T23:36:48Z</time>
      </trkpt>
      <trkpt lat="45.80441" lon="4.46832">
        <ele>703</ele>
        <time>2022-08-27T23:36:52Z</time>
      </trkpt>
      <trkpt lat="45.80337" lon="4.46706">
        <ele>696</ele>
        <time>2022-08-27T23:37:16Z</time>
      </trkpt>
      <trkpt lat="45.80329" lon="4.4668">
        <ele>695</ele>
        <time>2022-08-27T23:37:20Z</time>
      </trkpt>
      <trkpt lat="45.80327" lon="4.46649">
        <ele>696</ele>
        <time>2022-08-27T23:37:24Z</time>
      </trkpt>
      <trkpt lat="45.80334" lon="4.46571">
        <ele>703</ele>
        <time>2022-08-27T23:37:34Z</time>
      </trkpt>
      <trkpt lat="45.80333" lon="4.46551">
        <ele>703</ele>
        <time>2022-08-27T23:37:36Z</time>
      </trkpt>
      <trkpt lat="45.80294" lon="4.46344">
        <ele>701</ele>
        <time>2022-08-27T23:38:03Z</time>
      </trkpt>
      <trkpt lat="45.80287" lon="4.46279">
        <ele>702</ele>
        <time>2022-08-27T23:38:11Z</time>
      </trkpt>
      <trkpt lat="45.80277" lon="4.46254">
        <ele>702</ele>
        <time>2022-08-27T23:38:14Z</time>
      </trkpt>
      <trkpt lat="45.8026" lon="4.46238">
        <ele>701</ele>
        <time>2022-08-27T23:38:18Z</time>
      </trkpt>
      <trkpt lat="45.80235" lon="4.46238">
        <ele>701</ele>
        <time>2022-08-27T23:38:22Z</time>
      </trkpt>
      <trkpt lat="45.80189" lon="4.46248">
        <ele>702</ele>
        <time>2022-08-27T23:38:31Z</time>
      </trkpt>
      <trkpt lat="45.80161" lon="4.46262">
        <ele>703</ele>
        <time>2022-08-27T23:38:36Z</time>
      </trkpt>
      <trkpt lat="45.80137" lon="4.46289">
        <ele>705</ele>
        <time>2022-08-27T23:38:41Z</time>
      </trkpt>
      <trkpt lat="45.80104" lon="4.46342">
        <ele>704</ele>
        <time>2022-08-27T23:38:50Z</time>
      </trkpt>
      <trkpt lat="45.80087" lon="4.46362">
        <ele>702</ele>
        <time>2022-08-27T23:38:54Z</time>
      </trkpt>
      <trkpt lat="45.80071" lon="4.46371">
        <ele>699</ele>
        <time>2022-08-27T23:38:57Z</time>
      </trkpt>
      <trkpt lat="45.80056" lon="4.46372">
        <ele>697</ele>
        <time>2022-08-27T23:39:00Z</time>
      </trkpt>
      <trkpt lat="45.8004" lon="4.46359">
        <ele>699</ele>
        <time>2022-08-27T23:39:03Z</time>
      </trkpt>
      <trkpt lat="45.80017" lon="4.46316">
        <ele>704</ele>
        <time>2022-08-27T23:39:10Z</time>
      </trkpt>
      <trkpt lat="45.7998" lon="4.46214">
        <ele>711</ele>
        <time>2022-08-27T23:39:24Z</time>
      </trkpt>
      <trkpt lat="45.79918" lon="4.46091">
        <ele>710</ele>
        <time>2022-08-27T23:39:43Z</time>
      </trkpt>
      <trkpt lat="45.79892" lon="4.4603">
        <ele>712</ele>
        <time>2022-08-27T23:39:52Z</time>
      </trkpt>
      <trkpt lat="45.79889" lon="4.46006">
        <ele>712</ele>
        <time>2022-08-27T23:39:55Z</time>
      </trkpt>
      <trkpt lat="45.7989" lon="4.45956">
        <ele>712</ele>
        <time>2022-08-27T23:40:01Z</time>
      </trkpt>
      <trkpt lat="45.79906" lon="4.45775">
        <ele>707</ele>
        <time>2022-08-27T23:40:24Z</time>
      </trkpt>
      <trkpt lat="45.79912" lon="4.45722">
        <ele>706</ele>
        <time>2022-08-27T23:40:30Z</time>
      </trkpt>
      <trkpt lat="45.79919" lon="4.45705">
        <ele>707</ele>
        <time>2022-08-27T23:40:33Z</time>
      </trkpt>
      <trkpt lat="45.79923" lon="4.45684">
        <ele>708</ele>
        <time>2022-08-27T23:40:36Z</time>
      </trkpt>
      <trkpt lat="45.79924" lon="4.45672">
        <ele>708</ele>
        <time>2022-08-27T23:40:37Z</time>
      </trkpt>
      <trkpt lat="45.79911" lon="4.45658">
        <ele>705</ele>
        <time>2022-08-27T23:40:40Z</time>
      </trkpt>
      <trkpt lat="45.79912" lon="4.45604">
        <ele>705</ele>
        <time>2022-08-27T23:40:47Z</time>
      </trkpt>
      <trkpt lat="45.79891" lon="4.45243">
        <ele>718</ele>
        <time>2022-08-27T23:41:32Z</time>
      </trkpt>
      <trkpt lat="45.79886" lon="4.45217">
        <ele>718</ele>
        <time>2022-08-27T23:41:35Z</time>
      </trkpt>
      <trkpt lat="45.79881" lon="4.45197">
        <ele>718</ele>
        <time>2022-08-27T23:41:38Z</time>
      </trkpt>
      <trkpt lat="45.79861" lon="4.45147">
        <ele>718</ele>
        <time>2022-08-27T23:41:45Z</time>
      </trkpt>
      <trkpt lat="45.79835" lon="4.451">
        <ele>719</ele>
        <time>2022-08-27T23:41:52Z</time>
      </trkpt>
      <trkpt lat="45.79812" lon="4.45083">
        <ele>719</ele>
        <time>2022-08-27T23:41:57Z</time>
      </trkpt>
      <trkpt lat="45.79718" lon="4.45023">
        <ele>731</ele>
        <time>2022-08-27T23:42:15Z</time>
      </trkpt>
      <trkpt lat="45.79695" lon="4.45015">
        <ele>735</ele>
        <time>2022-08-27T23:42:19Z</time>
      </trkpt>
      <trkpt lat="45.79675" lon="4.45014">
        <ele>738</ele>
        <time>2022-08-27T23:42:23Z</time>
      </trkpt>
      <trkpt lat="45.79651" lon="4.45021">
        <ele>739</ele>
        <time>2022-08-27T23:42:27Z</time>
      </trkpt>
      <trkpt lat="45.79608" lon="4.45038">
        <ele>740</ele>
        <time>2022-08-27T23:42:35Z</time>
      </trkpt>
      <trkpt lat="45.79549" lon="4.45086">
        <ele>731</ele>
        <time>2022-08-27T23:42:47Z</time>
      </trkpt>
      <trkpt lat="45.79529" lon="4.45097">
        <ele>730</ele>
        <time>2022-08-27T23:42:51Z</time>
      </trkpt>
      <trkpt lat="45.79506" lon="4.45103">
        <ele>729</ele>
        <time>2022-08-27T23:42:55Z</time>
      </trkpt>
      <trkpt lat="45.7949" lon="4.45102">
        <ele>728</ele>
        <time>2022-08-27T23:42:58Z</time>
      </trkpt>
      <trkpt lat="45.79475" lon="4.45093">
        <ele>727</ele>
        <time>2022-08-27T23:43:01Z</time>
      </trkpt>
      <trkpt lat="45.79465" lon="4.45077">
        <ele>727</ele>
        <time>2022-08-27T23:43:04Z</time>
      </trkpt>
      <trkpt lat="45.79461" lon="4.45058">
        <ele>727</ele>
        <time>2022-08-27T23:43:06Z</time>
      </trkpt>
      <trkpt lat="45.79459" lon="4.45037">
        <ele>727</ele>
        <time>2022-08-27T23:43:09Z</time>
      </trkpt>
      <trkpt lat="45.7946" lon="4.45009">
        <ele>728</ele>
        <time>2022-08-27T23:43:12Z</time>
      </trkpt>
      <trkpt lat="45.79463" lon="4.44979">
        <ele>727</ele>
        <time>2022-08-27T23:43:16Z</time>
      </trkpt>
      <trkpt lat="45.79484" lon="4.44855">
        <ele>725</ele>
        <time>2022-08-27T23:43:32Z</time>
      </trkpt>
      <trkpt lat="45.79485" lon="4.4483">
        <ele>724</ele>
        <time>2022-08-27T23:43:35Z</time>
      </trkpt>
      <trkpt lat="45.79482" lon="4.44806">
        <ele>724</ele>
        <time>2022-08-27T23:43:38Z</time>
      </trkpt>
      <trkpt lat="45.79442" lon="4.4461">
        <ele>721</ele>
        <time>2022-08-27T23:44:03Z</time>
      </trkpt>
      <trkpt lat="45.79431" lon="4.44573">
        <ele>720</ele>
        <time>2022-08-27T23:44:08Z</time>
      </trkpt>
      <trkpt lat="45.79421" lon="4.44552">
        <ele>719</ele>
        <time>2022-08-27T23:44:11Z</time>
      </trkpt>
      <trkpt lat="45.79407" lon="4.44536">
        <ele>719</ele>
        <time>2022-08-27T23:44:15Z</time>
      </trkpt>
      <trkpt lat="45.79392" lon="4.44525">
        <ele>719</ele>
        <time>2022-08-27T23:44:18Z</time>
      </trkpt>
      <trkpt lat="45.79365" lon="4.44509">
        <ele>721</ele>
        <time>2022-08-27T23:44:23Z</time>
      </trkpt>
      <trkpt lat="45.79353" lon="4.44499">
        <ele>722</ele>
        <time>2022-08-27T23:44:25Z</time>
      </trkpt>
      <trkpt lat="45.79341" lon="4.44484">
        <ele>723</ele>
        <time>2022-08-27T23:44:28Z</time>
      </trkpt>
      <trkpt lat="45.79334" lon="4.44467">
        <ele>724</ele>
        <time>2022-08-27T23:44:30Z</time>
      </trkpt>
      <trkpt lat="45.79329" lon="4.44443">
        <ele>723</ele>
        <time>2022-08-27T23:44:34Z</time>
      </trkpt>
      <trkpt lat="45.79328" lon="4.44417">
        <ele>722</ele>
        <time>2022-08-27T23:44:37Z</time>
      </trkpt>
      <trkpt lat="45.7933" lon="4.44287">
        <ele>726</ele>
        <time>2022-08-27T23:44:53Z</time>
      </trkpt>
      <trkpt lat="45.79338" lon="4.4421">
        <ele>727</ele>
        <time>2022-08-27T23:45:03Z</time>
      </trkpt>
      <trkpt lat="45.79359" lon="4.44043">
        <ele>726</ele>
        <time>2022-08-27T23:45:24Z</time>
      </trkpt>
      <trkpt lat="45.7941" lon="4.44006">
        <ele>729</ele>
        <time>2022-08-27T23:45:34Z</time>
      </trkpt>
      <trkpt lat="45.7943" lon="4.43988">
        <ele>729</ele>
        <time>2022-08-27T23:45:38Z</time>
      </trkpt>
      <trkpt lat="45.79476" lon="4.43914">
        <ele>735</ele>
        <time>2022-08-27T23:45:50Z</time>
      </trkpt>
      <trkpt lat="45.79487" lon="4.43903">
        <ele>736</ele>
        <time>2022-08-27T23:45:53Z</time>
      </trkpt>
      <trkpt lat="45.79503" lon="4.43895">
        <ele>737</ele>
        <time>2022-08-27T23:45:56Z</time>
      </trkpt>
      <trkpt lat="45.79521" lon="4.43889">
        <ele>738</ele>
        <time>2022-08-27T23:45:59Z</time>
      </trkpt>
      <trkpt lat="45.79631" lon="4.43872">
        <ele>735</ele>
        <time>2022-08-27T23:46:19Z</time>
      </trkpt>
      <trkpt lat="45.79647" lon="4.43864">
        <ele>735</ele>
        <time>2022-08-27T23:46:22Z</time>
      </trkpt>
      <trkpt lat="45.79694" lon="4.43821">
        <ele>740</ele>
        <time>2022-08-27T23:46:32Z</time>
      </trkpt>
      <trkpt lat="45.7971" lon="4.43801">
        <ele>742</ele>
        <time>2022-08-27T23:46:35Z</time>
      </trkpt>
      <trkpt lat="45.79728" lon="4.43771">
        <ele>745</ele>
        <time>2022-08-27T23:46:40Z</time>
      </trkpt>
      <trkpt lat="45.79751" lon="4.43723">
        <ele>748</ele>
        <time>2022-08-27T23:46:48Z</time>
      </trkpt>
      <trkpt lat="45.79788" lon="4.43661">
        <ele>742</ele>
        <time>2022-08-27T23:46:58Z</time>
      </trkpt>
      <trkpt lat="45.79801" lon="4.43634">
        <ele>738</ele>
        <time>2022-08-27T23:47:02Z</time>
      </trkpt>
      <trkpt lat="45.79817" lon="4.43583">
        <ele>734</ele>
        <time>2022-08-27T23:47:09Z</time>
      </trkpt>
      <trkpt lat="45.79823" lon="4.43537">
        <ele>734</ele>
        <time>2022-08-27T23:47:14Z</time>
      </trkpt>
      <trkpt lat="45.7983" lon="4.43516">
        <ele>734</ele>
        <time>2022-08-27T23:47:17Z</time>
      </trkpt>
      <trkpt lat="45.79843" lon="4.43496">
        <ele>734</ele>
        <time>2022-08-27T23:47:21Z</time>
      </trkpt>
      <trkpt lat="45.79856" lon="4.43481">
        <ele>736</ele>
        <time>2022-08-27T23:47:24Z</time>
      </trkpt>
      <trkpt lat="45.79871" lon="4.43473">
        <ele>736</ele>
        <time>2022-08-27T23:47:27Z</time>
      </trkpt>
      <trkpt lat="45.79888" lon="4.43471">
        <ele>735</ele>
        <time>2022-08-27T23:47:30Z</time>
      </trkpt>
      <trkpt lat="45.79922" lon="4.43476">
        <ele>732</ele>
        <time>2022-08-27T23:47:36Z</time>
      </trkpt>
      <trkpt lat="45.79939" lon="4.43474">
        <ele>731</ele>
        <time>2022-08-27T23:47:39Z</time>
      </trkpt>
      <trkpt lat="45.79957" lon="4.43468">
        <ele>731</ele>
        <time>2022-08-27T23:47:42Z</time>
      </trkpt>
      <trkpt lat="45.79971" lon="4.43458">
        <ele>731</ele>
        <time>2022-08-27T23:47:45Z</time>
      </trkpt>
      <trkpt lat="45.79981" lon="4.43448">
        <ele>732</ele>
        <time>2022-08-27T23:47:47Z</time>
      </trkpt>
      <trkpt lat="45.80008" lon="4.43411">
        <ele>734</ele>
        <time>2022-08-27T23:47:54Z</time>
      </trkpt>
      <trkpt lat="45.80028" lon="4.4339">
        <ele>738</ele>
        <time>2022-08-27T23:47:58Z</time>
      </trkpt>
      <trkpt lat="45.801" lon="4.43336">
        <ele>738</ele>
        <time>2022-08-27T23:48:12Z</time>
      </trkpt>
      <trkpt lat="45.80139" lon="4.43312">
        <ele>734</ele>
        <time>2022-08-27T23:48:20Z</time>
      </trkpt>
      <trkpt lat="45.80209" lon="4.43289">
        <ele>725</ele>
        <time>2022-08-27T23:48:33Z</time>
      </trkpt>
      <trkpt lat="45.80222" lon="4.43277">
        <ele>725</ele>
        <time>2022-08-27T23:48:36Z</time>
      </trkpt>
      <trkpt lat="45.80233" lon="4.4326">
        <ele>724</ele>
        <time>2022-08-27T23:48:38Z</time>
      </trkpt>
      <trkpt lat="45.80239" lon="4.43236">
        <ele>724</ele>
        <time>2022-08-27T23:48:42Z</time>
      </trkpt>
      <trkpt lat="45.8024" lon="4.43211">
        <ele>724</ele>
        <time>2022-08-27T23:48:45Z</time>
      </trkpt>
      <trkpt lat="45.8023" lon="4.43122">
        <ele>722</ele>
        <time>2022-08-27T23:48:56Z</time>
      </trkpt>
      <trkpt lat="45.80232" lon="4.43078">
        <ele>720</ele>
        <time>2022-08-27T23:49:01Z</time>
      </trkpt>
      <trkpt lat="45.80246" lon="4.4303">
        <ele>719</ele>
        <time>2022-08-27T23:49:08Z</time>
      </trkpt>
      <trkpt lat="45.80271" lon="4.42975">
        <ele>715</ele>
        <time>2022-08-27T23:49:16Z</time>
      </trkpt>
      <trkpt lat="45.80282" lon="4.42937">
        <ele>713</ele>
        <time>2022-08-27T23:49:21Z</time>
      </trkpt>
      <trkpt lat="45.80289" lon="4.42824">
        <ele>712</ele>
        <time>2022-08-27T23:49:35Z</time>
      </trkpt>
      <trkpt lat="45.80292" lon="4.42803">
        <ele>712</ele>
        <time>2022-08-27T23:49:38Z</time>
      </trkpt>
      <trkpt lat="45.80297" lon="4.42788">
        <ele>712</ele>
        <time>2022-08-27T23:49:40Z</time>
      </trkpt>
      <trkpt lat="45.80304" lon="4.42774">
        <ele>712</ele>
        <time>2022-08-27T23:49:42Z</time>
      </trkpt>
      <trkpt lat="45.8031" lon="4.42764">
        <ele>711</ele>
        <time>2022-08-27T23:49:44Z</time>
      </trkpt>
      <trkpt lat="45.80322" lon="4.42754">
        <ele>711</ele>
        <time>2022-08-27T23:49:46Z</time>
      </trkpt>
      <trkpt lat="45.8036" lon="4.42729">
        <ele>708</ele>
        <time>2022-08-27T23:49:54Z</time>
      </trkpt>
      <trkpt lat="45.80375" lon="4.42714">
        <ele>706</ele>
        <time>2022-08-27T23:49:57Z</time>
      </trkpt>
      <trkpt lat="45.80386" lon="4.42696">
        <ele>706</ele>
        <time>2022-08-27T23:50:00Z</time>
      </trkpt>
      <trkpt lat="45.80402" lon="4.42659">
        <ele>706</ele>
        <time>2022-08-27T23:50:05Z</time>
      </trkpt>
      <trkpt lat="45.80408" lon="4.42649">
        <ele>706</ele>
        <time>2022-08-27T23:50:07Z</time>
      </trkpt>
      <trkpt lat="45.80436" lon="4.42618">
        <ele>705</ele>
        <time>2022-08-27T23:50:13Z</time>
      </trkpt>
      <trkpt lat="45.80725" lon="4.42342">
        <ele>710</ele>
        <time>2022-08-27T23:51:15Z</time>
      </trkpt>
      <trkpt lat="45.80748" lon="4.42333">
        <ele>711</ele>
        <time>2022-08-27T23:51:19Z</time>
      </trkpt>
      <trkpt lat="45.8086" lon="4.42317">
        <ele>715</ele>
        <time>2022-08-27T23:51:39Z</time>
      </trkpt>
      <trkpt lat="45.80885" lon="4.42308">
        <ele>716</ele>
        <time>2022-08-27T23:51:44Z</time>
      </trkpt>
      <trkpt lat="45.80911" lon="4.42287">
        <ele>715</ele>
        <time>2022-08-27T23:51:49Z</time>
      </trkpt>
      <trkpt lat="45.80929" lon="4.42265">
        <ele>715</ele>
        <time>2022-08-27T23:51:53Z</time>
      </trkpt>
      <trkpt lat="45.8095" lon="4.42235">
        <ele>715</ele>
        <time>2022-08-27T23:51:58Z</time>
      </trkpt>
      <trkpt lat="45.81118" lon="4.41982">
        <ele>717</ele>
        <time>2022-08-27T23:52:42Z</time>
      </trkpt>
      <trkpt lat="45.81133" lon="4.41955">
        <ele>718</ele>
        <time>2022-08-27T23:52:46Z</time>
      </trkpt>
      <trkpt lat="45.81145" lon="4.41921">
        <ele>720</ele>
        <time>2022-08-27T23:52:51Z</time>
      </trkpt>
      <trkpt lat="45.81148" lon="4.4189">
        <ele>721</ele>
        <time>2022-08-27T23:52:55Z</time>
      </trkpt>
      <trkpt lat="45.81147" lon="4.41855">
        <ele>722</ele>
        <time>2022-08-27T23:52:59Z</time>
      </trkpt>
      <trkpt lat="45.81123" lon="4.41659">
        <ele>722</ele>
        <time>2022-08-27T23:53:24Z</time>
      </trkpt>
      <trkpt lat="45.81118" lon="4.41629">
        <ele>723</ele>
        <time>2022-08-27T23:53:28Z</time>
      </trkpt>
      <trkpt lat="45.8111" lon="4.41602">
        <ele>723</ele>
        <time>2022-08-27T23:53:31Z</time>
      </trkpt>
      <trkpt lat="45.811" lon="4.41587">
        <ele>723</ele>
        <time>2022-08-27T23:53:34Z</time>
      </trkpt>
      <trkpt lat="45.81086" lon="4.41577">
        <ele>722</ele>
        <time>2022-08-27T23:53:37Z</time>
      </trkpt>
      <trkpt lat="45.81031" lon="4.41557">
        <ele>723</ele>
        <time>2022-08-27T23:53:47Z</time>
      </trkpt>
      <trkpt lat="45.81009" lon="4.41545">
        <ele>725</ele>
        <time>2022-08-27T23:53:51Z</time>
      </trkpt>
      <trkpt lat="45.8099" lon="4.41531">
        <ele>726</ele>
        <time>2022-08-27T23:53:55Z</time>
      </trkpt>
      <trkpt lat="45.8093" lon="4.41475">
        <ele>728</ele>
        <time>2022-08-27T23:54:07Z</time>
      </trkpt>
      <trkpt lat="45.80915" lon="4.41459">
        <ele>727</ele>
        <time>2022-08-27T23:54:11Z</time>
      </trkpt>
      <trkpt lat="45.80905" lon="4.4144">
        <ele>728</ele>
        <time>2022-08-27T23:54:14Z</time>
      </trkpt>
      <trkpt lat="45.809" lon="4.41419">
        <ele>728</ele>
        <time>2022-08-27T23:54:16Z</time>
      </trkpt>
      <trkpt lat="45.809" lon="4.41401">
        <ele>728</ele>
        <time>2022-08-27T23:54:19Z</time>
      </trkpt>
      <trkpt lat="45.80903" lon="4.41375">
        <ele>729</ele>
        <time>2022-08-27T23:54:22Z</time>
      </trkpt>
      <trkpt lat="45.80977" lon="4.41125">
        <ele>735</ele>
        <time>2022-08-27T23:54:56Z</time>
      </trkpt>
      <trkpt lat="45.80982" lon="4.41109">
        <ele>735</ele>
        <time>2022-08-27T23:54:58Z</time>
      </trkpt>
      <trkpt lat="45.81002" lon="4.4108">
        <ele>735</ele>
        <time>2022-08-27T23:55:03Z</time>
      </trkpt>
      <trkpt lat="45.81032" lon="4.41037">
        <ele>735</ele>
        <time>2022-08-27T23:55:10Z</time>
      </trkpt>
      <trkpt lat="45.81193" lon="4.40821">
        <ele>731</ele>
        <time>2022-08-27T23:55:50Z</time>
      </trkpt>
      <trkpt lat="45.81255" lon="4.4071">
        <ele>730</ele>
        <time>2022-08-27T23:56:07Z</time>
      </trkpt>
      <trkpt lat="45.81267" lon="4.40678">
        <ele>731</ele>
        <time>2022-08-27T23:56:12Z</time>
      </trkpt>
      <trkpt lat="45.81275" lon="4.40616">
        <ele>731</ele>
        <time>2022-08-27T23:56:20Z</time>
      </trkpt>
      <trkpt lat="45.81278" lon="4.40559">
        <ele>728</ele>
        <time>2022-08-27T23:56:27Z</time>
      </trkpt>
      <trkpt lat="45.81286" lon="4.40521">
        <ele>727</ele>
        <time>2022-08-27T23:56:32Z</time>
      </trkpt>
      <trkpt lat="45.81294" lon="4.40504">
        <ele>726</ele>
        <time>2022-08-27T23:56:34Z</time>
      </trkpt>
      <trkpt lat="45.81301" lon="4.40493">
        <ele>726</ele>
        <time>2022-08-27T23:56:36Z</time>
      </trkpt>
      <trkpt lat="45.81315" lon="4.40485">
        <ele>726</ele>
        <time>2022-08-27T23:56:39Z</time>
      </trkpt>
      <trkpt lat="45.81342" lon="4.40465">
        <ele>725</ele>
        <time>2022-08-27T23:56:44Z</time>
      </trkpt>
      <trkpt lat="45.81399" lon="4.40437">
        <ele>721</ele>
        <time>2022-08-27T23:56:55Z</time>
      </trkpt>
      <trkpt lat="45.81417" lon="4.40436">
        <ele>721</ele>
        <time>2022-08-27T23:56:58Z</time>
      </trkpt>
      <trkpt lat="45.81448" lon="4.40446">
        <ele>720</ele>
        <time>2022-08-27T23:57:04Z</time>
      </trkpt>
      <trkpt lat="45.81516" lon="4.40479">
        <ele>722</ele>
        <time>2022-08-27T23:57:16Z</time>
      </trkpt>
      <trkpt lat="45.8171" lon="4.40485">
        <ele>725</ele>
        <time>2022-08-27T23:57:51Z</time>
      </trkpt>
      <trkpt lat="45.81879" lon="4.40204">
        <ele>738</ele>
        <time>2022-08-27T23:58:37Z</time>
      </trkpt>
      <trkpt lat="45.81889" lon="4.40178">
        <ele>739</ele>
        <time>2022-08-27T23:58:41Z</time>
      </trkpt>
      <trkpt lat="45.81884" lon="4.40134">
        <ele>741</ele>
        <time>2022-08-27T23:58:46Z</time>
      </trkpt>
      <trkpt lat="45.81855" lon="4.40061">
        <ele>743</ele>
        <time>2022-08-27T23:58:57Z</time>
      </trkpt>
      <trkpt lat="45.81854" lon="4.40032">
        <ele>744</ele>
        <time>2022-08-27T23:59:00Z</time>
      </trkpt>
      <trkpt lat="45.81863" lon="4.40004">
        <ele>746</ele>
        <time>2022-08-27T23:59:04Z</time>
      </trkpt>
      <trkpt lat="45.8188" lon="4.39986">
        <ele>746</ele>
        <time>2022-08-27T23:59:08Z</time>
      </trkpt>
      <trkpt lat="45.81901" lon="4.39972">
        <ele>746</ele>
        <time>2022-08-27T23:59:12Z</time>
      </trkpt>
      <trkpt lat="45.81932" lon="4.39958">
        <ele>748</ele>
        <time>2022-08-27T23:59:18Z</time>
      </trkpt>
      <trkpt lat="45.81947" lon="4.39946">
        <ele>749</ele>
        <time>2022-08-27T23:59:21Z</time>
      </trkpt>
      <trkpt lat="45.82086" lon="4.39681">
        <ele>756</ele>
        <time>2022-08-28T00:00:02Z</time>
      </trkpt>
      <trkpt lat="45.82091" lon="4.39654">
        <ele>757</ele>
        <time>2022-08-28T00:00:05Z</time>
      </trkpt>
      <trkpt lat="45.8208" lon="4.39544">
        <ele>759</ele>
        <time>2022-08-28T00:00:19Z</time>
      </trkpt>
      <trkpt lat="45.82056" lon="4.39431">
        <ele>762</ele>
        <time>2022-08-28T00:00:34Z</time>
      </trkpt>
      <trkpt lat="45.82058" lon="4.39388">
        <ele>765</ele>
        <time>2022-08-28T00:00:39Z</time>
      </trkpt>
      <trkpt lat="45.82069" lon="4.39301">
        <ele>772</ele>
        <time>2022-08-28T00:00:50Z</time>
      </trkpt>
      <trkpt lat="45.8207" lon="4.39218">
        <ele>779</ele>
        <time>2022-08-28T00:01:00Z</time>
      </trkpt>
      <trkpt lat="45.82061" lon="4.39188">
        <ele>779</ele>
        <time>2022-08-28T00:01:04Z</time>
      </trkpt>
      <trkpt lat="45.82027" lon="4.3915">
        <ele>770</ele>
        <time>2022-08-28T00:01:12Z</time>
      </trkpt>
      <trkpt lat="45.82013" lon="4.39119">
        <ele>766</ele>
        <time>2022-08-28T00:01:17Z</time>
      </trkpt>
      <trkpt lat="45.82016" lon="4.39078">
        <ele>768</ele>
        <time>2022-08-28T00:01:22Z</time>
      </trkpt>
      <trkpt lat="45.82044" lon="4.38989">
        <ele>776</ele>
        <time>2022-08-28T00:01:34Z</time>
      </trkpt>
      <trkpt lat="45.82045" lon="4.38926">
        <ele>779</ele>
        <time>2022-08-28T00:01:42Z</time>
      </trkpt>
      <trkpt lat="45.82035" lon="4.3887">
        <ele>780</ele>
        <time>2022-08-28T00:01:49Z</time>
      </trkpt>
      <trkpt lat="45.82001" lon="4.38735">
        <ele>782</ele>
        <time>2022-08-28T00:02:07Z</time>
      </trkpt>
      <trkpt lat="45.81963" lon="4.38632">
        <ele>776</ele>
        <time>2022-08-28T00:02:21Z</time>
      </trkpt>
      <trkpt lat="45.81954" lon="4.38597">
        <ele>776</ele>
        <time>2022-08-28T00:02:26Z</time>
      </trkpt>
      <trkpt lat="45.81958" lon="4.38584">
        <ele>776</ele>
        <time>2022-08-28T00:02:27Z</time>
      </trkpt>
      <trkpt lat="45.81966" lon="4.38574">
        <ele>776</ele>
        <time>2022-08-28T00:02:29Z</time>
      </trkpt>
      <trkpt lat="45.8199" lon="4.38552">
        <ele>776</ele>
        <time>2022-08-28T00:02:34Z</time>
      </trkpt>
      <trkpt lat="45.82029" lon="4.38519">
        <ele>776</ele>
        <time>2022-08-28T00:02:43Z</time>
      </trkpt>
      <trkpt lat="45.8207" lon="4.38491">
        <ele>774</ele>
        <time>2022-08-28T00:02:51Z</time>
      </trkpt>
      <trkpt lat="45.82293" lon="4.38426">
        <ele>766</ele>
        <time>2022-08-28T00:03:31Z</time>
      </trkpt>
      <trkpt lat="45.82319" lon="4.38429">
        <ele>766</ele>
        <time>2022-08-28T00:03:36Z</time>
      </trkpt>
      <trkpt lat="45.82343" lon="4.3844">
        <ele>765</ele>
        <time>2022-08-28T00:03:40Z</time>
      </trkpt>
      <trkpt lat="45.82384" lon="4.38505">
        <ele>760</ele>
        <time>2022-08-28T00:03:51Z</time>
      </trkpt>
      <trkpt lat="45.82496" lon="4.38601">
        <ele>749</ele>
        <time>2022-08-28T00:04:14Z</time>
      </trkpt>
      <trkpt lat="45.82548" lon="4.38687">
        <ele>752</ele>
        <time>2022-08-28T00:04:28Z</time>
      </trkpt>
      <trkpt lat="45.82599" lon="4.38847">
        <ele>751</ele>
        <time>2022-08-28T00:04:50Z</time>
      </trkpt>
      <trkpt lat="45.82675" lon="4.38928">
        <ele>744</ele>
        <time>2022-08-28T00:05:07Z</time>
      </trkpt>
      <trkpt lat="45.82694" lon="4.38954">
        <ele>746</ele>
        <time>2022-08-28T00:05:12Z</time>
      </trkpt>
      <trkpt lat="45.82705" lon="4.38958">
        <ele>746</ele>
        <time>2022-08-28T00:05:14Z</time>
      </trkpt>
      <trkpt lat="45.82719" lon="4.38955">
        <ele>745</ele>
        <time>2022-08-28T00:05:16Z</time>
      </trkpt>
      <trkpt lat="45.82736" lon="4.3894">
        <ele>742</ele>
        <time>2022-08-28T00:05:20Z</time>
      </trkpt>
      <trkpt lat="45.82758" lon="4.38931">
        <ele>740</ele>
        <time>2022-08-28T00:05:24Z</time>
      </trkpt>
      <trkpt lat="45.82789" lon="4.38923">
        <ele>741</ele>
        <time>2022-08-28T00:05:29Z</time>
      </trkpt>
      <trkpt lat="45.828" lon="4.38918">
        <ele>741</ele>
        <time>2022-08-28T00:05:32Z</time>
      </trkpt>
      <trkpt lat="45.8281" lon="4.38907">
        <ele>741</ele>
        <time>2022-08-28T00:05:34Z</time>
      </trkpt>
      <trkpt lat="45.82817" lon="4.38893">
        <ele>741</ele>
        <time>2022-08-28T00:05:36Z</time>
      </trkpt>
      <trkpt lat="45.8282" lon="4.38874">
        <ele>740</ele>
        <time>2022-08-28T00:05:38Z</time>
      </trkpt>
      <trkpt lat="45.82802" lon="4.38737">
        <ele>729</ele>
        <time>2022-08-28T00:05:56Z</time>
      </trkpt>
      <trkpt lat="45.82801" lon="4.38711">
        <ele>726</ele>
        <time>2022-08-28T00:05:59Z</time>
      </trkpt>
      <trkpt lat="45.82817" lon="4.38637">
        <ele>722</ele>
        <time>2022-08-28T00:06:08Z</time>
      </trkpt>
      <trkpt lat="45.82826" lon="4.38614">
        <ele>720</ele>
        <time>2022-08-28T00:06:12Z</time>
      </trkpt>
      <trkpt lat="45.82843" lon="4.38577">
        <ele>718</ele>
        <time>2022-08-28T00:06:17Z</time>
      </trkpt>
      <trkpt lat="45.82923" lon="4.38442">
        <ele>710</ele>
        <time>2022-08-28T00:06:39Z</time>
      </trkpt>
      <trkpt lat="45.82982" lon="4.38337">
        <ele>705</ele>
        <time>2022-08-28T00:06:56Z</time>
      </trkpt>
      <trkpt lat="45.82991" lon="4.38315">
        <ele>705</ele>
        <time>2022-08-28T00:06:59Z</time>
      </trkpt>
      <trkpt lat="45.82994" lon="4.38298">
        <ele>705</ele>
        <time>2022-08-28T00:07:01Z</time>
      </trkpt>
      <trkpt lat="45.82992" lon="4.38269">
        <ele>705</ele>
        <time>2022-08-28T00:07:05Z</time>
      </trkpt>
      <trkpt lat="45.82984" lon="4.38251">
        <ele>705</ele>
        <time>2022-08-28T00:07:08Z</time>
      </trkpt>
      <trkpt lat="45.82974" lon="4.38236">
        <ele>706</ele>
        <time>2022-08-28T00:07:10Z</time>
      </trkpt>
      <trkpt lat="45.82965" lon="4.38227">
        <ele>707</ele>
        <time>2022-08-28T00:07:12Z</time>
      </trkpt>
      <trkpt lat="45.82955" lon="4.3822">
        <ele>708</ele>
        <time>2022-08-28T00:07:14Z</time>
      </trkpt>
      <trkpt lat="45.82839" lon="4.38183">
        <ele>709</ele>
        <time>2022-08-28T00:07:35Z</time>
      </trkpt>
      <trkpt lat="45.8282" lon="4.38171">
        <ele>708</ele>
        <time>2022-08-28T00:07:39Z</time>
      </trkpt>
      <trkpt lat="45.828" lon="4.3815">
        <ele>707</ele>
        <time>2022-08-28T00:07:43Z</time>
      </trkpt>
      <trkpt lat="45.82793" lon="4.38133">
        <ele>707</ele>
        <time>2022-08-28T00:07:46Z</time>
      </trkpt>
      <trkpt lat="45.82789" lon="4.38109">
        <ele>707</ele>
        <time>2022-08-28T00:07:49Z</time>
      </trkpt>
      <trkpt lat="45.82783" lon="4.38021">
        <ele>711</ele>
        <time>2022-08-28T00:08:00Z</time>
      </trkpt>
      <trkpt lat="45.82779" lon="4.37986">
        <ele>712</ele>
        <time>2022-08-28T00:08:04Z</time>
      </trkpt>
      <trkpt lat="45.82775" lon="4.37929">
        <ele>711</ele>
        <time>2022-08-28T00:08:11Z</time>
      </trkpt>
      <trkpt lat="45.82776" lon="4.3791">
        <ele>711</ele>
        <time>2022-08-28T00:08:14Z</time>
      </trkpt>
      <trkpt lat="45.82786" lon="4.37868">
        <ele>709</ele>
        <time>2022-08-28T00:08:19Z</time>
      </trkpt>
      <trkpt lat="45.82856" lon="4.37689">
        <ele>708</ele>
        <time>2022-08-28T00:08:45Z</time>
      </trkpt>
      <trkpt lat="45.82871" lon="4.37656">
        <ele>709</ele>
        <time>2022-08-28T00:08:49Z</time>
      </trkpt>
      <trkpt lat="45.82883" lon="4.37636">
        <ele>710</ele>
        <time>2022-08-28T00:08:53Z</time>
      </trkpt>
      <trkpt lat="45.82924" lon="4.3759">
        <ele>714</ele>
        <time>2022-08-28T00:09:02Z</time>
      </trkpt>
      <trkpt lat="45.82936" lon="4.37571">
        <ele>715</ele>
        <time>2022-08-28T00:09:05Z</time>
      </trkpt>
      <trkpt lat="45.82945" lon="4.37553">
        <ele>716</ele>
        <time>2022-08-28T00:09:08Z</time>
      </trkpt>
      <trkpt lat="45.8295" lon="4.37536">
        <ele>716</ele>
        <time>2022-08-28T00:09:10Z</time>
      </trkpt>
      <trkpt lat="45.82958" lon="4.37491">
        <ele>715</ele>
        <time>2022-08-28T00:09:16Z</time>
      </trkpt>
      <trkpt lat="45.82966" lon="4.37464">
        <ele>714</ele>
        <time>2022-08-28T00:09:20Z</time>
      </trkpt>
      <trkpt lat="45.82977" lon="4.37448">
        <ele>715</ele>
        <time>2022-08-28T00:09:22Z</time>
      </trkpt>
      <trkpt lat="45.83009" lon="4.37413">
        <ele>716</ele>
        <time>2022-08-28T00:09:30Z</time>
      </trkpt>
      <trkpt lat="45.83023" lon="4.374">
        <ele>716</ele>
        <time>2022-08-28T00:09:32Z</time>
      </trkpt>
      <trkpt lat="45.83043" lon="4.37388">
        <ele>716</ele>
        <time>2022-08-28T00:09:36Z</time>
      </trkpt>
      <trkpt lat="45.83092" lon="4.37368">
        <ele>718</ele>
        <time>2022-08-28T00:09:45Z</time>
      </trkpt>
      <trkpt lat="45.83126" lon="4.37352">
        <ele>721</ele>
        <time>2022-08-28T00:09:52Z</time>
      </trkpt>
      <trkpt lat="45.83211" lon="4.37297">
        <ele>726</ele>
        <time>2022-08-28T00:10:08Z</time>
      </trkpt>
      <trkpt lat="45.83227" lon="4.37279">
        <ele>726</ele>
        <time>2022-08-28T00:10:12Z</time>
      </trkpt>
      <trkpt lat="45.8324" lon="4.37259">
        <ele>725</ele>
        <time>2022-08-28T00:10:15Z</time>
      </trkpt>
      <trkpt lat="45.83314" lon="4.37125">
        <ele>730</ele>
        <time>2022-08-28T00:10:37Z</time>
      </trkpt>
      <trkpt lat="45.83333" lon="4.37102">
        <ele>730</ele>
        <time>2022-08-28T00:10:41Z</time>
      </trkpt>
      <trkpt lat="45.83362" lon="4.37087">
        <ele>732</ele>
        <time>2022-08-28T00:10:46Z</time>
      </trkpt>
      <trkpt lat="45.83376" lon="4.37083">
        <ele>733</ele>
        <time>2022-08-28T00:10:49Z</time>
      </trkpt>
      <trkpt lat="45.83568" lon="4.37059">
        <ele>744</ele>
        <time>2022-08-28T00:11:23Z</time>
      </trkpt>
      <trkpt lat="45.83582" lon="4.37058">
        <ele>745</ele>
        <time>2022-08-28T00:11:26Z</time>
      </trkpt>
      <trkpt lat="45.83638" lon="4.37064">
        <ele>753</ele>
        <time>2022-08-28T00:11:36Z</time>
      </trkpt>
      <trkpt lat="45.83689" lon="4.37062">
        <ele>756</ele>
        <time>2022-08-28T00:11:45Z</time>
      </trkpt>
      <trkpt lat="45.8377" lon="4.37043">
        <ele>755</ele>
        <time>2022-08-28T00:11:59Z</time>
      </trkpt>
      <trkpt lat="45.83781" lon="4.37043">
        <ele>755</ele>
        <time>2022-08-28T00:12:01Z</time>
      </trkpt>
      <trkpt lat="45.83799" lon="4.37047">
        <ele>758</ele>
        <time>2022-08-28T00:12:05Z</time>
      </trkpt>
      <trkpt lat="45.83831" lon="4.37066">
        <ele>765</ele>
        <time>2022-08-28T00:12:11Z</time>
      </trkpt>
      <trkpt lat="45.83844" lon="4.37067">
        <ele>767</ele>
        <time>2022-08-28T00:12:13Z</time>
      </trkpt>
      <trkpt lat="45.83851" lon="4.37063">
        <ele>767</ele>
        <time>2022-08-28T00:12:14Z</time>
      </trkpt>
      <trkpt lat="45.83859" lon="4.37054">
        <ele>766</ele>
        <time>2022-08-28T00:12:16Z</time>
      </trkpt>
      <trkpt lat="45.83873" lon="4.37026">
        <ele>762</ele>
        <time>2022-08-28T00:12:21Z</time>
      </trkpt>
      <trkpt lat="45.83883" lon="4.3701">
        <ele>759</ele>
        <time>2022-08-28T00:12:23Z</time>
      </trkpt>
      <trkpt lat="45.83899" lon="4.36994">
        <ele>758</ele>
        <time>2022-08-28T00:12:27Z</time>
      </trkpt>
      <trkpt lat="45.8392" lon="4.36984">
        <ele>759</ele>
        <time>2022-08-28T00:12:31Z</time>
      </trkpt>
      <trkpt lat="45.83943" lon="4.36981">
        <ele>758</ele>
        <time>2022-08-28T00:12:35Z</time>
      </trkpt>
      <trkpt lat="45.8396" lon="4.36988">
        <ele>759</ele>
        <time>2022-08-28T00:12:38Z</time>
      </trkpt>
      <trkpt lat="45.83971" lon="4.36997">
        <ele>761</ele>
        <time>2022-08-28T00:12:40Z</time>
      </trkpt>
      <trkpt lat="45.84008" lon="4.3704">
        <ele>771</ele>
        <time>2022-08-28T00:12:49Z</time>
      </trkpt>
      <trkpt lat="45.84039" lon="4.37069">
        <ele>774</ele>
        <time>2022-08-28T00:12:55Z</time>
      </trkpt>
      <trkpt lat="45.84062" lon="4.37087">
        <ele>774</ele>
        <time>2022-08-28T00:13:00Z</time>
      </trkpt>
      <trkpt lat="45.84138" lon="4.37132">
        <ele>786</ele>
        <time>2022-08-28T00:13:14Z</time>
      </trkpt>
      <trkpt lat="45.84147" lon="4.37136">
        <ele>786</ele>
        <time>2022-08-28T00:13:16Z</time>
      </trkpt>
      <trkpt lat="45.84153" lon="4.37134">
        <ele>787</ele>
        <time>2022-08-28T00:13:17Z</time>
      </trkpt>
      <trkpt lat="45.84158" lon="4.3713">
        <ele>787</ele>
        <time>2022-08-28T00:13:18Z</time>
      </trkpt>
      <trkpt lat="45.84163" lon="4.37123">
        <ele>787</ele>
        <time>2022-08-28T00:13:20Z</time>
      </trkpt>
      <trkpt lat="45.84164" lon="4.37115">
        <ele>787</ele>
        <time>2022-08-28T00:13:21Z</time>
      </trkpt>
      <trkpt lat="45.84164" lon="4.37104">
        <ele>787</ele>
        <time>2022-08-28T00:13:22Z</time>
      </trkpt>
      <trkpt lat="45.84162" lon="4.37094">
        <ele>787</ele>
        <time>2022-08-28T00:13:23Z</time>
      </trkpt>
      <trkpt lat="45.84114" lon="4.36967">
        <ele>775</ele>
        <time>2022-08-28T00:13:41Z</time>
      </trkpt>
      <trkpt lat="45.84112" lon="4.36926">
        <ele>774</ele>
        <time>2022-08-28T00:13:46Z</time>
      </trkpt>
      <trkpt lat="45.84115" lon="4.36907">
        <ele>774</ele>
        <time>2022-08-28T00:13:49Z</time>
      </trkpt>
      <trkpt lat="45.84122" lon="4.36886">
        <ele>773</ele>
        <time>2022-08-28T00:13:51Z</time>
      </trkpt>
      <trkpt lat="45.84135" lon="4.36862">
        <ele>773</ele>
        <time>2022-08-28T00:13:55Z</time>
      </trkpt>
      <trkpt lat="45.84193" lon="4.3679">
        <ele>776</ele>
        <time>2022-08-28T00:14:09Z</time>
      </trkpt>
      <trkpt lat="45.84202" lon="4.36775">
        <ele>776</ele>
        <time>2022-08-28T00:14:11Z</time>
      </trkpt>
      <trkpt lat="45.8421" lon="4.36759">
        <ele>776</ele>
        <time>2022-08-28T00:14:14Z</time>
      </trkpt>
      <trkpt lat="45.84221" lon="4.36721">
        <ele>775</ele>
        <time>2022-08-28T00:14:19Z</time>
      </trkpt>
      <trkpt lat="45.84229" lon="4.367">
        <ele>775</ele>
        <time>2022-08-28T00:14:22Z</time>
      </trkpt>
      <trkpt lat="45.84253" lon="4.36659">
        <ele>776</ele>
        <time>2022-08-28T00:14:29Z</time>
      </trkpt>
      <trkpt lat="45.84284" lon="4.36617">
        <ele>777</ele>
        <time>2022-08-28T00:14:36Z</time>
      </trkpt>
      <trkpt lat="45.84313" lon="4.36582">
        <ele>778</ele>
        <time>2022-08-28T00:14:43Z</time>
      </trkpt>
      <trkpt lat="45.84344" lon="4.36553">
        <ele>780</ele>
        <time>2022-08-28T00:14:49Z</time>
      </trkpt>
      <trkpt lat="45.8439" lon="4.36515">
        <ele>782</ele>
        <time>2022-08-28T00:14:59Z</time>
      </trkpt>
      <trkpt lat="45.84486" lon="4.36442">
        <ele>783</ele>
        <time>2022-08-28T00:15:18Z</time>
      </trkpt>
      <trkpt lat="45.8462" lon="4.36353">
        <ele>784</ele>
        <time>2022-08-28T00:15:44Z</time>
      </trkpt>
      <trkpt lat="45.84669" lon="4.36327">
        <ele>785</ele>
        <time>2022-08-28T00:15:54Z</time>
      </trkpt>
      <trkpt lat="45.84682" lon="4.36323">
        <ele>784</ele>
        <time>2022-08-28T00:15:56Z</time>
      </trkpt>
      <trkpt lat="45.84696" lon="4.36322">
        <ele>783</ele>
        <time>2022-08-28T00:15:59Z</time>
      </trkpt>
      <trkpt lat="45.84724" lon="4.36327">
        <ele>782</ele>
        <time>2022-08-28T00:16:04Z</time>
      </trkpt>
      <trkpt lat="45.84737" lon="4.36334">
        <ele>783</ele>
        <time>2022-08-28T00:16:06Z</time>
      </trkpt>
      <trkpt lat="45.84759" lon="4.36358">
        <ele>785</ele>
        <time>2022-08-28T00:16:11Z</time>
      </trkpt>
      <trkpt lat="45.84777" lon="4.36388">
        <ele>787</ele>
        <time>2022-08-28T00:16:16Z</time>
      </trkpt>
      <trkpt lat="45.84787" lon="4.36421">
        <ele>789</ele>
        <time>2022-08-28T00:16:20Z</time>
      </trkpt>
      <trkpt lat="45.84801" lon="4.3652">
        <ele>798</ele>
        <time>2022-08-28T00:16:33Z</time>
      </trkpt>
      <trkpt lat="45.84807" lon="4.36594">
        <ele>804</ele>
        <time>2022-08-28T00:16:42Z</time>
      </trkpt>
      <trkpt lat="45.84811" lon="4.3662">
        <ele>805</ele>
        <time>2022-08-28T00:16:45Z</time>
      </trkpt>
      <trkpt lat="45.84817" lon="4.36635">
        <ele>805</ele>
        <time>2022-08-28T00:16:48Z</time>
      </trkpt>
      <trkpt lat="45.84822" lon="4.36641">
        <ele>805</ele>
        <time>2022-08-28T00:16:49Z</time>
      </trkpt>
      <trkpt lat="45.84829" lon="4.36644">
        <ele>804</ele>
        <time>2022-08-28T00:16:50Z</time>
      </trkpt>
      <trkpt lat="45.84837" lon="4.36644">
        <ele>805</ele>
        <time>2022-08-28T00:16:51Z</time>
      </trkpt>
      <trkpt lat="45.84848" lon="4.3663">
        <ele>806</ele>
        <time>2022-08-28T00:16:54Z</time>
      </trkpt>
      <trkpt lat="45.84906" lon="4.36522">
        <ele>797</ele>
        <time>2022-08-28T00:17:11Z</time>
      </trkpt>
      <trkpt lat="45.84927" lon="4.36505">
        <ele>796</ele>
        <time>2022-08-28T00:17:15Z</time>
      </trkpt>
      <trkpt lat="45.84952" lon="4.36491">
        <ele>802</ele>
        <time>2022-08-28T00:17:20Z</time>
      </trkpt>
      <trkpt lat="45.84968" lon="4.36478">
        <ele>807</ele>
        <time>2022-08-28T00:17:23Z</time>
      </trkpt>
      <trkpt lat="45.84973" lon="4.36469">
        <ele>809</ele>
        <time>2022-08-28T00:17:25Z</time>
      </trkpt>
      <trkpt lat="45.84974" lon="4.36455">
        <ele>809</ele>
        <time>2022-08-28T00:17:26Z</time>
      </trkpt>
      <trkpt lat="45.84971" lon="4.36439">
        <ele>807</ele>
        <time>2022-08-28T00:17:29Z</time>
      </trkpt>
      <trkpt lat="45.84959" lon="4.36402">
        <ele>803</ele>
        <time>2022-08-28T00:17:34Z</time>
      </trkpt>
      <trkpt lat="45.84952" lon="4.36348">
        <ele>802</ele>
        <time>2022-08-28T00:17:40Z</time>
      </trkpt>
      <trkpt lat="45.84938" lon="4.36157">
        <ele>801</ele>
        <time>2022-08-28T00:18:04Z</time>
      </trkpt>
      <trkpt lat="45.84939" lon="4.36148">
        <ele>801</ele>
        <time>2022-08-28T00:18:05Z</time>
      </trkpt>
      <trkpt lat="45.84943" lon="4.36137">
        <ele>801</ele>
        <time>2022-08-28T00:18:07Z</time>
      </trkpt>
      <trkpt lat="45.84948" lon="4.36127">
        <ele>801</ele>
        <time>2022-08-28T00:18:08Z</time>
      </trkpt>
      <trkpt lat="45.84959" lon="4.36117">
        <ele>802</ele>
        <time>2022-08-28T00:18:11Z</time>
      </trkpt>
      <trkpt lat="45.84985" lon="4.36104">
        <ele>804</ele>
        <time>2022-08-28T00:18:16Z</time>
      </trkpt>
      <trkpt lat="45.8501" lon="4.36096">
        <ele>806</ele>
        <time>2022-08-28T00:18:20Z</time>
      </trkpt>
      <trkpt lat="45.85057" lon="4.3609">
        <ele>809</ele>
        <time>2022-08-28T00:18:29Z</time>
      </trkpt>
      <trkpt lat="45.85108" lon="4.36084">
        <ele>809</ele>
        <time>2022-08-28T00:18:38Z</time>
      </trkpt>
      <trkpt lat="45.85133" lon="4.36089">
        <ele>811</ele>
        <time>2022-08-28T00:18:42Z</time>
      </trkpt>
      <trkpt lat="45.8518" lon="4.36106">
        <ele>815</ele>
        <time>2022-08-28T00:18:51Z</time>
      </trkpt>
      <trkpt lat="45.85217" lon="4.36114">
        <ele>817</ele>
        <time>2022-08-28T00:18:57Z</time>
      </trkpt>
      <trkpt lat="45.85251" lon="4.36117">
        <ele>817</ele>
        <time>2022-08-28T00:19:04Z</time>
      </trkpt>
      <trkpt lat="45.85265" lon="4.36113">
        <ele>818</ele>
        <time>2022-08-28T00:19:06Z</time>
      </trkpt>
      <trkpt lat="45.85273" lon="4.36108">
        <ele>818</ele>
        <time>2022-08-28T00:19:08Z</time>
      </trkpt>
      <trkpt lat="45.85284" lon="4.36093">
        <ele>818</ele>
        <time>2022-08-28T00:19:10Z</time>
      </trkpt>
      <trkpt lat="45.85299" lon="4.3603">
        <ele>818</ele>
        <time>2022-08-28T00:19:19Z</time>
      </trkpt>
      <trkpt lat="45.85302" lon="4.36008">
        <ele>818</ele>
        <time>2022-08-28T00:19:21Z</time>
      </trkpt>
      <trkpt lat="45.85297" lon="4.35981">
        <ele>818</ele>
        <time>2022-08-28T00:19:25Z</time>
      </trkpt>
      <trkpt lat="45.8526" lon="4.35872">
        <ele>818</ele>
        <time>2022-08-28T00:19:40Z</time>
      </trkpt>
      <trkpt lat="45.85249" lon="4.35841">
        <ele>817.3</ele>
      </trkpt>
      <trkpt lat="45.85234" lon="4.35795">
        <ele>818.7</ele>
      </trkpt>
      <trkpt lat="45.85228" lon="4.35756">
        <ele>819.6</ele>
      </trkpt>
      <trkpt lat="45.85228" lon="4.3563">
        <ele>822</ele>
      </trkpt>
      <trkpt lat="45.8523" lon="4.35622">
        <ele>822.4</ele>
      </trkpt>
      <trkpt lat="45.85284" lon="4.35702">
        <ele>828.7</ele>
      </trkpt>
      <trkpt lat="45.85297" lon="4.35666">
        <ele>829.4</ele>
      </trkpt>
      <trkpt lat="45.85339" lon="4.35634">
        <ele>828.6</ele>
      </trkpt>
      <trkpt lat="45.85396" lon="4.3564">
        <ele>828.9</ele>
        <time>2022-08-28T00:20:17Z</time>
      </trkpt>
      <trkpt lat="45.85448" lon="4.35649">
        <ele>827</ele>
      </trkpt>
      <trkpt lat="45.85509" lon="4.35688">
        <ele>824</ele>
        <time>2022-08-28T00:20:37Z</time>
      </trkpt>
      <trkpt lat="45.85587" lon="4.3572">
        <ele>823</ele>
        <time>2022-08-28T00:20:51Z</time>
      </trkpt>
      <trkpt lat="45.85613" lon="4.35724">
        <ele>822</ele>
        <time>2022-08-28T00:20:56Z</time>
      </trkpt>
      <trkpt lat="45.85672" lon="4.35721">
        <ele>818</ele>
        <time>2022-08-28T00:21:06Z</time>
      </trkpt>
      <trkpt lat="45.85744" lon="4.35707">
        <ele>820</ele>
        <time>2022-08-28T00:21:19Z</time>
      </trkpt>
      <trkpt lat="45.85798" lon="4.35709">
        <ele>822</ele>
        <time>2022-08-28T00:21:29Z</time>
      </trkpt>
      <trkpt lat="45.85817" lon="4.35702">
        <ele>822</ele>
        <time>2022-08-28T00:21:33Z</time>
      </trkpt>
      <trkpt lat="45.85836" lon="4.3569">
        <ele>820</ele>
        <time>2022-08-28T00:21:36Z</time>
      </trkpt>
      <trkpt lat="45.85921" lon="4.3563">
        <ele>816</ele>
        <time>2022-08-28T00:21:53Z</time>
      </trkpt>
      <trkpt lat="45.85941" lon="4.35624">
        <ele>814</ele>
        <time>2022-08-28T00:21:57Z</time>
      </trkpt>
      <trkpt lat="45.85968" lon="4.35632">
        <ele>813</ele>
        <time>2022-08-28T00:22:02Z</time>
      </trkpt>
      <trkpt lat="45.85985" lon="4.35645">
        <ele>813</ele>
        <time>2022-08-28T00:22:05Z</time>
      </trkpt>
      <trkpt lat="45.86121" lon="4.35784">
        <ele>808</ele>
        <time>2022-08-28T00:22:35Z</time>
      </trkpt>
      <trkpt lat="45.8615" lon="4.35791">
        <ele>807</ele>
        <time>2022-08-28T00:22:40Z</time>
      </trkpt>
      <trkpt lat="45.86169" lon="4.35787">
        <ele>806</ele>
        <time>2022-08-28T00:22:43Z</time>
      </trkpt>
      <trkpt lat="45.86185" lon="4.35778">
        <ele>805</ele>
        <time>2022-08-28T00:22:46Z</time>
      </trkpt>
      <trkpt lat="45.8627" lon="4.35662">
        <ele>799</ele>
        <time>2022-08-28T00:23:07Z</time>
      </trkpt>
      <trkpt lat="45.86369" lon="4.35519">
        <ele>797</ele>
        <time>2022-08-28T00:23:32Z</time>
      </trkpt>
      <trkpt lat="45.86391" lon="4.35484">
        <ele>795</ele>
        <time>2022-08-28T00:23:38Z</time>
      </trkpt>
      <trkpt lat="45.86412" lon="4.35447">
        <ele>792</ele>
        <time>2022-08-28T00:23:44Z</time>
      </trkpt>
      <trkpt lat="45.86426" lon="4.35414">
        <ele>789</ele>
        <time>2022-08-28T00:23:49Z</time>
      </trkpt>
      <trkpt lat="45.86463" lon="4.35319">
        <ele>785</ele>
        <time>2022-08-28T00:24:02Z</time>
      </trkpt>
      <trkpt lat="45.86497" lon="4.35246">
        <ele>782</ele>
        <time>2022-08-28T00:24:13Z</time>
      </trkpt>
      <trkpt lat="45.86526" lon="4.35165">
        <ele>783</ele>
        <time>2022-08-28T00:24:24Z</time>
      </trkpt>
      <trkpt lat="45.86551" lon="4.35119">
        <ele>783</ele>
        <time>2022-08-28T00:24:32Z</time>
      </trkpt>
      <trkpt lat="45.86584" lon="4.35077">
        <ele>786</ele>
        <time>2022-08-28T00:24:40Z</time>
      </trkpt>
      <trkpt lat="45.8659" lon="4.3506">
        <ele>786</ele>
        <time>2022-08-28T00:24:42Z</time>
      </trkpt>
      <trkpt lat="45.8659" lon="4.35043">
        <ele>786</ele>
        <time>2022-08-28T00:24:44Z</time>
      </trkpt>
      <trkpt lat="45.86587" lon="4.35026">
        <ele>785</ele>
        <time>2022-08-28T00:24:46Z</time>
      </trkpt>
      <trkpt lat="45.86568" lon="4.34976">
        <ele>781</ele>
        <time>2022-08-28T00:24:53Z</time>
      </trkpt>
      <trkpt lat="45.86564" lon="4.34946">
        <ele>780</ele>
        <time>2022-08-28T00:24:57Z</time>
      </trkpt>
      <trkpt lat="45.86563" lon="4.34915">
        <ele>781</ele>
        <time>2022-08-28T00:25:01Z</time>
      </trkpt>
      <trkpt lat="45.86584" lon="4.34782">
        <ele>789</ele>
        <time>2022-08-28T00:25:18Z</time>
      </trkpt>
      <trkpt lat="45.86604" lon="4.34701">
        <ele>790</ele>
        <time>2022-08-28T00:25:28Z</time>
      </trkpt>
      <trkpt lat="45.86697" lon="4.34543">
        <ele>787</ele>
        <time>2022-08-28T00:25:54Z</time>
      </trkpt>
      <trkpt lat="45.86745" lon="4.34492">
        <ele>788</ele>
        <time>2022-08-28T00:26:05Z</time>
      </trkpt>
      <trkpt lat="45.86761" lon="4.34485">
        <ele>789</ele>
        <time>2022-08-28T00:26:08Z</time>
      </trkpt>
      <trkpt lat="45.86779" lon="4.34487">
        <ele>789</ele>
        <time>2022-08-28T00:26:11Z</time>
      </trkpt>
      <trkpt lat="45.86821" lon="4.34514">
        <ele>791</ele>
        <time>2022-08-28T00:26:19Z</time>
      </trkpt>
      <trkpt lat="45.86867" lon="4.34548">
        <ele>792</ele>
        <time>2022-08-28T00:26:28Z</time>
      </trkpt>
      <trkpt lat="45.86919" lon="4.34569">
        <ele>793</ele>
        <time>2022-08-28T00:26:38Z</time>
      </trkpt>
      <trkpt lat="45.86991" lon="4.34578">
        <ele>792</ele>
        <time>2022-08-28T00:26:51Z</time>
      </trkpt>
      <trkpt lat="45.87077" lon="4.34613">
        <ele>792</ele>
        <time>2022-08-28T00:27:07Z</time>
      </trkpt>
      <trkpt lat="45.87105" lon="4.34615">
        <ele>793</ele>
        <time>2022-08-28T00:27:12Z</time>
      </trkpt>
      <trkpt lat="45.87122" lon="4.34606">
        <ele>793</ele>
        <time>2022-08-28T00:27:15Z</time>
      </trkpt>
      <trkpt lat="45.87136" lon="4.34577">
        <ele>792</ele>
        <time>2022-08-28T00:27:19Z</time>
      </trkpt>
      <trkpt lat="45.87146" lon="4.34544">
        <ele>792</ele>
        <time>2022-08-28T00:27:24Z</time>
      </trkpt>
      <trkpt lat="45.87152" lon="4.345">
        <ele>791</ele>
        <time>2022-08-28T00:27:29Z</time>
      </trkpt>
      <trkpt lat="45.87153" lon="4.34444">
        <ele>793</ele>
        <time>2022-08-28T00:27:36Z</time>
      </trkpt>
      <trkpt lat="45.87146" lon="4.34364">
        <ele>790</ele>
        <time>2022-08-28T00:27:46Z</time>
      </trkpt>
      <trkpt lat="45.87134" lon="4.34306">
        <ele>786</ele>
        <time>2022-08-28T00:27:54Z</time>
      </trkpt>
      <trkpt lat="45.87133" lon="4.34274">
        <ele>786</ele>
        <time>2022-08-28T00:27:58Z</time>
      </trkpt>
      <trkpt lat="45.87139" lon="4.34248">
        <ele>788</ele>
        <time>2022-08-28T00:28:01Z</time>
      </trkpt>
      <trkpt lat="45.87148" lon="4.34231">
        <ele>787</ele>
        <time>2022-08-28T00:28:04Z</time>
      </trkpt>
      <trkpt lat="45.87159" lon="4.34222">
        <ele>788</ele>
        <time>2022-08-28T00:28:06Z</time>
      </trkpt>
      <trkpt lat="45.87177" lon="4.34213">
        <ele>789</ele>
        <time>2022-08-28T00:28:09Z</time>
      </trkpt>
      <trkpt lat="45.87191" lon="4.3421">
        <ele>790</ele>
        <time>2022-08-28T00:28:12Z</time>
      </trkpt>
      <trkpt lat="45.87205" lon="4.34208">
        <ele>786.9</ele>
        <time>2022-08-28T00:28:17Z</time>
      </trkpt>
      <trkpt lat="45.87215" lon="4.34203">
        <ele>790</ele>
        <time>2022-08-28T00:29:19Z</time>
      </trkpt>
      <trkpt lat="45.8724" lon="4.34192">
        <ele>790</ele>
        <time>2022-08-28T00:29:23Z</time>
      </trkpt>
      <trkpt lat="45.87262" lon="4.34177">
        <ele>791</ele>
        <time>2022-08-28T00:29:28Z</time>
      </trkpt>
      <trkpt lat="45.87275" lon="4.3416">
        <ele>792</ele>
        <time>2022-08-28T00:29:31Z</time>
      </trkpt>
      <trkpt lat="45.87292" lon="4.34126">
        <ele>793</ele>
        <time>2022-08-28T00:29:36Z</time>
      </trkpt>
      <trkpt lat="45.87301" lon="4.34098">
        <ele>793</ele>
        <time>2022-08-28T00:29:40Z</time>
      </trkpt>
      <trkpt lat="45.87318" lon="4.34024">
        <ele>793</ele>
        <time>2022-08-28T00:29:49Z</time>
      </trkpt>
      <trkpt lat="45.87332" lon="4.3395">
        <ele>792</ele>
        <time>2022-08-28T00:29:59Z</time>
      </trkpt>
      <trkpt lat="45.87349" lon="4.33882">
        <ele>788</ele>
        <time>2022-08-28T00:30:08Z</time>
      </trkpt>
      <trkpt lat="45.87375" lon="4.33828">
        <ele>787</ele>
        <time>2022-08-28T00:30:16Z</time>
      </trkpt>
      <trkpt lat="45.87396" lon="4.33798">
        <ele>787</ele>
        <time>2022-08-28T00:30:21Z</time>
      </trkpt>
      <trkpt lat="45.87433" lon="4.33759">
        <ele>786</ele>
        <time>2022-08-28T00:30:29Z</time>
      </trkpt>
      <trkpt lat="45.87471" lon="4.3373">
        <ele>786</ele>
        <time>2022-08-28T00:30:37Z</time>
      </trkpt>
      <trkpt lat="45.87509" lon="4.33707">
        <ele>787</ele>
        <time>2022-08-28T00:30:44Z</time>
      </trkpt>
      <trkpt lat="45.8755" lon="4.33688">
        <ele>787</ele>
        <time>2022-08-28T00:30:52Z</time>
      </trkpt>
      <trkpt lat="45.87585" lon="4.33678">
        <ele>788</ele>
        <time>2022-08-28T00:30:58Z</time>
      </trkpt>
      <trkpt lat="45.87611" lon="4.33679">
        <ele>786</ele>
        <time>2022-08-28T00:31:03Z</time>
      </trkpt>
      <trkpt lat="45.87643" lon="4.33685">
        <ele>785</ele>
        <time>2022-08-28T00:31:09Z</time>
      </trkpt>
      <trkpt lat="45.87698" lon="4.3371">
        <ele>788</ele>
        <time>2022-08-28T00:31:19Z</time>
      </trkpt>
      <trkpt lat="45.87729" lon="4.33718">
        <ele>788</ele>
        <time>2022-08-28T00:31:25Z</time>
      </trkpt>
      <trkpt lat="45.87765" lon="4.3371">
        <ele>788</ele>
        <time>2022-08-28T00:31:31Z</time>
      </trkpt>
      <trkpt lat="45.87788" lon="4.33696">
        <ele>787</ele>
        <time>2022-08-28T00:31:36Z</time>
      </trkpt>
      <trkpt lat="45.87823" lon="4.33651">
        <ele>784</ele>
        <time>2022-08-28T00:31:44Z</time>
      </trkpt>
      <trkpt lat="45.87858" lon="4.33613">
        <ele>783</ele>
        <time>2022-08-28T00:31:52Z</time>
      </trkpt>
      <trkpt lat="45.87893" lon="4.33584">
        <ele>782</ele>
        <time>2022-08-28T00:31:59Z</time>
      </trkpt>
      <trkpt lat="45.8791" lon="4.33574">
        <ele>783</ele>
        <time>2022-08-28T00:32:02Z</time>
      </trkpt>
      <trkpt lat="45.87939" lon="4.33564">
        <ele>782</ele>
        <time>2022-08-28T00:32:08Z</time>
      </trkpt>
      <trkpt lat="45.88016" lon="4.33553">
        <ele>781</ele>
        <time>2022-08-28T00:32:21Z</time>
      </trkpt>
      <trkpt lat="45.88031" lon="4.33549">
        <ele>782</ele>
        <time>2022-08-28T00:32:24Z</time>
      </trkpt>
      <trkpt lat="45.88057" lon="4.33538">
        <ele>781</ele>
        <time>2022-08-28T00:32:29Z</time>
      </trkpt>
      <trkpt lat="45.88079" lon="4.33523">
        <ele>780</ele>
        <time>2022-08-28T00:32:33Z</time>
      </trkpt>
      <trkpt lat="45.88132" lon="4.33483">
        <ele>782</ele>
        <time>2022-08-28T00:32:44Z</time>
      </trkpt>
      <trkpt lat="45.88195" lon="4.33422">
        <ele>783</ele>
        <time>2022-08-28T00:32:57Z</time>
      </trkpt>
      <trkpt lat="45.88256" lon="4.33359">
        <ele>786</ele>
        <time>2022-08-28T00:33:11Z</time>
      </trkpt>
      <trkpt lat="45.88326" lon="4.333">
        <ele>786</ele>
        <time>2022-08-28T00:33:25Z</time>
      </trkpt>
      <trkpt lat="45.88386" lon="4.33259">
        <ele>784</ele>
        <time>2022-08-28T00:33:37Z</time>
      </trkpt>
      <trkpt lat="45.8848" lon="4.33248">
        <ele>786</ele>
        <time>2022-08-28T00:33:54Z</time>
      </trkpt>
      <trkpt lat="45.886" lon="4.33218">
        <ele>772</ele>
        <time>2022-08-28T00:34:15Z</time>
      </trkpt>
      <trkpt lat="45.88635" lon="4.3322">
        <ele>772</ele>
        <time>2022-08-28T00:34:22Z</time>
      </trkpt>
      <trkpt lat="45.88681" lon="4.3323">
        <ele>773</ele>
        <time>2022-08-28T00:34:30Z</time>
      </trkpt>
      <trkpt lat="45.88717" lon="4.33242">
        <ele>776</ele>
        <time>2022-08-28T00:34:37Z</time>
      </trkpt>
      <trkpt lat="45.88729" lon="4.33238">
        <ele>776</ele>
        <time>2022-08-28T00:34:39Z</time>
      </trkpt>
      <trkpt lat="45.8874" lon="4.33225">
        <ele>775</ele>
        <time>2022-08-28T00:34:41Z</time>
      </trkpt>
      <trkpt lat="45.88773" lon="4.33177">
        <ele>773</ele>
        <time>2022-08-28T00:34:50Z</time>
      </trkpt>
      <trkpt lat="45.88851" lon="4.331">
        <ele>770</ele>
        <time>2022-08-28T00:35:06Z</time>
      </trkpt>
      <trkpt lat="45.88964" lon="4.33029">
        <ele>769</ele>
        <time>2022-08-28T00:35:28Z</time>
      </trkpt>
      <trkpt lat="45.88984" lon="4.33012">
        <ele>768</ele>
        <time>2022-08-28T00:35:33Z</time>
      </trkpt>
      <trkpt lat="45.89064" lon="4.32941">
        <ele>768.4</ele>
      </trkpt>
      <trkpt lat="45.8915" lon="4.3288">
        <ele>767.3</ele>
      </trkpt>
      <trkpt lat="45.89183" lon="4.32858">
        <ele>766.6</ele>
      </trkpt>
      <trkpt lat="45.89224" lon="4.32846">
        <ele>766.3</ele>
      </trkpt>
      <trkpt lat="45.89288" lon="4.32841">
        <ele>765.6</ele>
      </trkpt>
      <trkpt lat="45.8933" lon="4.32831">
        <ele>765.6</ele>
      </trkpt>
      <trkpt lat="45.89396" lon="4.32803">
        <ele>764.1</ele>
      </trkpt>
      <trkpt lat="45.89559" lon="4.32747">
        <ele>768.1</ele>
      </trkpt>
      <trkpt lat="45.89595" lon="4.3269">
        <ele>766.9</ele>
      </trkpt>
      <trkpt lat="45.89633" lon="4.32619">
        <ele>766</ele>
      </trkpt>
      <trkpt lat="45.89664" lon="4.32551">
        <ele>765.5</ele>
      </trkpt>
      <trkpt lat="45.89665" lon="4.32519">
        <ele>764.9</ele>
      </trkpt>
      <trkpt lat="45.89651" lon="4.32485">
        <ele>765</ele>
      </trkpt>
      <trkpt lat="45.89612" lon="4.32467">
        <ele>763.7</ele>
      </trkpt>
      <trkpt lat="45.89565" lon="4.3247">
        <ele>765.9</ele>
      </trkpt>
      <trkpt lat="45.89475" lon="4.32485">
        <ele>765.7</ele>
      </trkpt>
      <trkpt lat="45.894" lon="4.32484">
        <ele>765.6</ele>
      </trkpt>
      <trkpt lat="45.89359" lon="4.32491">
        <ele>764.1</ele>
      </trkpt>
      <trkpt lat="45.89263" lon="4.32478">
        <ele>762.3</ele>
      </trkpt>
      <trkpt lat="45.89237" lon="4.32459">
        <ele>762.8</ele>
      </trkpt>
      <trkpt lat="45.8922" lon="4.32419">
        <ele>761.8</ele>
      </trkpt>
      <trkpt lat="45.89211" lon="4.32359">
        <ele>760.4</ele>
      </trkpt>
      <trkpt lat="45.89253" lon="4.32216">
        <ele>758.2</ele>
        <time>2022-08-28T00:38:12Z</time>
      </trkpt>
      <trkpt lat="45.89279" lon="4.32107">
        <ele>758.3</ele>
      </trkpt>
      <trkpt lat="45.89288" lon="4.31996">
        <ele>752.6</ele>
      </trkpt>
      <trkpt lat="45.89302" lon="4.31952">
        <ele>752.6</ele>
        <time>2022-08-28T00:38:39Z</time>
      </trkpt>
      <trkpt lat="45.8932" lon="4.31883">
        <ele>746</ele>
        <time>2022-08-28T00:38:40Z</time>
      </trkpt>
      <trkpt lat="45.89337" lon="4.31852">
        <ele>745</ele>
        <time>2022-08-28T00:38:45Z</time>
      </trkpt>
      <trkpt lat="45.89359" lon="4.31831">
        <ele>745</ele>
        <time>2022-08-28T00:38:49Z</time>
      </trkpt>
      <trkpt lat="45.89477" lon="4.31772">
        <ele>742</ele>
        <time>2022-08-28T00:39:12Z</time>
      </trkpt>
      <trkpt lat="45.89696" lon="4.31668">
        <ele>740</ele>
        <time>2022-08-28T00:39:53Z</time>
      </trkpt>
      <trkpt lat="45.89752" lon="4.31622">
        <ele>737</ele>
        <time>2022-08-28T00:40:04Z</time>
      </trkpt>
      <trkpt lat="45.89818" lon="4.31581">
        <ele>737</ele>
        <time>2022-08-28T00:40:17Z</time>
      </trkpt>
      <trkpt lat="45.8987" lon="4.31545">
        <ele>736</ele>
        <time>2022-08-28T00:40:27Z</time>
      </trkpt>
      <trkpt lat="45.89994" lon="4.31414">
        <ele>728</ele>
        <time>2022-08-28T00:40:55Z</time>
      </trkpt>
      <trkpt lat="45.90037" lon="4.31339">
        <ele>725</ele>
        <time>2022-08-28T00:41:07Z</time>
      </trkpt>
      <trkpt lat="45.90069" lon="4.31291">
        <ele>724</ele>
        <time>2022-08-28T00:41:15Z</time>
      </trkpt>
      <trkpt lat="45.9014" lon="4.31225">
        <ele>721</ele>
        <time>2022-08-28T00:41:30Z</time>
      </trkpt>
      <trkpt lat="45.90178" lon="4.31203">
        <ele>721</ele>
        <time>2022-08-28T00:41:37Z</time>
      </trkpt>
      <trkpt lat="45.90185" lon="4.31194">
        <ele>721</ele>
        <time>2022-08-28T00:41:39Z</time>
      </trkpt>
      <trkpt lat="45.90196" lon="4.31165">
        <ele>719</ele>
        <time>2022-08-28T00:41:43Z</time>
      </trkpt>
      <trkpt lat="45.90197" lon="4.31162">
        <ele>718</ele>
        <time>2022-08-28T00:41:43Z</time>
      </trkpt>
      <trkpt lat="45.90228" lon="4.3117">
        <ele>721</ele>
        <time>2022-08-28T00:41:49Z</time>
      </trkpt>
      <trkpt lat="45.90258" lon="4.3118">
        <ele>724</ele>
        <time>2022-08-28T00:41:55Z</time>
      </trkpt>
      <trkpt lat="45.90325" lon="4.31212">
        <ele>729</ele>
        <time>2022-08-28T00:42:07Z</time>
      </trkpt>
      <trkpt lat="45.9038" lon="4.31232">
        <ele>734</ele>
        <time>2022-08-28T00:42:17Z</time>
      </trkpt>
      <trkpt lat="45.90427" lon="4.31243">
        <ele>738</ele>
        <time>2022-08-28T00:42:26Z</time>
      </trkpt>
      <trkpt lat="45.90437" lon="4.31242">
        <ele>739</ele>
        <time>2022-08-28T00:42:27Z</time>
      </trkpt>
      <trkpt lat="45.90451" lon="4.31235">
        <ele>740</ele>
        <time>2022-08-28T00:42:30Z</time>
      </trkpt>
      <trkpt lat="45.90463" lon="4.31221">
        <ele>740</ele>
        <time>2022-08-28T00:42:33Z</time>
      </trkpt>
      <trkpt lat="45.90493" lon="4.31171">
        <ele>738</ele>
        <time>2022-08-28T00:42:41Z</time>
      </trkpt>
      <trkpt lat="45.9051" lon="4.31152">
        <ele>737</ele>
        <time>2022-08-28T00:42:45Z</time>
      </trkpt>
      <trkpt lat="45.90525" lon="4.31141">
        <ele>736</ele>
        <time>2022-08-28T00:42:48Z</time>
      </trkpt>
      <trkpt lat="45.90536" lon="4.31138">
        <ele>735</ele>
        <time>2022-08-28T00:42:50Z</time>
      </trkpt>
      <trkpt lat="45.90546" lon="4.31139">
        <ele>735</ele>
        <time>2022-08-28T00:42:52Z</time>
      </trkpt>
      <trkpt lat="45.90559" lon="4.31145">
        <ele>735</ele>
        <time>2022-08-28T00:42:54Z</time>
      </trkpt>
      <trkpt lat="45.90622" lon="4.31212">
        <ele>742</ele>
        <time>2022-08-28T00:43:08Z</time>
      </trkpt>
      <trkpt lat="45.90649" lon="4.31229">
        <ele>744</ele>
        <time>2022-08-28T00:43:13Z</time>
      </trkpt>
      <trkpt lat="45.90673" lon="4.31241">
        <ele>745</ele>
        <time>2022-08-28T00:43:18Z</time>
      </trkpt>
      <trkpt lat="45.90701" lon="4.31251">
        <ele>747</ele>
        <time>2022-08-28T00:43:23Z</time>
      </trkpt>
      <trkpt lat="45.9074" lon="4.3126">
        <ele>747</ele>
        <time>2022-08-28T00:43:30Z</time>
      </trkpt>
      <trkpt lat="45.90763" lon="4.31274">
        <ele>747</ele>
        <time>2022-08-28T00:43:34Z</time>
      </trkpt>
      <trkpt lat="45.90774" lon="4.31285">
        <ele>746</ele>
        <time>2022-08-28T00:43:37Z</time>
      </trkpt>
      <trkpt lat="45.90784" lon="4.31299">
        <ele>746</ele>
        <time>2022-08-28T00:43:39Z</time>
      </trkpt>
      <trkpt lat="45.90792" lon="4.31314">
        <ele>746</ele>
        <time>2022-08-28T00:43:42Z</time>
      </trkpt>
      <trkpt lat="45.90803" lon="4.31343">
        <ele>747</ele>
        <time>2022-08-28T00:43:46Z</time>
      </trkpt>
      <trkpt lat="45.90827" lon="4.31433">
        <ele>751</ele>
        <time>2022-08-28T00:43:58Z</time>
      </trkpt>
      <trkpt lat="45.90831" lon="4.31466">
        <ele>751</ele>
        <time>2022-08-28T00:44:02Z</time>
      </trkpt>
      <trkpt lat="45.90832" lon="4.31501">
        <ele>752</ele>
        <time>2022-08-28T00:44:06Z</time>
      </trkpt>
      <trkpt lat="45.9083" lon="4.31526">
        <ele>751</ele>
        <time>2022-08-28T00:44:09Z</time>
      </trkpt>
      <trkpt lat="45.90826" lon="4.31541">
        <ele>751</ele>
        <time>2022-08-28T00:44:11Z</time>
      </trkpt>
      <trkpt lat="45.90821" lon="4.31553">
        <ele>751</ele>
        <time>2022-08-28T00:44:13Z</time>
      </trkpt>
      <trkpt lat="45.90812" lon="4.31564">
        <ele>752</ele>
        <time>2022-08-28T00:44:15Z</time>
      </trkpt>
      <trkpt lat="45.90711" lon="4.31628">
        <ele>759</ele>
        <time>2022-08-28T00:44:35Z</time>
      </trkpt>
      <trkpt lat="45.90661" lon="4.31653">
        <ele>757</ele>
        <time>2022-08-28T00:44:44Z</time>
      </trkpt>
      <trkpt lat="45.90647" lon="4.31667">
        <ele>755</ele>
        <time>2022-08-28T00:44:47Z</time>
      </trkpt>
      <trkpt lat="45.90643" lon="4.31679">
        <ele>756</ele>
        <time>2022-08-28T00:44:49Z</time>
      </trkpt>
      <trkpt lat="45.90642" lon="4.31688">
        <ele>756</ele>
        <time>2022-08-28T00:44:50Z</time>
      </trkpt>
      <trkpt lat="45.90644" lon="4.31703">
        <ele>756</ele>
        <time>2022-08-28T00:44:52Z</time>
      </trkpt>
      <trkpt lat="45.90648" lon="4.31717">
        <ele>756</ele>
        <time>2022-08-28T00:44:54Z</time>
      </trkpt>
      <trkpt lat="45.90653" lon="4.31729">
        <ele>755</ele>
        <time>2022-08-28T00:44:55Z</time>
      </trkpt>
      <trkpt lat="45.90661" lon="4.31742">
        <ele>755</ele>
        <time>2022-08-28T00:44:58Z</time>
      </trkpt>
      <trkpt lat="45.90689" lon="4.31776">
        <ele>758</ele>
        <time>2022-08-28T00:45:04Z</time>
      </trkpt>
      <trkpt lat="45.90717" lon="4.318">
        <ele>760</ele>
        <time>2022-08-28T00:45:10Z</time>
      </trkpt>
      <trkpt lat="45.90808" lon="4.3184">
        <ele>763</ele>
        <time>2022-08-28T00:45:27Z</time>
      </trkpt>
      <trkpt lat="45.90839" lon="4.31848">
        <ele>764</ele>
        <time>2022-08-28T00:45:32Z</time>
      </trkpt>
      <trkpt lat="45.90891" lon="4.31855">
        <ele>762</ele>
        <time>2022-08-28T00:45:42Z</time>
      </trkpt>
      <trkpt lat="45.90922" lon="4.31854">
        <ele>761</ele>
        <time>2022-08-28T00:45:47Z</time>
      </trkpt>
      <trkpt lat="45.9097" lon="4.31844">
        <ele>762</ele>
        <time>2022-08-28T00:45:56Z</time>
      </trkpt>
      <trkpt lat="45.90999" lon="4.31831">
        <ele>762</ele>
        <time>2022-08-28T00:46:01Z</time>
      </trkpt>
      <trkpt lat="45.91026" lon="4.31816">
        <ele>763</ele>
        <time>2022-08-28T00:46:06Z</time>
      </trkpt>
      <trkpt lat="45.91064" lon="4.31791">
        <ele>765</ele>
        <time>2022-08-28T00:46:14Z</time>
      </trkpt>
      <trkpt lat="45.91088" lon="4.31771">
        <ele>765</ele>
        <time>2022-08-28T00:46:19Z</time>
      </trkpt>
      <trkpt lat="45.91104" lon="4.31754">
        <ele>763</ele>
        <time>2022-08-28T00:46:22Z</time>
      </trkpt>
      <trkpt lat="45.91117" lon="4.31745">
        <ele>762</ele>
        <time>2022-08-28T00:46:25Z</time>
      </trkpt>
      <trkpt lat="45.91153" lon="4.31729">
        <ele>761</ele>
        <time>2022-08-28T00:46:32Z</time>
      </trkpt>
      <trkpt lat="45.91266" lon="4.31714">
        <ele>760</ele>
        <time>2022-08-28T00:46:52Z</time>
      </trkpt>
      <trkpt lat="45.91346" lon="4.31695">
        <ele>760</ele>
        <time>2022-08-28T00:47:06Z</time>
      </trkpt>
      <trkpt lat="45.91366" lon="4.31693">
        <ele>760</ele>
        <time>2022-08-28T00:47:10Z</time>
      </trkpt>
      <trkpt lat="45.91379" lon="4.31693">
        <ele>760</ele>
        <time>2022-08-28T00:47:12Z</time>
      </trkpt>
      <trkpt lat="45.91394" lon="4.31701">
        <ele>760</ele>
        <time>2022-08-28T00:47:15Z</time>
      </trkpt>
      <trkpt lat="45.91407" lon="4.31712">
        <ele>760</ele>
        <time>2022-08-28T00:47:18Z</time>
      </trkpt>
      <trkpt lat="45.91419" lon="4.31728">
        <ele>760</ele>
        <time>2022-08-28T00:47:20Z</time>
      </trkpt>
      <trkpt lat="45.91436" lon="4.31764">
        <ele>760</ele>
        <time>2022-08-28T00:47:26Z</time>
      </trkpt>
      <trkpt lat="45.91448" lon="4.31799">
        <ele>758</ele>
        <time>2022-08-28T00:47:31Z</time>
      </trkpt>
      <trkpt lat="45.91467" lon="4.31898">
        <ele>757</ele>
        <time>2022-08-28T00:47:43Z</time>
      </trkpt>
      <trkpt lat="45.91483" lon="4.31963">
        <ele>756</ele>
        <time>2022-08-28T00:47:52Z</time>
      </trkpt>
      <trkpt lat="45.91523" lon="4.32088">
        <ele>753</ele>
        <time>2022-08-28T00:48:09Z</time>
      </trkpt>
      <trkpt lat="45.91534" lon="4.32112">
        <ele>753</ele>
        <time>2022-08-28T00:48:13Z</time>
      </trkpt>
      <trkpt lat="45.9155" lon="4.32133">
        <ele>752</ele>
        <time>2022-08-28T00:48:16Z</time>
      </trkpt>
      <trkpt lat="45.91576" lon="4.32158">
        <ele>749</ele>
        <time>2022-08-28T00:48:22Z</time>
      </trkpt>
      <trkpt lat="45.91589" lon="4.32166">
        <ele>749</ele>
        <time>2022-08-28T00:48:24Z</time>
      </trkpt>
      <trkpt lat="45.91693" lon="4.32191">
        <ele>745</ele>
        <time>2022-08-28T00:48:43Z</time>
      </trkpt>
      <trkpt lat="45.91705" lon="4.32196">
        <ele>744</ele>
        <time>2022-08-28T00:48:45Z</time>
      </trkpt>
      <trkpt lat="45.91728" lon="4.32216">
        <ele>745</ele>
        <time>2022-08-28T00:48:50Z</time>
      </trkpt>
      <trkpt lat="45.9174" lon="4.32233">
        <ele>747</ele>
        <time>2022-08-28T00:48:53Z</time>
      </trkpt>
      <trkpt lat="45.91749" lon="4.32253">
        <ele>748</ele>
        <time>2022-08-28T00:48:56Z</time>
      </trkpt>
      <trkpt lat="45.91757" lon="4.32278">
        <ele>748</ele>
        <time>2022-08-28T00:49:00Z</time>
      </trkpt>
      <trkpt lat="45.9176" lon="4.32308">
        <ele>748</ele>
        <time>2022-08-28T00:49:03Z</time>
      </trkpt>
      <trkpt lat="45.91764" lon="4.32388">
        <ele>744</ele>
        <time>2022-08-28T00:49:13Z</time>
      </trkpt>
      <trkpt lat="45.9177" lon="4.32423">
        <ele>741</ele>
        <time>2022-08-28T00:49:18Z</time>
      </trkpt>
      <trkpt lat="45.91778" lon="4.32442">
        <ele>739</ele>
        <time>2022-08-28T00:49:20Z</time>
      </trkpt>
      <trkpt lat="45.91801" lon="4.32468">
        <ele>735</ele>
        <time>2022-08-28T00:49:26Z</time>
      </trkpt>
      <trkpt lat="45.91808" lon="4.32477">
        <ele>734</ele>
        <time>2022-08-28T00:49:27Z</time>
      </trkpt>
      <trkpt lat="45.9181" lon="4.32484">
        <ele>734</ele>
        <time>2022-08-28T00:49:28Z</time>
      </trkpt>
      <trkpt lat="45.91813" lon="4.3251">
        <ele>732</ele>
        <time>2022-08-28T00:49:32Z</time>
      </trkpt>
      <trkpt lat="45.91819" lon="4.33061">
        <ele>749</ele>
        <time>2022-08-28T00:50:40Z</time>
      </trkpt>
      <trkpt lat="45.91817" lon="4.3311">
        <ele>751</ele>
        <time>2022-08-28T00:50:46Z</time>
      </trkpt>
      <trkpt lat="45.91812" lon="4.33145">
        <ele>752</ele>
        <time>2022-08-28T00:50:50Z</time>
      </trkpt>
      <trkpt lat="45.91805" lon="4.33175">
        <ele>752</ele>
        <time>2022-08-28T00:50:54Z</time>
      </trkpt>
      <trkpt lat="45.91788" lon="4.33224">
        <ele>754</ele>
        <time>2022-08-28T00:51:01Z</time>
      </trkpt>
      <trkpt lat="45.91758" lon="4.33276">
        <ele>755</ele>
        <time>2022-08-28T00:51:09Z</time>
      </trkpt>
      <trkpt lat="45.91682" lon="4.33382">
        <ele>755</ele>
        <time>2022-08-28T00:51:28Z</time>
      </trkpt>
      <trkpt lat="45.91667" lon="4.33408">
        <ele>753</ele>
        <time>2022-08-28T00:51:32Z</time>
      </trkpt>
      <trkpt lat="45.91653" lon="4.33437">
        <ele>752</ele>
        <time>2022-08-28T00:51:37Z</time>
      </trkpt>
      <trkpt lat="45.9163" lon="4.33509">
        <ele>745</ele>
        <time>2022-08-28T00:51:47Z</time>
      </trkpt>
      <trkpt lat="45.91597" lon="4.3365">
        <ele>749</ele>
        <time>2022-08-28T00:52:05Z</time>
      </trkpt>
      <trkpt lat="45.91597" lon="4.33669">
        <ele>749</ele>
        <time>2022-08-28T00:52:07Z</time>
      </trkpt>
      <trkpt lat="45.91603" lon="4.33718">
        <ele>749</ele>
        <time>2022-08-28T00:52:13Z</time>
      </trkpt>
      <trkpt lat="45.91615" lon="4.33763">
        <ele>750</ele>
        <time>2022-08-28T00:52:19Z</time>
      </trkpt>
      <trkpt lat="45.91624" lon="4.33784">
        <ele>751</ele>
        <time>2022-08-28T00:52:22Z</time>
      </trkpt>
      <trkpt lat="45.91659" lon="4.3386">
        <ele>757</ele>
        <time>2022-08-28T00:52:34Z</time>
      </trkpt>
      <trkpt lat="45.91669" lon="4.33887">
        <ele>758</ele>
        <time>2022-08-28T00:52:38Z</time>
      </trkpt>
      <trkpt lat="45.91675" lon="4.33911">
        <ele>759</ele>
        <time>2022-08-28T00:52:41Z</time>
      </trkpt>
      <trkpt lat="45.91678" lon="4.33937">
        <ele>759</ele>
        <time>2022-08-28T00:52:44Z</time>
      </trkpt>
      <trkpt lat="45.91678" lon="4.33962">
        <ele>759</ele>
        <time>2022-08-28T00:52:47Z</time>
      </trkpt>
      <trkpt lat="45.91676" lon="4.33985">
        <ele>759</ele>
        <time>2022-08-28T00:52:50Z</time>
      </trkpt>
      <trkpt lat="45.9167" lon="4.34012">
        <ele>759</ele>
        <time>2022-08-28T00:52:53Z</time>
      </trkpt>
      <trkpt lat="45.91662" lon="4.34035">
        <ele>758</ele>
        <time>2022-08-28T00:52:57Z</time>
      </trkpt>
      <trkpt lat="45.91637" lon="4.34083">
        <ele>757</ele>
        <time>2022-08-28T00:53:04Z</time>
      </trkpt>
      <trkpt lat="45.91595" lon="4.34144">
        <ele>758</ele>
        <time>2022-08-28T00:53:15Z</time>
      </trkpt>
      <trkpt lat="45.91579" lon="4.34183">
        <ele>758</ele>
        <time>2022-08-28T00:53:20Z</time>
      </trkpt>
      <trkpt lat="45.91574" lon="4.34201">
        <ele>758</ele>
        <time>2022-08-28T00:53:23Z</time>
      </trkpt>
      <trkpt lat="45.91571" lon="4.34222">
        <ele>757</ele>
        <time>2022-08-28T00:53:25Z</time>
      </trkpt>
      <trkpt lat="45.91566" lon="4.34366">
        <ele>757</ele>
        <time>2022-08-28T00:53:43Z</time>
      </trkpt>
      <trkpt lat="45.91534" lon="4.34546">
        <ele>756</ele>
        <time>2022-08-28T00:54:06Z</time>
      </trkpt>
      <trkpt lat="45.91529" lon="4.34588">
        <ele>754</ele>
        <time>2022-08-28T00:54:11Z</time>
      </trkpt>
      <trkpt lat="45.91524" lon="4.34683">
        <ele>750</ele>
        <time>2022-08-28T00:54:23Z</time>
      </trkpt>
      <trkpt lat="45.91521" lon="4.34708">
        <ele>751</ele>
        <time>2022-08-28T00:54:26Z</time>
      </trkpt>
      <trkpt lat="45.91488" lon="4.3486">
        <ele>746</ele>
        <time>2022-08-28T00:54:46Z</time>
      </trkpt>
      <trkpt lat="45.91486" lon="4.3488">
        <ele>745</ele>
        <time>2022-08-28T00:54:49Z</time>
      </trkpt>
      <trkpt lat="45.91485" lon="4.34901">
        <ele>745</ele>
        <time>2022-08-28T00:54:51Z</time>
      </trkpt>
      <trkpt lat="45.91492" lon="4.34985">
        <ele>744</ele>
        <time>2022-08-28T00:55:02Z</time>
      </trkpt>
      <trkpt lat="45.91493" lon="4.35019">
        <ele>744</ele>
        <time>2022-08-28T00:55:06Z</time>
      </trkpt>
      <trkpt lat="45.91492" lon="4.35041">
        <ele>744</ele>
        <time>2022-08-28T00:55:09Z</time>
      </trkpt>
      <trkpt lat="45.91488" lon="4.3506">
        <ele>743</ele>
        <time>2022-08-28T00:55:11Z</time>
      </trkpt>
      <trkpt lat="45.91497" lon="4.3507">
        <ele>745</ele>
        <time>2022-08-28T00:55:13Z</time>
      </trkpt>
      <trkpt lat="45.91499" lon="4.35084">
        <ele>746</ele>
        <time>2022-08-28T00:55:15Z</time>
      </trkpt>
      <trkpt lat="45.91465" lon="4.35185">
        <ele>744</ele>
        <time>2022-08-28T00:55:29Z</time>
      </trkpt>
      <trkpt lat="45.91459" lon="4.35208">
        <ele>744</ele>
        <time>2022-08-28T00:55:32Z</time>
      </trkpt>
      <trkpt lat="45.91455" lon="4.35228">
        <ele>745</ele>
        <time>2022-08-28T00:55:34Z</time>
      </trkpt>
      <trkpt lat="45.91451" lon="4.35255">
        <ele>745</ele>
        <time>2022-08-28T00:55:38Z</time>
      </trkpt>
      <trkpt lat="45.9145" lon="4.35279">
        <ele>745</ele>
        <time>2022-08-28T00:55:41Z</time>
      </trkpt>
      <trkpt lat="45.91452" lon="4.35337">
        <ele>746</ele>
        <time>2022-08-28T00:55:48Z</time>
      </trkpt>
      <trkpt lat="45.91458" lon="4.35373">
        <ele>746</ele>
        <time>2022-08-28T00:55:53Z</time>
      </trkpt>
      <trkpt lat="45.91464" lon="4.35387">
        <ele>746</ele>
        <time>2022-08-28T00:55:55Z</time>
      </trkpt>
      <trkpt lat="45.91506" lon="4.35454">
        <ele>752</ele>
        <time>2022-08-28T00:56:06Z</time>
      </trkpt>
      <trkpt lat="45.91515" lon="4.35473">
        <ele>753</ele>
        <time>2022-08-28T00:56:09Z</time>
      </trkpt>
      <trkpt lat="45.91522" lon="4.35494">
        <ele>754</ele>
        <time>2022-08-28T00:56:11Z</time>
      </trkpt>
      <trkpt lat="45.91533" lon="4.35551">
        <ele>755</ele>
        <time>2022-08-28T00:56:19Z</time>
      </trkpt>
      <trkpt lat="45.91536" lon="4.35582">
        <ele>755</ele>
        <time>2022-08-28T00:56:23Z</time>
      </trkpt>
      <trkpt lat="45.91537" lon="4.35622">
        <ele>754</ele>
        <time>2022-08-28T00:56:28Z</time>
      </trkpt>
      <trkpt lat="45.91536" lon="4.35834">
        <ele>761</ele>
        <time>2022-08-28T00:56:54Z</time>
      </trkpt>
      <trkpt lat="45.91507" lon="4.35914">
        <ele>758</ele>
        <time>2022-08-28T00:57:05Z</time>
      </trkpt>
      <trkpt lat="45.91501" lon="4.35937">
        <ele>756</ele>
        <time>2022-08-28T00:57:08Z</time>
      </trkpt>
      <trkpt lat="45.91494" lon="4.35988">
        <ele>754</ele>
        <time>2022-08-28T00:57:15Z</time>
      </trkpt>
      <trkpt lat="45.91491" lon="4.36006">
        <ele>753</ele>
        <time>2022-08-28T00:57:17Z</time>
      </trkpt>
      <trkpt lat="45.91483" lon="4.36031">
        <ele>754</ele>
        <time>2022-08-28T00:57:20Z</time>
      </trkpt>
      <trkpt lat="45.91457" lon="4.36102">
        <ele>757</ele>
        <time>2022-08-28T00:57:30Z</time>
      </trkpt>
      <trkpt lat="45.91446" lon="4.36153">
        <ele>757</ele>
        <time>2022-08-28T00:57:37Z</time>
      </trkpt>
      <trkpt lat="45.91441" lon="4.36194">
        <ele>758</ele>
        <time>2022-08-28T00:57:42Z</time>
      </trkpt>
      <trkpt lat="45.91442" lon="4.36232">
        <ele>757</ele>
        <time>2022-08-28T00:57:47Z</time>
      </trkpt>
      <trkpt lat="45.91444" lon="4.36264">
        <ele>756</ele>
        <time>2022-08-28T00:57:51Z</time>
      </trkpt>
      <trkpt lat="45.91444" lon="4.36296">
        <ele>755</ele>
        <time>2022-08-28T00:57:55Z</time>
      </trkpt>
      <trkpt lat="45.91442" lon="4.36309">
        <ele>755</ele>
        <time>2022-08-28T00:57:56Z</time>
      </trkpt>
      <trkpt lat="45.91434" lon="4.36337">
        <ele>756</ele>
        <time>2022-08-28T00:58:00Z</time>
      </trkpt>
      <trkpt lat="45.91428" lon="4.36353">
        <ele>755</ele>
        <time>2022-08-28T00:58:02Z</time>
      </trkpt>
      <trkpt lat="45.91418" lon="4.3637">
        <ele>754</ele>
        <time>2022-08-28T00:58:05Z</time>
      </trkpt>
      <trkpt lat="45.91306" lon="4.36531">
        <ele>757</ele>
        <time>2022-08-28T00:58:33Z</time>
      </trkpt>
      <trkpt lat="45.91268" lon="4.36592">
        <ele>756</ele>
        <time>2022-08-28T00:58:43Z</time>
      </trkpt>
      <trkpt lat="45.91257" lon="4.36618">
        <ele>755</ele>
        <time>2022-08-28T00:58:47Z</time>
      </trkpt>
      <trkpt lat="45.91249" lon="4.36647">
        <ele>754</ele>
        <time>2022-08-28T00:58:51Z</time>
      </trkpt>
      <trkpt lat="45.91236" lon="4.36717">
        <ele>755</ele>
        <time>2022-08-28T00:59:00Z</time>
      </trkpt>
      <trkpt lat="45.91235" lon="4.36733">
        <ele>756</ele>
        <time>2022-08-28T00:59:02Z</time>
      </trkpt>
      <trkpt lat="45.91235" lon="4.36751">
        <ele>756</ele>
        <time>2022-08-28T00:59:04Z</time>
      </trkpt>
      <trkpt lat="45.9124" lon="4.36772">
        <ele>755</ele>
        <time>2022-08-28T00:59:07Z</time>
      </trkpt>
      <trkpt lat="45.9125" lon="4.36787">
        <ele>754</ele>
        <time>2022-08-28T00:59:09Z</time>
      </trkpt>
      <trkpt lat="45.91329" lon="4.36867">
        <ele>752</ele>
        <time>2022-08-28T00:59:27Z</time>
      </trkpt>
      <trkpt lat="45.91352" lon="4.36881">
        <ele>752</ele>
        <time>2022-08-28T00:59:31Z</time>
      </trkpt>
      <trkpt lat="45.91361" lon="4.36884">
        <ele>752</ele>
        <time>2022-08-28T00:59:33Z</time>
      </trkpt>
      <trkpt lat="45.91425" lon="4.36886">
        <ele>749</ele>
        <time>2022-08-28T00:59:44Z</time>
      </trkpt>
      <trkpt lat="45.91454" lon="4.3689">
        <ele>747</ele>
        <time>2022-08-28T00:59:49Z</time>
      </trkpt>
      <trkpt lat="45.91462" lon="4.36892">
        <ele>746</ele>
        <time>2022-08-28T00:59:51Z</time>
      </trkpt>
      <trkpt lat="45.91472" lon="4.36901">
        <ele>746</ele>
        <time>2022-08-28T00:59:53Z</time>
      </trkpt>
      <trkpt lat="45.91477" lon="4.36909">
        <ele>746</ele>
        <time>2022-08-28T00:59:54Z</time>
      </trkpt>
      <trkpt lat="45.91479" lon="4.36919">
        <ele>746</ele>
        <time>2022-08-28T00:59:55Z</time>
      </trkpt>
      <trkpt lat="45.91481" lon="4.36932">
        <ele>745</ele>
        <time>2022-08-28T00:59:57Z</time>
      </trkpt>
      <trkpt lat="45.91478" lon="4.36964">
        <ele>745</ele>
        <time>2022-08-28T01:00:01Z</time>
      </trkpt>
      <trkpt lat="45.91465" lon="4.37048">
        <ele>746</ele>
        <time>2022-08-28T01:00:12Z</time>
      </trkpt>
      <trkpt lat="45.91465" lon="4.37078">
        <ele>746</ele>
        <time>2022-08-28T01:00:15Z</time>
      </trkpt>
      <trkpt lat="45.91467" lon="4.3709">
        <ele>747</ele>
        <time>2022-08-28T01:00:17Z</time>
      </trkpt>
      <trkpt lat="45.91474" lon="4.37109">
        <ele>748</ele>
        <time>2022-08-28T01:00:20Z</time>
      </trkpt>
      <trkpt lat="45.91481" lon="4.37121">
        <ele>749</ele>
        <time>2022-08-28T01:00:22Z</time>
      </trkpt>
      <trkpt lat="45.91489" lon="4.3713">
        <ele>750</ele>
        <time>2022-08-28T01:00:23Z</time>
      </trkpt>
      <trkpt lat="45.91509" lon="4.37142">
        <ele>749</ele>
        <time>2022-08-28T01:00:27Z</time>
      </trkpt>
      <trkpt lat="45.91545" lon="4.37157">
        <ele>745</ele>
        <time>2022-08-28T01:00:34Z</time>
      </trkpt>
      <trkpt lat="45.91572" lon="4.37173">
        <ele>743</ele>
        <time>2022-08-28T01:00:39Z</time>
      </trkpt>
      <trkpt lat="45.91605" lon="4.372">
        <ele>741</ele>
        <time>2022-08-28T01:00:46Z</time>
      </trkpt>
      <trkpt lat="45.91682" lon="4.3727">
        <ele>739</ele>
        <time>2022-08-28T01:01:02Z</time>
      </trkpt>
      <trkpt lat="45.91697" lon="4.3728">
        <ele>739</ele>
        <time>2022-08-28T01:01:05Z</time>
      </trkpt>
      <trkpt lat="45.91775" lon="4.37317">
        <ele>736</ele>
        <time>2022-08-28T01:01:20Z</time>
      </trkpt>
      <trkpt lat="45.91788" lon="4.37325">
        <ele>736</ele>
        <time>2022-08-28T01:01:22Z</time>
      </trkpt>
      <trkpt lat="45.91819" lon="4.37352">
        <ele>737</ele>
        <time>2022-08-28T01:01:29Z</time>
      </trkpt>
      <trkpt lat="45.9183" lon="4.37358">
        <ele>737</ele>
        <time>2022-08-28T01:01:31Z</time>
      </trkpt>
      <trkpt lat="45.91849" lon="4.37363">
        <ele>736</ele>
        <time>2022-08-28T01:01:34Z</time>
      </trkpt>
      <trkpt lat="45.91886" lon="4.37359">
        <ele>733</ele>
        <time>2022-08-28T01:01:41Z</time>
      </trkpt>
      <trkpt lat="45.91905" lon="4.37361">
        <ele>732</ele>
        <time>2022-08-28T01:01:44Z</time>
      </trkpt>
      <trkpt lat="45.91916" lon="4.37366">
        <ele>732</ele>
        <time>2022-08-28T01:01:46Z</time>
      </trkpt>
      <trkpt lat="45.91929" lon="4.37377">
        <ele>731</ele>
        <time>2022-08-28T01:01:49Z</time>
      </trkpt>
      <trkpt lat="45.91936" lon="4.37385">
        <ele>730</ele>
        <time>2022-08-28T01:01:50Z</time>
      </trkpt>
      <trkpt lat="45.91943" lon="4.37398">
        <ele>730</ele>
        <time>2022-08-28T01:01:52Z</time>
      </trkpt>
      <trkpt lat="45.9195" lon="4.37418">
        <ele>730</ele>
        <time>2022-08-28T01:01:55Z</time>
      </trkpt>
      <trkpt lat="45.91963" lon="4.37474">
        <ele>729</ele>
        <time>2022-08-28T01:02:03Z</time>
      </trkpt>
      <trkpt lat="45.91967" lon="4.37501">
        <ele>729</ele>
        <time>2022-08-28T01:02:06Z</time>
      </trkpt>
      <trkpt lat="45.91968" lon="4.37517">
        <ele>729</ele>
        <time>2022-08-28T01:02:08Z</time>
      </trkpt>
      <trkpt lat="45.91967" lon="4.37538">
        <ele>729</ele>
        <time>2022-08-28T01:02:11Z</time>
      </trkpt>
      <trkpt lat="45.91957" lon="4.37598">
        <ele>731</ele>
        <time>2022-08-28T01:02:18Z</time>
      </trkpt>
      <trkpt lat="45.91956" lon="4.37611">
        <ele>731</ele>
        <time>2022-08-28T01:02:20Z</time>
      </trkpt>
      <trkpt lat="45.91956" lon="4.37623">
        <ele>731</ele>
        <time>2022-08-28T01:02:21Z</time>
      </trkpt>
      <trkpt lat="45.9196" lon="4.37648">
        <ele>731</ele>
        <time>2022-08-28T01:02:24Z</time>
      </trkpt>
      <trkpt lat="45.91965" lon="4.37665">
        <ele>731</ele>
        <time>2022-08-28T01:02:27Z</time>
      </trkpt>
      <trkpt lat="45.92001" lon="4.37763">
        <ele>729</ele>
        <time>2022-08-28T01:02:40Z</time>
      </trkpt>
      <trkpt lat="45.92012" lon="4.37783">
        <ele>729</ele>
        <time>2022-08-28T01:02:44Z</time>
      </trkpt>
      <trkpt lat="45.92033" lon="4.37803">
        <ele>729</ele>
        <time>2022-08-28T01:02:48Z</time>
      </trkpt>
      <trkpt lat="45.92043" lon="4.37807">
        <ele>728</ele>
        <time>2022-08-28T01:02:50Z</time>
      </trkpt>
      <trkpt lat="45.92053" lon="4.37808">
        <ele>728</ele>
        <time>2022-08-28T01:02:52Z</time>
      </trkpt>
      <trkpt lat="45.92062" lon="4.37808">
        <ele>728</ele>
        <time>2022-08-28T01:02:53Z</time>
      </trkpt>
      <trkpt lat="45.92077" lon="4.37802">
        <ele>727</ele>
        <time>2022-08-28T01:02:56Z</time>
      </trkpt>
      <trkpt lat="45.92134" lon="4.37752">
        <ele>723</ele>
        <time>2022-08-28T01:03:08Z</time>
      </trkpt>
      <trkpt lat="45.92142" lon="4.37748">
        <ele>723</ele>
        <time>2022-08-28T01:03:09Z</time>
      </trkpt>
      <trkpt lat="45.92157" lon="4.37744">
        <ele>722</ele>
        <time>2022-08-28T01:03:12Z</time>
      </trkpt>
      <trkpt lat="45.92217" lon="4.37743">
        <ele>722</ele>
        <time>2022-08-28T01:03:23Z</time>
      </trkpt>
      <trkpt lat="45.9227" lon="4.37733">
        <ele>721</ele>
        <time>2022-08-28T01:03:32Z</time>
      </trkpt>
      <trkpt lat="45.92373" lon="4.37727">
        <ele>724</ele>
        <time>2022-08-28T01:03:51Z</time>
      </trkpt>
      <trkpt lat="45.92613" lon="4.37723">
        <ele>723</ele>
        <time>2022-08-28T01:04:33Z</time>
      </trkpt>
      <trkpt lat="45.9263" lon="4.3773">
        <ele>722</ele>
        <time>2022-08-28T01:04:37Z</time>
      </trkpt>
      <trkpt lat="45.92648" lon="4.37745">
        <ele>721</ele>
        <time>2022-08-28T01:04:40Z</time>
      </trkpt>
      <trkpt lat="45.92661" lon="4.37765">
        <ele>720</ele>
        <time>2022-08-28T01:04:44Z</time>
      </trkpt>
      <trkpt lat="45.92684" lon="4.37831">
        <ele>722</ele>
        <time>2022-08-28T01:04:53Z</time>
      </trkpt>
      <trkpt lat="45.92689" lon="4.3784">
        <ele>722</ele>
        <time>2022-08-28T01:04:54Z</time>
      </trkpt>
      <trkpt lat="45.92696" lon="4.37843">
        <ele>723</ele>
        <time>2022-08-28T01:04:56Z</time>
      </trkpt>
      <trkpt lat="45.92694" lon="4.37858">
        <ele>723</ele>
        <time>2022-08-28T01:04:57Z</time>
      </trkpt>
      <trkpt lat="45.92694" lon="4.37883">
        <ele>723</ele>
        <time>2022-08-28T01:05:01Z</time>
      </trkpt>
      <trkpt lat="45.92695" lon="4.37961">
        <ele>724</ele>
        <time>2022-08-28T01:05:10Z</time>
      </trkpt>
      <trkpt lat="45.92693" lon="4.38049">
        <ele>722</ele>
        <time>2022-08-28T01:05:21Z</time>
      </trkpt>
      <trkpt lat="45.92694" lon="4.38105">
        <ele>720</ele>
        <time>2022-08-28T01:05:28Z</time>
      </trkpt>
      <trkpt lat="45.92696" lon="4.38125">
        <ele>719</ele>
        <time>2022-08-28T01:05:31Z</time>
      </trkpt>
      <trkpt lat="45.92711" lon="4.38178">
        <ele>719</ele>
        <time>2022-08-28T01:05:38Z</time>
      </trkpt>
      <trkpt lat="45.92756" lon="4.38324">
        <ele>718</ele>
        <time>2022-08-28T01:05:57Z</time>
      </trkpt>
      <trkpt lat="45.92769" lon="4.38347">
        <ele>717</ele>
        <time>2022-08-28T01:06:01Z</time>
      </trkpt>
      <trkpt lat="45.92831" lon="4.38391">
        <ele>719</ele>
        <time>2022-08-28T01:06:13Z</time>
      </trkpt>
      <trkpt lat="45.9284" lon="4.384">
        <ele>719</ele>
        <time>2022-08-28T01:06:15Z</time>
      </trkpt>
      <trkpt lat="45.92846" lon="4.38411">
        <ele>719</ele>
        <time>2022-08-28T01:06:17Z</time>
      </trkpt>
      <trkpt lat="45.92851" lon="4.38425">
        <ele>720</ele>
        <time>2022-08-28T01:06:19Z</time>
      </trkpt>
      <trkpt lat="45.92853" lon="4.38436">
        <ele>720</ele>
        <time>2022-08-28T01:06:20Z</time>
      </trkpt>
      <trkpt lat="45.92853" lon="4.38451">
        <ele>720</ele>
        <time>2022-08-28T01:06:22Z</time>
      </trkpt>
      <trkpt lat="45.92848" lon="4.38474">
        <ele>720</ele>
        <time>2022-08-28T01:06:25Z</time>
      </trkpt>
      <trkpt lat="45.92827" lon="4.38544">
        <ele>716</ele>
        <time>2022-08-28T01:06:35Z</time>
      </trkpt>
      <trkpt lat="45.92816" lon="4.38584">
        <ele>714</ele>
        <time>2022-08-28T01:06:40Z</time>
      </trkpt>
      <trkpt lat="45.92814" lon="4.38615">
        <ele>713</ele>
        <time>2022-08-28T01:06:44Z</time>
      </trkpt>
      <trkpt lat="45.92815" lon="4.38632">
        <ele>713</ele>
        <time>2022-08-28T01:06:46Z</time>
      </trkpt>
      <trkpt lat="45.92822" lon="4.38663">
        <ele>715</ele>
        <time>2022-08-28T01:06:50Z</time>
      </trkpt>
      <trkpt lat="45.92827" lon="4.38677">
        <ele>715</ele>
        <time>2022-08-28T01:06:52Z</time>
      </trkpt>
      <trkpt lat="45.92855" lon="4.38726">
        <ele>712</ele>
        <time>2022-08-28T01:07:00Z</time>
      </trkpt>
      <trkpt lat="45.92863" lon="4.38756">
        <ele>710</ele>
        <time>2022-08-28T01:07:04Z</time>
      </trkpt>
      <trkpt lat="45.92864" lon="4.38786">
        <ele>712</ele>
        <time>2022-08-28T01:07:07Z</time>
      </trkpt>
      <trkpt lat="45.92861" lon="4.38799">
        <ele>712</ele>
        <time>2022-08-28T01:07:09Z</time>
      </trkpt>
      <trkpt lat="45.92854" lon="4.38821">
        <ele>713</ele>
        <time>2022-08-28T01:07:12Z</time>
      </trkpt>
      <trkpt lat="45.92873" lon="4.38863">
        <ele>717</ele>
        <time>2022-08-28T01:07:18Z</time>
      </trkpt>
      <trkpt lat="45.92911" lon="4.38933">
        <ele>725</ele>
        <time>2022-08-28T01:07:29Z</time>
      </trkpt>
      <trkpt lat="45.92943" lon="4.38984">
        <ele>730</ele>
        <time>2022-08-28T01:07:38Z</time>
      </trkpt>
      <trkpt lat="45.92965" lon="4.39005">
        <ele>732</ele>
        <time>2022-08-28T01:07:43Z</time>
      </trkpt>
      <trkpt lat="45.92985" lon="4.39015">
        <ele>733</ele>
        <time>2022-08-28T01:07:46Z</time>
      </trkpt>
      <trkpt lat="45.93023" lon="4.39012">
        <ele>737</ele>
        <time>2022-08-28T01:07:53Z</time>
      </trkpt>
      <trkpt lat="45.93034" lon="4.39014">
        <ele>738</ele>
        <time>2022-08-28T01:07:55Z</time>
      </trkpt>
      <trkpt lat="45.93046" lon="4.39024">
        <ele>738</ele>
        <time>2022-08-28T01:07:58Z</time>
      </trkpt>
      <trkpt lat="45.93074" lon="4.39072">
        <ele>735</ele>
        <time>2022-08-28T01:08:05Z</time>
      </trkpt>
      <trkpt lat="45.93093" lon="4.39109">
        <ele>732</ele>
        <time>2022-08-28T01:08:11Z</time>
      </trkpt>
      <trkpt lat="45.93112" lon="4.39133">
        <ele>729</ele>
        <time>2022-08-28T01:08:15Z</time>
      </trkpt>
      <trkpt lat="45.9313" lon="4.39145">
        <ele>728</ele>
        <time>2022-08-28T01:08:19Z</time>
      </trkpt>
      <trkpt lat="45.93175" lon="4.39163">
        <ele>729</ele>
        <time>2022-08-28T01:08:27Z</time>
      </trkpt>
      <trkpt lat="45.93192" lon="4.39173">
        <ele>729</ele>
        <time>2022-08-28T01:08:31Z</time>
      </trkpt>
      <trkpt lat="45.932" lon="4.39191">
        <ele>729</ele>
        <time>2022-08-28T01:08:33Z</time>
      </trkpt>
      <trkpt lat="45.93201" lon="4.39215">
        <ele>726</ele>
        <time>2022-08-28T01:08:36Z</time>
      </trkpt>
      <trkpt lat="45.93186" lon="4.39314">
        <ele>714</ele>
        <time>2022-08-28T01:08:49Z</time>
      </trkpt>
      <trkpt lat="45.93183" lon="4.39403">
        <ele>715</ele>
        <time>2022-08-28T01:09:00Z</time>
      </trkpt>
      <trkpt lat="45.93173" lon="4.39466">
        <ele>715</ele>
        <time>2022-08-28T01:09:08Z</time>
      </trkpt>
      <trkpt lat="45.93155" lon="4.39526">
        <ele>715</ele>
        <time>2022-08-28T01:09:16Z</time>
      </trkpt>
      <trkpt lat="45.93113" lon="4.39616">
        <ele>713</ele>
        <time>2022-08-28T01:09:29Z</time>
      </trkpt>
      <trkpt lat="45.93103" lon="4.39642">
        <ele>713</ele>
        <time>2022-08-28T01:09:33Z</time>
      </trkpt>
      <trkpt lat="45.93094" lon="4.39679">
        <ele>714</ele>
        <time>2022-08-28T01:09:38Z</time>
      </trkpt>
      <trkpt lat="45.9309" lon="4.39705">
        <ele>713</ele>
        <time>2022-08-28T01:09:41Z</time>
      </trkpt>
      <trkpt lat="45.93091" lon="4.39733">
        <ele>713</ele>
        <time>2022-08-28T01:09:45Z</time>
      </trkpt>
      <trkpt lat="45.93096" lon="4.39758">
        <ele>714</ele>
        <time>2022-08-28T01:09:48Z</time>
      </trkpt>
      <trkpt lat="45.93104" lon="4.39777">
        <ele>714</ele>
        <time>2022-08-28T01:09:51Z</time>
      </trkpt>
      <trkpt lat="45.93119" lon="4.39804">
        <ele>717</ele>
        <time>2022-08-28T01:09:55Z</time>
      </trkpt>
      <trkpt lat="45.93125" lon="4.39837">
        <ele>716</ele>
        <time>2022-08-28T01:09:59Z</time>
      </trkpt>
      <trkpt lat="45.93125" lon="4.39872">
        <ele>716</ele>
        <time>2022-08-28T01:10:03Z</time>
      </trkpt>
      <trkpt lat="45.93117" lon="4.39919">
        <ele>714</ele>
        <time>2022-08-28T01:10:09Z</time>
      </trkpt>
      <trkpt lat="45.93096" lon="4.39992">
        <ele>714</ele>
        <time>2022-08-28T01:10:19Z</time>
      </trkpt>
      <trkpt lat="45.93096" lon="4.40014">
        <ele>715</ele>
        <time>2022-08-28T01:10:22Z</time>
      </trkpt>
      <trkpt lat="45.93103" lon="4.40037">
        <ele>716</ele>
        <time>2022-08-28T01:10:25Z</time>
      </trkpt>
      <trkpt lat="45.93111" lon="4.40042">
        <ele>716</ele>
        <time>2022-08-28T01:10:26Z</time>
      </trkpt>
      <trkpt lat="45.9319" lon="4.40062">
        <ele>715</ele>
        <time>2022-08-28T01:10:41Z</time>
      </trkpt>
      <trkpt lat="45.93243" lon="4.40055">
        <ele>716</ele>
        <time>2022-08-28T01:10:50Z</time>
      </trkpt>
      <trkpt lat="45.93264" lon="4.40039">
        <ele>718</ele>
        <time>2022-08-28T01:10:54Z</time>
      </trkpt>
      <trkpt lat="45.93278" lon="4.40021">
        <ele>720</ele>
        <time>2022-08-28T01:10:58Z</time>
      </trkpt>
      <trkpt lat="45.93305" lon="4.39964">
        <ele>728</ele>
        <time>2022-08-28T01:11:06Z</time>
      </trkpt>
      <trkpt lat="45.93326" lon="4.39917">
        <ele>734</ele>
        <time>2022-08-28T01:11:13Z</time>
      </trkpt>
      <trkpt lat="45.93336" lon="4.39871">
        <ele>741</ele>
        <time>2022-08-28T01:11:19Z</time>
      </trkpt>
      <trkpt lat="45.93343" lon="4.39851">
        <ele>742</ele>
        <time>2022-08-28T01:11:22Z</time>
      </trkpt>
      <trkpt lat="45.93355" lon="4.39837">
        <ele>741</ele>
        <time>2022-08-28T01:11:25Z</time>
      </trkpt>
      <trkpt lat="45.93373" lon="4.39825">
        <ele>738</ele>
        <time>2022-08-28T01:11:28Z</time>
      </trkpt>
      <trkpt lat="45.93425" lon="4.39811">
        <ele>724</ele>
        <time>2022-08-28T01:11:38Z</time>
      </trkpt>
      <trkpt lat="45.93469" lon="4.39782">
        <ele>715</ele>
        <time>2022-08-28T01:11:46Z</time>
      </trkpt>
      <trkpt lat="45.93506" lon="4.39744">
        <ele>709</ele>
        <time>2022-08-28T01:11:54Z</time>
      </trkpt>
      <trkpt lat="45.93521" lon="4.39715">
        <ele>709</ele>
        <time>2022-08-28T01:11:59Z</time>
      </trkpt>
      <trkpt lat="45.93546" lon="4.39632">
        <ele>716</ele>
        <time>2022-08-28T01:12:10Z</time>
      </trkpt>
      <trkpt lat="45.93597" lon="4.39489">
        <ele>720</ele>
        <time>2022-08-28T01:12:30Z</time>
      </trkpt>
      <trkpt lat="45.93612" lon="4.39437">
        <ele>720</ele>
        <time>2022-08-28T01:12:37Z</time>
      </trkpt>
      <trkpt lat="45.93627" lon="4.39393">
        <ele>718</ele>
        <time>2022-08-28T01:12:43Z</time>
      </trkpt>
      <trkpt lat="45.9365" lon="4.3936">
        <ele>714</ele>
        <time>2022-08-28T01:12:49Z</time>
      </trkpt>
      <trkpt lat="45.9368" lon="4.39337">
        <ele>713</ele>
        <time>2022-08-28T01:12:55Z</time>
      </trkpt>
      <trkpt lat="45.93711" lon="4.39324">
        <ele>717</ele>
        <time>2022-08-28T01:13:01Z</time>
      </trkpt>
      <trkpt lat="45.93732" lon="4.39333">
        <ele>715</ele>
        <time>2022-08-28T01:13:04Z</time>
      </trkpt>
      <trkpt lat="45.93751" lon="4.39356">
        <ele>713</ele>
        <time>2022-08-28T01:13:09Z</time>
      </trkpt>
      <trkpt lat="45.93766" lon="4.39383">
        <ele>713</ele>
        <time>2022-08-28T01:13:13Z</time>
      </trkpt>
      <trkpt lat="45.93773" lon="4.39408">
        <ele>711</ele>
        <time>2022-08-28T01:13:16Z</time>
      </trkpt>
      <trkpt lat="45.93785" lon="4.39493">
        <ele>706</ele>
        <time>2022-08-28T01:13:27Z</time>
      </trkpt>
      <trkpt lat="45.93794" lon="4.39535">
        <ele>704</ele>
        <time>2022-08-28T01:13:33Z</time>
      </trkpt>
      <trkpt lat="45.9381" lon="4.39569">
        <ele>703</ele>
        <time>2022-08-28T01:13:38Z</time>
      </trkpt>
      <trkpt lat="45.93823" lon="4.39587">
        <ele>703</ele>
        <time>2022-08-28T01:13:41Z</time>
      </trkpt>
      <trkpt lat="45.93833" lon="4.39594">
        <ele>704</ele>
        <time>2022-08-28T01:13:43Z</time>
      </trkpt>
      <trkpt lat="45.93851" lon="4.39595">
        <ele>707</ele>
        <time>2022-08-28T01:13:46Z</time>
      </trkpt>
      <trkpt lat="45.93869" lon="4.39589">
        <ele>710</ele>
        <time>2022-08-28T01:13:49Z</time>
      </trkpt>
      <trkpt lat="45.93884" lon="4.39588">
        <ele>713</ele>
        <time>2022-08-28T01:13:52Z</time>
      </trkpt>
      <trkpt lat="45.93894" lon="4.39592">
        <ele>713</ele>
        <time>2022-08-28T01:13:54Z</time>
      </trkpt>
      <trkpt lat="45.93904" lon="4.39599">
        <ele>714</ele>
        <time>2022-08-28T01:13:56Z</time>
      </trkpt>
      <trkpt lat="45.93918" lon="4.39619">
        <ele>712</ele>
        <time>2022-08-28T01:13:59Z</time>
      </trkpt>
      <trkpt lat="45.93948" lon="4.39701">
        <ele>710</ele>
        <time>2022-08-28T01:14:11Z</time>
      </trkpt>
      <trkpt lat="45.93959" lon="4.39728">
        <ele>710</ele>
        <time>2022-08-28T01:14:15Z</time>
      </trkpt>
      <trkpt lat="45.93991" lon="4.39782">
        <ele>712</ele>
        <time>2022-08-28T01:14:24Z</time>
      </trkpt>
      <trkpt lat="45.93998" lon="4.39807">
        <ele>710</ele>
        <time>2022-08-28T01:14:27Z</time>
      </trkpt>
      <trkpt lat="45.94013" lon="4.39889">
        <ele>711</ele>
        <time>2022-08-28T01:14:37Z</time>
      </trkpt>
      <trkpt lat="45.94011" lon="4.39906">
        <ele>710</ele>
        <time>2022-08-28T01:14:39Z</time>
      </trkpt>
      <trkpt lat="45.94005" lon="4.39923">
        <ele>708</ele>
        <time>2022-08-28T01:14:42Z</time>
      </trkpt>
      <trkpt lat="45.93955" lon="4.39988">
        <ele>705</ele>
        <time>2022-08-28T01:14:54Z</time>
      </trkpt>
      <trkpt lat="45.93941" lon="4.40014">
        <ele>702</ele>
        <time>2022-08-28T01:14:58Z</time>
      </trkpt>
      <trkpt lat="45.93937" lon="4.40038">
        <ele>700</ele>
        <time>2022-08-28T01:15:01Z</time>
      </trkpt>
      <trkpt lat="45.93941" lon="4.40059">
        <ele>701</ele>
        <time>2022-08-28T01:15:04Z</time>
      </trkpt>
      <trkpt lat="45.93948" lon="4.40077">
        <ele>703</ele>
        <time>2022-08-28T01:15:06Z</time>
      </trkpt>
      <trkpt lat="45.94024" lon="4.40176">
        <ele>712</ele>
        <time>2022-08-28T01:15:24Z</time>
      </trkpt>
      <trkpt lat="45.94041" lon="4.40201">
        <ele>716</ele>
        <time>2022-08-28T01:15:29Z</time>
      </trkpt>
      <trkpt lat="45.94051" lon="4.40229">
        <ele>716</ele>
        <time>2022-08-28T01:15:33Z</time>
      </trkpt>
      <trkpt lat="45.94055" lon="4.4025">
        <ele>714</ele>
        <time>2022-08-28T01:15:35Z</time>
      </trkpt>
      <trkpt lat="45.94052" lon="4.40268">
        <ele>716</ele>
        <time>2022-08-28T01:15:38Z</time>
      </trkpt>
      <trkpt lat="45.94045" lon="4.40282">
        <ele>716</ele>
        <time>2022-08-28T01:15:40Z</time>
      </trkpt>
      <trkpt lat="45.94033" lon="4.40295">
        <ele>716</ele>
        <time>2022-08-28T01:15:42Z</time>
      </trkpt>
      <trkpt lat="45.94009" lon="4.40309">
        <ele>714</ele>
        <time>2022-08-28T01:15:47Z</time>
      </trkpt>
      <trkpt lat="45.93926" lon="4.40318">
        <ele>704</ele>
        <time>2022-08-28T01:16:02Z</time>
      </trkpt>
      <trkpt lat="45.93865" lon="4.40314">
        <ele>696</ele>
        <time>2022-08-28T01:16:13Z</time>
      </trkpt>
      <trkpt lat="45.938" lon="4.40336">
        <ele>693</ele>
        <time>2022-08-28T01:16:25Z</time>
      </trkpt>
      <trkpt lat="45.93768" lon="4.40361">
        <ele>691</ele>
        <time>2022-08-28T01:16:31Z</time>
      </trkpt>
      <trkpt lat="45.93727" lon="4.40409">
        <ele>689</ele>
        <time>2022-08-28T01:16:41Z</time>
      </trkpt>
      <trkpt lat="45.93702" lon="4.4045">
        <ele>687</ele>
        <time>2022-08-28T01:16:47Z</time>
      </trkpt>
      <trkpt lat="45.93687" lon="4.40495">
        <ele>687</ele>
        <time>2022-08-28T01:16:53Z</time>
      </trkpt>
      <trkpt lat="45.93681" lon="4.40524">
        <ele>685</ele>
        <time>2022-08-28T01:16:57Z</time>
      </trkpt>
      <trkpt lat="45.9368" lon="4.40548">
        <ele>683</ele>
        <time>2022-08-28T01:17:00Z</time>
      </trkpt>
      <trkpt lat="45.93683" lon="4.40566">
        <ele>684</ele>
        <time>2022-08-28T01:17:02Z</time>
      </trkpt>
      <trkpt lat="45.9369" lon="4.40582">
        <ele>685</ele>
        <time>2022-08-28T01:17:05Z</time>
      </trkpt>
      <trkpt lat="45.9371" lon="4.40594">
        <ele>691</ele>
        <time>2022-08-28T01:17:09Z</time>
      </trkpt>
      <trkpt lat="45.93729" lon="4.40615">
        <ele>696</ele>
        <time>2022-08-28T01:17:13Z</time>
      </trkpt>
      <trkpt lat="45.93738" lon="4.40633">
        <ele>698</ele>
        <time>2022-08-28T01:17:16Z</time>
      </trkpt>
      <trkpt lat="45.93741" lon="4.40653">
        <ele>698</ele>
        <time>2022-08-28T01:17:18Z</time>
      </trkpt>
      <trkpt lat="45.93741" lon="4.40671">
        <ele>697</ele>
        <time>2022-08-28T01:17:20Z</time>
      </trkpt>
      <trkpt lat="45.93731" lon="4.40704">
        <ele>695</ele>
        <time>2022-08-28T01:17:25Z</time>
      </trkpt>
      <trkpt lat="45.93722" lon="4.40726">
        <ele>692</ele>
        <time>2022-08-28T01:17:28Z</time>
      </trkpt>
      <trkpt lat="45.93644" lon="4.40837">
        <ele>679</ele>
        <time>2022-08-28T01:17:48Z</time>
      </trkpt>
      <trkpt lat="45.93622" lon="4.40875">
        <ele>675</ele>
        <time>2022-08-28T01:17:54Z</time>
      </trkpt>
      <trkpt lat="45.93614" lon="4.40898">
        <ele>674</ele>
        <time>2022-08-28T01:17:57Z</time>
      </trkpt>
      <trkpt lat="45.93614" lon="4.40913">
        <ele>675</ele>
        <time>2022-08-28T01:17:59Z</time>
      </trkpt>
      <trkpt lat="45.9362" lon="4.40927">
        <ele>675</ele>
        <time>2022-08-28T01:18:01Z</time>
      </trkpt>
      <trkpt lat="45.93707" lon="4.4105">
        <ele>674</ele>
        <time>2022-08-28T01:18:22Z</time>
      </trkpt>
      <trkpt lat="45.93722" lon="4.4106">
        <ele>675</ele>
        <time>2022-08-28T01:18:25Z</time>
      </trkpt>
      <trkpt lat="45.93774" lon="4.4108">
        <ele>683</ele>
        <time>2022-08-28T01:18:35Z</time>
      </trkpt>
      <trkpt lat="45.93782" lon="4.41087">
        <ele>684</ele>
        <time>2022-08-28T01:18:37Z</time>
      </trkpt>
      <trkpt lat="45.93795" lon="4.4111">
        <ele>686</ele>
        <time>2022-08-28T01:18:40Z</time>
      </trkpt>
      <trkpt lat="45.93797" lon="4.41128">
        <ele>686</ele>
        <time>2022-08-28T01:18:43Z</time>
      </trkpt>
      <trkpt lat="45.93778" lon="4.41331">
        <ele>679</ele>
        <time>2022-08-28T01:19:08Z</time>
      </trkpt>
      <trkpt lat="45.93772" lon="4.41351">
        <ele>678</ele>
        <time>2022-08-28T01:19:11Z</time>
      </trkpt>
      <trkpt lat="45.9376" lon="4.4137">
        <ele>675</ele>
        <time>2022-08-28T01:19:14Z</time>
      </trkpt>
      <trkpt lat="45.93716" lon="4.41425">
        <ele>672</ele>
        <time>2022-08-28T01:19:24Z</time>
      </trkpt>
      <trkpt lat="45.937" lon="4.41438">
        <ele>672</ele>
        <time>2022-08-28T01:19:27Z</time>
      </trkpt>
      <trkpt lat="45.93688" lon="4.4144">
        <ele>671</ele>
        <time>2022-08-28T01:19:30Z</time>
      </trkpt>
      <trkpt lat="45.93675" lon="4.41436">
        <ele>668</ele>
        <time>2022-08-28T01:19:32Z</time>
      </trkpt>
      <trkpt lat="45.93641" lon="4.41412">
        <ele>663</ele>
        <time>2022-08-28T01:19:39Z</time>
      </trkpt>
      <trkpt lat="45.93627" lon="4.41409">
        <ele>663</ele>
        <time>2022-08-28T01:19:41Z</time>
      </trkpt>
      <trkpt lat="45.93598" lon="4.41409">
        <ele>663</ele>
        <time>2022-08-28T01:19:46Z</time>
      </trkpt>
      <trkpt lat="45.93547" lon="4.41404">
        <ele>659</ele>
        <time>2022-08-28T01:19:55Z</time>
      </trkpt>
      <trkpt lat="45.93532" lon="4.41408">
        <ele>658</ele>
        <time>2022-08-28T01:19:58Z</time>
      </trkpt>
      <trkpt lat="45.93521" lon="4.41418">
        <ele>659</ele>
        <time>2022-08-28T01:20:00Z</time>
      </trkpt>
      <trkpt lat="45.93517" lon="4.41434">
        <ele>658</ele>
        <time>2022-08-28T01:20:03Z</time>
      </trkpt>
      <trkpt lat="45.93516" lon="4.41456">
        <ele>657</ele>
        <time>2022-08-28T01:20:05Z</time>
      </trkpt>
      <trkpt lat="45.93527" lon="4.41535">
        <ele>658</ele>
        <time>2022-08-28T01:20:15Z</time>
      </trkpt>
      <trkpt lat="45.93528" lon="4.41559">
        <ele>659</ele>
        <time>2022-08-28T01:20:18Z</time>
      </trkpt>
      <trkpt lat="45.9352" lon="4.41707">
        <ele>657</ele>
        <time>2022-08-28T01:20:37Z</time>
      </trkpt>
      <trkpt lat="45.93518" lon="4.41796">
        <ele>659</ele>
        <time>2022-08-28T01:20:48Z</time>
      </trkpt>
      <trkpt lat="45.9351" lon="4.41839">
        <ele>659</ele>
        <time>2022-08-28T01:20:53Z</time>
      </trkpt>
      <trkpt lat="45.93473" lon="4.42004">
        <ele>653</ele>
        <time>2022-08-28T01:21:15Z</time>
      </trkpt>
      <trkpt lat="45.93469" lon="4.42017">
        <ele>652</ele>
        <time>2022-08-28T01:21:16Z</time>
      </trkpt>
      <trkpt lat="45.93552" lon="4.4205">
        <ele>656</ele>
        <time>2022-08-28T01:21:32Z</time>
      </trkpt>
      <trkpt lat="45.93581" lon="4.42071">
        <ele>654</ele>
        <time>2022-08-28T01:21:37Z</time>
      </trkpt>
      <trkpt lat="45.93613" lon="4.42071">
        <ele>656</ele>
        <time>2022-08-28T01:21:43Z</time>
      </trkpt>
      <trkpt lat="45.93654" lon="4.4206">
        <ele>659</ele>
        <time>2022-08-28T01:21:51Z</time>
      </trkpt>
      <trkpt lat="45.93691" lon="4.42042">
        <ele>660</ele>
        <time>2022-08-28T01:21:58Z</time>
      </trkpt>
      <trkpt lat="45.9373" lon="4.42">
        <ele>664</ele>
        <time>2022-08-28T01:22:06Z</time>
      </trkpt>
      <trkpt lat="45.93746" lon="4.41965">
        <ele>668</ele>
        <time>2022-08-28T01:22:11Z</time>
      </trkpt>
      <trkpt lat="45.93782" lon="4.41904">
        <ele>679</ele>
        <time>2022-08-28T01:22:21Z</time>
      </trkpt>
      <trkpt lat="45.938" lon="4.41885">
        <ele>684</ele>
        <time>2022-08-28T01:22:25Z</time>
      </trkpt>
      <trkpt lat="45.93816" lon="4.41899">
        <ele>681</ele>
        <time>2022-08-28T01:22:29Z</time>
      </trkpt>
      <trkpt lat="45.93832" lon="4.41939">
        <ele>671</ele>
        <time>2022-08-28T01:22:34Z</time>
      </trkpt>
      <trkpt lat="45.93859" lon="4.4195">
        <ele>665</ele>
        <time>2022-08-28T01:22:39Z</time>
      </trkpt>
      <trkpt lat="45.93891" lon="4.41931">
        <ele>667</ele>
        <time>2022-08-28T01:22:45Z</time>
      </trkpt>
      <trkpt lat="45.93916" lon="4.41911">
        <ele>671</ele>
        <time>2022-08-28T01:22:51Z</time>
      </trkpt>
      <trkpt lat="45.93936" lon="4.41883">
        <ele>676</ele>
        <time>2022-08-28T01:22:55Z</time>
      </trkpt>
      <trkpt lat="45.93954" lon="4.41874">
        <ele>677</ele>
        <time>2022-08-28T01:22:59Z</time>
      </trkpt>
      <trkpt lat="45.93993" lon="4.41884">
        <ele>671</ele>
        <time>2022-08-28T01:23:06Z</time>
      </trkpt>
      <trkpt lat="45.94024" lon="4.41902">
        <ele>665</ele>
        <time>2022-08-28T01:23:12Z</time>
      </trkpt>
      <trkpt lat="45.9406" lon="4.41917">
        <ele>662</ele>
        <time>2022-08-28T01:23:19Z</time>
      </trkpt>
      <trkpt lat="45.94086" lon="4.4191">
        <ele>662</ele>
        <time>2022-08-28T01:23:23Z</time>
      </trkpt>
      <trkpt lat="45.94096" lon="4.41892">
        <ele>662</ele>
        <time>2022-08-28T01:23:26Z</time>
      </trkpt>
      <trkpt lat="45.94095" lon="4.41861">
        <ele>665</ele>
        <time>2022-08-28T01:23:30Z</time>
      </trkpt>
      <trkpt lat="45.94074" lon="4.41769">
        <ele>676</ele>
        <time>2022-08-28T01:23:42Z</time>
      </trkpt>
      <trkpt lat="45.94063" lon="4.41709">
        <ele>679</ele>
        <time>2022-08-28T01:23:50Z</time>
      </trkpt>
      <trkpt lat="45.94054" lon="4.41644">
        <ele>681</ele>
        <time>2022-08-28T01:23:58Z</time>
      </trkpt>
      <trkpt lat="45.94039" lon="4.41583">
        <ele>685</ele>
        <time>2022-08-28T01:24:06Z</time>
      </trkpt>
      <trkpt lat="45.94041" lon="4.41542">
        <ele>683</ele>
        <time>2022-08-28T01:24:11Z</time>
      </trkpt>
      <trkpt lat="45.94051" lon="4.41489">
        <ele>677</ele>
        <time>2022-08-28T01:24:18Z</time>
      </trkpt>
      <trkpt lat="45.94056" lon="4.41444">
        <ele>677</ele>
        <time>2022-08-28T01:24:23Z</time>
      </trkpt>
      <trkpt lat="45.94054" lon="4.41383">
        <ele>688</ele>
        <time>2022-08-28T01:24:31Z</time>
      </trkpt>
      <trkpt lat="45.94064" lon="4.41336">
        <ele>693</ele>
        <time>2022-08-28T01:24:37Z</time>
      </trkpt>
      <trkpt lat="45.9408" lon="4.41306">
        <ele>691</ele>
        <time>2022-08-28T01:24:42Z</time>
      </trkpt>
      <trkpt lat="45.94113" lon="4.41275">
        <ele>685</ele>
        <time>2022-08-28T01:24:49Z</time>
      </trkpt>
      <trkpt lat="45.94119" lon="4.41253">
        <ele>688</ele>
        <time>2022-08-28T01:24:52Z</time>
      </trkpt>
      <trkpt lat="45.9412" lon="4.41217">
        <ele>688</ele>
        <time>2022-08-28T01:24:56Z</time>
      </trkpt>
      <trkpt lat="45.94091" lon="4.41118">
        <ele>702</ele>
        <time>2022-08-28T01:25:09Z</time>
      </trkpt>
      <trkpt lat="45.94097" lon="4.41083">
        <ele>703</ele>
        <time>2022-08-28T01:25:14Z</time>
      </trkpt>
      <trkpt lat="45.94116" lon="4.41043">
        <ele>702</ele>
        <time>2022-08-28T01:25:20Z</time>
      </trkpt>
      <trkpt lat="45.94161" lon="4.41007">
        <ele>691</ele>
        <time>2022-08-28T01:25:29Z</time>
      </trkpt>
      <trkpt lat="45.94174" lon="4.40985">
        <ele>689</ele>
        <time>2022-08-28T01:25:33Z</time>
      </trkpt>
      <trkpt lat="45.94194" lon="4.40927">
        <ele>690</ele>
        <time>2022-08-28T01:25:41Z</time>
      </trkpt>
      <trkpt lat="45.94205" lon="4.40873">
        <ele>694</ele>
        <time>2022-08-28T01:25:47Z</time>
      </trkpt>
      <trkpt lat="45.94221" lon="4.40838">
        <ele>693</ele>
        <time>2022-08-28T01:25:53Z</time>
      </trkpt>
      <trkpt lat="45.94235" lon="4.40781">
        <ele>698</ele>
        <time>2022-08-28T01:26:00Z</time>
      </trkpt>
      <trkpt lat="45.94254" lon="4.40762">
        <ele>694</ele>
        <time>2022-08-28T01:26:04Z</time>
      </trkpt>
      <trkpt lat="45.94262" lon="4.40718">
        <ele>701</ele>
        <time>2022-08-28T01:26:10Z</time>
      </trkpt>
      <trkpt lat="45.94273" lon="4.40676">
        <ele>707</ele>
        <time>2022-08-28T01:26:15Z</time>
      </trkpt>
      <trkpt lat="45.94299" lon="4.40659">
        <ele>703</ele>
        <time>2022-08-28T01:26:21Z</time>
      </trkpt>
      <trkpt lat="45.94362" lon="4.40657">
        <ele>693</ele>
        <time>2022-08-28T01:26:32Z</time>
      </trkpt>
      <trkpt lat="45.94387" lon="4.40647">
        <ele>693</ele>
        <time>2022-08-28T01:26:36Z</time>
      </trkpt>
      <trkpt lat="45.94408" lon="4.40623">
        <ele>695</ele>
        <time>2022-08-28T01:26:41Z</time>
      </trkpt>
      <trkpt lat="45.94412" lon="4.40603">
        <ele>696</ele>
        <time>2022-08-28T01:26:44Z</time>
      </trkpt>
      <trkpt lat="45.9441" lon="4.40545">
        <ele>702</ele>
        <time>2022-08-28T01:26:51Z</time>
      </trkpt>
      <trkpt lat="45.94415" lon="4.40511">
        <ele>704</ele>
        <time>2022-08-28T01:26:55Z</time>
      </trkpt>
      <trkpt lat="45.94435" lon="4.4046">
        <ele>699</ele>
        <time>2022-08-28T01:27:02Z</time>
      </trkpt>
      <trkpt lat="45.94438" lon="4.40426">
        <ele>699</ele>
        <time>2022-08-28T01:27:07Z</time>
      </trkpt>
      <trkpt lat="45.94401" lon="4.40352">
        <ele>717</ele>
        <time>2022-08-28T01:27:18Z</time>
      </trkpt>
      <trkpt lat="45.94398" lon="4.40309">
        <ele>722</ele>
        <time>2022-08-28T01:27:23Z</time>
      </trkpt>
      <trkpt lat="45.94408" lon="4.40256">
        <ele>722</ele>
        <time>2022-08-28T01:27:30Z</time>
      </trkpt>
      <trkpt lat="45.94422" lon="4.40239">
        <ele>720</ele>
        <time>2022-08-28T01:27:33Z</time>
      </trkpt>
      <trkpt lat="45.94453" lon="4.4023">
        <ele>717</ele>
        <time>2022-08-28T01:27:39Z</time>
      </trkpt>
      <trkpt lat="45.94498" lon="4.40227">
        <ele>710</ele>
        <time>2022-08-28T01:27:47Z</time>
      </trkpt>
      <trkpt lat="45.94599" lon="4.40255">
        <ele>693</ele>
        <time>2022-08-28T01:28:05Z</time>
      </trkpt>
      <trkpt lat="45.94614" lon="4.40255">
        <ele>691</ele>
        <time>2022-08-28T01:28:08Z</time>
      </trkpt>
      <trkpt lat="45.94634" lon="4.40236">
        <ele>691</ele>
        <time>2022-08-28T01:28:12Z</time>
      </trkpt>
      <trkpt lat="45.94645" lon="4.40208">
        <ele>693</ele>
        <time>2022-08-28T01:28:16Z</time>
      </trkpt>
      <trkpt lat="45.94641" lon="4.40176">
        <ele>699</ele>
        <time>2022-08-28T01:28:20Z</time>
      </trkpt>
      <trkpt lat="45.9463" lon="4.40137">
        <ele>700</ele>
        <time>2022-08-28T01:28:25Z</time>
      </trkpt>
      <trkpt lat="45.94606" lon="4.40104">
        <ele>704</ele>
        <time>2022-08-28T01:28:31Z</time>
      </trkpt>
      <trkpt lat="45.94497" lon="4.3998">
        <ele>716</ele>
        <time>2022-08-28T01:28:56Z</time>
      </trkpt>
      <trkpt lat="45.94493" lon="4.3996">
        <ele>717</ele>
        <time>2022-08-28T01:28:59Z</time>
      </trkpt>
      <trkpt lat="45.94507" lon="4.39929">
        <ele>712</ele>
        <time>2022-08-28T01:29:03Z</time>
      </trkpt>
      <trkpt lat="45.94533" lon="4.39906">
        <ele>707</ele>
        <time>2022-08-28T01:29:09Z</time>
      </trkpt>
      <trkpt lat="45.94595" lon="4.3984">
        <ele>697</ele>
        <time>2022-08-28T01:29:22Z</time>
      </trkpt>
      <trkpt lat="45.94606" lon="4.39807">
        <ele>696</ele>
        <time>2022-08-28T01:29:27Z</time>
      </trkpt>
      <trkpt lat="45.9461" lon="4.39772">
        <ele>698</ele>
        <time>2022-08-28T01:29:31Z</time>
      </trkpt>
      <trkpt lat="45.94598" lon="4.3971">
        <ele>712</ele>
        <time>2022-08-28T01:29:39Z</time>
      </trkpt>
      <trkpt lat="45.94598" lon="4.39673">
        <ele>718</ele>
        <time>2022-08-28T01:29:44Z</time>
      </trkpt>
      <trkpt lat="45.94612" lon="4.39641">
        <ele>715</ele>
        <time>2022-08-28T01:29:49Z</time>
      </trkpt>
      <trkpt lat="45.94633" lon="4.39603">
        <ele>710</ele>
        <time>2022-08-28T01:29:55Z</time>
      </trkpt>
      <trkpt lat="45.94636" lon="4.39568">
        <ele>712</ele>
        <time>2022-08-28T01:29:59Z</time>
      </trkpt>
      <trkpt lat="45.94633" lon="4.39508">
        <ele>716</ele>
        <time>2022-08-28T01:30:06Z</time>
      </trkpt>
      <trkpt lat="45.9464" lon="4.39482">
        <ele>716</ele>
        <time>2022-08-28T01:30:10Z</time>
      </trkpt>
      <trkpt lat="45.94662" lon="4.39434">
        <ele>714</ele>
        <time>2022-08-28T01:30:17Z</time>
      </trkpt>
      <trkpt lat="45.94688" lon="4.39411">
        <ele>716</ele>
        <time>2022-08-28T01:30:22Z</time>
      </trkpt>
      <trkpt lat="45.94715" lon="4.39409">
        <ele>717</ele>
        <time>2022-08-28T01:30:27Z</time>
      </trkpt>
      <trkpt lat="45.9475" lon="4.39435">
        <ele>709</ele>
        <time>2022-08-28T01:30:34Z</time>
      </trkpt>
      <trkpt lat="45.94776" lon="4.39439">
        <ele>713</ele>
        <time>2022-08-28T01:30:39Z</time>
      </trkpt>
      <trkpt lat="45.94806" lon="4.39423">
        <ele>726</ele>
        <time>2022-08-28T01:30:44Z</time>
      </trkpt>
      <trkpt lat="45.94824" lon="4.39417">
        <ele>733</ele>
        <time>2022-08-28T01:30:48Z</time>
      </trkpt>
      <trkpt lat="45.94838" lon="4.39433">
        <ele>731</ele>
        <time>2022-08-28T01:30:51Z</time>
      </trkpt>
      <trkpt lat="45.94909" lon="4.3961">
        <ele>711</ele>
        <time>2022-08-28T01:31:16Z</time>
      </trkpt>
      <trkpt lat="45.9495" lon="4.39676">
        <ele>711</ele>
        <time>2022-08-28T01:31:27Z</time>
      </trkpt>
      <trkpt lat="45.94974" lon="4.39703">
        <ele>713</ele>
        <time>2022-08-28T01:31:33Z</time>
      </trkpt>
      <trkpt lat="45.94994" lon="4.39709">
        <ele>718</ele>
        <time>2022-08-28T01:31:36Z</time>
      </trkpt>
      <trkpt lat="45.95039" lon="4.3966">
        <ele>718</ele>
        <time>2022-08-28T01:31:46Z</time>
      </trkpt>
      <trkpt lat="45.95055" lon="4.39627">
        <ele>719</ele>
        <time>2022-08-28T01:31:51Z</time>
      </trkpt>
      <trkpt lat="45.95069" lon="4.39566">
        <ele>723</ele>
        <time>2022-08-28T01:31:59Z</time>
      </trkpt>
      <trkpt lat="45.95096" lon="4.39358">
        <ele>744</ele>
        <time>2022-08-28T01:32:25Z</time>
      </trkpt>
      <trkpt lat="45.95101" lon="4.39335">
        <ele>748</ele>
        <time>2022-08-28T01:32:28Z</time>
      </trkpt>
      <trkpt lat="45.95114" lon="4.39324">
        <ele>749</ele>
        <time>2022-08-28T01:32:31Z</time>
      </trkpt>
      <trkpt lat="45.9513" lon="4.39321">
        <ele>748</ele>
        <time>2022-08-28T01:32:34Z</time>
      </trkpt>
      <trkpt lat="45.95173" lon="4.39338">
        <ele>736</ele>
        <time>2022-08-28T01:32:42Z</time>
      </trkpt>
      <trkpt lat="45.95199" lon="4.3934">
        <ele>739</ele>
        <time>2022-08-28T01:32:46Z</time>
      </trkpt>
      <trkpt lat="45.9522" lon="4.39337">
        <ele>742</ele>
        <time>2022-08-28T01:32:50Z</time>
      </trkpt>
      <trkpt lat="45.95255" lon="4.3932">
        <ele>752</ele>
        <time>2022-08-28T01:32:57Z</time>
      </trkpt>
      <trkpt lat="45.95267" lon="4.39318">
        <ele>756</ele>
        <time>2022-08-28T01:32:59Z</time>
      </trkpt>
      <trkpt lat="45.95277" lon="4.39335">
        <ele>754</ele>
        <time>2022-08-28T01:33:02Z</time>
      </trkpt>
      <trkpt lat="45.95294" lon="4.39412">
        <ele>744</ele>
        <time>2022-08-28T01:33:12Z</time>
      </trkpt>
      <trkpt lat="45.95301" lon="4.39468">
        <ele>736</ele>
        <time>2022-08-28T01:33:19Z</time>
      </trkpt>
      <trkpt lat="45.95313" lon="4.39494">
        <ele>736</ele>
        <time>2022-08-28T01:33:23Z</time>
      </trkpt>
      <trkpt lat="45.95325" lon="4.39513">
        <ele>736</ele>
        <time>2022-08-28T01:33:26Z</time>
      </trkpt>
      <trkpt lat="45.9537" lon="4.39546">
        <ele>742</ele>
        <time>2022-08-28T01:33:35Z</time>
      </trkpt>
      <trkpt lat="45.95384" lon="4.39565">
        <ele>742</ele>
        <time>2022-08-28T01:33:38Z</time>
      </trkpt>
      <trkpt lat="45.9539" lon="4.3959">
        <ele>740</ele>
        <time>2022-08-28T01:33:41Z</time>
      </trkpt>
      <trkpt lat="45.95393" lon="4.3963">
        <ele>735</ele>
        <time>2022-08-28T01:33:46Z</time>
      </trkpt>
      <trkpt lat="45.95406" lon="4.39649">
        <ele>735</ele>
        <time>2022-08-28T01:33:50Z</time>
      </trkpt>
      <trkpt lat="45.95422" lon="4.39653">
        <ele>736</ele>
        <time>2022-08-28T01:33:53Z</time>
      </trkpt>
      <trkpt lat="45.95443" lon="4.39646">
        <ele>735</ele>
        <time>2022-08-28T01:33:56Z</time>
      </trkpt>
      <trkpt lat="45.95497" lon="4.39595">
        <ele>742</ele>
        <time>2022-08-28T01:34:08Z</time>
      </trkpt>
      <trkpt lat="45.95534" lon="4.39551">
        <ele>743</ele>
        <time>2022-08-28T01:34:17Z</time>
      </trkpt>
      <trkpt lat="45.95546" lon="4.39517">
        <ele>747</ele>
        <time>2022-08-28T01:34:21Z</time>
      </trkpt>
      <trkpt lat="45.95551" lon="4.39482">
        <ele>753</ele>
        <time>2022-08-28T01:34:26Z</time>
      </trkpt>
      <trkpt lat="45.95561" lon="4.39458">
        <ele>755</ele>
        <time>2022-08-28T01:34:29Z</time>
      </trkpt>
      <trkpt lat="45.95575" lon="4.3944">
        <ele>756</ele>
        <time>2022-08-28T01:34:32Z</time>
      </trkpt>
      <trkpt lat="45.95646" lon="4.39398">
        <ele>758</ele>
        <time>2022-08-28T01:34:46Z</time>
      </trkpt>
      <trkpt lat="45.9568" lon="4.39405">
        <ele>756</ele>
        <time>2022-08-28T01:34:52Z</time>
      </trkpt>
      <trkpt lat="45.95698" lon="4.39414">
        <ele>756</ele>
        <time>2022-08-28T01:34:56Z</time>
      </trkpt>
      <trkpt lat="45.95739" lon="4.39472">
        <ele>756</ele>
        <time>2022-08-28T01:35:06Z</time>
      </trkpt>
      <trkpt lat="45.9576" lon="4.39479">
        <ele>757</ele>
        <time>2022-08-28T01:35:10Z</time>
      </trkpt>
      <trkpt lat="45.95772" lon="4.39472">
        <ele>758</ele>
        <time>2022-08-28T01:35:12Z</time>
      </trkpt>
      <trkpt lat="45.95785" lon="4.3944">
        <ele>758</ele>
        <time>2022-08-28T01:35:17Z</time>
      </trkpt>
      <trkpt lat="45.95787" lon="4.39397">
        <ele>756</ele>
        <time>2022-08-28T01:35:22Z</time>
      </trkpt>
      <trkpt lat="45.95781" lon="4.3935">
        <ele>753</ele>
        <time>2022-08-28T01:35:28Z</time>
      </trkpt>
      <trkpt lat="45.95726" lon="4.39153">
        <ele>753</ele>
        <time>2022-08-28T01:35:54Z</time>
      </trkpt>
      <trkpt lat="45.95715" lon="4.39122">
        <ele>756</ele>
        <time>2022-08-28T01:35:58Z</time>
      </trkpt>
      <trkpt lat="45.95711" lon="4.39104">
        <ele>757</ele>
        <time>2022-08-28T01:36:01Z</time>
      </trkpt>
      <trkpt lat="45.9571" lon="4.3909">
        <ele>757</ele>
        <time>2022-08-28T01:36:02Z</time>
      </trkpt>
      <trkpt lat="45.95713" lon="4.39078">
        <ele>757</ele>
        <time>2022-08-28T01:36:04Z</time>
      </trkpt>
      <trkpt lat="45.95723" lon="4.39063">
        <ele>756</ele>
        <time>2022-08-28T01:36:07Z</time>
      </trkpt>
      <trkpt lat="45.95733" lon="4.39057">
        <ele>755</ele>
        <time>2022-08-28T01:36:09Z</time>
      </trkpt>
      <trkpt lat="45.95774" lon="4.39057">
        <ele>750</ele>
        <time>2022-08-28T01:36:16Z</time>
      </trkpt>
      <trkpt lat="45.95786" lon="4.39051">
        <ele>749</ele>
        <time>2022-08-28T01:36:18Z</time>
      </trkpt>
      <trkpt lat="45.95792" lon="4.39044">
        <ele>749</ele>
        <time>2022-08-28T01:36:19Z</time>
      </trkpt>
      <trkpt lat="45.95804" lon="4.39013">
        <ele>750</ele>
        <time>2022-08-28T01:36:24Z</time>
      </trkpt>
      <trkpt lat="45.95847" lon="4.38879">
        <ele>750</ele>
        <time>2022-08-28T01:36:42Z</time>
      </trkpt>
      <trkpt lat="45.95865" lon="4.3883">
        <ele>752</ele>
        <time>2022-08-28T01:36:49Z</time>
      </trkpt>
      <trkpt lat="45.95871" lon="4.38812">
        <ele>754</ele>
        <time>2022-08-28T01:36:51Z</time>
      </trkpt>
      <trkpt lat="45.95879" lon="4.38797">
        <ele>754</ele>
        <time>2022-08-28T01:36:54Z</time>
      </trkpt>
      <trkpt lat="45.95888" lon="4.38786">
        <ele>754</ele>
        <time>2022-08-28T01:36:56Z</time>
      </trkpt>
      <trkpt lat="45.95897" lon="4.38777">
        <ele>754</ele>
        <time>2022-08-28T01:36:58Z</time>
      </trkpt>
      <trkpt lat="45.95913" lon="4.38767">
        <ele>753</ele>
        <time>2022-08-28T01:37:01Z</time>
      </trkpt>
      <trkpt lat="45.95938" lon="4.38763">
        <ele>753</ele>
        <time>2022-08-28T01:37:05Z</time>
      </trkpt>
      <trkpt lat="45.95996" lon="4.38764">
        <ele>753</ele>
        <time>2022-08-28T01:37:16Z</time>
      </trkpt>
      <trkpt lat="45.96048" lon="4.38765">
        <ele>755</ele>
        <time>2022-08-28T01:37:25Z</time>
      </trkpt>
      <trkpt lat="45.96077" lon="4.3877">
        <ele>755</ele>
        <time>2022-08-28T01:37:30Z</time>
      </trkpt>
      <trkpt lat="45.9611" lon="4.38789">
        <ele>754</ele>
        <time>2022-08-28T01:37:36Z</time>
      </trkpt>
      <trkpt lat="45.96201" lon="4.38853">
        <ele>753</ele>
        <time>2022-08-28T01:37:55Z</time>
      </trkpt>
      <trkpt lat="45.96251" lon="4.38902">
        <ele>753</ele>
        <time>2022-08-28T01:38:05Z</time>
      </trkpt>
      <trkpt lat="45.96263" lon="4.3891">
        <ele>752</ele>
        <time>2022-08-28T01:38:08Z</time>
      </trkpt>
      <trkpt lat="45.96286" lon="4.38917">
        <ele>751</ele>
        <time>2022-08-28T01:38:12Z</time>
      </trkpt>
      <trkpt lat="45.96299" lon="4.38915">
        <ele>752</ele>
        <time>2022-08-28T01:38:14Z</time>
      </trkpt>
      <trkpt lat="45.96339" lon="4.38894">
        <ele>755</ele>
        <time>2022-08-28T01:38:22Z</time>
      </trkpt>
      <trkpt lat="45.96364" lon="4.38884">
        <ele>757</ele>
        <time>2022-08-28T01:38:26Z</time>
      </trkpt>
      <trkpt lat="45.96402" lon="4.38874">
        <ele>759</ele>
        <time>2022-08-28T01:38:33Z</time>
      </trkpt>
      <trkpt lat="45.96417" lon="4.38875">
        <ele>759</ele>
        <time>2022-08-28T01:38:36Z</time>
      </trkpt>
      <trkpt lat="45.96473" lon="4.38903">
        <ele>756</ele>
        <time>2022-08-28T01:38:46Z</time>
      </trkpt>
      <trkpt lat="45.96515" lon="4.38912">
        <ele>757</ele>
        <time>2022-08-28T01:38:54Z</time>
      </trkpt>
      <trkpt lat="45.96545" lon="4.38931">
        <ele>758</ele>
        <time>2022-08-28T01:39:00Z</time>
      </trkpt>
      <trkpt lat="45.96585" lon="4.38959">
        <ele>759</ele>
        <time>2022-08-28T01:39:08Z</time>
      </trkpt>
      <trkpt lat="45.96604" lon="4.38965">
        <ele>758</ele>
        <time>2022-08-28T01:39:11Z</time>
      </trkpt>
      <trkpt lat="45.96617" lon="4.38964">
        <ele>758</ele>
        <time>2022-08-28T01:39:13Z</time>
      </trkpt>
      <trkpt lat="45.96633" lon="4.38947">
        <ele>758</ele>
        <time>2022-08-28T01:39:17Z</time>
      </trkpt>
      <trkpt lat="45.96652" lon="4.38916">
        <ele>756</ele>
        <time>2022-08-28T01:39:22Z</time>
      </trkpt>
      <trkpt lat="45.96661" lon="4.38906">
        <ele>755</ele>
        <time>2022-08-28T01:39:24Z</time>
      </trkpt>
      <trkpt lat="45.96669" lon="4.38901">
        <ele>754</ele>
        <time>2022-08-28T01:39:26Z</time>
      </trkpt>
      <trkpt lat="45.96681" lon="4.38898">
        <ele>753</ele>
        <time>2022-08-28T01:39:28Z</time>
      </trkpt>
      <trkpt lat="45.96734" lon="4.38894">
        <ele>749</ele>
        <time>2022-08-28T01:39:37Z</time>
      </trkpt>
      <trkpt lat="45.96754" lon="4.38882">
        <ele>747</ele>
        <time>2022-08-28T01:39:41Z</time>
      </trkpt>
      <trkpt lat="45.9678" lon="4.38856">
        <ele>745</ele>
        <time>2022-08-28T01:39:47Z</time>
      </trkpt>
      <trkpt lat="45.96793" lon="4.38848">
        <ele>745</ele>
        <time>2022-08-28T01:39:49Z</time>
      </trkpt>
      <trkpt lat="45.96814" lon="4.3884">
        <ele>746</ele>
        <time>2022-08-28T01:39:53Z</time>
      </trkpt>
      <trkpt lat="45.96837" lon="4.38825">
        <ele>745</ele>
        <time>2022-08-28T01:39:58Z</time>
      </trkpt>
      <trkpt lat="45.96849" lon="4.38814">
        <ele>744</ele>
        <time>2022-08-28T01:40:00Z</time>
      </trkpt>
      <trkpt lat="45.96872" lon="4.38787">
        <ele>741</ele>
        <time>2022-08-28T01:40:06Z</time>
      </trkpt>
      <trkpt lat="45.9691" lon="4.38756">
        <ele>739</ele>
        <time>2022-08-28T01:40:13Z</time>
      </trkpt>
      <trkpt lat="45.9694" lon="4.38739">
        <ele>734</ele>
        <time>2022-08-28T01:40:19Z</time>
      </trkpt>
      <trkpt lat="45.96963" lon="4.38732">
        <ele>729</ele>
        <time>2022-08-28T01:40:23Z</time>
      </trkpt>
      <trkpt lat="45.96975" lon="4.38732">
        <ele>728</ele>
        <time>2022-08-28T01:40:25Z</time>
      </trkpt>
      <trkpt lat="45.97009" lon="4.38743">
        <ele>726</ele>
        <time>2022-08-28T01:40:32Z</time>
      </trkpt>
      <trkpt lat="45.97029" lon="4.38752">
        <ele>724</ele>
        <time>2022-08-28T01:40:35Z</time>
      </trkpt>
      <trkpt lat="45.97045" lon="4.38765">
        <ele>723</ele>
        <time>2022-08-28T01:40:39Z</time>
      </trkpt>
      <trkpt lat="45.97059" lon="4.38782">
        <ele>722</ele>
        <time>2022-08-28T01:40:42Z</time>
      </trkpt>
      <trkpt lat="45.97071" lon="4.38803">
        <ele>723</ele>
        <time>2022-08-28T01:40:45Z</time>
      </trkpt>
      <trkpt lat="45.97086" lon="4.38845">
        <ele>723</ele>
        <time>2022-08-28T01:40:51Z</time>
      </trkpt>
      <trkpt lat="45.97093" lon="4.3889">
        <ele>721</ele>
        <time>2022-08-28T01:40:57Z</time>
      </trkpt>
      <trkpt lat="45.97093" lon="4.38917">
        <ele>720</ele>
        <time>2022-08-28T01:41:00Z</time>
      </trkpt>
      <trkpt lat="45.97081" lon="4.38996">
        <ele>713</ele>
        <time>2022-08-28T01:41:10Z</time>
      </trkpt>
      <trkpt lat="45.97078" lon="4.39042">
        <ele>711</ele>
        <time>2022-08-28T01:41:16Z</time>
      </trkpt>
      <trkpt lat="45.97077" lon="4.39113">
        <ele>707</ele>
        <time>2022-08-28T01:41:25Z</time>
      </trkpt>
      <trkpt lat="45.97073" lon="4.3914">
        <ele>707</ele>
        <time>2022-08-28T01:41:28Z</time>
      </trkpt>
      <trkpt lat="45.97063" lon="4.39134">
        <ele>710</ele>
        <time>2022-08-28T01:41:30Z</time>
      </trkpt>
      <trkpt lat="45.97056" lon="4.39132">
        <ele>711</ele>
        <time>2022-08-28T01:41:31Z</time>
      </trkpt>
      <trkpt lat="45.97044" lon="4.39135">
        <ele>714</ele>
        <time>2022-08-28T01:41:33Z</time>
      </trkpt>
      <trkpt lat="45.97034" lon="4.39143">
        <ele>715</ele>
        <time>2022-08-28T01:41:35Z</time>
      </trkpt>
      <trkpt lat="45.97029" lon="4.39152">
        <ele>716</ele>
        <time>2022-08-28T01:41:37Z</time>
      </trkpt>
      <trkpt lat="45.97027" lon="4.3916">
        <ele>716</ele>
        <time>2022-08-28T01:41:38Z</time>
      </trkpt>
      <trkpt lat="45.97026" lon="4.39175">
        <ele>717</ele>
        <time>2022-08-28T01:41:40Z</time>
      </trkpt>
      <trkpt lat="45.97027" lon="4.3919">
        <ele>718</ele>
        <time>2022-08-28T01:41:42Z</time>
      </trkpt>
      <trkpt lat="45.97032" lon="4.39206">
        <ele>719</ele>
        <time>2022-08-28T01:41:44Z</time>
      </trkpt>
      <trkpt lat="45.9705" lon="4.39249">
        <ele>719</ele>
        <time>2022-08-28T01:41:50Z</time>
      </trkpt>
      <trkpt lat="45.97098" lon="4.39359">
        <ele>720</ele>
        <time>2022-08-28T01:42:06Z</time>
      </trkpt>
      <trkpt lat="45.97111" lon="4.39383">
        <ele>720</ele>
        <time>2022-08-28T01:42:10Z</time>
      </trkpt>
      <trkpt lat="45.97144" lon="4.3943">
        <ele>721</ele>
        <time>2022-08-28T01:42:18Z</time>
      </trkpt>
      <trkpt lat="45.97163" lon="4.3945">
        <ele>721</ele>
        <time>2022-08-28T01:42:22Z</time>
      </trkpt>
      <trkpt lat="45.97201" lon="4.39484">
        <ele>724</ele>
        <time>2022-08-28T01:42:30Z</time>
      </trkpt>
      <trkpt lat="45.97224" lon="4.39509">
        <ele>726</ele>
        <time>2022-08-28T01:42:35Z</time>
      </trkpt>
      <trkpt lat="45.97238" lon="4.39532">
        <ele>726</ele>
        <time>2022-08-28T01:42:39Z</time>
      </trkpt>
      <trkpt lat="45.97277" lon="4.3962">
        <ele>730</ele>
        <time>2022-08-28T01:42:52Z</time>
      </trkpt>
      <trkpt lat="45.97306" lon="4.39641">
        <ele>731</ele>
        <time>2022-08-28T01:42:58Z</time>
      </trkpt>
      <trkpt lat="45.9733" lon="4.39662">
        <ele>732</ele>
        <time>2022-08-28T01:43:03Z</time>
      </trkpt>
      <trkpt lat="45.9741" lon="4.39717">
        <ele>730</ele>
        <time>2022-08-28T01:43:19Z</time>
      </trkpt>
      <trkpt lat="45.97451" lon="4.39755">
        <ele>731</ele>
        <time>2022-08-28T01:43:27Z</time>
      </trkpt>
      <trkpt lat="45.97484" lon="4.39798">
        <ele>732</ele>
        <time>2022-08-28T01:43:35Z</time>
      </trkpt>
      <trkpt lat="45.97514" lon="4.3985">
        <ele>734</ele>
        <time>2022-08-28T01:43:43Z</time>
      </trkpt>
      <trkpt lat="45.97531" lon="4.39887">
        <ele>732</ele>
        <time>2022-08-28T01:43:49Z</time>
      </trkpt>
      <trkpt lat="45.97587" lon="4.39969">
        <ele>734</ele>
        <time>2022-08-28T01:44:03Z</time>
      </trkpt>
      <trkpt lat="45.97629" lon="4.40037">
        <ele>735</ele>
        <time>2022-08-28T01:44:14Z</time>
      </trkpt>
      <trkpt lat="45.97642" lon="4.40062">
        <ele>735</ele>
        <time>2022-08-28T01:44:18Z</time>
      </trkpt>
      <trkpt lat="45.9765" lon="4.40093">
        <ele>734</ele>
        <time>2022-08-28T01:44:22Z</time>
      </trkpt>
      <trkpt lat="45.97658" lon="4.40109">
        <ele>733</ele>
        <time>2022-08-28T01:44:25Z</time>
      </trkpt>
      <trkpt lat="45.97669" lon="4.40123">
        <ele>733</ele>
        <time>2022-08-28T01:44:27Z</time>
      </trkpt>
      <trkpt lat="45.97696" lon="4.40143">
        <ele>732</ele>
        <time>2022-08-28T01:44:33Z</time>
      </trkpt>
      <trkpt lat="45.97708" lon="4.40159">
        <ele>731</ele>
        <time>2022-08-28T01:44:36Z</time>
      </trkpt>
      <trkpt lat="45.97712" lon="4.40172">
        <ele>731</ele>
        <time>2022-08-28T01:44:38Z</time>
      </trkpt>
      <trkpt lat="45.97716" lon="4.40193">
        <ele>733</ele>
        <time>2022-08-28T01:44:40Z</time>
      </trkpt>
      <trkpt lat="45.97717" lon="4.40231">
        <ele>736</ele>
        <time>2022-08-28T01:44:45Z</time>
      </trkpt>
      <trkpt lat="45.97715" lon="4.4026">
        <ele>738</ele>
        <time>2022-08-28T01:44:49Z</time>
      </trkpt>
      <trkpt lat="45.97706" lon="4.40319">
        <ele>744</ele>
        <time>2022-08-28T01:44:56Z</time>
      </trkpt>
      <trkpt lat="45.9768" lon="4.40425">
        <ele>757</ele>
        <time>2022-08-28T01:45:10Z</time>
      </trkpt>
      <trkpt lat="45.97658" lon="4.40483">
        <ele>758</ele>
        <time>2022-08-28T01:45:18Z</time>
      </trkpt>
      <trkpt lat="45.97585" lon="4.40614">
        <ele>761</ele>
        <time>2022-08-28T01:45:39Z</time>
      </trkpt>
      <trkpt lat="45.97577" lon="4.40633">
        <ele>762</ele>
        <time>2022-08-28T01:45:42Z</time>
      </trkpt>
      <trkpt lat="45.97571" lon="4.40663">
        <ele>764</ele>
        <time>2022-08-28T01:45:45Z</time>
      </trkpt>
      <trkpt lat="45.97567" lon="4.40696">
        <ele>763</ele>
        <time>2022-08-28T01:45:50Z</time>
      </trkpt>
      <trkpt lat="45.97566" lon="4.40726">
        <ele>762</ele>
        <time>2022-08-28T01:45:53Z</time>
      </trkpt>
      <trkpt lat="45.97569" lon="4.40791">
        <ele>763</ele>
        <time>2022-08-28T01:46:01Z</time>
      </trkpt>
      <trkpt lat="45.97582" lon="4.40853">
        <ele>767</ele>
        <time>2022-08-28T01:46:09Z</time>
      </trkpt>
      <trkpt lat="45.97584" lon="4.4087">
        <ele>769</ele>
        <time>2022-08-28T01:46:11Z</time>
      </trkpt>
      <trkpt lat="45.97583" lon="4.40887">
        <ele>769</ele>
        <time>2022-08-28T01:46:14Z</time>
      </trkpt>
      <trkpt lat="45.97578" lon="4.40909">
        <ele>769</ele>
        <time>2022-08-28T01:46:16Z</time>
      </trkpt>
      <trkpt lat="45.97573" lon="4.40925">
        <ele>769</ele>
        <time>2022-08-28T01:46:19Z</time>
      </trkpt>
      <trkpt lat="45.97558" lon="4.40957">
        <ele>768</ele>
        <time>2022-08-28T01:46:23Z</time>
      </trkpt>
      <trkpt lat="45.97523" lon="4.40997">
        <ele>766</ele>
        <time>2022-08-28T01:46:31Z</time>
      </trkpt>
      <trkpt lat="45.97508" lon="4.41006">
        <ele>765</ele>
        <time>2022-08-28T01:46:34Z</time>
      </trkpt>
      <trkpt lat="45.97477" lon="4.41019">
        <ele>764</ele>
        <time>2022-08-28T01:46:40Z</time>
      </trkpt>
      <trkpt lat="45.97415" lon="4.41033">
        <ele>759</ele>
        <time>2022-08-28T01:46:51Z</time>
      </trkpt>
      <trkpt lat="45.97388" lon="4.41049">
        <ele>756</ele>
        <time>2022-08-28T01:46:56Z</time>
      </trkpt>
      <trkpt lat="45.97365" lon="4.41069">
        <ele>755</ele>
        <time>2022-08-28T01:47:01Z</time>
      </trkpt>
      <trkpt lat="45.97355" lon="4.41085">
        <ele>755</ele>
        <time>2022-08-28T01:47:04Z</time>
      </trkpt>
      <trkpt lat="45.97323" lon="4.41152">
        <ele>759</ele>
        <time>2022-08-28T01:47:14Z</time>
      </trkpt>
      <trkpt lat="45.97309" lon="4.41172">
        <ele>757</ele>
        <time>2022-08-28T01:47:17Z</time>
      </trkpt>
      <trkpt lat="45.97297" lon="4.41195">
        <ele>754</ele>
        <time>2022-08-28T01:47:21Z</time>
      </trkpt>
      <trkpt lat="45.97293" lon="4.41208">
        <ele>753</ele>
        <time>2022-08-28T01:47:23Z</time>
      </trkpt>
      <trkpt lat="45.9729" lon="4.41229">
        <ele>752</ele>
        <time>2022-08-28T01:47:25Z</time>
      </trkpt>
      <trkpt lat="45.97291" lon="4.41242">
        <ele>753</ele>
        <time>2022-08-28T01:47:27Z</time>
      </trkpt>
      <trkpt lat="45.97294" lon="4.41254">
        <ele>753</ele>
        <time>2022-08-28T01:47:29Z</time>
      </trkpt>
      <trkpt lat="45.97321" lon="4.41311">
        <ele>753</ele>
        <time>2022-08-28T01:47:37Z</time>
      </trkpt>
      <trkpt lat="45.97338" lon="4.41344">
        <ele>752</ele>
        <time>2022-08-28T01:47:42Z</time>
      </trkpt>
      <trkpt lat="45.97407" lon="4.41441">
        <ele>752</ele>
        <time>2022-08-28T01:47:59Z</time>
      </trkpt>
      <trkpt lat="45.97424" lon="4.41454">
        <ele>751</ele>
        <time>2022-08-28T01:48:03Z</time>
      </trkpt>
      <trkpt lat="45.97458" lon="4.41471">
        <ele>750</ele>
        <time>2022-08-28T01:48:09Z</time>
      </trkpt>
      <trkpt lat="45.97524" lon="4.41501">
        <ele>745</ele>
        <time>2022-08-28T01:48:21Z</time>
      </trkpt>
      <trkpt lat="45.97575" lon="4.41521">
        <ele>739</ele>
        <time>2022-08-28T01:48:31Z</time>
      </trkpt>
      <trkpt lat="45.97599" lon="4.41543">
        <ele>735</ele>
        <time>2022-08-28T01:48:36Z</time>
      </trkpt>
      <trkpt lat="45.97621" lon="4.41567">
        <ele>732</ele>
        <time>2022-08-28T01:48:41Z</time>
      </trkpt>
      <trkpt lat="45.97641" lon="4.41596">
        <ele>730</ele>
        <time>2022-08-28T01:48:46Z</time>
      </trkpt>
      <trkpt lat="45.97654" lon="4.41627">
        <ele>727</ele>
        <time>2022-08-28T01:48:50Z</time>
      </trkpt>
      <trkpt lat="45.9766" lon="4.41638">
        <ele>726</ele>
        <time>2022-08-28T01:48:52Z</time>
      </trkpt>
      <trkpt lat="45.97667" lon="4.41646">
        <ele>726</ele>
        <time>2022-08-28T01:48:54Z</time>
      </trkpt>
      <trkpt lat="45.97686" lon="4.41655">
        <ele>728</ele>
        <time>2022-08-28T01:48:57Z</time>
      </trkpt>
      <trkpt lat="45.97713" lon="4.4166">
        <ele>733</ele>
        <time>2022-08-28T01:49:02Z</time>
      </trkpt>
      <trkpt lat="45.97719" lon="4.41664">
        <ele>733</ele>
        <time>2022-08-28T01:49:03Z</time>
      </trkpt>
      <trkpt lat="45.97725" lon="4.4167">
        <ele>733</ele>
        <time>2022-08-28T01:49:05Z</time>
      </trkpt>
      <trkpt lat="45.97729" lon="4.4168">
        <ele>733</ele>
        <time>2022-08-28T01:49:06Z</time>
      </trkpt>
      <trkpt lat="45.97731" lon="4.4169">
        <ele>732</ele>
        <time>2022-08-28T01:49:07Z</time>
      </trkpt>
      <trkpt lat="45.97729" lon="4.41751">
        <ele>722</ele>
        <time>2022-08-28T01:49:15Z</time>
      </trkpt>
      <trkpt lat="45.97726" lon="4.41763">
        <ele>722</ele>
        <time>2022-08-28T01:49:16Z</time>
      </trkpt>
      <trkpt lat="45.9772" lon="4.4178">
        <ele>721</ele>
        <time>2022-08-28T01:49:19Z</time>
      </trkpt>
      <trkpt lat="45.97698" lon="4.41829">
        <ele>716</ele>
        <time>2022-08-28T01:49:26Z</time>
      </trkpt>
      <trkpt lat="45.97693" lon="4.41845">
        <ele>715</ele>
        <time>2022-08-28T01:49:28Z</time>
      </trkpt>
      <trkpt lat="45.97681" lon="4.41927">
        <ele>713</ele>
        <time>2022-08-28T01:49:38Z</time>
      </trkpt>
      <trkpt lat="45.97672" lon="4.42">
        <ele>710</ele>
        <time>2022-08-28T01:49:48Z</time>
      </trkpt>
      <trkpt lat="45.97669" lon="4.42109">
        <ele>702</ele>
        <time>2022-08-28T01:50:01Z</time>
      </trkpt>
      <trkpt lat="45.9767" lon="4.42135">
        <ele>700</ele>
        <time>2022-08-28T01:50:04Z</time>
      </trkpt>
      <trkpt lat="45.97674" lon="4.42163">
        <ele>698</ele>
        <time>2022-08-28T01:50:08Z</time>
      </trkpt>
      <trkpt lat="45.97725" lon="4.42282">
        <ele>696</ele>
        <time>2022-08-28T01:50:25Z</time>
      </trkpt>
      <trkpt lat="45.97725" lon="4.4229">
        <ele>695</ele>
        <time>2022-08-28T01:50:26Z</time>
      </trkpt>
      <trkpt lat="45.9772" lon="4.42303">
        <ele>694</ele>
        <time>2022-08-28T01:50:28Z</time>
      </trkpt>
      <trkpt lat="45.97696" lon="4.42351">
        <ele>691</ele>
        <time>2022-08-28T01:50:35Z</time>
      </trkpt>
      <trkpt lat="45.97779" lon="4.42359">
        <ele>691.5</ele>
        <time>2022-08-28T01:50:48Z</time>
      </trkpt>
      <trkpt lat="45.97841" lon="4.42371">
        <ele>690.8</ele>
        <time>2022-08-28T01:51:05Z</time>
      </trkpt>
      <trkpt lat="45.97888" lon="4.42379">
        <ele>692.1</ele>
        <time>2022-08-28T01:51:19Z</time>
      </trkpt>
      <trkpt lat="45.97927" lon="4.42391">
        <ele>693.4</ele>
        <time>2022-08-28T01:51:22Z</time>
      </trkpt>
      <trkpt lat="45.97931" lon="4.42409">
        <ele>693.7</ele>
      </trkpt>
      <trkpt lat="45.9793" lon="4.42425">
        <ele>693.9</ele>
        <time>2022-08-28T01:51:27Z</time>
      </trkpt>
      <trkpt lat="45.9791" lon="4.42491">
        <ele>694.8</ele>
        <time>2022-08-28T01:51:34Z</time>
      </trkpt>
      <trkpt lat="45.9788" lon="4.42601">
        <ele>699</ele>
        <time>2022-08-28T01:52:51Z</time>
      </trkpt>
      <trkpt lat="45.97875" lon="4.42717">
        <ele>708</ele>
        <time>2022-08-28T01:53:06Z</time>
      </trkpt>
      <trkpt lat="45.9789" lon="4.4284">
        <ele>710</ele>
        <time>2022-08-28T01:53:21Z</time>
      </trkpt>
      <trkpt lat="45.97906" lon="4.42904">
        <ele>710</ele>
        <time>2022-08-28T01:53:30Z</time>
      </trkpt>
      <trkpt lat="45.97942" lon="4.4297">
        <ele>710</ele>
        <time>2022-08-28T01:53:40Z</time>
      </trkpt>
      <trkpt lat="45.97975" lon="4.43012">
        <ele>709</ele>
        <time>2022-08-28T01:53:48Z</time>
      </trkpt>
      <trkpt lat="45.9803" lon="4.43041">
        <ele>713</ele>
        <time>2022-08-28T01:53:58Z</time>
      </trkpt>
      <trkpt lat="45.98055" lon="4.43048">
        <ele>713</ele>
        <time>2022-08-28T01:54:03Z</time>
      </trkpt>
      <trkpt lat="45.98088" lon="4.43051">
        <ele>714</ele>
        <time>2022-08-28T01:54:09Z</time>
      </trkpt>
      <trkpt lat="45.98129" lon="4.43045">
        <ele>711</ele>
        <time>2022-08-28T01:54:16Z</time>
      </trkpt>
      <trkpt lat="45.98168" lon="4.4303">
        <ele>709</ele>
        <time>2022-08-28T01:54:23Z</time>
      </trkpt>
      <trkpt lat="45.98223" lon="4.43025">
        <ele>703</ele>
        <time>2022-08-28T01:54:33Z</time>
      </trkpt>
      <trkpt lat="45.98258" lon="4.42992">
        <ele>702</ele>
        <time>2022-08-28T01:54:40Z</time>
      </trkpt>
      <trkpt lat="45.98304" lon="4.42905">
        <ele>704</ele>
        <time>2022-08-28T01:54:54Z</time>
      </trkpt>
      <trkpt lat="45.98329" lon="4.42883">
        <ele>702</ele>
        <time>2022-08-28T01:54:59Z</time>
      </trkpt>
      <trkpt lat="45.98363" lon="4.42882">
        <ele>704</ele>
        <time>2022-08-28T01:55:05Z</time>
      </trkpt>
      <trkpt lat="45.98381" lon="4.42893">
        <ele>704</ele>
        <time>2022-08-28T01:55:09Z</time>
      </trkpt>
      <trkpt lat="45.98423" lon="4.42954">
        <ele>702</ele>
        <time>2022-08-28T01:55:19Z</time>
      </trkpt>
      <trkpt lat="45.98479" lon="4.4306">
        <ele>702</ele>
        <time>2022-08-28T01:55:36Z</time>
      </trkpt>
      <trkpt lat="45.98496" lon="4.43096">
        <ele>704</ele>
        <time>2022-08-28T01:55:41Z</time>
      </trkpt>
      <trkpt lat="45.98498" lon="4.43119">
        <ele>706</ele>
        <time>2022-08-28T01:55:44Z</time>
      </trkpt>
      <trkpt lat="45.98492" lon="4.43144">
        <ele>707</ele>
        <time>2022-08-28T01:55:47Z</time>
      </trkpt>
      <trkpt lat="45.98405" lon="4.43305">
        <ele>707</ele>
        <time>2022-08-28T01:56:13Z</time>
      </trkpt>
      <trkpt lat="45.98383" lon="4.43368">
        <ele>709</ele>
        <time>2022-08-28T01:56:21Z</time>
      </trkpt>
      <trkpt lat="45.98379" lon="4.43412">
        <ele>711</ele>
        <time>2022-08-28T01:56:27Z</time>
      </trkpt>
      <trkpt lat="45.98382" lon="4.43432">
        <ele>712</ele>
        <time>2022-08-28T01:56:29Z</time>
      </trkpt>
      <trkpt lat="45.98406" lon="4.43493">
        <ele>716</ele>
        <time>2022-08-28T01:56:38Z</time>
      </trkpt>
      <trkpt lat="45.98453" lon="4.43579">
        <ele>723</ele>
        <time>2022-08-28T01:56:51Z</time>
      </trkpt>
      <trkpt lat="45.98463" lon="4.43614">
        <ele>725</ele>
        <time>2022-08-28T01:56:56Z</time>
      </trkpt>
      <trkpt lat="45.98468" lon="4.43725">
        <ele>727</ele>
        <time>2022-08-28T01:57:10Z</time>
      </trkpt>
      <trkpt lat="45.98469" lon="4.43782">
        <ele>728</ele>
        <time>2022-08-28T01:57:17Z</time>
      </trkpt>
      <trkpt lat="45.98471" lon="4.43804">
        <ele>729</ele>
        <time>2022-08-28T01:57:20Z</time>
      </trkpt>
      <trkpt lat="45.98474" lon="4.43822">
        <ele>729</ele>
        <time>2022-08-28T01:57:22Z</time>
      </trkpt>
      <trkpt lat="45.98481" lon="4.43837">
        <ele>730</ele>
        <time>2022-08-28T01:57:24Z</time>
      </trkpt>
      <trkpt lat="45.98491" lon="4.43847">
        <ele>729</ele>
        <time>2022-08-28T01:57:26Z</time>
      </trkpt>
      <trkpt lat="45.98503" lon="4.43855">
        <ele>728</ele>
        <time>2022-08-28T01:57:29Z</time>
      </trkpt>
      <trkpt lat="45.98535" lon="4.43861">
        <ele>727</ele>
        <time>2022-08-28T01:57:34Z</time>
      </trkpt>
      <trkpt lat="45.98557" lon="4.43861">
        <ele>726</ele>
        <time>2022-08-28T01:57:38Z</time>
      </trkpt>
      <trkpt lat="45.98578" lon="4.43859">
        <ele>726</ele>
        <time>2022-08-28T01:57:42Z</time>
      </trkpt>
      <trkpt lat="45.98603" lon="4.43853">
        <ele>725</ele>
        <time>2022-08-28T01:57:47Z</time>
      </trkpt>
      <trkpt lat="45.98616" lon="4.43845">
        <ele>726</ele>
        <time>2022-08-28T01:57:49Z</time>
      </trkpt>
      <trkpt lat="45.98642" lon="4.43825">
        <ele>728</ele>
        <time>2022-08-28T01:57:54Z</time>
      </trkpt>
      <trkpt lat="45.98729" lon="4.43755">
        <ele>727</ele>
        <time>2022-08-28T01:58:12Z</time>
      </trkpt>
      <trkpt lat="45.98745" lon="4.43735">
        <ele>726</ele>
        <time>2022-08-28T01:58:16Z</time>
      </trkpt>
      <trkpt lat="45.9876" lon="4.43713">
        <ele>724</ele>
        <time>2022-08-28T01:58:20Z</time>
      </trkpt>
      <trkpt lat="45.9879" lon="4.43648">
        <ele>724</ele>
        <time>2022-08-28T01:58:29Z</time>
      </trkpt>
      <trkpt lat="45.9881" lon="4.436">
        <ele>724</ele>
        <time>2022-08-28T01:58:36Z</time>
      </trkpt>
      <trkpt lat="45.98822" lon="4.43576">
        <ele>723</ele>
        <time>2022-08-28T01:58:40Z</time>
      </trkpt>
      <trkpt lat="45.98834" lon="4.43564">
        <ele>720</ele>
        <time>2022-08-28T01:58:43Z</time>
      </trkpt>
      <trkpt lat="45.98877" lon="4.4354">
        <ele>715</ele>
        <time>2022-08-28T01:58:51Z</time>
      </trkpt>
      <trkpt lat="45.98906" lon="4.43531">
        <ele>711</ele>
        <time>2022-08-28T01:58:56Z</time>
      </trkpt>
      <trkpt lat="45.98915" lon="4.43532">
        <ele>710</ele>
        <time>2022-08-28T01:58:58Z</time>
      </trkpt>
      <trkpt lat="45.98929" lon="4.43539">
        <ele>708</ele>
        <time>2022-08-28T01:59:00Z</time>
      </trkpt>
      <trkpt lat="45.98978" lon="4.43579">
        <ele>702</ele>
        <time>2022-08-28T01:59:10Z</time>
      </trkpt>
      <trkpt lat="45.98996" lon="4.43589">
        <ele>699</ele>
        <time>2022-08-28T01:59:14Z</time>
      </trkpt>
      <trkpt lat="45.99007" lon="4.43592">
        <ele>697</ele>
        <time>2022-08-28T01:59:16Z</time>
      </trkpt>
      <trkpt lat="45.9902" lon="4.4359">
        <ele>694</ele>
        <time>2022-08-28T01:59:18Z</time>
      </trkpt>
      <trkpt lat="45.99024" lon="4.43585">
        <ele>694</ele>
        <time>2022-08-28T01:59:19Z</time>
      </trkpt>
      <trkpt lat="45.9903" lon="4.43567">
        <ele>694</ele>
        <time>2022-08-28T01:59:21Z</time>
      </trkpt>
      <trkpt lat="45.99033" lon="4.43544">
        <ele>694</ele>
        <time>2022-08-28T01:59:24Z</time>
      </trkpt>
      <trkpt lat="45.9904" lon="4.43515">
        <ele>693</ele>
        <time>2022-08-28T01:59:28Z</time>
      </trkpt>
      <trkpt lat="45.99047" lon="4.43497">
        <ele>693</ele>
        <time>2022-08-28T01:59:31Z</time>
      </trkpt>
      <trkpt lat="45.99079" lon="4.43449">
        <ele>688</ele>
        <time>2022-08-28T01:59:39Z</time>
      </trkpt>
      <trkpt lat="45.99089" lon="4.4343">
        <ele>687</ele>
        <time>2022-08-28T01:59:42Z</time>
      </trkpt>
      <trkpt lat="45.99098" lon="4.43405">
        <ele>687</ele>
        <time>2022-08-28T01:59:45Z</time>
      </trkpt>
      <trkpt lat="45.99121" lon="4.43326">
        <ele>690</ele>
        <time>2022-08-28T01:59:56Z</time>
      </trkpt>
      <trkpt lat="45.9914" lon="4.43281">
        <ele>697</ele>
        <time>2022-08-28T02:00:02Z</time>
      </trkpt>
      <trkpt lat="45.99154" lon="4.43264">
        <ele>699</ele>
        <time>2022-08-28T02:00:06Z</time>
      </trkpt>
      <trkpt lat="45.99162" lon="4.43261">
        <ele>699</ele>
        <time>2022-08-28T02:00:07Z</time>
      </trkpt>
      <trkpt lat="45.9917" lon="4.43262">
        <ele>699</ele>
        <time>2022-08-28T02:00:09Z</time>
      </trkpt>
      <trkpt lat="45.99186" lon="4.43273">
        <ele>694</ele>
        <time>2022-08-28T02:00:12Z</time>
      </trkpt>
      <trkpt lat="45.9924" lon="4.43301">
        <ele>681</ele>
        <time>2022-08-28T02:00:22Z</time>
      </trkpt>
      <trkpt lat="45.99278" lon="4.43317">
        <ele>675</ele>
        <time>2022-08-28T02:00:29Z</time>
      </trkpt>
      <trkpt lat="45.9932" lon="4.43327">
        <ele>671</ele>
        <time>2022-08-28T02:00:37Z</time>
      </trkpt>
      <trkpt lat="45.99347" lon="4.43335">
        <ele>671</ele>
        <time>2022-08-28T02:00:42Z</time>
      </trkpt>
      <trkpt lat="45.99476" lon="4.43406">
        <ele>663</ele>
        <time>2022-08-28T02:01:06Z</time>
      </trkpt>
      <trkpt lat="45.99628" lon="4.43476">
        <ele>649</ele>
        <time>2022-08-28T02:01:34Z</time>
      </trkpt>
      <trkpt lat="45.99647" lon="4.43484">
        <ele>648</ele>
        <time>2022-08-28T02:01:38Z</time>
      </trkpt>
      <trkpt lat="45.9966" lon="4.43483">
        <ele>649</ele>
        <time>2022-08-28T02:01:40Z</time>
      </trkpt>
      <trkpt lat="45.99673" lon="4.43476">
        <ele>649</ele>
        <time>2022-08-28T02:01:43Z</time>
      </trkpt>
      <trkpt lat="45.99712" lon="4.43447">
        <ele>646</ele>
        <time>2022-08-28T02:01:51Z</time>
      </trkpt>
      <trkpt lat="45.99738" lon="4.4342">
        <ele>644</ele>
        <time>2022-08-28T02:01:56Z</time>
      </trkpt>
      <trkpt lat="45.99746" lon="4.43407">
        <ele>644</ele>
        <time>2022-08-28T02:01:58Z</time>
      </trkpt>
      <trkpt lat="45.99756" lon="4.43382">
        <ele>644</ele>
        <time>2022-08-28T02:02:02Z</time>
      </trkpt>
      <trkpt lat="45.99766" lon="4.43333">
        <ele>644</ele>
        <time>2022-08-28T02:02:08Z</time>
      </trkpt>
      <trkpt lat="45.99777" lon="4.43298">
        <ele>642</ele>
        <time>2022-08-28T02:02:13Z</time>
      </trkpt>
      <trkpt lat="45.998" lon="4.43251">
        <ele>639</ele>
        <time>2022-08-28T02:02:20Z</time>
      </trkpt>
      <trkpt lat="45.99817" lon="4.43223">
        <ele>639</ele>
        <time>2022-08-28T02:02:25Z</time>
      </trkpt>
      <trkpt lat="45.99835" lon="4.43201">
        <ele>638</ele>
        <time>2022-08-28T02:02:29Z</time>
      </trkpt>
      <trkpt lat="45.99848" lon="4.43194">
        <ele>638</ele>
        <time>2022-08-28T02:02:31Z</time>
      </trkpt>
      <trkpt lat="45.9986" lon="4.4319">
        <ele>638</ele>
        <time>2022-08-28T02:02:34Z</time>
      </trkpt>
      <trkpt lat="45.99874" lon="4.4319">
        <ele>637</ele>
        <time>2022-08-28T02:02:36Z</time>
      </trkpt>
      <trkpt lat="45.99899" lon="4.43198">
        <ele>634</ele>
        <time>2022-08-28T02:02:41Z</time>
      </trkpt>
      <trkpt lat="45.99957" lon="4.43226">
        <ele>629</ele>
        <time>2022-08-28T02:02:52Z</time>
      </trkpt>
      <trkpt lat="45.99976" lon="4.43242">
        <ele>627</ele>
        <time>2022-08-28T02:02:55Z</time>
      </trkpt>
      <trkpt lat="46.00048" lon="4.43316">
        <ele>620</ele>
        <time>2022-08-28T02:03:11Z</time>
      </trkpt>
      <trkpt lat="46.00082" lon="4.43363">
        <ele>617</ele>
        <time>2022-08-28T02:03:20Z</time>
      </trkpt>
      <trkpt lat="46.00129" lon="4.43445">
        <ele>612</ele>
        <time>2022-08-28T02:03:33Z</time>
      </trkpt>
      <trkpt lat="46.00141" lon="4.43472">
        <ele>611</ele>
        <time>2022-08-28T02:03:37Z</time>
      </trkpt>
      <trkpt lat="46.00153" lon="4.4352">
        <ele>608</ele>
        <time>2022-08-28T02:03:43Z</time>
      </trkpt>
      <trkpt lat="46.00195" lon="4.4373">
        <ele>597</ele>
        <time>2022-08-28T02:04:10Z</time>
      </trkpt>
      <trkpt lat="46.00219" lon="4.43814">
        <ele>591</ele>
        <time>2022-08-28T02:04:21Z</time>
      </trkpt>
      <trkpt lat="46.00238" lon="4.43879">
        <ele>590</ele>
        <time>2022-08-28T02:04:30Z</time>
      </trkpt>
      <trkpt lat="46.00245" lon="4.43908">
        <ele>589</ele>
        <time>2022-08-28T02:04:34Z</time>
      </trkpt>
      <trkpt lat="46.00246" lon="4.43926">
        <ele>588</ele>
        <time>2022-08-28T02:04:36Z</time>
      </trkpt>
      <trkpt lat="46.00245" lon="4.43948">
        <ele>587</ele>
        <time>2022-08-28T02:04:39Z</time>
      </trkpt>
      <trkpt lat="46.00242" lon="4.43971">
        <ele>585</ele>
        <time>2022-08-28T02:04:42Z</time>
      </trkpt>
      <trkpt lat="46.00236" lon="4.43996">
        <ele>583</ele>
        <time>2022-08-28T02:04:45Z</time>
      </trkpt>
      <trkpt lat="46.0022" lon="4.44042">
        <ele>580</ele>
        <time>2022-08-28T02:04:51Z</time>
      </trkpt>
      <trkpt lat="46.00209" lon="4.44084">
        <ele>577</ele>
        <time>2022-08-28T02:04:57Z</time>
      </trkpt>
      <trkpt lat="46.00202" lon="4.44134">
        <ele>574</ele>
        <time>2022-08-28T02:05:03Z</time>
      </trkpt>
      <trkpt lat="46.00201" lon="4.44156">
        <ele>573</ele>
        <time>2022-08-28T02:05:06Z</time>
      </trkpt>
      <trkpt lat="46.00207" lon="4.44315">
        <ele>559</ele>
        <time>2022-08-28T02:05:26Z</time>
      </trkpt>
      <trkpt lat="46.00225" lon="4.4441">
        <ele>556</ele>
        <time>2022-08-28T02:05:38Z</time>
      </trkpt>
      <trkpt lat="46.00245" lon="4.445">
        <ele>554</ele>
        <time>2022-08-28T02:05:49Z</time>
      </trkpt>
      <trkpt lat="46.0023" lon="4.44526">
        <ele>551</ele>
        <time>2022-08-28T02:05:54Z</time>
      </trkpt>
      <trkpt lat="46.00237" lon="4.44535">
        <ele>552</ele>
        <time>2022-08-28T02:05:55Z</time>
      </trkpt>
      <trkpt lat="46.00246" lon="4.44542">
        <ele>553</ele>
        <time>2022-08-28T02:05:57Z</time>
      </trkpt>
      <trkpt lat="46.00253" lon="4.44543">
        <ele>553</ele>
        <time>2022-08-28T02:05:58Z</time>
      </trkpt>
      <trkpt lat="46.00257" lon="4.4454">
        <ele>552</ele>
        <time>2022-08-28T02:05:59Z</time>
      </trkpt>
      <trkpt lat="46.00274" lon="4.44507">
        <ele>550</ele>
        <time>2022-08-28T02:06:04Z</time>
      </trkpt>
      <trkpt lat="46.00297" lon="4.4445">
        <ele>552</ele>
        <time>2022-08-28T02:06:12Z</time>
      </trkpt>
      <trkpt lat="46.00305" lon="4.4444">
        <ele>552</ele>
        <time>2022-08-28T02:06:14Z</time>
      </trkpt>
      <trkpt lat="46.00314" lon="4.44432">
        <ele>552</ele>
        <time>2022-08-28T02:06:16Z</time>
      </trkpt>
      <trkpt lat="46.00353" lon="4.44406">
        <ele>547</ele>
        <time>2022-08-28T02:06:24Z</time>
      </trkpt>
      <trkpt lat="46.00367" lon="4.44392">
        <ele>545</ele>
        <time>2022-08-28T02:06:27Z</time>
      </trkpt>
      <trkpt lat="46.00447" lon="4.44284">
        <ele>538</ele>
        <time>2022-08-28T02:06:46Z</time>
      </trkpt>
      <trkpt lat="46.00458" lon="4.44264">
        <ele>536</ele>
        <time>2022-08-28T02:06:49Z</time>
      </trkpt>
      <trkpt lat="46.00465" lon="4.44246">
        <ele>535</ele>
        <time>2022-08-28T02:06:52Z</time>
      </trkpt>
      <trkpt lat="46.00472" lon="4.44223">
        <ele>534</ele>
        <time>2022-08-28T02:06:55Z</time>
      </trkpt>
      <trkpt lat="46.00488" lon="4.44144">
        <ele>534</ele>
        <time>2022-08-28T02:07:05Z</time>
      </trkpt>
      <trkpt lat="46.00496" lon="4.44113">
        <ele>534</ele>
        <time>2022-08-28T02:07:09Z</time>
      </trkpt>
      <trkpt lat="46.00504" lon="4.44093">
        <ele>533</ele>
        <time>2022-08-28T02:07:12Z</time>
      </trkpt>
      <trkpt lat="46.00525" lon="4.44061">
        <ele>531</ele>
        <time>2022-08-28T02:07:18Z</time>
      </trkpt>
      <trkpt lat="46.00566" lon="4.44011">
        <ele>526</ele>
        <time>2022-08-28T02:07:27Z</time>
      </trkpt>
      <trkpt lat="46.00595" lon="4.4398">
        <ele>524</ele>
        <time>2022-08-28T02:07:34Z</time>
      </trkpt>
      <trkpt lat="46.00643" lon="4.43939">
        <ele>522</ele>
        <time>2022-08-28T02:07:44Z</time>
      </trkpt>
      <trkpt lat="46.00659" lon="4.43914">
        <ele>521</ele>
        <time>2022-08-28T02:07:48Z</time>
      </trkpt>
      <trkpt lat="46.00687" lon="4.43847">
        <ele>526</ele>
        <time>2022-08-28T02:07:57Z</time>
      </trkpt>
      <trkpt lat="46.00707" lon="4.43796">
        <ele>529</ele>
        <time>2022-08-28T02:08:05Z</time>
      </trkpt>
      <trkpt lat="46.00714" lon="4.43768">
        <ele>530</ele>
        <time>2022-08-28T02:08:08Z</time>
      </trkpt>
      <trkpt lat="46.00717" lon="4.43757">
        <ele>530</ele>
        <time>2022-08-28T02:08:10Z</time>
      </trkpt>
      <trkpt lat="46.00721" lon="4.43749">
        <ele>530</ele>
        <time>2022-08-28T02:08:11Z</time>
      </trkpt>
      <trkpt lat="46.00732" lon="4.43741">
        <ele>528</ele>
        <time>2022-08-28T02:08:13Z</time>
      </trkpt>
      <trkpt lat="46.00747" lon="4.43737">
        <ele>525</ele>
        <time>2022-08-28T02:08:16Z</time>
      </trkpt>
      <trkpt lat="46.0076" lon="4.43739">
        <ele>526</ele>
        <time>2022-08-28T02:08:18Z</time>
      </trkpt>
      <trkpt lat="46.00765" lon="4.43757">
        <ele>526</ele>
        <time>2022-08-28T02:08:21Z</time>
      </trkpt>
      <trkpt lat="46.00773" lon="4.43853">
        <ele>524</ele>
        <time>2022-08-28T02:08:33Z</time>
      </trkpt>
      <trkpt lat="46.00776" lon="4.43873">
        <ele>523</ele>
        <time>2022-08-28T02:08:35Z</time>
      </trkpt>
      <trkpt lat="46.00781" lon="4.43894">
        <ele>523</ele>
        <time>2022-08-28T02:08:38Z</time>
      </trkpt>
      <trkpt lat="46.00805" lon="4.43961">
        <ele>525</ele>
        <time>2022-08-28T02:08:47Z</time>
      </trkpt>
      <trkpt lat="46.00814" lon="4.43991">
        <ele>526</ele>
        <time>2022-08-28T02:08:51Z</time>
      </trkpt>
      <trkpt lat="46.00818" lon="4.44011">
        <ele>527</ele>
        <time>2022-08-28T02:08:54Z</time>
      </trkpt>
      <trkpt lat="46.0082" lon="4.44038">
        <ele>528</ele>
        <time>2022-08-28T02:08:57Z</time>
      </trkpt>
      <trkpt lat="46.00821" lon="4.44075">
        <ele>530</ele>
        <time>2022-08-28T02:09:02Z</time>
      </trkpt>
      <trkpt lat="46.0081" lon="4.44256">
        <ele>532</ele>
        <time>2022-08-28T02:09:24Z</time>
      </trkpt>
      <trkpt lat="46.00811" lon="4.44274">
        <ele>531</ele>
        <time>2022-08-28T02:09:26Z</time>
      </trkpt>
      <trkpt lat="46.00814" lon="4.44288">
        <ele>531</ele>
        <time>2022-08-28T02:09:28Z</time>
      </trkpt>
      <trkpt lat="46.00818" lon="4.44298">
        <ele>531</ele>
        <time>2022-08-28T02:09:30Z</time>
      </trkpt>
      <trkpt lat="46.00824" lon="4.44307">
        <ele>532</ele>
        <time>2022-08-28T02:09:31Z</time>
      </trkpt>
      <trkpt lat="46.00832" lon="4.44314">
        <ele>532</ele>
        <time>2022-08-28T02:09:33Z</time>
      </trkpt>
      <trkpt lat="46.00843" lon="4.44319">
        <ele>534</ele>
        <time>2022-08-28T02:09:35Z</time>
      </trkpt>
      <trkpt lat="46.00886" lon="4.44324">
        <ele>539</ele>
        <time>2022-08-28T02:09:43Z</time>
      </trkpt>
      <trkpt lat="46.00906" lon="4.44331">
        <ele>541</ele>
        <time>2022-08-28T02:09:46Z</time>
      </trkpt>
      <trkpt lat="46.00911" lon="4.44337">
        <ele>541</ele>
        <time>2022-08-28T02:09:47Z</time>
      </trkpt>
      <trkpt lat="46.00915" lon="4.44345">
        <ele>542</ele>
        <time>2022-08-28T02:09:49Z</time>
      </trkpt>
      <trkpt lat="46.0092" lon="4.44369">
        <ele>543</ele>
        <time>2022-08-28T02:09:52Z</time>
      </trkpt>
      <trkpt lat="46.00919" lon="4.44381">
        <ele>542</ele>
        <time>2022-08-28T02:09:53Z</time>
      </trkpt>
      <trkpt lat="46.00909" lon="4.44417">
        <ele>541</ele>
        <time>2022-08-28T02:09:58Z</time>
      </trkpt>
      <trkpt lat="46.00892" lon="4.44463">
        <ele>540</ele>
        <time>2022-08-28T02:10:04Z</time>
      </trkpt>
      <trkpt lat="46.00876" lon="4.44523">
        <ele>539</ele>
        <time>2022-08-28T02:10:12Z</time>
      </trkpt>
      <trkpt lat="46.00872" lon="4.44551">
        <ele>539</ele>
        <time>2022-08-28T02:10:16Z</time>
      </trkpt>
      <trkpt lat="46.0087" lon="4.44574">
        <ele>539</ele>
        <time>2022-08-28T02:10:19Z</time>
      </trkpt>
      <trkpt lat="46.00871" lon="4.4464">
        <ele>541</ele>
        <time>2022-08-28T02:10:27Z</time>
      </trkpt>
      <trkpt lat="46.00875" lon="4.44677">
        <ele>543</ele>
        <time>2022-08-28T02:10:32Z</time>
      </trkpt>
      <trkpt lat="46.0088" lon="4.44709">
        <ele>544</ele>
        <time>2022-08-28T02:10:36Z</time>
      </trkpt>
      <trkpt lat="46.00891" lon="4.44754">
        <ele>546</ele>
        <time>2022-08-28T02:10:41Z</time>
      </trkpt>
      <trkpt lat="46.00911" lon="4.44828">
        <ele>547</ele>
        <time>2022-08-28T02:10:51Z</time>
      </trkpt>
      <trkpt lat="46.00928" lon="4.44864">
        <ele>547</ele>
        <time>2022-08-28T02:10:57Z</time>
      </trkpt>
      <trkpt lat="46.00949" lon="4.44894">
        <ele>547</ele>
        <time>2022-08-28T02:11:02Z</time>
      </trkpt>
      <trkpt lat="46.01017" lon="4.45017">
        <ele>541</ele>
        <time>2022-08-28T02:11:21Z</time>
      </trkpt>
      <trkpt lat="46.01026" lon="4.45027">
        <ele>540</ele>
        <time>2022-08-28T02:11:23Z</time>
      </trkpt>
      <trkpt lat="46.01039" lon="4.45033">
        <ele>539</ele>
        <time>2022-08-28T02:11:26Z</time>
      </trkpt>
      <trkpt lat="46.01047" lon="4.45031">
        <ele>539</ele>
        <time>2022-08-28T02:11:27Z</time>
      </trkpt>
      <trkpt lat="46.01054" lon="4.45026">
        <ele>540</ele>
        <time>2022-08-28T02:11:29Z</time>
      </trkpt>
      <trkpt lat="46.01061" lon="4.45012">
        <ele>541</ele>
        <time>2022-08-28T02:11:31Z</time>
      </trkpt>
      <trkpt lat="46.01062" lon="4.45001">
        <ele>542</ele>
        <time>2022-08-28T02:11:32Z</time>
      </trkpt>
      <trkpt lat="46.01064" lon="4.44972">
        <ele>546</ele>
        <time>2022-08-28T02:11:36Z</time>
      </trkpt>
      <trkpt lat="46.01067" lon="4.44952">
        <ele>549</ele>
        <time>2022-08-28T02:11:38Z</time>
      </trkpt>
      <trkpt lat="46.01076" lon="4.44926">
        <ele>552</ele>
        <time>2022-08-28T02:11:42Z</time>
      </trkpt>
      <trkpt lat="46.01091" lon="4.44897">
        <ele>557</ele>
        <time>2022-08-28T02:11:46Z</time>
      </trkpt>
      <trkpt lat="46.01107" lon="4.44878">
        <ele>560</ele>
        <time>2022-08-28T02:11:50Z</time>
      </trkpt>
      <trkpt lat="46.01127" lon="4.44865">
        <ele>561</ele>
        <time>2022-08-28T02:11:54Z</time>
      </trkpt>
      <trkpt lat="46.0115" lon="4.44855">
        <ele>561</ele>
        <time>2022-08-28T02:11:58Z</time>
      </trkpt>
      <trkpt lat="46.01163" lon="4.44854">
        <ele>560</ele>
        <time>2022-08-28T02:12:01Z</time>
      </trkpt>
      <trkpt lat="46.01181" lon="4.44848">
        <ele>558</ele>
        <time>2022-08-28T02:12:04Z</time>
      </trkpt>
      <trkpt lat="46.01207" lon="4.44825">
        <ele>558</ele>
        <time>2022-08-28T02:12:09Z</time>
      </trkpt>
      <trkpt lat="46.01224" lon="4.448">
        <ele>557</ele>
        <time>2022-08-28T02:12:14Z</time>
      </trkpt>
      <trkpt lat="46.01243" lon="4.44765">
        <ele>556</ele>
        <time>2022-08-28T02:12:19Z</time>
      </trkpt>
      <trkpt lat="46.01269" lon="4.44701">
        <ele>557</ele>
        <time>2022-08-28T02:12:28Z</time>
      </trkpt>
      <trkpt lat="46.01284" lon="4.44657">
        <ele>559</ele>
        <time>2022-08-28T02:12:34Z</time>
      </trkpt>
      <trkpt lat="46.01294" lon="4.44637">
        <ele>559</ele>
        <time>2022-08-28T02:12:37Z</time>
      </trkpt>
      <trkpt lat="46.01303" lon="4.44623">
        <ele>559</ele>
        <time>2022-08-28T02:12:40Z</time>
      </trkpt>
      <trkpt lat="46.01315" lon="4.44609">
        <ele>559</ele>
        <time>2022-08-28T02:12:42Z</time>
      </trkpt>
      <trkpt lat="46.01327" lon="4.44599">
        <ele>558</ele>
        <time>2022-08-28T02:12:45Z</time>
      </trkpt>
      <trkpt lat="46.01343" lon="4.44591">
        <ele>559</ele>
        <time>2022-08-28T02:12:48Z</time>
      </trkpt>
      <trkpt lat="46.01351" lon="4.44591">
        <ele>560</ele>
        <time>2022-08-28T02:12:49Z</time>
      </trkpt>
      <trkpt lat="46.01366" lon="4.44597">
        <ele>561</ele>
        <time>2022-08-28T02:12:52Z</time>
      </trkpt>
      <trkpt lat="46.01373" lon="4.44605">
        <ele>561</ele>
        <time>2022-08-28T02:12:54Z</time>
      </trkpt>
      <trkpt lat="46.01388" lon="4.44632">
        <ele>561</ele>
        <time>2022-08-28T02:12:58Z</time>
      </trkpt>
      <trkpt lat="46.01415" lon="4.44699">
        <ele>560</ele>
        <time>2022-08-28T02:13:08Z</time>
      </trkpt>
      <trkpt lat="46.01423" lon="4.44715">
        <ele>560</ele>
        <time>2022-08-28T02:13:10Z</time>
      </trkpt>
      <trkpt lat="46.01433" lon="4.4473">
        <ele>560</ele>
        <time>2022-08-28T02:13:13Z</time>
      </trkpt>
      <trkpt lat="46.01443" lon="4.44742">
        <ele>561</ele>
        <time>2022-08-28T02:13:15Z</time>
      </trkpt>
      <trkpt lat="46.01458" lon="4.44751">
        <ele>561</ele>
        <time>2022-08-28T02:13:18Z</time>
      </trkpt>
      <trkpt lat="46.01473" lon="4.44753">
        <ele>563</ele>
        <time>2022-08-28T02:13:20Z</time>
      </trkpt>
      <trkpt lat="46.01508" lon="4.44749">
        <ele>567</ele>
        <time>2022-08-28T02:13:27Z</time>
      </trkpt>
      <trkpt lat="46.01528" lon="4.44752">
        <ele>569</ele>
        <time>2022-08-28T02:13:30Z</time>
      </trkpt>
      <trkpt lat="46.01549" lon="4.4476">
        <ele>570</ele>
        <time>2022-08-28T02:13:34Z</time>
      </trkpt>
      <trkpt lat="46.01582" lon="4.44778">
        <ele>573</ele>
        <time>2022-08-28T02:13:40Z</time>
      </trkpt>
      <trkpt lat="46.0159" lon="4.44783">
        <ele>574</ele>
        <time>2022-08-28T02:13:42Z</time>
      </trkpt>
      <trkpt lat="46.01598" lon="4.44791">
        <ele>575</ele>
        <time>2022-08-28T02:13:44Z</time>
      </trkpt>
      <trkpt lat="46.01602" lon="4.44809">
        <ele>574</ele>
        <time>2022-08-28T02:13:46Z</time>
      </trkpt>
      <trkpt lat="46.01599" lon="4.44831">
        <ele>573</ele>
        <time>2022-08-28T02:13:49Z</time>
      </trkpt>
      <trkpt lat="46.01585" lon="4.44869">
        <ele>574</ele>
        <time>2022-08-28T02:13:54Z</time>
      </trkpt>
      <trkpt lat="46.0153" lon="4.4499">
        <ele>575</ele>
        <time>2022-08-28T02:14:12Z</time>
      </trkpt>
      <trkpt lat="46.01526" lon="4.45009">
        <ele>575</ele>
        <time>2022-08-28T02:14:14Z</time>
      </trkpt>
      <trkpt lat="46.01524" lon="4.45035">
        <ele>576</ele>
        <time>2022-08-28T02:14:18Z</time>
      </trkpt>
      <trkpt lat="46.01527" lon="4.45052">
        <ele>577</ele>
        <time>2022-08-28T02:14:20Z</time>
      </trkpt>
      <trkpt lat="46.01532" lon="4.45074">
        <ele>578</ele>
        <time>2022-08-28T02:14:23Z</time>
      </trkpt>
      <trkpt lat="46.01542" lon="4.45097">
        <ele>579</ele>
        <time>2022-08-28T02:14:26Z</time>
      </trkpt>
      <trkpt lat="46.01553" lon="4.45116">
        <ele>579</ele>
        <time>2022-08-28T02:14:29Z</time>
      </trkpt>
      <trkpt lat="46.0157" lon="4.45139">
        <ele>580</ele>
        <time>2022-08-28T02:14:33Z</time>
      </trkpt>
      <trkpt lat="46.01583" lon="4.45153">
        <ele>581</ele>
        <time>2022-08-28T02:14:36Z</time>
      </trkpt>
      <trkpt lat="46.01593" lon="4.4516">
        <ele>583</ele>
        <time>2022-08-28T02:14:38Z</time>
      </trkpt>
      <trkpt lat="46.01634" lon="4.45181">
        <ele>589</ele>
        <time>2022-08-28T02:14:46Z</time>
      </trkpt>
      <trkpt lat="46.01648" lon="4.452">
        <ele>591</ele>
        <time>2022-08-28T02:14:49Z</time>
      </trkpt>
      <trkpt lat="46.01653" lon="4.45213">
        <ele>591</ele>
        <time>2022-08-28T02:14:51Z</time>
      </trkpt>
      <trkpt lat="46.01676" lon="4.45288">
        <ele>592</ele>
        <time>2022-08-28T02:15:01Z</time>
      </trkpt>
      <trkpt lat="46.01708" lon="4.45388">
        <ele>595</ele>
        <time>2022-08-28T02:15:15Z</time>
      </trkpt>
      <trkpt lat="46.01715" lon="4.45417">
        <ele>594</ele>
        <time>2022-08-28T02:15:19Z</time>
      </trkpt>
      <trkpt lat="46.01723" lon="4.45459">
        <ele>595</ele>
        <time>2022-08-28T02:15:24Z</time>
      </trkpt>
      <trkpt lat="46.01735" lon="4.45542">
        <ele>597</ele>
        <time>2022-08-28T02:15:35Z</time>
      </trkpt>
      <trkpt lat="46.01739" lon="4.45562">
        <ele>597</ele>
        <time>2022-08-28T02:15:37Z</time>
      </trkpt>
      <trkpt lat="46.01749" lon="4.45582">
        <ele>597</ele>
        <time>2022-08-28T02:15:40Z</time>
      </trkpt>
      <trkpt lat="46.01763" lon="4.4559">
        <ele>597</ele>
        <time>2022-08-28T02:15:43Z</time>
      </trkpt>
      <trkpt lat="46.01864" lon="4.45583">
        <ele>600</ele>
        <time>2022-08-28T02:16:01Z</time>
      </trkpt>
      <trkpt lat="46.01892" lon="4.45572">
        <ele>601</ele>
        <time>2022-08-28T02:16:06Z</time>
      </trkpt>
      <trkpt lat="46.01947" lon="4.45538">
        <ele>610</ele>
        <time>2022-08-28T02:16:17Z</time>
      </trkpt>
      <trkpt lat="46.01956" lon="4.45536">
        <ele>611</ele>
        <time>2022-08-28T02:16:18Z</time>
      </trkpt>
      <trkpt lat="46.01965" lon="4.45537">
        <ele>611</ele>
        <time>2022-08-28T02:16:20Z</time>
      </trkpt>
      <trkpt lat="46.01972" lon="4.45541">
        <ele>610</ele>
        <time>2022-08-28T02:16:21Z</time>
      </trkpt>
      <trkpt lat="46.01978" lon="4.45547">
        <ele>610</ele>
        <time>2022-08-28T02:16:22Z</time>
      </trkpt>
      <trkpt lat="46.01985" lon="4.45558">
        <ele>608</ele>
        <time>2022-08-28T02:16:24Z</time>
      </trkpt>
      <trkpt lat="46.01989" lon="4.45572">
        <ele>607</ele>
        <time>2022-08-28T02:16:26Z</time>
      </trkpt>
      <trkpt lat="46.01998" lon="4.45612">
        <ele>604</ele>
        <time>2022-08-28T02:16:31Z</time>
      </trkpt>
      <trkpt lat="46.02015" lon="4.45704">
        <ele>601</ele>
        <time>2022-08-28T02:16:43Z</time>
      </trkpt>
      <trkpt lat="46.02066" lon="4.4588">
        <ele>598</ele>
        <time>2022-08-28T02:17:07Z</time>
      </trkpt>
      <trkpt lat="46.02073" lon="4.45892">
        <ele>599</ele>
        <time>2022-08-28T02:17:09Z</time>
      </trkpt>
      <trkpt lat="46.02084" lon="4.45896">
        <ele>600</ele>
        <time>2022-08-28T02:17:11Z</time>
      </trkpt>
      <trkpt lat="46.02097" lon="4.45897">
        <ele>598</ele>
        <time>2022-08-28T02:17:13Z</time>
      </trkpt>
      <trkpt lat="46.022" lon="4.45861">
        <ele>590</ele>
        <time>2022-08-28T02:17:32Z</time>
      </trkpt>
      <trkpt lat="46.02215" lon="4.45847">
        <ele>590</ele>
        <time>2022-08-28T02:17:35Z</time>
      </trkpt>
      <trkpt lat="46.02236" lon="4.45805">
        <ele>593</ele>
        <time>2022-08-28T02:17:41Z</time>
      </trkpt>
      <trkpt lat="46.02247" lon="4.45795">
        <ele>593</ele>
        <time>2022-08-28T02:17:44Z</time>
      </trkpt>
      <trkpt lat="46.02259" lon="4.45796">
        <ele>592</ele>
        <time>2022-08-28T02:17:46Z</time>
      </trkpt>
      <trkpt lat="46.02268" lon="4.45801">
        <ele>590</ele>
        <time>2022-08-28T02:17:48Z</time>
      </trkpt>
      <trkpt lat="46.02301" lon="4.45829">
        <ele>582</ele>
        <time>2022-08-28T02:17:54Z</time>
      </trkpt>
      <trkpt lat="46.02314" lon="4.45837">
        <ele>579</ele>
        <time>2022-08-28T02:17:57Z</time>
      </trkpt>
      <trkpt lat="46.02334" lon="4.45841">
        <ele>577</ele>
        <time>2022-08-28T02:18:01Z</time>
      </trkpt>
      <trkpt lat="46.02347" lon="4.4584">
        <ele>575</ele>
        <time>2022-08-28T02:18:03Z</time>
      </trkpt>
      <trkpt lat="46.02362" lon="4.45834">
        <ele>574</ele>
        <time>2022-08-28T02:18:06Z</time>
      </trkpt>
      <trkpt lat="46.02377" lon="4.45826">
        <ele>573</ele>
        <time>2022-08-28T02:18:08Z</time>
      </trkpt>
      <trkpt lat="46.02415" lon="4.4579">
        <ele>576</ele>
        <time>2022-08-28T02:18:17Z</time>
      </trkpt>
      <trkpt lat="46.02427" lon="4.45781">
        <ele>576</ele>
        <time>2022-08-28T02:18:19Z</time>
      </trkpt>
      <trkpt lat="46.02443" lon="4.45775">
        <ele>576</ele>
        <time>2022-08-28T02:18:22Z</time>
      </trkpt>
      <trkpt lat="46.02461" lon="4.45776">
        <ele>574</ele>
        <time>2022-08-28T02:18:25Z</time>
      </trkpt>
      <trkpt lat="46.02474" lon="4.45779">
        <ele>573</ele>
        <time>2022-08-28T02:18:27Z</time>
      </trkpt>
      <trkpt lat="46.02508" lon="4.45795">
        <ele>567</ele>
        <time>2022-08-28T02:18:34Z</time>
      </trkpt>
      <trkpt lat="46.02539" lon="4.45814">
        <ele>564</ele>
        <time>2022-08-28T02:18:40Z</time>
      </trkpt>
      <trkpt lat="46.02592" lon="4.45837">
        <ele>560</ele>
        <time>2022-08-28T02:18:50Z</time>
      </trkpt>
      <trkpt lat="46.02615" lon="4.45844">
        <ele>559</ele>
        <time>2022-08-28T02:18:54Z</time>
      </trkpt>
      <trkpt lat="46.02641" lon="4.45857">
        <ele>557</ele>
        <time>2022-08-28T02:18:59Z</time>
      </trkpt>
      <trkpt lat="46.02681" lon="4.45885">
        <ele>553</ele>
        <time>2022-08-28T02:19:07Z</time>
      </trkpt>
      <trkpt lat="46.02739" lon="4.4592">
        <ele>550</ele>
        <time>2022-08-28T02:19:18Z</time>
      </trkpt>
      <trkpt lat="46.02775" lon="4.45947">
        <ele>548</ele>
        <time>2022-08-28T02:19:25Z</time>
      </trkpt>
      <trkpt lat="46.0285" lon="4.46035">
        <ele>540</ele>
        <time>2022-08-28T02:19:42Z</time>
      </trkpt>
      <trkpt lat="46.02867" lon="4.4605">
        <ele>538</ele>
        <time>2022-08-28T02:19:46Z</time>
      </trkpt>
      <trkpt lat="46.02902" lon="4.46072">
        <ele>534</ele>
        <time>2022-08-28T02:19:53Z</time>
      </trkpt>
      <trkpt lat="46.02936" lon="4.46082">
        <ele>532</ele>
        <time>2022-08-28T02:19:59Z</time>
      </trkpt>
      <trkpt lat="46.03096" lon="4.46088">
        <ele>526</ele>
        <time>2022-08-28T02:20:27Z</time>
      </trkpt>
      <trkpt lat="46.03107" lon="4.46091">
        <ele>525</ele>
        <time>2022-08-28T02:20:29Z</time>
      </trkpt>
      <trkpt lat="46.03115" lon="4.46096">
        <ele>525</ele>
        <time>2022-08-28T02:20:31Z</time>
      </trkpt>
      <trkpt lat="46.03118" lon="4.46104">
        <ele>523</ele>
        <time>2022-08-28T02:20:32Z</time>
      </trkpt>
      <trkpt lat="46.03118" lon="4.46111">
        <ele>522</ele>
        <time>2022-08-28T02:20:33Z</time>
      </trkpt>
      <trkpt lat="46.03115" lon="4.4612">
        <ele>519</ele>
        <time>2022-08-28T02:20:34Z</time>
      </trkpt>
      <trkpt lat="46.0311" lon="4.46124">
        <ele>518</ele>
        <time>2022-08-28T02:20:35Z</time>
      </trkpt>
      <trkpt lat="46.03039" lon="4.46138">
        <ele>515</ele>
        <time>2022-08-28T02:20:48Z</time>
      </trkpt>
      <trkpt lat="46.03013" lon="4.46148">
        <ele>514</ele>
        <time>2022-08-28T02:20:53Z</time>
      </trkpt>
      <trkpt lat="46.02912" lon="4.46204">
        <ele>507</ele>
        <time>2022-08-28T02:21:12Z</time>
      </trkpt>
      <trkpt lat="46.02901" lon="4.46213">
        <ele>505</ele>
        <time>2022-08-28T02:21:14Z</time>
      </trkpt>
      <trkpt lat="46.02896" lon="4.46222">
        <ele>503</ele>
        <time>2022-08-28T02:21:16Z</time>
      </trkpt>
      <trkpt lat="46.02893" lon="4.46235">
        <ele>500</ele>
        <time>2022-08-28T02:21:17Z</time>
      </trkpt>
      <trkpt lat="46.02894" lon="4.46249">
        <ele>498</ele>
        <time>2022-08-28T02:21:19Z</time>
      </trkpt>
      <trkpt lat="46.02897" lon="4.46259">
        <ele>497</ele>
        <time>2022-08-28T02:21:20Z</time>
      </trkpt>
      <trkpt lat="46.02903" lon="4.46267">
        <ele>496</ele>
        <time>2022-08-28T02:21:22Z</time>
      </trkpt>
      <trkpt lat="46.0291" lon="4.46271">
        <ele>496</ele>
        <time>2022-08-28T02:21:23Z</time>
      </trkpt>
      <trkpt lat="46.02924" lon="4.46272">
        <ele>495</ele>
        <time>2022-08-28T02:21:26Z</time>
      </trkpt>
      <trkpt lat="46.02962" lon="4.46257">
        <ele>495</ele>
        <time>2022-08-28T02:21:33Z</time>
      </trkpt>
      <trkpt lat="46.02974" lon="4.46254">
        <ele>495</ele>
        <time>2022-08-28T02:21:35Z</time>
      </trkpt>
      <trkpt lat="46.02985" lon="4.46254">
        <ele>494</ele>
        <time>2022-08-28T02:21:37Z</time>
      </trkpt>
      <trkpt lat="46.02994" lon="4.46257">
        <ele>493</ele>
        <time>2022-08-28T02:21:38Z</time>
      </trkpt>
      <trkpt lat="46.03007" lon="4.46265">
        <ele>492</ele>
        <time>2022-08-28T02:21:41Z</time>
      </trkpt>
      <trkpt lat="46.03018" lon="4.46276">
        <ele>490</ele>
        <time>2022-08-28T02:21:43Z</time>
      </trkpt>
      <trkpt lat="46.03033" lon="4.46296">
        <ele>488</ele>
        <time>2022-08-28T02:21:47Z</time>
      </trkpt>
      <trkpt lat="46.03042" lon="4.46312">
        <ele>486</ele>
        <time>2022-08-28T02:21:49Z</time>
      </trkpt>
      <trkpt lat="46.03051" lon="4.46333">
        <ele>484</ele>
        <time>2022-08-28T02:21:52Z</time>
      </trkpt>
      <trkpt lat="46.03091" lon="4.46496">
        <ele>479</ele>
        <time>2022-08-28T02:22:14Z</time>
      </trkpt>
      <trkpt lat="46.03098" lon="4.46517">
        <ele>478</ele>
        <time>2022-08-28T02:22:17Z</time>
      </trkpt>
      <trkpt lat="46.03104" lon="4.46526">
        <ele>477</ele>
        <time>2022-08-28T02:22:18Z</time>
      </trkpt>
      <trkpt lat="46.03112" lon="4.46529">
        <ele>476</ele>
        <time>2022-08-28T02:22:20Z</time>
      </trkpt>
      <trkpt lat="46.03128" lon="4.46527">
        <ele>475</ele>
        <time>2022-08-28T02:22:23Z</time>
      </trkpt>
      <trkpt lat="46.03135" lon="4.4652">
        <ele>475</ele>
        <time>2022-08-28T02:22:24Z</time>
      </trkpt>
      <trkpt lat="46.03139" lon="4.46511">
        <ele>475</ele>
        <time>2022-08-28T02:22:25Z</time>
      </trkpt>
      <trkpt lat="46.03142" lon="4.46499">
        <ele>474</ele>
        <time>2022-08-28T02:22:27Z</time>
      </trkpt>
      <trkpt lat="46.03143" lon="4.46474">
        <ele>474</ele>
        <time>2022-08-28T02:22:30Z</time>
      </trkpt>
      <trkpt lat="46.03137" lon="4.46392">
        <ele>475</ele>
        <time>2022-08-28T02:22:40Z</time>
      </trkpt>
      <trkpt lat="46.03138" lon="4.46379">
        <ele>475</ele>
        <time>2022-08-28T02:22:42Z</time>
      </trkpt>
      <trkpt lat="46.03141" lon="4.46369">
        <ele>476</ele>
        <time>2022-08-28T02:22:43Z</time>
      </trkpt>
      <trkpt lat="46.03146" lon="4.46361">
        <ele>476</ele>
        <time>2022-08-28T02:22:45Z</time>
      </trkpt>
      <trkpt lat="46.03155" lon="4.46356">
        <ele>475</ele>
        <time>2022-08-28T02:22:46Z</time>
      </trkpt>
      <trkpt lat="46.032" lon="4.46349">
        <ele>473</ele>
        <time>2022-08-28T02:22:54Z</time>
      </trkpt>
      <trkpt lat="46.03226" lon="4.46355">
        <ele>471</ele>
        <time>2022-08-28T02:22:59Z</time>
      </trkpt>
      <trkpt lat="46.03238" lon="4.46361">
        <ele>469</ele>
        <time>2022-08-28T02:23:01Z</time>
      </trkpt>
      <trkpt lat="46.03298" lon="4.4641">
        <ele>457</ele>
        <time>2022-08-28T02:23:14Z</time>
      </trkpt>
      <trkpt lat="46.03331" lon="4.46423">
        <ele>455</ele>
        <time>2022-08-28T02:23:20Z</time>
      </trkpt>
      <trkpt lat="46.03389" lon="4.4644">
        <ele>453</ele>
        <time>2022-08-28T02:23:30Z</time>
      </trkpt>
      <trkpt lat="46.03403" lon="4.46441">
        <ele>454</ele>
        <time>2022-08-28T02:23:33Z</time>
      </trkpt>
      <trkpt lat="46.03499" lon="4.46435">
        <ele>453</ele>
        <time>2022-08-28T02:23:50Z</time>
      </trkpt>
      <trkpt lat="46.03536" lon="4.46431">
        <ele>445</ele>
        <time>2022-08-28T02:23:56Z</time>
      </trkpt>
      <trkpt lat="46.03558" lon="4.46423">
        <ele>441</ele>
        <time>2022-08-28T02:24:00Z</time>
      </trkpt>
      <trkpt lat="46.03566" lon="4.46414">
        <ele>441</ele>
        <time>2022-08-28T02:24:02Z</time>
      </trkpt>
      <trkpt lat="46.03575" lon="4.46402">
        <ele>441</ele>
        <time>2022-08-28T02:24:04Z</time>
      </trkpt>
      <trkpt lat="46.03582" lon="4.46387">
        <ele>442</ele>
        <time>2022-08-28T02:24:07Z</time>
      </trkpt>
      <trkpt lat="46.0359" lon="4.46357">
        <ele>445</ele>
        <time>2022-08-28T02:24:11Z</time>
      </trkpt>
      <trkpt lat="46.036" lon="4.46301">
        <ele>446</ele>
        <time>2022-08-28T02:24:18Z</time>
      </trkpt>
      <trkpt lat="46.03604" lon="4.46265">
        <ele>445</ele>
        <time>2022-08-28T02:24:22Z</time>
      </trkpt>
      <trkpt lat="46.03607" lon="4.46211">
        <ele>446</ele>
        <time>2022-08-28T02:24:29Z</time>
      </trkpt>
      <trkpt lat="46.03606" lon="4.46128">
        <ele>446</ele>
        <time>2022-08-28T02:24:39Z</time>
      </trkpt>
      <trkpt lat="46.03609" lon="4.46113">
        <ele>445</ele>
        <time>2022-08-28T02:24:41Z</time>
      </trkpt>
      <trkpt lat="46.03619" lon="4.46102">
        <ele>443</ele>
        <time>2022-08-28T02:24:43Z</time>
      </trkpt>
      <trkpt lat="46.03631" lon="4.461">
        <ele>441</ele>
        <time>2022-08-28T02:24:46Z</time>
      </trkpt>
      <trkpt lat="46.03642" lon="4.46103">
        <ele>439</ele>
        <time>2022-08-28T02:24:47Z</time>
      </trkpt>
      <trkpt lat="46.03654" lon="4.46112">
        <ele>436</ele>
        <time>2022-08-28T02:24:50Z</time>
      </trkpt>
      <trkpt lat="46.03674" lon="4.46162">
        <ele>431</ele>
        <time>2022-08-28T02:24:57Z</time>
      </trkpt>
      <trkpt lat="46.037" lon="4.46215">
        <ele>433</ele>
        <time>2022-08-28T02:25:05Z</time>
      </trkpt>
      <trkpt lat="46.03707" lon="4.46248">
        <ele>433</ele>
        <time>2022-08-28T02:25:09Z</time>
      </trkpt>
      <trkpt lat="46.0371" lon="4.46299">
        <ele>432</ele>
        <time>2022-08-28T02:25:16Z</time>
      </trkpt>
      <trkpt lat="46.03707" lon="4.46344">
        <ele>429</ele>
        <time>2022-08-28T02:25:21Z</time>
      </trkpt>
      <trkpt lat="46.0371" lon="4.46388">
        <ele>425</ele>
        <time>2022-08-28T02:25:27Z</time>
      </trkpt>
      <trkpt lat="46.03726" lon="4.46434">
        <ele>425</ele>
        <time>2022-08-28T02:25:33Z</time>
      </trkpt>
      <trkpt lat="46.03734" lon="4.46451">
        <ele>426</ele>
        <time>2022-08-28T02:25:36Z</time>
      </trkpt>
      <trkpt lat="46.03734" lon="4.46468">
        <ele>426</ele>
        <time>2022-08-28T02:25:38Z</time>
      </trkpt>
      <trkpt lat="46.03732" lon="4.4648">
        <ele>425</ele>
        <time>2022-08-28T02:25:39Z</time>
      </trkpt>
      <trkpt lat="46.03726" lon="4.46495">
        <ele>424</ele>
        <time>2022-08-28T02:25:41Z</time>
      </trkpt>
      <trkpt lat="46.03662" lon="4.46565">
        <ele>427</ele>
        <time>2022-08-28T02:25:56Z</time>
      </trkpt>
      <trkpt lat="46.03651" lon="4.46582">
        <ele>428</ele>
        <time>2022-08-28T02:25:58Z</time>
      </trkpt>
      <trkpt lat="46.03641" lon="4.46601">
        <ele>429</ele>
        <time>2022-08-28T02:26:01Z</time>
      </trkpt>
      <trkpt lat="46.03605" lon="4.46692">
        <ele>432</ele>
        <time>2022-08-28T02:26:14Z</time>
      </trkpt>
      <trkpt lat="46.03596" lon="4.46718">
        <ele>432</ele>
        <time>2022-08-28T02:26:18Z</time>
      </trkpt>
      <trkpt lat="46.0359" lon="4.46755">
        <ele>433</ele>
        <time>2022-08-28T02:26:23Z</time>
      </trkpt>
      <trkpt lat="46.03588" lon="4.46806">
        <ele>435</ele>
        <time>2022-08-28T02:26:29Z</time>
      </trkpt>
      <trkpt lat="46.03592" lon="4.4685">
        <ele>437</ele>
        <time>2022-08-28T02:26:34Z</time>
      </trkpt>
      <trkpt lat="46.03598" lon="4.46882">
        <ele>437</ele>
        <time>2022-08-28T02:26:39Z</time>
      </trkpt>
      <trkpt lat="46.03621" lon="4.46942">
        <ele>443</ele>
        <time>2022-08-28T02:26:47Z</time>
      </trkpt>
      <trkpt lat="46.03633" lon="4.46982">
        <ele>446</ele>
        <time>2022-08-28T02:26:52Z</time>
      </trkpt>
      <trkpt lat="46.03674" lon="4.47145">
        <ele>448</ele>
        <time>2022-08-28T02:27:14Z</time>
      </trkpt>
      <trkpt lat="46.03686" lon="4.47163">
        <ele>450</ele>
        <time>2022-08-28T02:27:17Z</time>
      </trkpt>
      <trkpt lat="46.03694" lon="4.47206">
        <ele>451</ele>
        <time>2022-08-28T02:27:22Z</time>
      </trkpt>
      <trkpt lat="46.03702" lon="4.47223">
        <ele>452</ele>
        <time>2022-08-28T02:27:25Z</time>
      </trkpt>
      <trkpt lat="46.03717" lon="4.47248">
        <ele>454</ele>
        <time>2022-08-28T02:27:29Z</time>
      </trkpt>
      <trkpt lat="46.03748" lon="4.47282">
        <ele>458</ele>
        <time>2022-08-28T02:27:36Z</time>
      </trkpt>
      <trkpt lat="46.03765" lon="4.47305">
        <ele>461</ele>
        <time>2022-08-28T02:27:40Z</time>
      </trkpt>
      <trkpt lat="46.03794" lon="4.4735">
        <ele>461.3</ele>
        <time>2022-08-28T02:27:42Z</time>
      </trkpt>
      <trkpt lat="46.03807" lon="4.47385">
        <ele>463.3</ele>
        <time>2022-08-28T02:27:48Z</time>
      </trkpt>
      <trkpt lat="46.03814" lon="4.47418">
        <ele>464.7</ele>
        <time>2022-08-28T02:27:59Z</time>
      </trkpt>
      <trkpt lat="46.03815" lon="4.47452">
        <ele>466.7</ele>
      </trkpt>
      <trkpt lat="46.03788" lon="4.47546">
        <ele>470.6</ele>
      </trkpt>
      <trkpt lat="46.03785" lon="4.47566">
        <ele>471.4</ele>
      </trkpt>
      <trkpt lat="46.03788" lon="4.47592">
        <ele>472.7</ele>
      </trkpt>
      <trkpt lat="46.03792" lon="4.47605">
        <ele>473.4</ele>
      </trkpt>
      <trkpt lat="46.03833" lon="4.47641">
        <ele>476.6</ele>
      </trkpt>
      <trkpt lat="46.0385" lon="4.47652">
        <ele>476.9</ele>
      </trkpt>
      <trkpt lat="46.03886" lon="4.47675">
        <ele>476.6</ele>
      </trkpt>
      <trkpt lat="46.03888" lon="4.47669">
        <ele>477.6</ele>
      </trkpt>
      <trkpt lat="46.03891" lon="4.47662">
        <ele>478.3</ele>
      </trkpt>
      <trkpt lat="46.03895" lon="4.47658">
        <ele>478.5</ele>
      </trkpt>
      <trkpt lat="46.03899" lon="4.47658">
        <ele>478.4</ele>
      </trkpt>
      <trkpt lat="46.03908" lon="4.47658">
        <ele>478.3</ele>
      </trkpt>
      <trkpt lat="46.03916" lon="4.47651">
        <ele>479.2</ele>
        <time>2022-08-28T02:28:08Z</time>
      </trkpt>
      <trkpt lat="46.0392" lon="4.47638">
        <ele>480.9</ele>
      </trkpt>
      <trkpt lat="46.0392" lon="4.47624">
        <ele>481.4</ele>
        <time>2022-08-28T02:28:12Z</time>
      </trkpt>
      <trkpt lat="46.03916" lon="4.4761">
        <ele>482.1</ele>
      </trkpt>
      <trkpt lat="46.03908" lon="4.47597">
        <ele>483.3</ele>
        <time>2022-08-28T02:28:15Z</time>
      </trkpt>
      <trkpt lat="46.03901" lon="4.47591">
        <ele>484</ele>
      </trkpt>
      <trkpt lat="46.03889" lon="4.47582">
        <ele>485</ele>
        <time>2022-08-28T02:28:20Z</time>
      </trkpt>
      <trkpt lat="46.03899" lon="4.47561">
        <ele>485.2</ele>
      </trkpt>
      <trkpt lat="46.03912" lon="4.47542">
        <ele>486.6</ele>
      </trkpt>
      <trkpt lat="46.03923" lon="4.47527">
        <ele>489</ele>
      </trkpt>
      <trkpt lat="46.03938" lon="4.47518">
        <ele>491.3</ele>
      </trkpt>
      <trkpt lat="46.03943" lon="4.4751">
        <ele>492.3</ele>
        <time>2022-08-28T02:28:25Z</time>
      </trkpt>
      <trkpt lat="46.03952" lon="4.47509">
        <ele>494</ele>
        <time>2022-08-28T02:28:26Z</time>
      </trkpt>
      <trkpt lat="46.03986" lon="4.47525">
        <ele>496</ele>
        <time>2022-08-28T02:28:33Z</time>
      </trkpt>
      <trkpt lat="46.04017" lon="4.47549">
        <ele>496</ele>
        <time>2022-08-28T02:28:39Z</time>
      </trkpt>
      <trkpt lat="46.04125" lon="4.4765">
        <ele>496</ele>
        <time>2022-08-28T02:29:02Z</time>
      </trkpt>
      <trkpt lat="46.04164" lon="4.47689">
        <ele>498</ele>
        <time>2022-08-28T02:29:10Z</time>
      </trkpt>
      <trkpt lat="46.04194" lon="4.47729">
        <ele>499</ele>
        <time>2022-08-28T02:29:18Z</time>
      </trkpt>
      <trkpt lat="46.04194" lon="4.47735">
        <ele>499</ele>
        <time>2022-08-28T02:29:18Z</time>
      </trkpt>
      <trkpt lat="46.04191" lon="4.47744">
        <ele>498</ele>
        <time>2022-08-28T02:29:20Z</time>
      </trkpt>
      <trkpt lat="46.04213" lon="4.47765">
        <ele>500</ele>
        <time>2022-08-28T02:29:24Z</time>
      </trkpt>
      <trkpt lat="46.04231" lon="4.47802">
        <ele>503</ele>
        <time>2022-08-28T02:29:30Z</time>
      </trkpt>
      <trkpt lat="46.04257" lon="4.4785">
        <ele>506</ele>
        <time>2022-08-28T02:29:37Z</time>
      </trkpt>
      <trkpt lat="46.04266" lon="4.4786">
        <ele>506</ele>
        <time>2022-08-28T02:29:39Z</time>
      </trkpt>
      <trkpt lat="46.04347" lon="4.4786">
        <ele>509</ele>
        <time>2022-08-28T02:29:54Z</time>
      </trkpt>
      <trkpt lat="46.04385" lon="4.47856">
        <ele>508</ele>
        <time>2022-08-28T02:30:01Z</time>
      </trkpt>
      <trkpt lat="46.04403" lon="4.47851">
        <ele>509</ele>
        <time>2022-08-28T02:30:04Z</time>
      </trkpt>
      <trkpt lat="46.04426" lon="4.47835">
        <ele>510</ele>
        <time>2022-08-28T02:30:08Z</time>
      </trkpt>
      <trkpt lat="46.04433" lon="4.47826">
        <ele>510</ele>
        <time>2022-08-28T02:30:10Z</time>
      </trkpt>
      <trkpt lat="46.04445" lon="4.47804">
        <ele>511</ele>
        <time>2022-08-28T02:30:14Z</time>
      </trkpt>
      <trkpt lat="46.04455" lon="4.4777">
        <ele>513</ele>
        <time>2022-08-28T02:30:18Z</time>
      </trkpt>
      <trkpt lat="46.04474" lon="4.47676">
        <ele>521</ele>
        <time>2022-08-28T02:30:30Z</time>
      </trkpt>
      <trkpt lat="46.04481" lon="4.47616">
        <ele>526</ele>
        <time>2022-08-28T02:30:38Z</time>
      </trkpt>
      <trkpt lat="46.04501" lon="4.47486">
        <ele>529</ele>
        <time>2022-08-28T02:30:54Z</time>
      </trkpt>
      <trkpt lat="46.04507" lon="4.47459">
        <ele>531</ele>
        <time>2022-08-28T02:30:58Z</time>
      </trkpt>
      <trkpt lat="46.04517" lon="4.47436">
        <ele>532</ele>
        <time>2022-08-28T02:31:01Z</time>
      </trkpt>
      <trkpt lat="46.04524" lon="4.47427">
        <ele>532</ele>
        <time>2022-08-28T02:31:03Z</time>
      </trkpt>
      <trkpt lat="46.04542" lon="4.47413">
        <ele>532</ele>
        <time>2022-08-28T02:31:06Z</time>
      </trkpt>
      <trkpt lat="46.04565" lon="4.47406">
        <ele>530</ele>
        <time>2022-08-28T02:31:11Z</time>
      </trkpt>
      <trkpt lat="46.04598" lon="4.47402">
        <ele>526</ele>
        <time>2022-08-28T02:31:16Z</time>
      </trkpt>
      <trkpt lat="46.04621" lon="4.47392">
        <ele>525</ele>
        <time>2022-08-28T02:31:21Z</time>
      </trkpt>
      <trkpt lat="46.04639" lon="4.47374">
        <ele>527</ele>
        <time>2022-08-28T02:31:25Z</time>
      </trkpt>
      <trkpt lat="46.04652" lon="4.47355">
        <ele>529</ele>
        <time>2022-08-28T02:31:28Z</time>
      </trkpt>
      <trkpt lat="46.04679" lon="4.47306">
        <ele>532</ele>
        <time>2022-08-28T02:31:36Z</time>
      </trkpt>
      <trkpt lat="46.04686" lon="4.47288">
        <ele>532</ele>
        <time>2022-08-28T02:31:38Z</time>
      </trkpt>
      <trkpt lat="46.04691" lon="4.4727">
        <ele>533</ele>
        <time>2022-08-28T02:31:41Z</time>
      </trkpt>
      <trkpt lat="46.04694" lon="4.4724">
        <ele>535</ele>
        <time>2022-08-28T02:31:44Z</time>
      </trkpt>
      <trkpt lat="46.04687" lon="4.47167">
        <ele>536</ele>
        <time>2022-08-28T02:31:53Z</time>
      </trkpt>
      <trkpt lat="46.0469" lon="4.47144">
        <ele>539</ele>
        <time>2022-08-28T02:31:56Z</time>
      </trkpt>
      <trkpt lat="46.04698" lon="4.47126">
        <ele>540</ele>
        <time>2022-08-28T02:31:59Z</time>
      </trkpt>
      <trkpt lat="46.04714" lon="4.47112">
        <ele>539</ele>
        <time>2022-08-28T02:32:02Z</time>
      </trkpt>
      <trkpt lat="46.04746" lon="4.47102">
        <ele>536</ele>
        <time>2022-08-28T02:32:08Z</time>
      </trkpt>
      <trkpt lat="46.048" lon="4.47091">
        <ele>534</ele>
        <time>2022-08-28T02:32:18Z</time>
      </trkpt>
      <trkpt lat="46.04825" lon="4.47079">
        <ele>535</ele>
        <time>2022-08-28T02:32:22Z</time>
      </trkpt>
      <trkpt lat="46.04862" lon="4.47059">
        <ele>540</ele>
        <time>2022-08-28T02:32:30Z</time>
      </trkpt>
      <trkpt lat="46.04879" lon="4.47055">
        <ele>541</ele>
        <time>2022-08-28T02:32:33Z</time>
      </trkpt>
      <trkpt lat="46.04897" lon="4.4706">
        <ele>539</ele>
        <time>2022-08-28T02:32:36Z</time>
      </trkpt>
      <trkpt lat="46.04912" lon="4.47071">
        <ele>537</ele>
        <time>2022-08-28T02:32:39Z</time>
      </trkpt>
      <trkpt lat="46.04935" lon="4.47094">
        <ele>534</ele>
        <time>2022-08-28T02:32:44Z</time>
      </trkpt>
      <trkpt lat="46.04955" lon="4.4711">
        <ele>533</ele>
        <time>2022-08-28T02:32:48Z</time>
      </trkpt>
      <trkpt lat="46.04965" lon="4.47115">
        <ele>533</ele>
        <time>2022-08-28T02:32:50Z</time>
      </trkpt>
      <trkpt lat="46.05" lon="4.47124">
        <ele>536</ele>
        <time>2022-08-28T02:32:56Z</time>
      </trkpt>
      <trkpt lat="46.05008" lon="4.4713">
        <ele>537</ele>
        <time>2022-08-28T02:32:58Z</time>
      </trkpt>
      <trkpt lat="46.05019" lon="4.47145">
        <ele>537</ele>
        <time>2022-08-28T02:33:00Z</time>
      </trkpt>
      <trkpt lat="46.05027" lon="4.47166">
        <ele>537</ele>
        <time>2022-08-28T02:33:03Z</time>
      </trkpt>
      <trkpt lat="46.05035" lon="4.47193">
        <ele>538</ele>
        <time>2022-08-28T02:33:07Z</time>
      </trkpt>
      <trkpt lat="46.05039" lon="4.47212">
        <ele>538</ele>
        <time>2022-08-28T02:33:09Z</time>
      </trkpt>
      <trkpt lat="46.05046" lon="4.4727">
        <ele>538</ele>
        <time>2022-08-28T02:33:17Z</time>
      </trkpt>
      <trkpt lat="46.0505" lon="4.47326">
        <ele>538</ele>
        <time>2022-08-28T02:33:24Z</time>
      </trkpt>
      <trkpt lat="46.0505" lon="4.47344">
        <ele>538</ele>
        <time>2022-08-28T02:33:26Z</time>
      </trkpt>
      <trkpt lat="46.05045" lon="4.47419">
        <ele>535</ele>
        <time>2022-08-28T02:33:35Z</time>
      </trkpt>
      <trkpt lat="46.05045" lon="4.47452">
        <ele>536</ele>
        <time>2022-08-28T02:33:39Z</time>
      </trkpt>
      <trkpt lat="46.05063" lon="4.47626">
        <ele>537</ele>
        <time>2022-08-28T02:34:01Z</time>
      </trkpt>
      <trkpt lat="46.05066" lon="4.47643">
        <ele>537</ele>
        <time>2022-08-28T02:34:03Z</time>
      </trkpt>
      <trkpt lat="46.05076" lon="4.4767">
        <ele>538</ele>
        <time>2022-08-28T02:34:07Z</time>
      </trkpt>
      <trkpt lat="46.05087" lon="4.47689">
        <ele>537</ele>
        <time>2022-08-28T02:34:10Z</time>
      </trkpt>
      <trkpt lat="46.05107" lon="4.47711">
        <ele>537</ele>
        <time>2022-08-28T02:34:14Z</time>
      </trkpt>
      <trkpt lat="46.05138" lon="4.47734">
        <ele>537</ele>
        <time>2022-08-28T02:34:21Z</time>
      </trkpt>
      <trkpt lat="46.05159" lon="4.47743">
        <ele>539</ele>
        <time>2022-08-28T02:34:25Z</time>
      </trkpt>
      <trkpt lat="46.0517" lon="4.47744">
        <ele>539</ele>
        <time>2022-08-28T02:34:27Z</time>
      </trkpt>
      <trkpt lat="46.05181" lon="4.47739">
        <ele>538</ele>
        <time>2022-08-28T02:34:29Z</time>
      </trkpt>
      <trkpt lat="46.05187" lon="4.47732">
        <ele>537</ele>
        <time>2022-08-28T02:34:30Z</time>
      </trkpt>
      <trkpt lat="46.0529" lon="4.47575">
        <ele>532</ele>
        <time>2022-08-28T02:34:57Z</time>
      </trkpt>
      <trkpt lat="46.05301" lon="4.47553">
        <ele>530</ele>
        <time>2022-08-28T02:35:00Z</time>
      </trkpt>
      <trkpt lat="46.05311" lon="4.47522">
        <ele>529</ele>
        <time>2022-08-28T02:35:04Z</time>
      </trkpt>
      <trkpt lat="46.05327" lon="4.47446">
        <ele>528</ele>
        <time>2022-08-28T02:35:14Z</time>
      </trkpt>
      <trkpt lat="46.05335" lon="4.47422">
        <ele>527</ele>
        <time>2022-08-28T02:35:17Z</time>
      </trkpt>
      <trkpt lat="46.05342" lon="4.47413">
        <ele>527</ele>
        <time>2022-08-28T02:35:19Z</time>
      </trkpt>
      <trkpt lat="46.05412" lon="4.47334">
        <ele>530</ele>
        <time>2022-08-28T02:35:35Z</time>
      </trkpt>
      <trkpt lat="46.05421" lon="4.47328">
        <ele>531</ele>
        <time>2022-08-28T02:35:37Z</time>
      </trkpt>
      <trkpt lat="46.05428" lon="4.47328">
        <ele>532</ele>
        <time>2022-08-28T02:35:38Z</time>
      </trkpt>
      <trkpt lat="46.05438" lon="4.47335">
        <ele>533</ele>
        <time>2022-08-28T02:35:40Z</time>
      </trkpt>
      <trkpt lat="46.05454" lon="4.47369">
        <ele>528</ele>
        <time>2022-08-28T02:35:45Z</time>
      </trkpt>
      <trkpt lat="46.05464" lon="4.47382">
        <ele>526</ele>
        <time>2022-08-28T02:35:47Z</time>
      </trkpt>
      <trkpt lat="46.05475" lon="4.47391">
        <ele>525</ele>
        <time>2022-08-28T02:35:49Z</time>
      </trkpt>
      <trkpt lat="46.05498" lon="4.47397">
        <ele>527</ele>
        <time>2022-08-28T02:35:54Z</time>
      </trkpt>
      <trkpt lat="46.05561" lon="4.47406">
        <ele>523</ele>
        <time>2022-08-28T02:36:05Z</time>
      </trkpt>
      <trkpt lat="46.05599" lon="4.47407">
        <ele>519</ele>
        <time>2022-08-28T02:36:12Z</time>
      </trkpt>
      <trkpt lat="46.05619" lon="4.474">
        <ele>516</ele>
        <time>2022-08-28T02:36:15Z</time>
      </trkpt>
      <trkpt lat="46.05635" lon="4.47387">
        <ele>516</ele>
        <time>2022-08-28T02:36:19Z</time>
      </trkpt>
      <trkpt lat="46.05649" lon="4.47368">
        <ele>517</ele>
        <time>2022-08-28T02:36:22Z</time>
      </trkpt>
      <trkpt lat="46.05673" lon="4.47322">
        <ele>521</ele>
        <time>2022-08-28T02:36:29Z</time>
      </trkpt>
      <trkpt lat="46.05717" lon="4.47218">
        <ele>523</ele>
        <time>2022-08-28T02:36:44Z</time>
      </trkpt>
      <trkpt lat="46.05746" lon="4.47155">
        <ele>523</ele>
        <time>2022-08-28T02:36:53Z</time>
      </trkpt>
      <trkpt lat="46.05778" lon="4.47112">
        <ele>520</ele>
        <time>2022-08-28T02:37:01Z</time>
      </trkpt>
      <trkpt lat="46.05788" lon="4.47096">
        <ele>519</ele>
        <time>2022-08-28T02:37:04Z</time>
      </trkpt>
      <trkpt lat="46.05805" lon="4.47051">
        <ele>519</ele>
        <time>2022-08-28T02:37:10Z</time>
      </trkpt>
      <trkpt lat="46.05849" lon="4.46896">
        <ele>531</ele>
        <time>2022-08-28T02:37:31Z</time>
      </trkpt>
      <trkpt lat="46.05857" lon="4.46879">
        <ele>533</ele>
        <time>2022-08-28T02:37:33Z</time>
      </trkpt>
      <trkpt lat="46.05862" lon="4.46873">
        <ele>533</ele>
        <time>2022-08-28T02:37:35Z</time>
      </trkpt>
      <trkpt lat="46.05869" lon="4.4687">
        <ele>534</ele>
        <time>2022-08-28T02:37:36Z</time>
      </trkpt>
      <trkpt lat="46.05881" lon="4.46873">
        <ele>534</ele>
        <time>2022-08-28T02:37:38Z</time>
      </trkpt>
      <trkpt lat="46.05891" lon="4.4688">
        <ele>534</ele>
        <time>2022-08-28T02:37:40Z</time>
      </trkpt>
      <trkpt lat="46.05896" lon="4.46891">
        <ele>534</ele>
        <time>2022-08-28T02:37:42Z</time>
      </trkpt>
      <trkpt lat="46.05899" lon="4.46903">
        <ele>534</ele>
        <time>2022-08-28T02:37:43Z</time>
      </trkpt>
      <trkpt lat="46.05899" lon="4.4699">
        <ele>528</ele>
        <time>2022-08-28T02:37:54Z</time>
      </trkpt>
      <trkpt lat="46.059" lon="4.47005">
        <ele>527</ele>
        <time>2022-08-28T02:37:56Z</time>
      </trkpt>
      <trkpt lat="46.05907" lon="4.4704">
        <ele>524</ele>
        <time>2022-08-28T02:38:00Z</time>
      </trkpt>
      <trkpt lat="46.0592" lon="4.47065">
        <ele>523</ele>
        <time>2022-08-28T02:38:04Z</time>
      </trkpt>
      <trkpt lat="46.05958" lon="4.47122">
        <ele>526</ele>
        <time>2022-08-28T02:38:14Z</time>
      </trkpt>
      <trkpt lat="46.05969" lon="4.47137">
        <ele>526</ele>
        <time>2022-08-28T02:38:17Z</time>
      </trkpt>
      <trkpt lat="46.05978" lon="4.47146">
        <ele>527</ele>
        <time>2022-08-28T02:38:19Z</time>
      </trkpt>
      <trkpt lat="46.05989" lon="4.47152">
        <ele>529</ele>
        <time>2022-08-28T02:38:21Z</time>
      </trkpt>
      <trkpt lat="46.06001" lon="4.47155">
        <ele>531</ele>
        <time>2022-08-28T02:38:23Z</time>
      </trkpt>
      <trkpt lat="46.0601" lon="4.47156">
        <ele>530</ele>
        <time>2022-08-28T02:38:25Z</time>
      </trkpt>
      <trkpt lat="46.06028" lon="4.47152">
        <ele>531</ele>
        <time>2022-08-28T02:38:28Z</time>
      </trkpt>
      <trkpt lat="46.06046" lon="4.47139">
        <ele>534</ele>
        <time>2022-08-28T02:38:31Z</time>
      </trkpt>
      <trkpt lat="46.06092" lon="4.47096">
        <ele>544</ele>
        <time>2022-08-28T02:38:41Z</time>
      </trkpt>
      <trkpt lat="46.06127" lon="4.47078">
        <ele>543</ele>
        <time>2022-08-28T02:38:48Z</time>
      </trkpt>
      <trkpt lat="46.06178" lon="4.4707">
        <ele>539</ele>
        <time>2022-08-28T02:38:57Z</time>
      </trkpt>
      <trkpt lat="46.06188" lon="4.47072">
        <ele>540</ele>
        <time>2022-08-28T02:38:59Z</time>
      </trkpt>
      <trkpt lat="46.06197" lon="4.47075">
        <ele>540</ele>
        <time>2022-08-28T02:39:00Z</time>
      </trkpt>
      <trkpt lat="46.0621" lon="4.47089">
        <ele>539</ele>
        <time>2022-08-28T02:39:03Z</time>
      </trkpt>
      <trkpt lat="46.06216" lon="4.47103">
        <ele>539</ele>
        <time>2022-08-28T02:39:05Z</time>
      </trkpt>
      <trkpt lat="46.06219" lon="4.47119">
        <ele>539</ele>
        <time>2022-08-28T02:39:07Z</time>
      </trkpt>
      <trkpt lat="46.06222" lon="4.47181">
        <ele>540</ele>
        <time>2022-08-28T02:39:15Z</time>
      </trkpt>
      <trkpt lat="46.06222" lon="4.47208">
        <ele>541</ele>
        <time>2022-08-28T02:39:18Z</time>
      </trkpt>
      <trkpt lat="46.06217" lon="4.47241">
        <ele>541</ele>
        <time>2022-08-28T02:39:22Z</time>
      </trkpt>
      <trkpt lat="46.06166" lon="4.4749">
        <ele>551</ele>
        <time>2022-08-28T02:39:54Z</time>
      </trkpt>
      <trkpt lat="46.06151" lon="4.47548">
        <ele>552</ele>
        <time>2022-08-28T02:40:02Z</time>
      </trkpt>
      <trkpt lat="46.06139" lon="4.47579">
        <ele>551</ele>
        <time>2022-08-28T02:40:06Z</time>
      </trkpt>
      <trkpt lat="46.06109" lon="4.47642">
        <ele>549</ele>
        <time>2022-08-28T02:40:16Z</time>
      </trkpt>
      <trkpt lat="46.06102" lon="4.47666">
        <ele>549</ele>
        <time>2022-08-28T02:40:19Z</time>
      </trkpt>
      <trkpt lat="46.06103" lon="4.47688">
        <ele>549</ele>
        <time>2022-08-28T02:40:22Z</time>
      </trkpt>
      <trkpt lat="46.06109" lon="4.47706">
        <ele>549</ele>
        <time>2022-08-28T02:40:24Z</time>
      </trkpt>
      <trkpt lat="46.06149" lon="4.47782">
        <ele>555</ele>
        <time>2022-08-28T02:40:36Z</time>
      </trkpt>
      <trkpt lat="46.06162" lon="4.47803">
        <ele>556</ele>
        <time>2022-08-28T02:40:40Z</time>
      </trkpt>
      <trkpt lat="46.06182" lon="4.4782">
        <ele>557</ele>
        <time>2022-08-28T02:40:44Z</time>
      </trkpt>
      <trkpt lat="46.062" lon="4.4783">
        <ele>558</ele>
        <time>2022-08-28T02:40:47Z</time>
      </trkpt>
      <trkpt lat="46.06219" lon="4.47836">
        <ele>558</ele>
        <time>2022-08-28T02:40:51Z</time>
      </trkpt>
      <trkpt lat="46.06261" lon="4.47838">
        <ele>560</ele>
        <time>2022-08-28T02:40:58Z</time>
      </trkpt>
      <trkpt lat="46.06359" lon="4.47833">
        <ele>563</ele>
        <time>2022-08-28T02:41:16Z</time>
      </trkpt>
      <trkpt lat="46.06379" lon="4.47835">
        <ele>564</ele>
        <time>2022-08-28T02:41:19Z</time>
      </trkpt>
      <trkpt lat="46.06396" lon="4.47842">
        <ele>564</ele>
        <time>2022-08-28T02:41:22Z</time>
      </trkpt>
      <trkpt lat="46.06414" lon="4.47853">
        <ele>563</ele>
        <time>2022-08-28T02:41:26Z</time>
      </trkpt>
      <trkpt lat="46.06471" lon="4.47908">
        <ele>561</ele>
        <time>2022-08-28T02:41:38Z</time>
      </trkpt>
      <trkpt lat="46.06487" lon="4.47913">
        <ele>561</ele>
        <time>2022-08-28T02:41:41Z</time>
      </trkpt>
      <trkpt lat="46.06501" lon="4.47912">
        <ele>563</ele>
        <time>2022-08-28T02:41:43Z</time>
      </trkpt>
      <trkpt lat="46.0652" lon="4.47906">
        <ele>563</ele>
        <time>2022-08-28T02:41:47Z</time>
      </trkpt>
      <trkpt lat="46.06579" lon="4.47878">
        <ele>567</ele>
        <time>2022-08-28T02:41:58Z</time>
      </trkpt>
      <trkpt lat="46.06597" lon="4.47867">
        <ele>567</ele>
        <time>2022-08-28T02:42:01Z</time>
      </trkpt>
      <trkpt lat="46.06611" lon="4.47852">
        <ele>568</ele>
        <time>2022-08-28T02:42:04Z</time>
      </trkpt>
      <trkpt lat="46.06634" lon="4.4781">
        <ele>573</ele>
        <time>2022-08-28T02:42:11Z</time>
      </trkpt>
      <trkpt lat="46.06649" lon="4.47787">
        <ele>576</ele>
        <time>2022-08-28T02:42:15Z</time>
      </trkpt>
      <trkpt lat="46.06666" lon="4.47771">
        <ele>577</ele>
        <time>2022-08-28T02:42:19Z</time>
      </trkpt>
      <trkpt lat="46.06684" lon="4.47758">
        <ele>578</ele>
        <time>2022-08-28T02:42:22Z</time>
      </trkpt>
      <trkpt lat="46.067" lon="4.4775">
        <ele>577</ele>
        <time>2022-08-28T02:42:25Z</time>
      </trkpt>
      <trkpt lat="46.06724" lon="4.47745">
        <ele>576</ele>
        <time>2022-08-28T02:42:29Z</time>
      </trkpt>
      <trkpt lat="46.06761" lon="4.47742">
        <ele>574</ele>
        <time>2022-08-28T02:42:36Z</time>
      </trkpt>
      <trkpt lat="46.06788" lon="4.47746">
        <ele>573</ele>
        <time>2022-08-28T02:42:41Z</time>
      </trkpt>
      <trkpt lat="46.0684" lon="4.47759">
        <ele>571</ele>
        <time>2022-08-28T02:42:50Z</time>
      </trkpt>
      <trkpt lat="46.06859" lon="4.47767">
        <ele>572</ele>
        <time>2022-08-28T02:42:54Z</time>
      </trkpt>
      <trkpt lat="46.06935" lon="4.47819">
        <ele>568</ele>
        <time>2022-08-28T02:43:09Z</time>
      </trkpt>
      <trkpt lat="46.06948" lon="4.47822">
        <ele>568</ele>
        <time>2022-08-28T02:43:11Z</time>
      </trkpt>
      <trkpt lat="46.06968" lon="4.47819">
        <ele>568</ele>
        <time>2022-08-28T02:43:15Z</time>
      </trkpt>
      <trkpt lat="46.06985" lon="4.47807">
        <ele>570</ele>
        <time>2022-08-28T02:43:18Z</time>
      </trkpt>
      <trkpt lat="46.07024" lon="4.47761">
        <ele>572</ele>
        <time>2022-08-28T02:43:27Z</time>
      </trkpt>
      <trkpt lat="46.07045" lon="4.47726">
        <ele>571</ele>
        <time>2022-08-28T02:43:33Z</time>
      </trkpt>
      <trkpt lat="46.07068" lon="4.47684">
        <ele>571</ele>
        <time>2022-08-28T02:43:39Z</time>
      </trkpt>
      <trkpt lat="46.07083" lon="4.47661">
        <ele>570</ele>
        <time>2022-08-28T02:43:43Z</time>
      </trkpt>
      <trkpt lat="46.07096" lon="4.47646">
        <ele>570</ele>
        <time>2022-08-28T02:43:46Z</time>
      </trkpt>
      <trkpt lat="46.07117" lon="4.47634">
        <ele>568</ele>
        <time>2022-08-28T02:43:50Z</time>
      </trkpt>
      <trkpt lat="46.07134" lon="4.47629">
        <ele>566</ele>
        <time>2022-08-28T02:43:53Z</time>
      </trkpt>
      <trkpt lat="46.07153" lon="4.4763">
        <ele>563</ele>
        <time>2022-08-28T02:43:57Z</time>
      </trkpt>
      <trkpt lat="46.07177" lon="4.47637">
        <ele>560</ele>
        <time>2022-08-28T02:44:01Z</time>
      </trkpt>
      <trkpt lat="46.0722" lon="4.47658">
        <ele>559</ele>
        <time>2022-08-28T02:44:09Z</time>
      </trkpt>
      <trkpt lat="46.07313" lon="4.47697">
        <ele>558</ele>
        <time>2022-08-28T02:44:26Z</time>
      </trkpt>
      <trkpt lat="46.07339" lon="4.47701">
        <ele>559</ele>
        <time>2022-08-28T02:44:31Z</time>
      </trkpt>
      <trkpt lat="46.07364" lon="4.47701">
        <ele>560</ele>
        <time>2022-08-28T02:44:35Z</time>
      </trkpt>
      <trkpt lat="46.074" lon="4.47693">
        <ele>561</ele>
        <time>2022-08-28T02:44:42Z</time>
      </trkpt>
      <trkpt lat="46.07417" lon="4.47681">
        <ele>562</ele>
        <time>2022-08-28T02:44:45Z</time>
      </trkpt>
      <trkpt lat="46.07429" lon="4.47669">
        <ele>562</ele>
        <time>2022-08-28T02:44:48Z</time>
      </trkpt>
      <trkpt lat="46.07438" lon="4.47656">
        <ele>561</ele>
        <time>2022-08-28T02:44:50Z</time>
      </trkpt>
      <trkpt lat="46.07449" lon="4.47633">
        <ele>560</ele>
        <time>2022-08-28T02:44:54Z</time>
      </trkpt>
      <trkpt lat="46.07478" lon="4.47538">
        <ele>561</ele>
        <time>2022-08-28T02:45:06Z</time>
      </trkpt>
      <trkpt lat="46.07495" lon="4.47499">
        <ele>563</ele>
        <time>2022-08-28T02:45:12Z</time>
      </trkpt>
      <trkpt lat="46.07556" lon="4.47409">
        <ele>566</ele>
        <time>2022-08-28T02:45:28Z</time>
      </trkpt>
      <trkpt lat="46.07611" lon="4.47337">
        <ele>574</ele>
        <time>2022-08-28T02:45:41Z</time>
      </trkpt>
      <trkpt lat="46.07623" lon="4.47329">
        <ele>575</ele>
        <time>2022-08-28T02:45:43Z</time>
      </trkpt>
      <trkpt lat="46.07637" lon="4.47331">
        <ele>572</ele>
        <time>2022-08-28T02:45:46Z</time>
      </trkpt>
      <trkpt lat="46.07689" lon="4.47356">
        <ele>563</ele>
        <time>2022-08-28T02:45:55Z</time>
      </trkpt>
      <trkpt lat="46.07702" lon="4.47358">
        <ele>562</ele>
        <time>2022-08-28T02:45:58Z</time>
      </trkpt>
      <trkpt lat="46.07717" lon="4.47356">
        <ele>563</ele>
        <time>2022-08-28T02:46:00Z</time>
      </trkpt>
      <trkpt lat="46.07732" lon="4.47349">
        <ele>564</ele>
        <time>2022-08-28T02:46:03Z</time>
      </trkpt>
      <trkpt lat="46.07746" lon="4.47339">
        <ele>566</ele>
        <time>2022-08-28T02:46:06Z</time>
      </trkpt>
      <trkpt lat="46.07756" lon="4.47323">
        <ele>567</ele>
        <time>2022-08-28T02:46:09Z</time>
      </trkpt>
      <trkpt lat="46.0777" lon="4.47287">
        <ele>567</ele>
        <time>2022-08-28T02:46:14Z</time>
      </trkpt>
      <trkpt lat="46.07788" lon="4.4721">
        <ele>568</ele>
        <time>2022-08-28T02:46:24Z</time>
      </trkpt>
      <trkpt lat="46.07793" lon="4.47168">
        <ele>570</ele>
        <time>2022-08-28T02:46:29Z</time>
      </trkpt>
      <trkpt lat="46.07792" lon="4.47128">
        <ele>572</ele>
        <time>2022-08-28T02:46:34Z</time>
      </trkpt>
      <trkpt lat="46.07778" lon="4.46954">
        <ele>573</ele>
        <time>2022-08-28T02:46:56Z</time>
      </trkpt>
      <trkpt lat="46.07776" lon="4.46906">
        <ele>572</ele>
        <time>2022-08-28T02:47:02Z</time>
      </trkpt>
      <trkpt lat="46.07778" lon="4.46869">
        <ele>571</ele>
        <time>2022-08-28T02:47:06Z</time>
      </trkpt>
      <trkpt lat="46.07798" lon="4.46719">
        <ele>567</ele>
        <time>2022-08-28T02:47:25Z</time>
      </trkpt>
      <trkpt lat="46.07801" lon="4.46683">
        <ele>567</ele>
        <time>2022-08-28T02:47:29Z</time>
      </trkpt>
      <trkpt lat="46.07797" lon="4.46602">
        <ele>573</ele>
        <time>2022-08-28T02:47:40Z</time>
      </trkpt>
      <trkpt lat="46.078" lon="4.46587">
        <ele>574</ele>
        <time>2022-08-28T02:47:41Z</time>
      </trkpt>
      <trkpt lat="46.07805" lon="4.46577">
        <ele>575</ele>
        <time>2022-08-28T02:47:43Z</time>
      </trkpt>
      <trkpt lat="46.07814" lon="4.4657">
        <ele>575</ele>
        <time>2022-08-28T02:47:45Z</time>
      </trkpt>
      <trkpt lat="46.07824" lon="4.4657">
        <ele>574</ele>
        <time>2022-08-28T02:47:47Z</time>
      </trkpt>
      <trkpt lat="46.07837" lon="4.46576">
        <ele>572</ele>
        <time>2022-08-28T02:47:49Z</time>
      </trkpt>
      <trkpt lat="46.07849" lon="4.46587">
        <ele>572</ele>
        <time>2022-08-28T02:47:52Z</time>
      </trkpt>
      <trkpt lat="46.07923" lon="4.46678">
        <ele>561</ele>
        <time>2022-08-28T02:48:09Z</time>
      </trkpt>
      <trkpt lat="46.07942" lon="4.46698">
        <ele>559</ele>
        <time>2022-08-28T02:48:13Z</time>
      </trkpt>
      <trkpt lat="46.0797" lon="4.46722">
        <ele>558</ele>
        <time>2022-08-28T02:48:19Z</time>
      </trkpt>
      <trkpt lat="46.08" lon="4.46743">
        <ele>557</ele>
        <time>2022-08-28T02:48:25Z</time>
      </trkpt>
      <trkpt lat="46.0803" lon="4.46758">
        <ele>559</ele>
        <time>2022-08-28T02:48:30Z</time>
      </trkpt>
      <trkpt lat="46.08042" lon="4.4677">
        <ele>560</ele>
        <time>2022-08-28T02:48:33Z</time>
      </trkpt>
      <trkpt lat="46.0805" lon="4.46784">
        <ele>559</ele>
        <time>2022-08-28T02:48:35Z</time>
      </trkpt>
      <trkpt lat="46.08056" lon="4.46802">
        <ele>558</ele>
        <time>2022-08-28T02:48:38Z</time>
      </trkpt>
      <trkpt lat="46.0806" lon="4.46829">
        <ele>556</ele>
        <time>2022-08-28T02:48:41Z</time>
      </trkpt>
      <trkpt lat="46.08065" lon="4.46917">
        <ele>553</ele>
        <time>2022-08-28T02:48:52Z</time>
      </trkpt>
      <trkpt lat="46.08063" lon="4.46967">
        <ele>550</ele>
        <time>2022-08-28T02:48:58Z</time>
      </trkpt>
      <trkpt lat="46.08055" lon="4.47036">
        <ele>545</ele>
        <time>2022-08-28T02:49:07Z</time>
      </trkpt>
      <trkpt lat="46.08055" lon="4.47079">
        <ele>543</ele>
        <time>2022-08-28T02:49:12Z</time>
      </trkpt>
      <trkpt lat="46.08059" lon="4.4711">
        <ele>541</ele>
        <time>2022-08-28T02:49:16Z</time>
      </trkpt>
      <trkpt lat="46.08069" lon="4.47142">
        <ele>540</ele>
        <time>2022-08-28T02:49:20Z</time>
      </trkpt>
      <trkpt lat="46.08079" lon="4.47158">
        <ele>541</ele>
        <time>2022-08-28T02:49:23Z</time>
      </trkpt>
      <trkpt lat="46.08093" lon="4.47175">
        <ele>542</ele>
        <time>2022-08-28T02:49:26Z</time>
      </trkpt>
      <trkpt lat="46.08147" lon="4.47216">
        <ele>544</ele>
        <time>2022-08-28T02:49:37Z</time>
      </trkpt>
      <trkpt lat="46.0816" lon="4.4723">
        <ele>543</ele>
        <time>2022-08-28T02:49:40Z</time>
      </trkpt>
      <trkpt lat="46.08169" lon="4.47246">
        <ele>540</ele>
        <time>2022-08-28T02:49:43Z</time>
      </trkpt>
      <trkpt lat="46.08177" lon="4.47266">
        <ele>536</ele>
        <time>2022-08-28T02:49:45Z</time>
      </trkpt>
      <trkpt lat="46.08187" lon="4.47298">
        <ele>531</ele>
        <time>2022-08-28T02:49:50Z</time>
      </trkpt>
      <trkpt lat="46.08201" lon="4.47316">
        <ele>527</ele>
        <time>2022-08-28T02:49:53Z</time>
      </trkpt>
      <trkpt lat="46.08212" lon="4.47322">
        <ele>526</ele>
        <time>2022-08-28T02:49:55Z</time>
      </trkpt>
      <trkpt lat="46.08227" lon="4.47326">
        <ele>526</ele>
        <time>2022-08-28T02:49:58Z</time>
      </trkpt>
      <trkpt lat="46.08239" lon="4.47323">
        <ele>526</ele>
        <time>2022-08-28T02:50:00Z</time>
      </trkpt>
      <trkpt lat="46.0826" lon="4.47312">
        <ele>527</ele>
        <time>2022-08-28T02:50:04Z</time>
      </trkpt>
      <trkpt lat="46.08276" lon="4.47299">
        <ele>526</ele>
        <time>2022-08-28T02:50:07Z</time>
      </trkpt>
      <trkpt lat="46.08317" lon="4.47245">
        <ele>527</ele>
        <time>2022-08-28T02:50:17Z</time>
      </trkpt>
      <trkpt lat="46.08329" lon="4.47233">
        <ele>529</ele>
        <time>2022-08-28T02:50:20Z</time>
      </trkpt>
      <trkpt lat="46.08342" lon="4.47225">
        <ele>530</ele>
        <time>2022-08-28T02:50:22Z</time>
      </trkpt>
      <trkpt lat="46.0836" lon="4.47218">
        <ele>530</ele>
        <time>2022-08-28T02:50:26Z</time>
      </trkpt>
      <trkpt lat="46.08385" lon="4.47216">
        <ele>526</ele>
        <time>2022-08-28T02:50:30Z</time>
      </trkpt>
      <trkpt lat="46.08419" lon="4.47217">
        <ele>520</ele>
        <time>2022-08-28T02:50:36Z</time>
      </trkpt>
      <trkpt lat="46.08444" lon="4.47222">
        <ele>516</ele>
        <time>2022-08-28T02:50:41Z</time>
      </trkpt>
      <trkpt lat="46.08455" lon="4.47223">
        <ele>514</ele>
        <time>2022-08-28T02:50:43Z</time>
      </trkpt>
      <trkpt lat="46.08471" lon="4.47221">
        <ele>513</ele>
        <time>2022-08-28T02:50:45Z</time>
      </trkpt>
      <trkpt lat="46.0849" lon="4.47211">
        <ele>514</ele>
        <time>2022-08-28T02:50:49Z</time>
      </trkpt>
      <trkpt lat="46.08505" lon="4.47193">
        <ele>515</ele>
        <time>2022-08-28T02:50:52Z</time>
      </trkpt>
      <trkpt lat="46.0852" lon="4.47166">
        <ele>515</ele>
        <time>2022-08-28T02:50:57Z</time>
      </trkpt>
      <trkpt lat="46.08551" lon="4.47075">
        <ele>517</ele>
        <time>2022-08-28T02:51:09Z</time>
      </trkpt>
      <trkpt lat="46.08565" lon="4.47028">
        <ele>516</ele>
        <time>2022-08-28T02:51:16Z</time>
      </trkpt>
      <trkpt lat="46.08591" lon="4.46906">
        <ele>508</ele>
        <time>2022-08-28T02:51:31Z</time>
      </trkpt>
      <trkpt lat="46.08596" lon="4.4686">
        <ele>505</ele>
        <time>2022-08-28T02:51:37Z</time>
      </trkpt>
      <trkpt lat="46.08597" lon="4.46825">
        <ele>504</ele>
        <time>2022-08-28T02:51:41Z</time>
      </trkpt>
      <trkpt lat="46.08594" lon="4.4679">
        <ele>502</ele>
        <time>2022-08-28T02:51:46Z</time>
      </trkpt>
      <trkpt lat="46.08587" lon="4.46758">
        <ele>501</ele>
        <time>2022-08-28T02:51:50Z</time>
      </trkpt>
      <trkpt lat="46.08575" lon="4.46734">
        <ele>502</ele>
        <time>2022-08-28T02:51:54Z</time>
      </trkpt>
      <trkpt lat="46.0856" lon="4.46711">
        <ele>503</ele>
        <time>2022-08-28T02:51:57Z</time>
      </trkpt>
      <trkpt lat="46.08536" lon="4.46679">
        <ele>507</ele>
        <time>2022-08-28T02:52:03Z</time>
      </trkpt>
      <trkpt lat="46.08519" lon="4.4665">
        <ele>508</ele>
        <time>2022-08-28T02:52:08Z</time>
      </trkpt>
      <trkpt lat="46.08519" lon="4.46633">
        <ele>507</ele>
        <time>2022-08-28T02:52:10Z</time>
      </trkpt>
      <trkpt lat="46.08531" lon="4.46648">
        <ele>505</ele>
        <time>2022-08-28T02:52:13Z</time>
      </trkpt>
      <trkpt lat="46.08549" lon="4.46674">
        <ele>502</ele>
        <time>2022-08-28T02:52:17Z</time>
      </trkpt>
      <trkpt lat="46.08597" lon="4.46721">
        <ele>496</ele>
        <time>2022-08-28T02:52:28Z</time>
      </trkpt>
      <trkpt lat="46.08608" lon="4.46737">
        <ele>496</ele>
        <time>2022-08-28T02:52:31Z</time>
      </trkpt>
      <trkpt lat="46.08617" lon="4.46755">
        <ele>496</ele>
        <time>2022-08-28T02:52:33Z</time>
      </trkpt>
      <trkpt lat="46.08629" lon="4.46788">
        <ele>494</ele>
        <time>2022-08-28T02:52:38Z</time>
      </trkpt>
      <trkpt lat="46.08637" lon="4.4682">
        <ele>493</ele>
        <time>2022-08-28T02:52:42Z</time>
      </trkpt>
      <trkpt lat="46.08644" lon="4.46873">
        <ele>489</ele>
        <time>2022-08-28T02:52:49Z</time>
      </trkpt>
      <trkpt lat="46.08645" lon="4.4692">
        <ele>487</ele>
        <time>2022-08-28T02:52:54Z</time>
      </trkpt>
      <trkpt lat="46.0864" lon="4.47019">
        <ele>484</ele>
        <time>2022-08-28T02:53:07Z</time>
      </trkpt>
      <trkpt lat="46.08628" lon="4.47104">
        <ele>482</ele>
        <time>2022-08-28T02:53:17Z</time>
      </trkpt>
      <trkpt lat="46.08596" lon="4.4725">
        <ele>475</ele>
        <time>2022-08-28T02:53:36Z</time>
      </trkpt>
      <trkpt lat="46.08586" lon="4.47285">
        <ele>471</ele>
        <time>2022-08-28T02:53:41Z</time>
      </trkpt>
      <trkpt lat="46.0856" lon="4.4734">
        <ele>467</ele>
        <time>2022-08-28T02:53:49Z</time>
      </trkpt>
      <trkpt lat="46.08515" lon="4.47421">
        <ele>458</ele>
        <time>2022-08-28T02:54:02Z</time>
      </trkpt>
      <trkpt lat="46.08504" lon="4.47454">
        <ele>457</ele>
        <time>2022-08-28T02:54:07Z</time>
      </trkpt>
      <trkpt lat="46.08501" lon="4.47489">
        <ele>454</ele>
        <time>2022-08-28T02:54:11Z</time>
      </trkpt>
      <trkpt lat="46.08502" lon="4.47529">
        <ele>452</ele>
        <time>2022-08-28T02:54:16Z</time>
      </trkpt>
      <trkpt lat="46.08523" lon="4.47703">
        <ele>448</ele>
        <time>2022-08-28T02:54:38Z</time>
      </trkpt>
      <trkpt lat="46.08526" lon="4.47741">
        <ele>447</ele>
        <time>2022-08-28T02:54:42Z</time>
      </trkpt>
      <trkpt lat="46.08525" lon="4.47776">
        <ele>446</ele>
        <time>2022-08-28T02:54:47Z</time>
      </trkpt>
      <trkpt lat="46.08513" lon="4.47864">
        <ele>442</ele>
        <time>2022-08-28T02:54:58Z</time>
      </trkpt>
      <trkpt lat="46.08512" lon="4.47887">
        <ele>439</ele>
        <time>2022-08-28T02:55:01Z</time>
      </trkpt>
      <trkpt lat="46.08515" lon="4.47935">
        <ele>434</ele>
        <time>2022-08-28T02:55:07Z</time>
      </trkpt>
      <trkpt lat="46.08515" lon="4.4798">
        <ele>430</ele>
        <time>2022-08-28T02:55:12Z</time>
      </trkpt>
      <trkpt lat="46.08511" lon="4.48046">
        <ele>426</ele>
        <time>2022-08-28T02:55:20Z</time>
      </trkpt>
      <trkpt lat="46.08502" lon="4.48124">
        <ele>422</ele>
        <time>2022-08-28T02:55:30Z</time>
      </trkpt>
      <trkpt lat="46.08498" lon="4.48138">
        <ele>421</ele>
        <time>2022-08-28T02:55:32Z</time>
      </trkpt>
      <trkpt lat="46.08487" lon="4.48161">
        <ele>419</ele>
        <time>2022-08-28T02:55:35Z</time>
      </trkpt>
      <trkpt lat="46.08474" lon="4.48178">
        <ele>419</ele>
        <time>2022-08-28T02:55:38Z</time>
      </trkpt>
      <trkpt lat="46.08466" lon="4.48185">
        <ele>419</ele>
        <time>2022-08-28T02:55:40Z</time>
      </trkpt>
      <trkpt lat="46.08447" lon="4.48196">
        <ele>419</ele>
        <time>2022-08-28T02:55:44Z</time>
      </trkpt>
      <trkpt lat="46.08342" lon="4.48225">
        <ele>416</ele>
        <time>2022-08-28T02:56:03Z</time>
      </trkpt>
      <trkpt lat="46.08325" lon="4.48234">
        <ele>414</ele>
        <time>2022-08-28T02:56:06Z</time>
      </trkpt>
      <trkpt lat="46.08312" lon="4.48251">
        <ele>412</ele>
        <time>2022-08-28T02:56:09Z</time>
      </trkpt>
      <trkpt lat="46.08302" lon="4.48266">
        <ele>411</ele>
        <time>2022-08-28T02:56:12Z</time>
      </trkpt>
      <trkpt lat="46.08258" lon="4.4828">
        <ele>409</ele>
        <time>2022-08-28T02:56:20Z</time>
      </trkpt>
      <trkpt lat="46.08226" lon="4.48285">
        <ele>409</ele>
        <time>2022-08-28T02:56:25Z</time>
      </trkpt>
      <trkpt lat="46.08174" lon="4.48287">
        <ele>410</ele>
        <time>2022-08-28T02:56:35Z</time>
      </trkpt>
      <trkpt lat="46.08137" lon="4.48292">
        <ele>412</ele>
        <time>2022-08-28T02:56:41Z</time>
      </trkpt>
      <trkpt lat="46.08097" lon="4.48303">
        <ele>412</ele>
        <time>2022-08-28T02:56:49Z</time>
      </trkpt>
      <trkpt lat="46.08063" lon="4.48321">
        <ele>411</ele>
        <time>2022-08-28T02:56:55Z</time>
      </trkpt>
      <trkpt lat="46.0803" lon="4.48344">
        <ele>411</ele>
        <time>2022-08-28T02:57:02Z</time>
      </trkpt>
      <trkpt lat="46.08006" lon="4.48366">
        <ele>411</ele>
        <time>2022-08-28T02:57:07Z</time>
      </trkpt>
      <trkpt lat="46.07973" lon="4.48407">
        <ele>412</ele>
        <time>2022-08-28T02:57:14Z</time>
      </trkpt>
      <trkpt lat="46.07955" lon="4.48437">
        <ele>414</ele>
        <time>2022-08-28T02:57:19Z</time>
      </trkpt>
      <trkpt lat="46.07929" lon="4.48493">
        <ele>412</ele>
        <time>2022-08-28T02:57:28Z</time>
      </trkpt>
      <trkpt lat="46.07914" lon="4.48534">
        <ele>411</ele>
        <time>2022-08-28T02:57:33Z</time>
      </trkpt>
      <trkpt lat="46.07904" lon="4.48558">
        <ele>411</ele>
        <time>2022-08-28T02:57:37Z</time>
      </trkpt>
      <trkpt lat="46.07887" lon="4.48588">
        <ele>411</ele>
        <time>2022-08-28T02:57:42Z</time>
      </trkpt>
      <trkpt lat="46.07869" lon="4.4861">
        <ele>411</ele>
        <time>2022-08-28T02:57:46Z</time>
      </trkpt>
      <trkpt lat="46.07841" lon="4.48639">
        <ele>409</ele>
        <time>2022-08-28T02:57:52Z</time>
      </trkpt>
      <trkpt lat="46.07734" lon="4.48741">
        <ele>405</ele>
        <time>2022-08-28T02:58:15Z</time>
      </trkpt>
      <trkpt lat="46.07689" lon="4.48787">
        <ele>404</ele>
        <time>2022-08-28T02:58:24Z</time>
      </trkpt>
      <trkpt lat="46.07501" lon="4.48997">
        <ele>399</ele>
        <time>2022-08-28T02:59:07Z</time>
      </trkpt>
      <trkpt lat="46.07484" lon="4.49012">
        <ele>399</ele>
        <time>2022-08-28T02:59:10Z</time>
      </trkpt>
      <trkpt lat="46.07468" lon="4.49021">
        <ele>398</ele>
        <time>2022-08-28T02:59:13Z</time>
      </trkpt>
      <trkpt lat="46.07453" lon="4.49027">
        <ele>398</ele>
        <time>2022-08-28T02:59:16Z</time>
      </trkpt>
      <trkpt lat="46.07437" lon="4.49028">
        <ele>398</ele>
        <time>2022-08-28T02:59:19Z</time>
      </trkpt>
      <trkpt lat="46.07204" lon="4.49005">
        <ele>414</ele>
        <time>2022-08-28T03:00:01Z</time>
      </trkpt>
      <trkpt lat="46.07161" lon="4.49011">
        <ele>413</ele>
        <time>2022-08-28T03:00:08Z</time>
      </trkpt>
      <trkpt lat="46.07119" lon="4.49025">
        <ele>410</ele>
        <time>2022-08-28T03:00:16Z</time>
      </trkpt>
      <trkpt lat="46.06927" lon="4.4912">
        <ele>409</ele>
        <time>2022-08-28T03:00:52Z</time>
      </trkpt>
      <trkpt lat="46.06851" lon="4.49155">
        <ele>409</ele>
        <time>2022-08-28T03:01:06Z</time>
      </trkpt>
      <trkpt lat="46.06782" lon="4.49181">
        <ele>404</ele>
        <time>2022-08-28T03:01:19Z</time>
      </trkpt>
      <trkpt lat="46.06648" lon="4.4922">
        <ele>396</ele>
        <time>2022-08-28T03:01:43Z</time>
      </trkpt>
      <trkpt lat="46.06621" lon="4.49225">
        <ele>395</ele>
        <time>2022-08-28T03:01:48Z</time>
      </trkpt>
      <trkpt lat="46.06495" lon="4.49223">
        <ele>390</ele>
        <time>2022-08-28T03:02:11Z</time>
      </trkpt>
      <trkpt lat="46.0642" lon="4.49249">
        <ele>386</ele>
        <time>2022-08-28T03:02:24Z</time>
      </trkpt>
      <trkpt lat="46.06408" lon="4.49247">
        <ele>386</ele>
        <time>2022-08-28T03:02:26Z</time>
      </trkpt>
      <trkpt lat="46.06388" lon="4.49237">
        <ele>386</ele>
        <time>2022-08-28T03:02:30Z</time>
      </trkpt>
      <trkpt lat="46.06335" lon="4.49191">
        <ele>384</ele>
        <time>2022-08-28T03:02:41Z</time>
      </trkpt>
      <trkpt lat="46.06314" lon="4.49161">
        <ele>382</ele>
      </trkpt>
      <trkpt lat="46.063" lon="4.49116">
        <ele>381</ele>
      </trkpt>
      <trkpt lat="46.06274" lon="4.49029">
        <ele>382.3</ele>
      </trkpt>
      <trkpt lat="46.06259" lon="4.49006">
        <ele>384.4</ele>
      </trkpt>
      <trkpt lat="46.06224" lon="4.48998">
        <ele>384.3</ele>
      </trkpt>
      <trkpt lat="46.06167" lon="4.49003">
        <ele>382.6</ele>
      </trkpt>
      <trkpt lat="46.06119" lon="4.4899">
        <ele>382.3</ele>
      </trkpt>
      <trkpt lat="46.06019" lon="4.48968">
        <ele>381.4</ele>
      </trkpt>
      <trkpt lat="46.05979" lon="4.4897">
        <ele>382.2</ele>
      </trkpt>
      <trkpt lat="46.059" lon="4.49017">
        <ele>384.4</ele>
        <time>2022-08-28T03:03:53Z</time>
      </trkpt>
      <trkpt lat="46.05795" lon="4.49074">
        <ele>383.4</ele>
      </trkpt>
      <trkpt lat="46.05742" lon="4.49106">
        <ele>383.5</ele>
      </trkpt>
      <trkpt lat="46.05635" lon="4.4919">
        <ele>382.8</ele>
      </trkpt>
      <trkpt lat="46.05554" lon="4.49251">
        <ele>382.2</ele>
      </trkpt>
      <trkpt lat="46.05517" lon="4.49307">
        <ele>383.5</ele>
        <time>2022-08-28T03:05:35Z</time>
      </trkpt>
      <trkpt lat="46.05507" lon="4.49317">
        <ele>381</ele>
        <time>2022-08-28T03:05:37Z</time>
      </trkpt>
      <trkpt lat="46.05487" lon="4.49337">
        <ele>382</ele>
        <time>2022-08-28T03:05:41Z</time>
      </trkpt>
      <trkpt lat="46.05443" lon="4.49355">
        <ele>383</ele>
        <time>2022-08-28T03:05:49Z</time>
      </trkpt>
      <trkpt lat="46.05377" lon="4.49375">
        <ele>384</ele>
        <time>2022-08-28T03:06:01Z</time>
      </trkpt>
      <trkpt lat="46.05349" lon="4.49378">
        <ele>384</ele>
        <time>2022-08-28T03:06:06Z</time>
      </trkpt>
      <trkpt lat="46.05319" lon="4.49371">
        <ele>385</ele>
        <time>2022-08-28T03:06:11Z</time>
      </trkpt>
      <trkpt lat="46.05293" lon="4.4936">
        <ele>386</ele>
        <time>2022-08-28T03:06:16Z</time>
      </trkpt>
      <trkpt lat="46.05266" lon="4.49346">
        <ele>386</ele>
        <time>2022-08-28T03:06:21Z</time>
      </trkpt>
      <trkpt lat="46.0523" lon="4.49333">
        <ele>387</ele>
        <time>2022-08-28T03:06:28Z</time>
      </trkpt>
      <trkpt lat="46.05122" lon="4.49302">
        <ele>385</ele>
        <time>2022-08-28T03:06:48Z</time>
      </trkpt>
      <trkpt lat="46.05095" lon="4.49286">
        <ele>385</ele>
        <time>2022-08-28T03:06:53Z</time>
      </trkpt>
      <trkpt lat="46.05076" lon="4.49264">
        <ele>385</ele>
        <time>2022-08-28T03:06:57Z</time>
      </trkpt>
      <trkpt lat="46.05061" lon="4.49243">
        <ele>384</ele>
        <time>2022-08-28T03:07:01Z</time>
      </trkpt>
      <trkpt lat="46.05029" lon="4.49187">
        <ele>381</ele>
        <time>2022-08-28T03:07:10Z</time>
      </trkpt>
      <trkpt lat="46.04995" lon="4.4913">
        <ele>378</ele>
        <time>2022-08-28T03:07:19Z</time>
      </trkpt>
      <trkpt lat="46.04947" lon="4.49054">
        <ele>377</ele>
        <time>2022-08-28T03:07:32Z</time>
      </trkpt>
      <trkpt lat="46.04924" lon="4.49028">
        <ele>376</ele>
        <time>2022-08-28T03:07:37Z</time>
      </trkpt>
      <trkpt lat="46.04897" lon="4.49006">
        <ele>376</ele>
        <time>2022-08-28T03:07:42Z</time>
      </trkpt>
      <trkpt lat="46.04694" lon="4.48904">
        <ele>370</ele>
        <time>2022-08-28T03:08:21Z</time>
      </trkpt>
      <trkpt lat="46.04651" lon="4.48889">
        <ele>372</ele>
        <time>2022-08-28T03:08:29Z</time>
      </trkpt>
      <trkpt lat="46.04617" lon="4.48885">
        <ele>373</ele>
        <time>2022-08-28T03:08:35Z</time>
      </trkpt>
      <trkpt lat="46.04596" lon="4.48888">
        <ele>372</ele>
        <time>2022-08-28T03:08:38Z</time>
      </trkpt>
      <trkpt lat="46.04576" lon="4.48888">
        <ele>372</ele>
        <time>2022-08-28T03:08:42Z</time>
      </trkpt>
      <trkpt lat="46.0454" lon="4.48876">
        <ele>371</ele>
        <time>2022-08-28T03:08:49Z</time>
      </trkpt>
      <trkpt lat="46.04514" lon="4.48861">
        <ele>371</ele>
        <time>2022-08-28T03:08:53Z</time>
      </trkpt>
      <trkpt lat="46.04432" lon="4.4883">
        <ele>369</ele>
        <time>2022-08-28T03:09:09Z</time>
      </trkpt>
      <trkpt lat="46.04389" lon="4.48819">
        <ele>369</ele>
        <time>2022-08-28T03:09:16Z</time>
      </trkpt>
      <trkpt lat="46.04362" lon="4.48818">
        <ele>369</ele>
        <time>2022-08-28T03:09:21Z</time>
      </trkpt>
      <trkpt lat="46.04338" lon="4.48824">
        <ele>368</ele>
        <time>2022-08-28T03:09:25Z</time>
      </trkpt>
      <trkpt lat="46.0421" lon="4.48883">
        <ele>366</ele>
        <time>2022-08-28T03:09:49Z</time>
      </trkpt>
      <trkpt lat="46.04147" lon="4.48923">
        <ele>364</ele>
        <time>2022-08-28T03:10:02Z</time>
      </trkpt>
      <trkpt lat="46.04113" lon="4.4894">
        <ele>364</ele>
        <time>2022-08-28T03:10:08Z</time>
      </trkpt>
      <trkpt lat="46.0408" lon="4.4895">
        <ele>364</ele>
        <time>2022-08-28T03:10:14Z</time>
      </trkpt>
      <trkpt lat="46.03991" lon="4.48955">
        <ele>366</ele>
        <time>2022-08-28T03:10:30Z</time>
      </trkpt>
      <trkpt lat="46.03934" lon="4.48966">
        <ele>367</ele>
        <time>2022-08-28T03:10:40Z</time>
      </trkpt>
      <trkpt lat="46.03882" lon="4.48979">
        <ele>368</ele>
        <time>2022-08-28T03:10:50Z</time>
      </trkpt>
      <trkpt lat="46.03843" lon="4.49001">
        <ele>369</ele>
        <time>2022-08-28T03:10:57Z</time>
      </trkpt>
      <trkpt lat="46.03821" lon="4.49021">
        <ele>368</ele>
        <time>2022-08-28T03:11:02Z</time>
      </trkpt>
      <trkpt lat="46.03702" lon="4.49169">
        <ele>359</ele>
        <time>2022-08-28T03:11:30Z</time>
      </trkpt>
      <trkpt lat="46.03631" lon="4.49265">
        <ele>355</ele>
        <time>2022-08-28T03:11:47Z</time>
      </trkpt>
      <trkpt lat="46.0358" lon="4.49349">
        <ele>352</ele>
        <time>2022-08-28T03:12:01Z</time>
      </trkpt>
      <trkpt lat="46.0353" lon="4.49427">
        <ele>353</ele>
        <time>2022-08-28T03:12:14Z</time>
      </trkpt>
      <trkpt lat="46.0351" lon="4.49449">
        <ele>353</ele>
        <time>2022-08-28T03:12:18Z</time>
      </trkpt>
      <trkpt lat="46.03484" lon="4.49474">
        <ele>353</ele>
        <time>2022-08-28T03:12:24Z</time>
      </trkpt>
      <trkpt lat="46.0348" lon="4.49468">
        <ele>353</ele>
        <time>2022-08-28T03:12:25Z</time>
      </trkpt>
      <trkpt lat="46.03471" lon="4.4947">
        <ele>353</ele>
        <time>2022-08-28T03:12:26Z</time>
      </trkpt>
      <trkpt lat="46.03467" lon="4.4948">
        <ele>353</ele>
        <time>2022-08-28T03:12:28Z</time>
      </trkpt>
      <trkpt lat="46.03469" lon="4.49488">
        <ele>353</ele>
        <time>2022-08-28T03:12:29Z</time>
      </trkpt>
      <trkpt lat="46.03426" lon="4.49519">
        <ele>354</ele>
        <time>2022-08-28T03:12:38Z</time>
      </trkpt>
      <trkpt lat="46.03227" lon="4.49622">
        <ele>354</ele>
        <time>2022-08-28T03:13:15Z</time>
      </trkpt>
      <trkpt lat="46.0318" lon="4.49649">
        <ele>355</ele>
        <time>2022-08-28T03:13:24Z</time>
      </trkpt>
      <trkpt lat="46.03106" lon="4.49684">
        <ele>353</ele>
        <time>2022-08-28T03:13:38Z</time>
      </trkpt>
      <trkpt lat="46.02967" lon="4.49744">
        <ele>352</ele>
        <time>2022-08-28T03:14:04Z</time>
      </trkpt>
      <trkpt lat="46.02942" lon="4.4975">
        <ele>352</ele>
        <time>2022-08-28T03:14:08Z</time>
      </trkpt>
      <trkpt lat="46.02893" lon="4.49756">
        <ele>352</ele>
        <time>2022-08-28T03:14:17Z</time>
      </trkpt>
      <trkpt lat="46.02737" lon="4.49782">
        <ele>350</ele>
        <time>2022-08-28T03:14:45Z</time>
      </trkpt>
      <trkpt lat="46.02702" lon="4.49792">
        <ele>351</ele>
        <time>2022-08-28T03:14:51Z</time>
      </trkpt>
      <trkpt lat="46.0246" lon="4.49911">
        <ele>353</ele>
        <time>2022-08-28T03:15:37Z</time>
      </trkpt>
      <trkpt lat="46.02426" lon="4.49924">
        <ele>350</ele>
        <time>2022-08-28T03:15:43Z</time>
      </trkpt>
      <trkpt lat="46.02357" lon="4.4994">
        <ele>348</ele>
        <time>2022-08-28T03:15:56Z</time>
      </trkpt>
      <trkpt lat="46.02193" lon="4.49951">
        <ele>342</ele>
        <time>2022-08-28T03:16:25Z</time>
      </trkpt>
      <trkpt lat="46.02154" lon="4.49948">
        <ele>343</ele>
        <time>2022-08-28T03:16:32Z</time>
      </trkpt>
      <trkpt lat="46.02096" lon="4.49939">
        <ele>346</ele>
        <time>2022-08-28T03:16:42Z</time>
      </trkpt>
      <trkpt lat="46.02051" lon="4.49928">
        <ele>346</ele>
        <time>2022-08-28T03:16:50Z</time>
      </trkpt>
      <trkpt lat="46.01979" lon="4.49941">
        <ele>350</ele>
        <time>2022-08-28T03:17:03Z</time>
      </trkpt>
      <trkpt lat="46.0196" lon="4.49941">
        <ele>351</ele>
        <time>2022-08-28T03:17:07Z</time>
      </trkpt>
      <trkpt lat="46.01854" lon="4.49904">
        <ele>350</ele>
        <time>2022-08-28T03:17:26Z</time>
      </trkpt>
      <trkpt lat="46.01826" lon="4.49881">
        <ele>349</ele>
        <time>2022-08-28T03:17:32Z</time>
      </trkpt>
      <trkpt lat="46.01805" lon="4.49859">
        <ele>348</ele>
        <time>2022-08-28T03:17:36Z</time>
      </trkpt>
      <trkpt lat="46.01707" lon="4.49797">
        <ele>347</ele>
        <time>2022-08-28T03:17:55Z</time>
      </trkpt>
      <trkpt lat="46.01615" lon="4.49729">
        <ele>344</ele>
        <time>2022-08-28T03:18:14Z</time>
      </trkpt>
      <trkpt lat="46.01604" lon="4.49722">
        <ele>345</ele>
        <time>2022-08-28T03:18:16Z</time>
      </trkpt>
      <trkpt lat="46.01591" lon="4.49718">
        <ele>345</ele>
        <time>2022-08-28T03:18:18Z</time>
      </trkpt>
      <trkpt lat="46.01568" lon="4.49717">
        <ele>345</ele>
        <time>2022-08-28T03:18:22Z</time>
      </trkpt>
      <trkpt lat="46.01542" lon="4.49724">
        <ele>344</ele>
        <time>2022-08-28T03:18:27Z</time>
      </trkpt>
      <trkpt lat="46.01437" lon="4.49811">
        <ele>345</ele>
        <time>2022-08-28T03:18:49Z</time>
      </trkpt>
      <trkpt lat="46.01412" lon="4.49821">
        <ele>344</ele>
        <time>2022-08-28T03:18:53Z</time>
      </trkpt>
      <trkpt lat="46.01387" lon="4.49824">
        <ele>347</ele>
        <time>2022-08-28T03:18:58Z</time>
      </trkpt>
      <trkpt lat="46.01367" lon="4.49814">
        <ele>347</ele>
        <time>2022-08-28T03:19:01Z</time>
      </trkpt>
      <trkpt lat="46.01316" lon="4.49776">
        <ele>341</ele>
        <time>2022-08-28T03:19:12Z</time>
      </trkpt>
      <trkpt lat="46.01303" lon="4.49767">
        <ele>340</ele>
        <time>2022-08-28T03:19:14Z</time>
      </trkpt>
      <trkpt lat="46.01287" lon="4.4976">
        <ele>339</ele>
        <time>2022-08-28T03:19:17Z</time>
      </trkpt>
      <trkpt lat="46.01269" lon="4.49756">
        <ele>338</ele>
        <time>2022-08-28T03:19:20Z</time>
      </trkpt>
      <trkpt lat="46.01231" lon="4.49763">
        <ele>340</ele>
        <time>2022-08-28T03:19:27Z</time>
      </trkpt>
      <trkpt lat="46.01193" lon="4.49774">
        <ele>341</ele>
        <time>2022-08-28T03:19:34Z</time>
      </trkpt>
      <trkpt lat="46.01144" lon="4.49778">
        <ele>343</ele>
        <time>2022-08-28T03:19:43Z</time>
      </trkpt>
      <trkpt lat="46.01117" lon="4.49773">
        <ele>344</ele>
        <time>2022-08-28T03:19:48Z</time>
      </trkpt>
      <trkpt lat="46.01023" lon="4.49734">
        <ele>339</ele>
        <time>2022-08-28T03:20:05Z</time>
      </trkpt>
      <trkpt lat="46.00987" lon="4.49712">
        <ele>336</ele>
        <time>2022-08-28T03:20:12Z</time>
      </trkpt>
      <trkpt lat="46.0095" lon="4.49696">
        <ele>335</ele>
        <time>2022-08-28T03:20:19Z</time>
      </trkpt>
      <trkpt lat="46.00831" lon="4.49705">
        <ele>335</ele>
        <time>2022-08-28T03:20:40Z</time>
      </trkpt>
      <trkpt lat="46.00719" lon="4.49772">
        <ele>331</ele>
        <time>2022-08-28T03:21:02Z</time>
      </trkpt>
      <trkpt lat="46.007" lon="4.49777">
        <ele>331</ele>
        <time>2022-08-28T03:21:05Z</time>
      </trkpt>
      <trkpt lat="46.00653" lon="4.49783">
        <ele>330</ele>
        <time>2022-08-28T03:21:14Z</time>
      </trkpt>
      <trkpt lat="46.00598" lon="4.4977">
        <ele>327</ele>
        <time>2022-08-28T03:21:23Z</time>
      </trkpt>
      <trkpt lat="46.00544" lon="4.49746">
        <ele>329</ele>
        <time>2022-08-28T03:21:34Z</time>
      </trkpt>
      <trkpt lat="46.00484" lon="4.49705">
        <ele>333</ele>
        <time>2022-08-28T03:21:45Z</time>
      </trkpt>
      <trkpt lat="46.00444" lon="4.49686">
        <ele>334</ele>
        <time>2022-08-28T03:21:53Z</time>
      </trkpt>
      <trkpt lat="46.0041" lon="4.49679">
        <ele>335</ele>
        <time>2022-08-28T03:21:59Z</time>
      </trkpt>
      <trkpt lat="46.00255" lon="4.49694">
        <ele>332</ele>
        <time>2022-08-28T03:22:27Z</time>
      </trkpt>
      <trkpt lat="46.00206" lon="4.49706">
        <ele>331</ele>
        <time>2022-08-28T03:22:35Z</time>
      </trkpt>
      <trkpt lat="46.0016" lon="4.49732">
        <ele>328</ele>
        <time>2022-08-28T03:22:44Z</time>
      </trkpt>
      <trkpt lat="45.99953" lon="4.49881">
        <ele>331</ele>
        <time>2022-08-28T03:23:25Z</time>
      </trkpt>
      <trkpt lat="45.99908" lon="4.49911">
        <ele>332</ele>
        <time>2022-08-28T03:23:34Z</time>
      </trkpt>
      <trkpt lat="45.99887" lon="4.49922">
        <ele>333</ele>
        <time>2022-08-28T03:23:38Z</time>
      </trkpt>
      <trkpt lat="45.99861" lon="4.49932">
        <ele>333</ele>
        <time>2022-08-28T03:23:43Z</time>
      </trkpt>
      <trkpt lat="45.99843" lon="4.49935">
        <ele>332</ele>
        <time>2022-08-28T03:23:46Z</time>
      </trkpt>
      <trkpt lat="45.99814" lon="4.49936">
        <ele>331</ele>
        <time>2022-08-28T03:23:51Z</time>
      </trkpt>
      <trkpt lat="45.99792" lon="4.49934">
        <ele>329</ele>
        <time>2022-08-28T03:23:55Z</time>
      </trkpt>
      <trkpt lat="45.99743" lon="4.49921">
        <ele>325</ele>
        <time>2022-08-28T03:24:04Z</time>
      </trkpt>
      <trkpt lat="45.99722" lon="4.49921">
        <ele>324</ele>
        <time>2022-08-28T03:24:08Z</time>
      </trkpt>
      <trkpt lat="45.99707" lon="4.49924">
        <ele>324</ele>
        <time>2022-08-28T03:24:11Z</time>
      </trkpt>
      <trkpt lat="45.99692" lon="4.49931">
        <ele>325</ele>
        <time>2022-08-28T03:24:13Z</time>
      </trkpt>
      <trkpt lat="45.99665" lon="4.49945">
        <ele>326</ele>
        <time>2022-08-28T03:24:19Z</time>
      </trkpt>
      <trkpt lat="45.9961" lon="4.49981">
        <ele>327</ele>
        <time>2022-08-28T03:24:29Z</time>
      </trkpt>
      <trkpt lat="45.99582" lon="4.50007">
        <ele>324</ele>
        <time>2022-08-28T03:24:35Z</time>
      </trkpt>
      <trkpt lat="45.99547" lon="4.50053">
        <ele>327</ele>
        <time>2022-08-28T03:24:44Z</time>
      </trkpt>
      <trkpt lat="45.99475" lon="4.50172">
        <ele>333</ele>
        <time>2022-08-28T03:25:03Z</time>
      </trkpt>
      <trkpt lat="45.99449" lon="4.5021">
        <ele>334</ele>
        <time>2022-08-28T03:25:10Z</time>
      </trkpt>
      <trkpt lat="45.99378" lon="4.50292">
        <ele>333</ele>
        <time>2022-08-28T03:25:26Z</time>
      </trkpt>
      <trkpt lat="45.99348" lon="4.50321">
        <ele>330</ele>
        <time>2022-08-28T03:25:32Z</time>
      </trkpt>
      <trkpt lat="45.99314" lon="4.5035">
        <ele>329</ele>
        <time>2022-08-28T03:25:39Z</time>
      </trkpt>
      <trkpt lat="45.99292" lon="4.50363">
        <ele>330</ele>
        <time>2022-08-28T03:25:44Z</time>
      </trkpt>
      <trkpt lat="45.99274" lon="4.5037">
        <ele>330</ele>
        <time>2022-08-28T03:25:47Z</time>
      </trkpt>
      <trkpt lat="45.99253" lon="4.50375">
        <ele>329</ele>
        <time>2022-08-28T03:25:51Z</time>
      </trkpt>
      <trkpt lat="45.99166" lon="4.50392">
        <ele>331</ele>
        <time>2022-08-28T03:26:06Z</time>
      </trkpt>
      <trkpt lat="45.99133" lon="4.50395">
        <ele>331</ele>
        <time>2022-08-28T03:26:12Z</time>
      </trkpt>
      <trkpt lat="45.99106" lon="4.50394">
        <ele>331</ele>
        <time>2022-08-28T03:26:17Z</time>
      </trkpt>
      <trkpt lat="45.9907" lon="4.50388">
        <ele>332</ele>
        <time>2022-08-28T03:26:23Z</time>
      </trkpt>
      <trkpt lat="45.99047" lon="4.5038">
        <ele>333</ele>
        <time>2022-08-28T03:26:28Z</time>
      </trkpt>
      <trkpt lat="45.99031" lon="4.5037">
        <ele>333</ele>
        <time>2022-08-28T03:26:31Z</time>
      </trkpt>
      <trkpt lat="45.99017" lon="4.50356">
        <ele>331</ele>
        <time>2022-08-28T03:26:34Z</time>
      </trkpt>
      <trkpt lat="45.9901" lon="4.50346">
        <ele>330</ele>
        <time>2022-08-28T03:26:36Z</time>
      </trkpt>
      <trkpt lat="45.98992" lon="4.50307">
        <ele>326</ele>
        <time>2022-08-28T03:26:41Z</time>
      </trkpt>
      <trkpt lat="45.98971" lon="4.50255">
        <ele>322</ele>
        <time>2022-08-28T03:26:49Z</time>
      </trkpt>
      <trkpt lat="45.9895" lon="4.50228">
        <ele>321</ele>
        <time>2022-08-28T03:26:54Z</time>
      </trkpt>
      <trkpt lat="45.98935" lon="4.50218">
        <ele>320</ele>
        <time>2022-08-28T03:26:57Z</time>
      </trkpt>
      <trkpt lat="45.98916" lon="4.50213">
        <ele>320</ele>
        <time>2022-08-28T03:27:00Z</time>
      </trkpt>
      <trkpt lat="45.98906" lon="4.50213">
        <ele>319</ele>
        <time>2022-08-28T03:27:02Z</time>
      </trkpt>
      <trkpt lat="45.98871" lon="4.50219">
        <ele>319</ele>
        <time>2022-08-28T03:27:08Z</time>
      </trkpt>
      <trkpt lat="45.98828" lon="4.50231">
        <ele>319</ele>
        <time>2022-08-28T03:27:16Z</time>
      </trkpt>
      <trkpt lat="45.98814" lon="4.50237">
        <ele>318</ele>
        <time>2022-08-28T03:27:19Z</time>
      </trkpt>
      <trkpt lat="45.98793" lon="4.50254">
        <ele>318</ele>
        <time>2022-08-28T03:27:23Z</time>
      </trkpt>
      <trkpt lat="45.98777" lon="4.50273">
        <ele>317</ele>
        <time>2022-08-28T03:27:27Z</time>
      </trkpt>
      <trkpt lat="45.98761" lon="4.50301">
        <ele>316</ele>
        <time>2022-08-28T03:27:31Z</time>
      </trkpt>
      <trkpt lat="45.98748" lon="4.50338">
        <ele>316</ele>
        <time>2022-08-28T03:27:36Z</time>
      </trkpt>
      <trkpt lat="45.98742" lon="4.50388">
        <ele>318</ele>
        <time>2022-08-28T03:27:43Z</time>
      </trkpt>
      <trkpt lat="45.98735" lon="4.50467">
        <ele>319</ele>
        <time>2022-08-28T03:27:52Z</time>
      </trkpt>
      <trkpt lat="45.98726" lon="4.50507">
        <ele>319</ele>
        <time>2022-08-28T03:27:58Z</time>
      </trkpt>
      <trkpt lat="45.98713" lon="4.50535">
        <ele>320</ele>
        <time>2022-08-28T03:28:02Z</time>
      </trkpt>
      <trkpt lat="45.98705" lon="4.50549">
        <ele>320</ele>
        <time>2022-08-28T03:28:04Z</time>
      </trkpt>
      <trkpt lat="45.98693" lon="4.50564">
        <ele>319</ele>
        <time>2022-08-28T03:28:07Z</time>
      </trkpt>
      <trkpt lat="45.98662" lon="4.50598">
        <ele>319</ele>
        <time>2022-08-28T03:28:14Z</time>
      </trkpt>
      <trkpt lat="45.98645" lon="4.5062">
        <ele>321</ele>
        <time>2022-08-28T03:28:18Z</time>
      </trkpt>
      <trkpt lat="45.98639" lon="4.50632">
        <ele>321</ele>
        <time>2022-08-28T03:28:20Z</time>
      </trkpt>
      <trkpt lat="45.9863" lon="4.50655">
        <ele>321</ele>
        <time>2022-08-28T03:28:23Z</time>
      </trkpt>
      <trkpt lat="45.98625" lon="4.50677">
        <ele>321</ele>
        <time>2022-08-28T03:28:26Z</time>
      </trkpt>
      <trkpt lat="45.98615" lon="4.50743">
        <ele>320</ele>
        <time>2022-08-28T03:28:34Z</time>
      </trkpt>
      <trkpt lat="45.98581" lon="4.50845">
        <ele>318</ele>
        <time>2022-08-28T03:28:48Z</time>
      </trkpt>
      <trkpt lat="45.98561" lon="4.50899">
        <ele>320</ele>
        <time>2022-08-28T03:28:56Z</time>
      </trkpt>
      <trkpt lat="45.98538" lon="4.50936">
        <ele>321</ele>
        <time>2022-08-28T03:29:02Z</time>
      </trkpt>
      <trkpt lat="45.98508" lon="4.50968">
        <ele>321</ele>
        <time>2022-08-28T03:29:08Z</time>
      </trkpt>
      <trkpt lat="45.98488" lon="4.50977">
        <ele>321</ele>
        <time>2022-08-28T03:29:12Z</time>
      </trkpt>
      <trkpt lat="45.98465" lon="4.50976">
        <ele>322</ele>
        <time>2022-08-28T03:29:16Z</time>
      </trkpt>
      <trkpt lat="45.98448" lon="4.50966">
        <ele>321</ele>
        <time>2022-08-28T03:29:20Z</time>
      </trkpt>
      <trkpt lat="45.98433" lon="4.50948">
        <ele>318</ele>
        <time>2022-08-28T03:29:23Z</time>
      </trkpt>
      <trkpt lat="45.98417" lon="4.50915">
        <ele>313</ele>
        <time>2022-08-28T03:29:28Z</time>
      </trkpt>
      <trkpt lat="45.98405" lon="4.50899">
        <ele>313</ele>
        <time>2022-08-28T03:29:31Z</time>
      </trkpt>
      <trkpt lat="45.98391" lon="4.50887">
        <ele>312</ele>
        <time>2022-08-28T03:29:34Z</time>
      </trkpt>
      <trkpt lat="45.98373" lon="4.50882">
        <ele>313</ele>
        <time>2022-08-28T03:29:37Z</time>
      </trkpt>
      <trkpt lat="45.98356" lon="4.50879">
        <ele>313</ele>
        <time>2022-08-28T03:29:40Z</time>
      </trkpt>
      <trkpt lat="45.98306" lon="4.50886">
        <ele>315</ele>
        <time>2022-08-28T03:29:49Z</time>
      </trkpt>
      <trkpt lat="45.98287" lon="4.50886">
        <ele>315</ele>
        <time>2022-08-28T03:29:52Z</time>
      </trkpt>
      <trkpt lat="45.98265" lon="4.5088">
        <ele>314</ele>
        <time>2022-08-28T03:29:56Z</time>
      </trkpt>
      <trkpt lat="45.98267" lon="4.50876">
        <ele>313</ele>
        <time>2022-08-28T03:29:57Z</time>
      </trkpt>
    </trkseg>
  </trk>
</gpx>